<?xml version="1.0" encoding="UTF-8" standalone="no" ?>
<gpx xmlns="http://www.topografix.com/GPX/1/1" xmlns:xsi="http://www.w3.org/2001/XMLSchema-instance" xsi:schemaLocation="http://www.topografix.com/GPX/1/1 http://www.topografix.com/GPX/1/1/gpx.xsd" version="1.1" creator="VisuGPX - https://www.visugpx.com">
  <metadata>
    <name>Vallée des Avals et Lac Merlets</name>
    <desc><![CDATA[Attention cette rando a été faite à pied par mes soins en 2009 et sera faite le 2 juillet en VTT. Le départ se situe au lac de la Rosière , accessible en voiture. Nous emprunterons le sentier botanique jusqu\'a l\'entrée dans la vallées des avals. De là le circuit est très roulant jusqu\'au refuge de grand plan . Ensuite portage poussage jusqu\'au refuge des lacs Merlets puis un peu de poussage pour le lac sup etlors de la redescente mais super roulant quand meme. La description sera mise à jour dès le 5 juillet avec les données réelles. 
Proposé par : www.outdoor-diots.blogspot.com ]]></desc>
  </metadata>
  <trk>
    <name><![CDATA[Vallée des Avals et Lac Merlets_1]]></name>
    <trkseg>
      <trkpt lat="45.4109" lon="6.66709">
        <ele>1540.1694335938</ele>
        <time>2011-07-09T05:40:15Z</time>
      </trkpt>
      <trkpt lat="45.4109" lon="6.6671">
        <ele>1539.6887207031</ele>
        <time>2011-07-09T05:40:16Z</time>
      </trkpt>
      <trkpt lat="45.41091" lon="6.6671">
        <ele>1538.7275390625</ele>
        <time>2011-07-09T05:40:17Z</time>
      </trkpt>
      <trkpt lat="45.41091" lon="6.66708">
        <ele>1541.1306152344</ele>
        <time>2011-07-09T05:40:41Z</time>
      </trkpt>
      <trkpt lat="45.41092" lon="6.66704">
        <ele>1542.5727539062</ele>
        <time>2011-07-09T05:40:47Z</time>
      </trkpt>
      <trkpt lat="45.41092" lon="6.66705">
        <ele>1542.0920410156</ele>
        <time>2011-07-09T05:40:54Z</time>
      </trkpt>
      <trkpt lat="45.41092" lon="6.66705">
        <ele>1543.0532226562</ele>
        <time>2011-07-09T05:40:59Z</time>
      </trkpt>
      <trkpt lat="45.41094" lon="6.66707">
        <ele>1544.0146484375</ele>
        <time>2011-07-09T05:41:04Z</time>
      </trkpt>
      <trkpt lat="45.41096" lon="6.66708">
        <ele>1544.9758300781</ele>
        <time>2011-07-09T05:41:09Z</time>
      </trkpt>
      <trkpt lat="45.41097" lon="6.66709">
        <ele>1544.9758300781</ele>
        <time>2011-07-09T05:41:11Z</time>
      </trkpt>
      <trkpt lat="45.41102" lon="6.66709">
        <ele>1545.9372558594</ele>
        <time>2011-07-09T05:41:14Z</time>
      </trkpt>
      <trkpt lat="45.41104" lon="6.66708">
        <ele>1546.41796875</ele>
        <time>2011-07-09T05:41:15Z</time>
      </trkpt>
      <trkpt lat="45.41119" lon="6.66706">
        <ele>1548.8212890625</ele>
        <time>2011-07-09T05:41:23Z</time>
      </trkpt>
      <trkpt lat="45.41133" lon="6.66701">
        <ele>1549.3020019531</ele>
        <time>2011-07-09T05:41:30Z</time>
      </trkpt>
      <trkpt lat="45.41143" lon="6.66698">
        <ele>1548.3405761719</ele>
        <time>2011-07-09T05:41:38Z</time>
      </trkpt>
      <trkpt lat="45.41143" lon="6.66695">
        <ele>1548.8212890625</ele>
        <time>2011-07-09T05:41:43Z</time>
      </trkpt>
      <trkpt lat="45.41142" lon="6.66697">
        <ele>1549.7827148438</ele>
        <time>2011-07-09T05:41:49Z</time>
      </trkpt>
      <trkpt lat="45.41135" lon="6.667">
        <ele>1550.2634277344</ele>
        <time>2011-07-09T05:41:55Z</time>
      </trkpt>
      <trkpt lat="45.41119" lon="6.66704">
        <ele>1548.8212890625</ele>
        <time>2011-07-09T05:42:01Z</time>
      </trkpt>
      <trkpt lat="45.41118" lon="6.66705">
        <ele>1548.8212890625</ele>
        <time>2011-07-09T05:42:06Z</time>
      </trkpt>
      <trkpt lat="45.41111" lon="6.66706">
        <ele>1547.8598632812</ele>
        <time>2011-07-09T05:42:10Z</time>
      </trkpt>
      <trkpt lat="45.411" lon="6.6671">
        <ele>1545.4565429688</ele>
        <time>2011-07-09T05:42:15Z</time>
      </trkpt>
      <trkpt lat="45.41084" lon="6.66708">
        <ele>1544.9758300781</ele>
        <time>2011-07-09T05:42:20Z</time>
      </trkpt>
      <trkpt lat="45.41069" lon="6.66705">
        <ele>1544.4951171875</ele>
        <time>2011-07-09T05:42:24Z</time>
      </trkpt>
      <trkpt lat="45.41065" lon="6.66705">
        <ele>1543.5339355469</ele>
        <time>2011-07-09T05:42:27Z</time>
      </trkpt>
      <trkpt lat="45.41058" lon="6.66705">
        <ele>1543.0532226562</ele>
        <time>2011-07-09T05:42:30Z</time>
      </trkpt>
      <trkpt lat="45.41055" lon="6.66705">
        <ele>1542.5727539062</ele>
        <time>2011-07-09T05:42:31Z</time>
      </trkpt>
      <trkpt lat="45.41031" lon="6.66706">
        <ele>1541.1306152344</ele>
        <time>2011-07-09T05:42:38Z</time>
      </trkpt>
      <trkpt lat="45.41006" lon="6.66705">
        <ele>1538.7275390625</ele>
        <time>2011-07-09T05:42:43Z</time>
      </trkpt>
      <trkpt lat="45.41" lon="6.66705">
        <ele>1538.7275390625</ele>
        <time>2011-07-09T05:42:44Z</time>
      </trkpt>
      <trkpt lat="45.40985" lon="6.66708">
        <ele>1537.7661132812</ele>
        <time>2011-07-09T05:42:47Z</time>
      </trkpt>
      <trkpt lat="45.40974" lon="6.66715">
        <ele>1536.8046875</ele>
        <time>2011-07-09T05:42:50Z</time>
      </trkpt>
      <trkpt lat="45.40955" lon="6.66728">
        <ele>1537.2854003906</ele>
        <time>2011-07-09T05:42:58Z</time>
      </trkpt>
      <trkpt lat="45.4095" lon="6.66732">
        <ele>1537.2854003906</ele>
        <time>2011-07-09T05:43:01Z</time>
      </trkpt>
      <trkpt lat="45.40933" lon="6.66746">
        <ele>1537.2854003906</ele>
        <time>2011-07-09T05:43:09Z</time>
      </trkpt>
      <trkpt lat="45.40922" lon="6.66757">
        <ele>1537.7661132812</ele>
        <time>2011-07-09T05:43:15Z</time>
      </trkpt>
      <trkpt lat="45.40919" lon="6.66763">
        <ele>1537.7661132812</ele>
        <time>2011-07-09T05:43:18Z</time>
      </trkpt>
      <trkpt lat="45.40917" lon="6.66768">
        <ele>1537.2854003906</ele>
        <time>2011-07-09T05:43:20Z</time>
      </trkpt>
      <trkpt lat="45.40915" lon="6.66773">
        <ele>1537.2854003906</ele>
        <time>2011-07-09T05:43:22Z</time>
      </trkpt>
      <trkpt lat="45.40912" lon="6.66781">
        <ele>1538.2468261719</ele>
        <time>2011-07-09T05:43:26Z</time>
      </trkpt>
      <trkpt lat="45.40907" lon="6.66799">
        <ele>1540.1694335938</ele>
        <time>2011-07-09T05:43:34Z</time>
      </trkpt>
      <trkpt lat="45.40899" lon="6.6681">
        <ele>1541.611328125</ele>
        <time>2011-07-09T05:43:41Z</time>
      </trkpt>
      <trkpt lat="45.40891" lon="6.66815">
        <ele>1542.0920410156</ele>
        <time>2011-07-09T05:43:47Z</time>
      </trkpt>
      <trkpt lat="45.4088" lon="6.66837">
        <ele>1535.8435058594</ele>
        <time>2011-07-09T05:43:56Z</time>
      </trkpt>
      <trkpt lat="45.40874" lon="6.66858">
        <ele>1536.32421875</ele>
        <time>2011-07-09T05:44:02Z</time>
      </trkpt>
      <trkpt lat="45.40869" lon="6.66879">
        <ele>1535.3627929688</ele>
        <time>2011-07-09T05:44:08Z</time>
      </trkpt>
      <trkpt lat="45.40861" lon="6.66897">
        <ele>1537.2854003906</ele>
        <time>2011-07-09T05:44:14Z</time>
      </trkpt>
      <trkpt lat="45.40852" lon="6.66918">
        <ele>1537.7661132812</ele>
        <time>2011-07-09T05:44:21Z</time>
      </trkpt>
      <trkpt lat="45.40844" lon="6.66928">
        <ele>1540.1694335938</ele>
        <time>2011-07-09T05:44:25Z</time>
      </trkpt>
      <trkpt lat="45.40832" lon="6.66943">
        <ele>1539.6887207031</ele>
        <time>2011-07-09T05:44:32Z</time>
      </trkpt>
      <trkpt lat="45.40821" lon="6.6696">
        <ele>1542.0920410156</ele>
        <time>2011-07-09T05:44:38Z</time>
      </trkpt>
      <trkpt lat="45.40814" lon="6.66968">
        <ele>1541.611328125</ele>
        <time>2011-07-09T05:44:43Z</time>
      </trkpt>
      <trkpt lat="45.40801" lon="6.66985">
        <ele>1542.5727539062</ele>
        <time>2011-07-09T05:44:51Z</time>
      </trkpt>
      <trkpt lat="45.40791" lon="6.66993">
        <ele>1543.0532226562</ele>
        <time>2011-07-09T05:44:57Z</time>
      </trkpt>
      <trkpt lat="45.40779" lon="6.67006">
        <ele>1547.3791503906</ele>
        <time>2011-07-09T05:45:03Z</time>
      </trkpt>
      <trkpt lat="45.40774" lon="6.67022">
        <ele>1548.8212890625</ele>
        <time>2011-07-09T05:45:08Z</time>
      </trkpt>
      <trkpt lat="45.40772" lon="6.67035">
        <ele>1547.8598632812</ele>
        <time>2011-07-09T05:45:12Z</time>
      </trkpt>
      <trkpt lat="45.40768" lon="6.67048">
        <ele>1551.7053222656</ele>
        <time>2011-07-09T05:45:17Z</time>
      </trkpt>
      <trkpt lat="45.40767" lon="6.6706">
        <ele>1554.5891113281</ele>
        <time>2011-07-09T05:45:22Z</time>
      </trkpt>
      <trkpt lat="45.40766" lon="6.67064">
        <ele>1556.0310058594</ele>
        <time>2011-07-09T05:45:24Z</time>
      </trkpt>
      <trkpt lat="45.40767" lon="6.67073">
        <ele>1556.51171875</ele>
        <time>2011-07-09T05:45:28Z</time>
      </trkpt>
      <trkpt lat="45.40764" lon="6.67094">
        <ele>1553.1472167969</ele>
        <time>2011-07-09T05:45:34Z</time>
      </trkpt>
      <trkpt lat="45.40756" lon="6.67106">
        <ele>1554.1086425781</ele>
        <time>2011-07-09T05:45:38Z</time>
      </trkpt>
      <trkpt lat="45.40742" lon="6.67109">
        <ele>1555.5505371094</ele>
        <time>2011-07-09T05:45:43Z</time>
      </trkpt>
      <trkpt lat="45.40734" lon="6.67117">
        <ele>1552.6665039062</ele>
        <time>2011-07-09T05:45:48Z</time>
      </trkpt>
      <trkpt lat="45.40723" lon="6.67125">
        <ele>1550.2634277344</ele>
        <time>2011-07-09T05:45:54Z</time>
      </trkpt>
      <trkpt lat="45.40708" lon="6.67129">
        <ele>1549.7827148438</ele>
        <time>2011-07-09T05:46:00Z</time>
      </trkpt>
      <trkpt lat="45.40693" lon="6.67137">
        <ele>1553.6279296875</ele>
        <time>2011-07-09T05:46:06Z</time>
      </trkpt>
      <trkpt lat="45.40682" lon="6.67141">
        <ele>1554.1086425781</ele>
        <time>2011-07-09T05:46:11Z</time>
      </trkpt>
      <trkpt lat="45.40667" lon="6.67147">
        <ele>1554.1086425781</ele>
        <time>2011-07-09T05:46:18Z</time>
      </trkpt>
      <trkpt lat="45.4066" lon="6.6715">
        <ele>1557.4731445312</ele>
        <time>2011-07-09T05:46:23Z</time>
      </trkpt>
      <trkpt lat="45.40659" lon="6.67148">
        <ele>1562.7602539062</ele>
        <time>2011-07-09T05:46:34Z</time>
      </trkpt>
      <trkpt lat="45.40658" lon="6.67148">
        <ele>1563.2409667969</ele>
        <time>2011-07-09T05:46:37Z</time>
      </trkpt>
      <trkpt lat="45.4066" lon="6.6715">
        <ele>1567.5668945312</ele>
        <time>2011-07-09T05:46:46Z</time>
      </trkpt>
      <trkpt lat="45.40656" lon="6.67154">
        <ele>1563.2409667969</ele>
        <time>2011-07-09T05:46:59Z</time>
      </trkpt>
      <trkpt lat="45.40654" lon="6.67155">
        <ele>1565.1638183594</ele>
        <time>2011-07-09T05:47:04Z</time>
      </trkpt>
      <trkpt lat="45.40653" lon="6.67153">
        <ele>1559.8762207031</ele>
        <time>2011-07-09T05:47:12Z</time>
      </trkpt>
      <trkpt lat="45.40654" lon="6.6715">
        <ele>1562.2795410156</ele>
        <time>2011-07-09T05:47:16Z</time>
      </trkpt>
      <trkpt lat="45.40659" lon="6.67149">
        <ele>1563.7214355469</ele>
        <time>2011-07-09T05:47:24Z</time>
      </trkpt>
      <trkpt lat="45.40655" lon="6.67153">
        <ele>1564.2023925781</ele>
        <time>2011-07-09T05:47:28Z</time>
      </trkpt>
      <trkpt lat="45.40646" lon="6.67168">
        <ele>1563.2409667969</ele>
        <time>2011-07-09T05:47:33Z</time>
      </trkpt>
      <trkpt lat="45.40638" lon="6.67182">
        <ele>1562.2795410156</ele>
        <time>2011-07-09T05:47:38Z</time>
      </trkpt>
      <trkpt lat="45.40626" lon="6.67197">
        <ele>1560.3569335938</ele>
        <time>2011-07-09T05:47:44Z</time>
      </trkpt>
      <trkpt lat="45.40617" lon="6.67222">
        <ele>1559.8762207031</ele>
        <time>2011-07-09T05:47:51Z</time>
      </trkpt>
      <trkpt lat="45.40611" lon="6.67234">
        <ele>1562.2795410156</ele>
        <time>2011-07-09T05:47:55Z</time>
      </trkpt>
      <trkpt lat="45.40598" lon="6.67251">
        <ele>1564.2023925781</ele>
        <time>2011-07-09T05:48:02Z</time>
      </trkpt>
      <trkpt lat="45.4059" lon="6.67263">
        <ele>1566.125</ele>
        <time>2011-07-09T05:48:07Z</time>
      </trkpt>
      <trkpt lat="45.40583" lon="6.67276">
        <ele>1567.0864257812</ele>
        <time>2011-07-09T05:48:12Z</time>
      </trkpt>
      <trkpt lat="45.4058" lon="6.67292">
        <ele>1568.0476074219</ele>
        <time>2011-07-09T05:48:17Z</time>
      </trkpt>
      <trkpt lat="45.40578" lon="6.67301">
        <ele>1569.9702148438</ele>
        <time>2011-07-09T05:48:21Z</time>
      </trkpt>
      <trkpt lat="45.40573" lon="6.67315">
        <ele>1569.0090332031</ele>
        <time>2011-07-09T05:48:28Z</time>
      </trkpt>
      <trkpt lat="45.40569" lon="6.6733">
        <ele>1568.5283203125</ele>
        <time>2011-07-09T05:48:34Z</time>
      </trkpt>
      <trkpt lat="45.40566" lon="6.67341">
        <ele>1569.0090332031</ele>
        <time>2011-07-09T05:48:39Z</time>
      </trkpt>
      <trkpt lat="45.40564" lon="6.67352">
        <ele>1569.4897460938</ele>
        <time>2011-07-09T05:48:44Z</time>
      </trkpt>
      <trkpt lat="45.40563" lon="6.67364">
        <ele>1572.3735351562</ele>
        <time>2011-07-09T05:48:49Z</time>
      </trkpt>
      <trkpt lat="45.40556" lon="6.67373">
        <ele>1574.7768554688</ele>
        <time>2011-07-09T05:48:54Z</time>
      </trkpt>
      <trkpt lat="45.40543" lon="6.67372">
        <ele>1573.8154296875</ele>
        <time>2011-07-09T05:49:01Z</time>
      </trkpt>
      <trkpt lat="45.40526" lon="6.67378">
        <ele>1573.3349609375</ele>
        <time>2011-07-09T05:49:06Z</time>
      </trkpt>
      <trkpt lat="45.40524" lon="6.67381">
        <ele>1572.8542480469</ele>
        <time>2011-07-09T05:49:07Z</time>
      </trkpt>
      <trkpt lat="45.40513" lon="6.67396">
        <ele>1574.2961425781</ele>
        <time>2011-07-09T05:49:14Z</time>
      </trkpt>
      <trkpt lat="45.40502" lon="6.67413">
        <ele>1571.412109375</ele>
        <time>2011-07-09T05:49:22Z</time>
      </trkpt>
      <trkpt lat="45.40493" lon="6.67433">
        <ele>1569.9702148438</ele>
        <time>2011-07-09T05:49:30Z</time>
      </trkpt>
      <trkpt lat="45.40492" lon="6.67449">
        <ele>1578.1413574219</ele>
        <time>2011-07-09T05:49:37Z</time>
      </trkpt>
      <trkpt lat="45.40488" lon="6.67461">
        <ele>1577.1801757812</ele>
        <time>2011-07-09T05:49:42Z</time>
      </trkpt>
      <trkpt lat="45.4048" lon="6.67467">
        <ele>1576.6994628906</ele>
        <time>2011-07-09T05:49:47Z</time>
      </trkpt>
      <trkpt lat="45.40466" lon="6.67465">
        <ele>1578.1413574219</ele>
        <time>2011-07-09T05:49:53Z</time>
      </trkpt>
      <trkpt lat="45.40454" lon="6.67465">
        <ele>1577.6606445312</ele>
        <time>2011-07-09T05:49:58Z</time>
      </trkpt>
      <trkpt lat="45.40445" lon="6.67471">
        <ele>1579.1025390625</ele>
        <time>2011-07-09T05:50:03Z</time>
      </trkpt>
      <trkpt lat="45.40436" lon="6.67482">
        <ele>1581.5061035156</ele>
        <time>2011-07-09T05:50:09Z</time>
      </trkpt>
      <trkpt lat="45.40428" lon="6.67494">
        <ele>1582.9479980469</ele>
        <time>2011-07-09T05:50:15Z</time>
      </trkpt>
      <trkpt lat="45.40417" lon="6.67508">
        <ele>1582.9479980469</ele>
        <time>2011-07-09T05:50:23Z</time>
      </trkpt>
      <trkpt lat="45.40411" lon="6.67515">
        <ele>1583.9094238281</ele>
        <time>2011-07-09T05:50:28Z</time>
      </trkpt>
      <trkpt lat="45.40406" lon="6.6752">
        <ele>1581.9868164062</ele>
        <time>2011-07-09T05:50:34Z</time>
      </trkpt>
      <trkpt lat="45.40405" lon="6.6752">
        <ele>1584.8708496094</ele>
        <time>2011-07-09T05:50:39Z</time>
      </trkpt>
      <trkpt lat="45.40409" lon="6.67515">
        <ele>1588.7160644531</ele>
        <time>2011-07-09T05:50:43Z</time>
      </trkpt>
      <trkpt lat="45.40408" lon="6.67519">
        <ele>1591.119140625</ele>
        <time>2011-07-09T05:50:51Z</time>
      </trkpt>
      <trkpt lat="45.40407" lon="6.67524">
        <ele>1598.3291015625</ele>
        <time>2011-07-09T05:51:02Z</time>
      </trkpt>
      <trkpt lat="45.40408" lon="6.67525">
        <ele>1603.6164550781</ele>
        <time>2011-07-09T05:51:08Z</time>
      </trkpt>
      <trkpt lat="45.40409" lon="6.67524">
        <ele>1604.0971679688</ele>
        <time>2011-07-09T05:51:12Z</time>
      </trkpt>
      <trkpt lat="45.4041" lon="6.67523">
        <ele>1604.0971679688</ele>
        <time>2011-07-09T05:51:14Z</time>
      </trkpt>
      <trkpt lat="45.40411" lon="6.67523">
        <ele>1605.0583496094</ele>
        <time>2011-07-09T05:51:15Z</time>
      </trkpt>
      <trkpt lat="45.40417" lon="6.67516">
        <ele>1607.9423828125</ele>
        <time>2011-07-09T05:51:31Z</time>
      </trkpt>
      <trkpt lat="45.40412" lon="6.67515">
        <ele>1603.1357421875</ele>
        <time>2011-07-09T05:51:40Z</time>
      </trkpt>
      <trkpt lat="45.40411" lon="6.67515">
        <ele>1603.1357421875</ele>
        <time>2011-07-09T05:51:44Z</time>
      </trkpt>
      <trkpt lat="45.4041" lon="6.67515">
        <ele>1599.7712402344</ele>
        <time>2011-07-09T05:51:49Z</time>
      </trkpt>
      <trkpt lat="45.40407" lon="6.67516">
        <ele>1598.3291015625</ele>
        <time>2011-07-09T05:51:51Z</time>
      </trkpt>
      <trkpt lat="45.40404" lon="6.67527">
        <ele>1594.0031738281</ele>
        <time>2011-07-09T05:51:55Z</time>
      </trkpt>
      <trkpt lat="45.40401" lon="6.67542">
        <ele>1592.0805664062</ele>
        <time>2011-07-09T05:52:01Z</time>
      </trkpt>
      <trkpt lat="45.40398" lon="6.67553">
        <ele>1590.6384277344</ele>
        <time>2011-07-09T05:52:05Z</time>
      </trkpt>
      <trkpt lat="45.40394" lon="6.67568">
        <ele>1589.1965332031</ele>
        <time>2011-07-09T05:52:11Z</time>
      </trkpt>
      <trkpt lat="45.40392" lon="6.67575">
        <ele>1588.7160644531</ele>
        <time>2011-07-09T05:52:14Z</time>
      </trkpt>
      <trkpt lat="45.40387" lon="6.67589">
        <ele>1592.0805664062</ele>
        <time>2011-07-09T05:52:20Z</time>
      </trkpt>
      <trkpt lat="45.40384" lon="6.67597">
        <ele>1593.0417480469</ele>
        <time>2011-07-09T05:52:23Z</time>
      </trkpt>
      <trkpt lat="45.40379" lon="6.67611">
        <ele>1591.119140625</ele>
        <time>2011-07-09T05:52:30Z</time>
      </trkpt>
      <trkpt lat="45.40368" lon="6.67624">
        <ele>1592.5612792969</ele>
        <time>2011-07-09T05:52:37Z</time>
      </trkpt>
      <trkpt lat="45.40359" lon="6.67633">
        <ele>1594.4836425781</ele>
        <time>2011-07-09T05:52:43Z</time>
      </trkpt>
      <trkpt lat="45.40354" lon="6.67638">
        <ele>1595.4450683594</ele>
        <time>2011-07-09T05:52:47Z</time>
      </trkpt>
      <trkpt lat="45.40346" lon="6.67646">
        <ele>1595.4450683594</ele>
        <time>2011-07-09T05:52:53Z</time>
      </trkpt>
      <trkpt lat="45.40339" lon="6.67657">
        <ele>1598.3291015625</ele>
        <time>2011-07-09T05:52:59Z</time>
      </trkpt>
      <trkpt lat="45.40331" lon="6.6767">
        <ele>1600.251953125</ele>
        <time>2011-07-09T05:53:06Z</time>
      </trkpt>
      <trkpt lat="45.40329" lon="6.67671">
        <ele>1600.732421875</ele>
        <time>2011-07-09T05:53:07Z</time>
      </trkpt>
      <trkpt lat="45.4032" lon="6.67674">
        <ele>1599.7712402344</ele>
        <time>2011-07-09T05:53:13Z</time>
      </trkpt>
      <trkpt lat="45.40311" lon="6.67684">
        <ele>1598.3291015625</ele>
        <time>2011-07-09T05:53:21Z</time>
      </trkpt>
      <trkpt lat="45.40301" lon="6.67692">
        <ele>1604.0971679688</ele>
        <time>2011-07-09T05:53:28Z</time>
      </trkpt>
      <trkpt lat="45.40301" lon="6.67694">
        <ele>1604.0971679688</ele>
        <time>2011-07-09T05:53:29Z</time>
      </trkpt>
      <trkpt lat="45.40293" lon="6.67703">
        <ele>1604.5776367188</ele>
        <time>2011-07-09T05:53:36Z</time>
      </trkpt>
      <trkpt lat="45.40287" lon="6.6771">
        <ele>1606.01953125</ele>
        <time>2011-07-09T05:53:41Z</time>
      </trkpt>
      <trkpt lat="45.40282" lon="6.67709">
        <ele>1608.4228515625</ele>
        <time>2011-07-09T05:53:44Z</time>
      </trkpt>
      <trkpt lat="45.40271" lon="6.67708">
        <ele>1609.8647460938</ele>
        <time>2011-07-09T05:53:52Z</time>
      </trkpt>
      <trkpt lat="45.40261" lon="6.67709">
        <ele>1609.8647460938</ele>
        <time>2011-07-09T05:53:59Z</time>
      </trkpt>
      <trkpt lat="45.40249" lon="6.67709">
        <ele>1613.2297363281</ele>
        <time>2011-07-09T05:54:07Z</time>
      </trkpt>
      <trkpt lat="45.40245" lon="6.67709">
        <ele>1613.7102050781</ele>
        <time>2011-07-09T05:54:10Z</time>
      </trkpt>
      <trkpt lat="45.40241" lon="6.67708">
        <ele>1613.2297363281</ele>
        <time>2011-07-09T05:54:13Z</time>
      </trkpt>
      <trkpt lat="45.40234" lon="6.67711">
        <ele>1615.6330566406</ele>
        <time>2011-07-09T05:54:19Z</time>
      </trkpt>
      <trkpt lat="45.40228" lon="6.67723">
        <ele>1613.2297363281</ele>
        <time>2011-07-09T05:54:26Z</time>
      </trkpt>
      <trkpt lat="45.40221" lon="6.67734">
        <ele>1613.2297363281</ele>
        <time>2011-07-09T05:54:33Z</time>
      </trkpt>
      <trkpt lat="45.40215" lon="6.67739">
        <ele>1615.15234375</ele>
        <time>2011-07-09T05:54:38Z</time>
      </trkpt>
      <trkpt lat="45.40202" lon="6.67741">
        <ele>1615.6330566406</ele>
        <time>2011-07-09T05:54:46Z</time>
      </trkpt>
      <trkpt lat="45.4019" lon="6.67747">
        <ele>1615.15234375</ele>
        <time>2011-07-09T05:54:54Z</time>
      </trkpt>
      <trkpt lat="45.40177" lon="6.67749">
        <ele>1619.4782714844</ele>
        <time>2011-07-09T05:55:01Z</time>
      </trkpt>
      <trkpt lat="45.40164" lon="6.67746">
        <ele>1621.8813476562</ele>
        <time>2011-07-09T05:55:09Z</time>
      </trkpt>
      <trkpt lat="45.40163" lon="6.67748">
        <ele>1620.439453125</ele>
        <time>2011-07-09T05:55:17Z</time>
      </trkpt>
      <trkpt lat="45.40165" lon="6.6775">
        <ele>1616.1135253906</ele>
        <time>2011-07-09T05:55:30Z</time>
      </trkpt>
      <trkpt lat="45.40165" lon="6.6775">
        <ele>1613.7102050781</ele>
        <time>2011-07-09T05:55:37Z</time>
      </trkpt>
      <trkpt lat="45.40165" lon="6.67751">
        <ele>1613.2297363281</ele>
        <time>2011-07-09T05:55:39Z</time>
      </trkpt>
      <trkpt lat="45.40165" lon="6.67751">
        <ele>1613.2297363281</ele>
        <time>2011-07-09T05:55:41Z</time>
      </trkpt>
      <trkpt lat="45.40165" lon="6.67751">
        <ele>1613.2297363281</ele>
        <time>2011-07-09T05:55:42Z</time>
      </trkpt>
      <trkpt lat="45.40165" lon="6.67751">
        <ele>1615.15234375</ele>
        <time>2011-07-09T05:55:47Z</time>
      </trkpt>
      <trkpt lat="45.40163" lon="6.67748">
        <ele>1621.8813476562</ele>
        <time>2011-07-09T05:55:54Z</time>
      </trkpt>
      <trkpt lat="45.40163" lon="6.67747">
        <ele>1621.8813476562</ele>
        <time>2011-07-09T05:56:01Z</time>
      </trkpt>
      <trkpt lat="45.40157" lon="6.6775">
        <ele>1618.5168457031</ele>
        <time>2011-07-09T05:56:07Z</time>
      </trkpt>
      <trkpt lat="45.40152" lon="6.67751">
        <ele>1617.0749511719</ele>
        <time>2011-07-09T05:56:11Z</time>
      </trkpt>
      <trkpt lat="45.40141" lon="6.67753">
        <ele>1617.0749511719</ele>
        <time>2011-07-09T05:56:18Z</time>
      </trkpt>
      <trkpt lat="45.40135" lon="6.6775">
        <ele>1619.9587402344</ele>
        <time>2011-07-09T05:56:23Z</time>
      </trkpt>
      <trkpt lat="45.4013" lon="6.6775">
        <ele>1620.439453125</ele>
        <time>2011-07-09T05:56:27Z</time>
      </trkpt>
      <trkpt lat="45.40126" lon="6.67754">
        <ele>1621.4006347656</ele>
        <time>2011-07-09T05:56:30Z</time>
      </trkpt>
      <trkpt lat="45.40124" lon="6.67761">
        <ele>1622.8427734375</ele>
        <time>2011-07-09T05:56:34Z</time>
      </trkpt>
      <trkpt lat="45.40122" lon="6.6777">
        <ele>1624.2846679688</ele>
        <time>2011-07-09T05:56:39Z</time>
      </trkpt>
      <trkpt lat="45.40117" lon="6.67781">
        <ele>1626.6879882812</ele>
        <time>2011-07-09T05:56:45Z</time>
      </trkpt>
      <trkpt lat="45.40117" lon="6.67782">
        <ele>1629.5720214844</ele>
        <time>2011-07-09T05:56:57Z</time>
      </trkpt>
      <trkpt lat="45.40116" lon="6.67782">
        <ele>1634.859375</ele>
        <time>2011-07-09T05:57:11Z</time>
      </trkpt>
      <trkpt lat="45.40115" lon="6.67783">
        <ele>1633.4172363281</ele>
        <time>2011-07-09T05:57:19Z</time>
      </trkpt>
      <trkpt lat="45.40114" lon="6.67783">
        <ele>1632.9365234375</ele>
        <time>2011-07-09T05:57:22Z</time>
      </trkpt>
      <trkpt lat="45.40112" lon="6.67785">
        <ele>1631.9753417969</ele>
        <time>2011-07-09T05:57:25Z</time>
      </trkpt>
      <trkpt lat="45.40112" lon="6.67785">
        <ele>1630.052734375</ele>
        <time>2011-07-09T05:57:29Z</time>
      </trkpt>
      <trkpt lat="45.4011" lon="6.67785">
        <ele>1629.0913085938</ele>
        <time>2011-07-09T05:57:31Z</time>
      </trkpt>
      <trkpt lat="45.40097" lon="6.67787">
        <ele>1629.0913085938</ele>
        <time>2011-07-09T05:57:38Z</time>
      </trkpt>
      <trkpt lat="45.40085" lon="6.67788">
        <ele>1630.5334472656</ele>
        <time>2011-07-09T05:57:43Z</time>
      </trkpt>
      <trkpt lat="45.40076" lon="6.67785">
        <ele>1634.3786621094</ele>
        <time>2011-07-09T05:57:50Z</time>
      </trkpt>
      <trkpt lat="45.40068" lon="6.67773">
        <ele>1638.7045898438</ele>
        <time>2011-07-09T05:57:56Z</time>
      </trkpt>
      <trkpt lat="45.40064" lon="6.67767">
        <ele>1638.2238769531</ele>
        <time>2011-07-09T05:57:59Z</time>
      </trkpt>
      <trkpt lat="45.40059" lon="6.67762">
        <ele>1638.2238769531</ele>
        <time>2011-07-09T05:58:03Z</time>
      </trkpt>
      <trkpt lat="45.40059" lon="6.6776">
        <ele>1639.6657714844</ele>
        <time>2011-07-09T05:58:06Z</time>
      </trkpt>
      <trkpt lat="45.40056" lon="6.67757">
        <ele>1641.5883789062</ele>
        <time>2011-07-09T05:58:10Z</time>
      </trkpt>
      <trkpt lat="45.40049" lon="6.67755">
        <ele>1640.626953125</ele>
        <time>2011-07-09T05:58:16Z</time>
      </trkpt>
      <trkpt lat="45.40043" lon="6.67757">
        <ele>1640.626953125</ele>
        <time>2011-07-09T05:58:22Z</time>
      </trkpt>
      <trkpt lat="45.40033" lon="6.67755">
        <ele>1642.0690917969</ele>
        <time>2011-07-09T05:58:30Z</time>
      </trkpt>
      <trkpt lat="45.40025" lon="6.67752">
        <ele>1640.626953125</ele>
        <time>2011-07-09T05:58:35Z</time>
      </trkpt>
      <trkpt lat="45.40012" lon="6.67748">
        <ele>1640.146484375</ele>
        <time>2011-07-09T05:58:38Z</time>
      </trkpt>
      <trkpt lat="45.40004" lon="6.67747">
        <ele>1639.6657714844</ele>
        <time>2011-07-09T05:58:42Z</time>
      </trkpt>
      <trkpt lat="45.39991" lon="6.67741">
        <ele>1639.1850585938</ele>
        <time>2011-07-09T05:58:50Z</time>
      </trkpt>
      <trkpt lat="45.39986" lon="6.6774">
        <ele>1640.626953125</ele>
        <time>2011-07-09T05:58:53Z</time>
      </trkpt>
      <trkpt lat="45.39983" lon="6.67738">
        <ele>1647.8371582031</ele>
        <time>2011-07-09T05:58:59Z</time>
      </trkpt>
      <trkpt lat="45.3998" lon="6.67733">
        <ele>1658.4113769531</ele>
        <time>2011-07-09T05:59:08Z</time>
      </trkpt>
      <trkpt lat="45.39979" lon="6.67732">
        <ele>1659.3728027344</ele>
        <time>2011-07-09T05:59:11Z</time>
      </trkpt>
      <trkpt lat="45.39981" lon="6.67733">
        <ele>1655.5275878906</ele>
        <time>2011-07-09T05:59:21Z</time>
      </trkpt>
      <trkpt lat="45.39976" lon="6.67732">
        <ele>1662.2568359375</ele>
        <time>2011-07-09T05:59:26Z</time>
      </trkpt>
      <trkpt lat="45.39976" lon="6.67736">
        <ele>1657.4501953125</ele>
        <time>2011-07-09T05:59:30Z</time>
      </trkpt>
      <trkpt lat="45.39977" lon="6.67736">
        <ele>1656.4887695312</ele>
        <time>2011-07-09T05:59:31Z</time>
      </trkpt>
      <trkpt lat="45.39978" lon="6.6774">
        <ele>1649.2790527344</ele>
        <time>2011-07-09T05:59:40Z</time>
      </trkpt>
      <trkpt lat="45.39978" lon="6.67742">
        <ele>1646.8757324219</ele>
        <time>2011-07-09T05:59:46Z</time>
      </trkpt>
      <trkpt lat="45.3998" lon="6.67745">
        <ele>1640.626953125</ele>
        <time>2011-07-09T05:59:51Z</time>
      </trkpt>
      <trkpt lat="45.39977" lon="6.67747">
        <ele>1641.5883789062</ele>
        <time>2011-07-09T05:59:57Z</time>
      </trkpt>
      <trkpt lat="45.39964" lon="6.67749">
        <ele>1649.759765625</ele>
        <time>2011-07-09T06:00:07Z</time>
      </trkpt>
      <trkpt lat="45.39964" lon="6.67749">
        <ele>1650.7209472656</ele>
        <time>2011-07-09T06:00:15Z</time>
      </trkpt>
      <trkpt lat="45.39962" lon="6.67749">
        <ele>1651.6823730469</ele>
        <time>2011-07-09T06:00:27Z</time>
      </trkpt>
      <trkpt lat="45.39961" lon="6.6775">
        <ele>1646.3952636719</ele>
        <time>2011-07-09T06:00:35Z</time>
      </trkpt>
      <trkpt lat="45.3996" lon="6.6775">
        <ele>1646.8757324219</ele>
        <time>2011-07-09T06:00:43Z</time>
      </trkpt>
      <trkpt lat="45.39959" lon="6.6775">
        <ele>1646.8757324219</ele>
        <time>2011-07-09T06:00:53Z</time>
      </trkpt>
      <trkpt lat="45.39958" lon="6.67749">
        <ele>1648.7983398438</ele>
        <time>2011-07-09T06:01:03Z</time>
      </trkpt>
      <trkpt lat="45.39958" lon="6.67749">
        <ele>1650.2404785156</ele>
        <time>2011-07-09T06:01:14Z</time>
      </trkpt>
      <trkpt lat="45.39961" lon="6.67752">
        <ele>1646.8757324219</ele>
        <time>2011-07-09T06:01:26Z</time>
      </trkpt>
      <trkpt lat="45.39962" lon="6.67751">
        <ele>1648.3176269531</ele>
        <time>2011-07-09T06:01:39Z</time>
      </trkpt>
      <trkpt lat="45.39963" lon="6.67754">
        <ele>1645.9145507812</ele>
        <time>2011-07-09T06:01:44Z</time>
      </trkpt>
      <trkpt lat="45.39962" lon="6.67758">
        <ele>1644.953125</ele>
        <time>2011-07-09T06:01:51Z</time>
      </trkpt>
      <trkpt lat="45.39962" lon="6.67757">
        <ele>1646.3952636719</ele>
        <time>2011-07-09T06:02:00Z</time>
      </trkpt>
      <trkpt lat="45.39962" lon="6.67755">
        <ele>1649.2790527344</ele>
        <time>2011-07-09T06:02:18Z</time>
      </trkpt>
      <trkpt lat="45.39962" lon="6.67755">
        <ele>1648.3176269531</ele>
        <time>2011-07-09T06:02:21Z</time>
      </trkpt>
      <trkpt lat="45.39962" lon="6.67754">
        <ele>1649.2790527344</ele>
        <time>2011-07-09T06:02:24Z</time>
      </trkpt>
      <trkpt lat="45.3996" lon="6.67754">
        <ele>1650.2404785156</ele>
        <time>2011-07-09T06:02:27Z</time>
      </trkpt>
      <trkpt lat="45.3996" lon="6.67754">
        <ele>1650.7209472656</ele>
        <time>2011-07-09T06:02:28Z</time>
      </trkpt>
      <trkpt lat="45.39958" lon="6.67751">
        <ele>1660.3342285156</ele>
        <time>2011-07-09T06:02:59Z</time>
      </trkpt>
      <trkpt lat="45.39959" lon="6.67752">
        <ele>1659.8532714844</ele>
        <time>2011-07-09T06:03:02Z</time>
      </trkpt>
      <trkpt lat="45.39959" lon="6.6775">
        <ele>1660.8149414062</ele>
        <time>2011-07-09T06:03:08Z</time>
      </trkpt>
      <trkpt lat="45.39958" lon="6.67751">
        <ele>1656.0080566406</ele>
        <time>2011-07-09T06:03:24Z</time>
      </trkpt>
      <trkpt lat="45.39959" lon="6.6775">
        <ele>1654.0856933594</ele>
        <time>2011-07-09T06:03:28Z</time>
      </trkpt>
      <trkpt lat="45.39959" lon="6.67749">
        <ele>1654.0856933594</ele>
        <time>2011-07-09T06:03:38Z</time>
      </trkpt>
      <trkpt lat="45.39957" lon="6.67749">
        <ele>1655.5275878906</ele>
        <time>2011-07-09T06:03:48Z</time>
      </trkpt>
      <trkpt lat="45.39957" lon="6.67749">
        <ele>1656.9694824219</ele>
        <time>2011-07-09T06:03:56Z</time>
      </trkpt>
      <trkpt lat="45.39956" lon="6.67747">
        <ele>1655.046875</ele>
        <time>2011-07-09T06:04:06Z</time>
      </trkpt>
      <trkpt lat="45.39957" lon="6.67746">
        <ele>1652.1628417969</ele>
        <time>2011-07-09T06:04:14Z</time>
      </trkpt>
      <trkpt lat="45.39956" lon="6.67747">
        <ele>1652.6435546875</ele>
        <time>2011-07-09T06:04:20Z</time>
      </trkpt>
      <trkpt lat="45.39956" lon="6.67747">
        <ele>1653.1242675781</ele>
        <time>2011-07-09T06:04:24Z</time>
      </trkpt>
      <trkpt lat="45.39956" lon="6.67749">
        <ele>1648.3176269531</ele>
        <time>2011-07-09T06:04:30Z</time>
      </trkpt>
      <trkpt lat="45.39956" lon="6.67749">
        <ele>1650.2404785156</ele>
        <time>2011-07-09T06:04:36Z</time>
      </trkpt>
      <trkpt lat="45.39957" lon="6.6775">
        <ele>1650.2404785156</ele>
        <time>2011-07-09T06:04:40Z</time>
      </trkpt>
      <trkpt lat="45.39957" lon="6.6775">
        <ele>1650.2404785156</ele>
        <time>2011-07-09T06:04:42Z</time>
      </trkpt>
      <trkpt lat="45.39957" lon="6.6775">
        <ele>1650.2404785156</ele>
        <time>2011-07-09T06:04:43Z</time>
      </trkpt>
      <trkpt lat="45.39959" lon="6.67753">
        <ele>1652.6435546875</ele>
        <time>2011-07-09T06:05:01Z</time>
      </trkpt>
      <trkpt lat="45.3996" lon="6.6775">
        <ele>1657.9309082031</ele>
        <time>2011-07-09T06:05:14Z</time>
      </trkpt>
      <trkpt lat="45.39959" lon="6.67745">
        <ele>1657.4501953125</ele>
        <time>2011-07-09T06:05:18Z</time>
      </trkpt>
      <trkpt lat="45.39958" lon="6.67744">
        <ele>1656.0080566406</ele>
        <time>2011-07-09T06:05:23Z</time>
      </trkpt>
      <trkpt lat="45.39957" lon="6.6774">
        <ele>1655.5275878906</ele>
        <time>2011-07-09T06:05:25Z</time>
      </trkpt>
      <trkpt lat="45.39956" lon="6.67738">
        <ele>1656.0080566406</ele>
        <time>2011-07-09T06:05:27Z</time>
      </trkpt>
      <trkpt lat="45.39957" lon="6.67731">
        <ele>1658.8920898438</ele>
        <time>2011-07-09T06:05:32Z</time>
      </trkpt>
      <trkpt lat="45.39955" lon="6.67728">
        <ele>1661.2956542969</ele>
        <time>2011-07-09T06:05:36Z</time>
      </trkpt>
      <trkpt lat="45.39954" lon="6.67723">
        <ele>1661.7763671875</ele>
        <time>2011-07-09T06:05:39Z</time>
      </trkpt>
      <trkpt lat="45.39952" lon="6.6772">
        <ele>1661.2956542969</ele>
        <time>2011-07-09T06:05:41Z</time>
      </trkpt>
      <trkpt lat="45.3995" lon="6.67718">
        <ele>1660.3342285156</ele>
        <time>2011-07-09T06:05:43Z</time>
      </trkpt>
      <trkpt lat="45.39949" lon="6.67717">
        <ele>1660.8149414062</ele>
        <time>2011-07-09T06:05:44Z</time>
      </trkpt>
      <trkpt lat="45.39948" lon="6.67717">
        <ele>1660.3342285156</ele>
        <time>2011-07-09T06:05:46Z</time>
      </trkpt>
      <trkpt lat="45.39947" lon="6.67717">
        <ele>1659.8532714844</ele>
        <time>2011-07-09T06:05:48Z</time>
      </trkpt>
      <trkpt lat="45.39947" lon="6.67716">
        <ele>1660.3342285156</ele>
        <time>2011-07-09T06:05:51Z</time>
      </trkpt>
      <trkpt lat="45.39947" lon="6.67716">
        <ele>1659.8532714844</ele>
        <time>2011-07-09T06:06:00Z</time>
      </trkpt>
      <trkpt lat="45.39946" lon="6.67716">
        <ele>1658.8920898438</ele>
        <time>2011-07-09T06:06:10Z</time>
      </trkpt>
      <trkpt lat="45.39946" lon="6.67717">
        <ele>1656.4887695312</ele>
        <time>2011-07-09T06:06:28Z</time>
      </trkpt>
      <trkpt lat="45.39945" lon="6.67716">
        <ele>1657.4501953125</ele>
        <time>2011-07-09T06:06:30Z</time>
      </trkpt>
      <trkpt lat="45.39941" lon="6.67717">
        <ele>1657.4501953125</ele>
        <time>2011-07-09T06:06:36Z</time>
      </trkpt>
      <trkpt lat="45.39942" lon="6.67715">
        <ele>1658.8920898438</ele>
        <time>2011-07-09T06:06:41Z</time>
      </trkpt>
      <trkpt lat="45.39941" lon="6.67711">
        <ele>1661.7763671875</ele>
        <time>2011-07-09T06:06:48Z</time>
      </trkpt>
      <trkpt lat="45.39939" lon="6.6771">
        <ele>1661.7763671875</ele>
        <time>2011-07-09T06:06:49Z</time>
      </trkpt>
      <trkpt lat="45.39936" lon="6.67707">
        <ele>1658.8920898438</ele>
        <time>2011-07-09T06:06:54Z</time>
      </trkpt>
      <trkpt lat="45.39932" lon="6.67708">
        <ele>1662.2568359375</ele>
        <time>2011-07-09T06:07:00Z</time>
      </trkpt>
      <trkpt lat="45.39928" lon="6.67707">
        <ele>1668.5053710938</ele>
        <time>2011-07-09T06:07:04Z</time>
      </trkpt>
      <trkpt lat="45.39921" lon="6.67705">
        <ele>1670.9086914062</ele>
        <time>2011-07-09T06:07:10Z</time>
      </trkpt>
      <trkpt lat="45.39917" lon="6.67702">
        <ele>1667.5439453125</ele>
        <time>2011-07-09T06:07:17Z</time>
      </trkpt>
      <trkpt lat="45.39917" lon="6.67701">
        <ele>1671.3891601562</ele>
        <time>2011-07-09T06:07:24Z</time>
      </trkpt>
      <trkpt lat="45.3992" lon="6.67699">
        <ele>1681.0026855469</ele>
        <time>2011-07-09T06:07:32Z</time>
      </trkpt>
      <trkpt lat="45.3992" lon="6.67692">
        <ele>1682.9250488281</ele>
        <time>2011-07-09T06:07:36Z</time>
      </trkpt>
      <trkpt lat="45.39914" lon="6.67684">
        <ele>1682.9250488281</ele>
        <time>2011-07-09T06:07:44Z</time>
      </trkpt>
      <trkpt lat="45.39906" lon="6.67684">
        <ele>1678.1186523438</ele>
        <time>2011-07-09T06:07:50Z</time>
      </trkpt>
      <trkpt lat="45.39904" lon="6.67681">
        <ele>1677.6379394531</ele>
        <time>2011-07-09T06:07:55Z</time>
      </trkpt>
      <trkpt lat="45.39895" lon="6.67679">
        <ele>1677.6379394531</ele>
        <time>2011-07-09T06:08:02Z</time>
      </trkpt>
      <trkpt lat="45.39893" lon="6.6768">
        <ele>1677.6379394531</ele>
        <time>2011-07-09T06:08:03Z</time>
      </trkpt>
      <trkpt lat="45.3989" lon="6.67677">
        <ele>1677.1574707031</ele>
        <time>2011-07-09T06:08:07Z</time>
      </trkpt>
      <trkpt lat="45.39887" lon="6.67673">
        <ele>1677.1574707031</ele>
        <time>2011-07-09T06:08:13Z</time>
      </trkpt>
      <trkpt lat="45.39884" lon="6.67671">
        <ele>1680.0412597656</ele>
        <time>2011-07-09T06:08:18Z</time>
      </trkpt>
      <trkpt lat="45.39881" lon="6.67672">
        <ele>1682.4445800781</ele>
        <time>2011-07-09T06:08:23Z</time>
      </trkpt>
      <trkpt lat="45.39875" lon="6.67672">
        <ele>1688.2124023438</ele>
        <time>2011-07-09T06:08:30Z</time>
      </trkpt>
      <trkpt lat="45.39873" lon="6.67672">
        <ele>1693.98046875</ele>
        <time>2011-07-09T06:08:35Z</time>
      </trkpt>
      <trkpt lat="45.39877" lon="6.67672">
        <ele>1697.8256835938</ele>
        <time>2011-07-09T06:08:41Z</time>
      </trkpt>
      <trkpt lat="45.39875" lon="6.67676">
        <ele>1702.6320800781</ele>
        <time>2011-07-09T06:08:46Z</time>
      </trkpt>
      <trkpt lat="45.3987" lon="6.67676">
        <ele>1702.1513671875</ele>
        <time>2011-07-09T06:08:52Z</time>
      </trkpt>
      <trkpt lat="45.39872" lon="6.67674">
        <ele>1694.4609375</ele>
        <time>2011-07-09T06:09:03Z</time>
      </trkpt>
      <trkpt lat="45.39867" lon="6.67676">
        <ele>1694.4609375</ele>
        <time>2011-07-09T06:09:09Z</time>
      </trkpt>
      <trkpt lat="45.39865" lon="6.67676">
        <ele>1692.0578613281</ele>
        <time>2011-07-09T06:09:15Z</time>
      </trkpt>
      <trkpt lat="45.39865" lon="6.67674">
        <ele>1693.4997558594</ele>
        <time>2011-07-09T06:09:20Z</time>
      </trkpt>
      <trkpt lat="45.39867" lon="6.67674">
        <ele>1699.7482910156</ele>
        <time>2011-07-09T06:09:27Z</time>
      </trkpt>
      <trkpt lat="45.39864" lon="6.67674">
        <ele>1698.3061523438</ele>
        <time>2011-07-09T06:09:34Z</time>
      </trkpt>
      <trkpt lat="45.39861" lon="6.67674">
        <ele>1695.4223632812</ele>
        <time>2011-07-09T06:09:42Z</time>
      </trkpt>
      <trkpt lat="45.39857" lon="6.67672">
        <ele>1695.9030761719</ele>
        <time>2011-07-09T06:09:48Z</time>
      </trkpt>
      <trkpt lat="45.39853" lon="6.67672">
        <ele>1696.8642578125</ele>
        <time>2011-07-09T06:09:56Z</time>
      </trkpt>
      <trkpt lat="45.39851" lon="6.67672">
        <ele>1696.8642578125</ele>
        <time>2011-07-09T06:10:01Z</time>
      </trkpt>
      <trkpt lat="45.39844" lon="6.67673">
        <ele>1697.8256835938</ele>
        <time>2011-07-09T06:10:09Z</time>
      </trkpt>
      <trkpt lat="45.39841" lon="6.67673">
        <ele>1698.3061523438</ele>
        <time>2011-07-09T06:10:13Z</time>
      </trkpt>
      <trkpt lat="45.39836" lon="6.67672">
        <ele>1698.3061523438</ele>
        <time>2011-07-09T06:10:18Z</time>
      </trkpt>
      <trkpt lat="45.39835" lon="6.67671">
        <ele>1697.8256835938</ele>
        <time>2011-07-09T06:10:23Z</time>
      </trkpt>
      <trkpt lat="45.39832" lon="6.67669">
        <ele>1699.7482910156</ele>
        <time>2011-07-09T06:10:29Z</time>
      </trkpt>
      <trkpt lat="45.39826" lon="6.67668">
        <ele>1701.1901855469</ele>
        <time>2011-07-09T06:10:37Z</time>
      </trkpt>
      <trkpt lat="45.39824" lon="6.67668">
        <ele>1701.6708984375</ele>
        <time>2011-07-09T06:10:40Z</time>
      </trkpt>
      <trkpt lat="45.39824" lon="6.67659">
        <ele>1707.4387207031</ele>
        <time>2011-07-09T06:10:45Z</time>
      </trkpt>
      <trkpt lat="45.3982" lon="6.67659">
        <ele>1708.4001464844</ele>
        <time>2011-07-09T06:10:50Z</time>
      </trkpt>
      <trkpt lat="45.39815" lon="6.6766">
        <ele>1709.8420410156</ele>
        <time>2011-07-09T06:10:56Z</time>
      </trkpt>
      <trkpt lat="45.39811" lon="6.67659">
        <ele>1711.2841796875</ele>
        <time>2011-07-09T06:11:02Z</time>
      </trkpt>
      <trkpt lat="45.39807" lon="6.67658">
        <ele>1709.8420410156</ele>
        <time>2011-07-09T06:11:08Z</time>
      </trkpt>
      <trkpt lat="45.39804" lon="6.67657">
        <ele>1708.4001464844</ele>
        <time>2011-07-09T06:11:14Z</time>
      </trkpt>
      <trkpt lat="45.39805" lon="6.67655">
        <ele>1713.6872558594</ele>
        <time>2011-07-09T06:11:19Z</time>
      </trkpt>
      <trkpt lat="45.39804" lon="6.67651">
        <ele>1719.9357910156</ele>
        <time>2011-07-09T06:11:24Z</time>
      </trkpt>
      <trkpt lat="45.39804" lon="6.67646">
        <ele>1722.3391113281</ele>
        <time>2011-07-09T06:11:27Z</time>
      </trkpt>
      <trkpt lat="45.39801" lon="6.67638">
        <ele>1725.7038574219</ele>
        <time>2011-07-09T06:11:32Z</time>
      </trkpt>
      <trkpt lat="45.398" lon="6.67628">
        <ele>1728.587890625</ele>
        <time>2011-07-09T06:11:38Z</time>
      </trkpt>
      <trkpt lat="45.39795" lon="6.67622">
        <ele>1726.6652832031</ele>
        <time>2011-07-09T06:11:45Z</time>
      </trkpt>
      <trkpt lat="45.39796" lon="6.67622">
        <ele>1728.587890625</ele>
        <time>2011-07-09T06:11:47Z</time>
      </trkpt>
      <trkpt lat="45.39799" lon="6.67622">
        <ele>1731.9523925781</ele>
        <time>2011-07-09T06:11:49Z</time>
      </trkpt>
      <trkpt lat="45.39795" lon="6.67624">
        <ele>1732.9135742188</ele>
        <time>2011-07-09T06:11:53Z</time>
      </trkpt>
      <trkpt lat="45.39786" lon="6.67626">
        <ele>1729.5490722656</ele>
        <time>2011-07-09T06:12:01Z</time>
      </trkpt>
      <trkpt lat="45.39782" lon="6.67626">
        <ele>1735.3168945312</ele>
        <time>2011-07-09T06:12:14Z</time>
      </trkpt>
      <trkpt lat="45.39782" lon="6.67622">
        <ele>1740.6042480469</ele>
        <time>2011-07-09T06:12:20Z</time>
      </trkpt>
      <trkpt lat="45.3978" lon="6.67618">
        <ele>1742.0463867188</ele>
        <time>2011-07-09T06:12:25Z</time>
      </trkpt>
      <trkpt lat="45.39778" lon="6.67617">
        <ele>1742.5270996094</ele>
        <time>2011-07-09T06:12:29Z</time>
      </trkpt>
      <trkpt lat="45.39775" lon="6.67616">
        <ele>1742.0463867188</ele>
        <time>2011-07-09T06:12:33Z</time>
      </trkpt>
      <trkpt lat="45.39772" lon="6.67611">
        <ele>1755.5046386719</ele>
        <time>2011-07-09T06:12:43Z</time>
      </trkpt>
      <trkpt lat="45.39767" lon="6.67611">
        <ele>1754.5432128906</ele>
        <time>2011-07-09T06:12:52Z</time>
      </trkpt>
      <trkpt lat="45.39764" lon="6.67615">
        <ele>1750.6979980469</ele>
        <time>2011-07-09T06:12:57Z</time>
      </trkpt>
      <trkpt lat="45.3976" lon="6.67622">
        <ele>1741.5656738281</ele>
        <time>2011-07-09T06:13:05Z</time>
      </trkpt>
      <trkpt lat="45.39758" lon="6.67626">
        <ele>1736.7587890625</ele>
        <time>2011-07-09T06:13:11Z</time>
      </trkpt>
      <trkpt lat="45.39756" lon="6.67628">
        <ele>1738.2009277344</ele>
        <time>2011-07-09T06:13:17Z</time>
      </trkpt>
      <trkpt lat="45.39757" lon="6.67635">
        <ele>1732.4331054688</ele>
        <time>2011-07-09T06:13:24Z</time>
      </trkpt>
      <trkpt lat="45.39756" lon="6.67637">
        <ele>1736.2783203125</ele>
        <time>2011-07-09T06:13:29Z</time>
      </trkpt>
      <trkpt lat="45.39756" lon="6.67636">
        <ele>1737.7202148438</ele>
        <time>2011-07-09T06:13:31Z</time>
      </trkpt>
      <trkpt lat="45.39756" lon="6.67632">
        <ele>1738.2009277344</ele>
        <time>2011-07-09T06:13:38Z</time>
      </trkpt>
      <trkpt lat="45.39754" lon="6.67627">
        <ele>1745.4108886719</ele>
        <time>2011-07-09T06:13:48Z</time>
      </trkpt>
      <trkpt lat="45.39754" lon="6.67625">
        <ele>1748.775390625</ele>
        <time>2011-07-09T06:13:56Z</time>
      </trkpt>
      <trkpt lat="45.39754" lon="6.67623">
        <ele>1751.1787109375</ele>
        <time>2011-07-09T06:14:08Z</time>
      </trkpt>
      <trkpt lat="45.39754" lon="6.67627">
        <ele>1743.48828125</ele>
        <time>2011-07-09T06:14:15Z</time>
      </trkpt>
      <trkpt lat="45.39754" lon="6.67631">
        <ele>1733.3942871094</ele>
        <time>2011-07-09T06:14:25Z</time>
      </trkpt>
      <trkpt lat="45.39751" lon="6.67635">
        <ele>1728.587890625</ele>
        <time>2011-07-09T06:14:33Z</time>
      </trkpt>
      <trkpt lat="45.39748" lon="6.67634">
        <ele>1736.2783203125</ele>
        <time>2011-07-09T06:14:40Z</time>
      </trkpt>
      <trkpt lat="45.39746" lon="6.67627">
        <ele>1732.9135742188</ele>
        <time>2011-07-09T06:14:48Z</time>
      </trkpt>
      <trkpt lat="45.39744" lon="6.67623">
        <ele>1729.5490722656</ele>
        <time>2011-07-09T06:14:56Z</time>
      </trkpt>
      <trkpt lat="45.39743" lon="6.67619">
        <ele>1730.5104980469</ele>
        <time>2011-07-09T06:15:02Z</time>
      </trkpt>
      <trkpt lat="45.39742" lon="6.67618">
        <ele>1730.0297851562</ele>
        <time>2011-07-09T06:15:07Z</time>
      </trkpt>
      <trkpt lat="45.39736" lon="6.67617">
        <ele>1728.1071777344</ele>
        <time>2011-07-09T06:15:15Z</time>
      </trkpt>
      <trkpt lat="45.39732" lon="6.67613">
        <ele>1728.1071777344</ele>
        <time>2011-07-09T06:15:23Z</time>
      </trkpt>
      <trkpt lat="45.39732" lon="6.67612">
        <ele>1730.5104980469</ele>
        <time>2011-07-09T06:15:43Z</time>
      </trkpt>
      <trkpt lat="45.39732" lon="6.67612">
        <ele>1730.9912109375</ele>
        <time>2011-07-09T06:15:50Z</time>
      </trkpt>
      <trkpt lat="45.39732" lon="6.67612">
        <ele>1730.9912109375</ele>
        <time>2011-07-09T06:15:55Z</time>
      </trkpt>
      <trkpt lat="45.39732" lon="6.67612">
        <ele>1730.9912109375</ele>
        <time>2011-07-09T06:16:06Z</time>
      </trkpt>
      <trkpt lat="45.39732" lon="6.6761">
        <ele>1731.4716796875</ele>
        <time>2011-07-09T06:16:13Z</time>
      </trkpt>
      <trkpt lat="45.39732" lon="6.67606">
        <ele>1732.4331054688</ele>
        <time>2011-07-09T06:16:17Z</time>
      </trkpt>
      <trkpt lat="45.39732" lon="6.67602">
        <ele>1734.3557128906</ele>
        <time>2011-07-09T06:16:24Z</time>
      </trkpt>
      <trkpt lat="45.39729" lon="6.67596">
        <ele>1736.2783203125</ele>
        <time>2011-07-09T06:16:32Z</time>
      </trkpt>
      <trkpt lat="45.39727" lon="6.67598">
        <ele>1737.2395019531</ele>
        <time>2011-07-09T06:16:36Z</time>
      </trkpt>
      <trkpt lat="45.39725" lon="6.676">
        <ele>1739.162109375</ele>
        <time>2011-07-09T06:16:40Z</time>
      </trkpt>
      <trkpt lat="45.39722" lon="6.67598">
        <ele>1741.5656738281</ele>
        <time>2011-07-09T06:16:45Z</time>
      </trkpt>
      <trkpt lat="45.39719" lon="6.67597">
        <ele>1742.0463867188</ele>
        <time>2011-07-09T06:16:51Z</time>
      </trkpt>
      <trkpt lat="45.39717" lon="6.67595">
        <ele>1743.48828125</ele>
        <time>2011-07-09T06:16:57Z</time>
      </trkpt>
      <trkpt lat="45.39718" lon="6.67592">
        <ele>1746.8527832031</ele>
        <time>2011-07-09T06:17:01Z</time>
      </trkpt>
      <trkpt lat="45.39716" lon="6.67586">
        <ele>1751.6594238281</ele>
        <time>2011-07-09T06:17:10Z</time>
      </trkpt>
      <trkpt lat="45.39715" lon="6.67581">
        <ele>1753.58203125</ele>
        <time>2011-07-09T06:17:17Z</time>
      </trkpt>
      <trkpt lat="45.39713" lon="6.67576">
        <ele>1753.58203125</ele>
        <time>2011-07-09T06:17:23Z</time>
      </trkpt>
      <trkpt lat="45.39709" lon="6.67572">
        <ele>1754.0627441406</ele>
        <time>2011-07-09T06:17:29Z</time>
      </trkpt>
      <trkpt lat="45.39707" lon="6.67572">
        <ele>1755.9851074219</ele>
        <time>2011-07-09T06:17:36Z</time>
      </trkpt>
      <trkpt lat="45.39706" lon="6.67575">
        <ele>1753.58203125</ele>
        <time>2011-07-09T06:17:42Z</time>
      </trkpt>
      <trkpt lat="45.39705" lon="6.67575">
        <ele>1754.0627441406</ele>
        <time>2011-07-09T06:17:46Z</time>
      </trkpt>
      <trkpt lat="45.39705" lon="6.67569">
        <ele>1754.5432128906</ele>
        <time>2011-07-09T06:17:51Z</time>
      </trkpt>
      <trkpt lat="45.39703" lon="6.67565">
        <ele>1754.0627441406</ele>
        <time>2011-07-09T06:17:57Z</time>
      </trkpt>
      <trkpt lat="45.39701" lon="6.67564">
        <ele>1757.908203125</ele>
        <time>2011-07-09T06:18:03Z</time>
      </trkpt>
      <trkpt lat="45.39698" lon="6.67566">
        <ele>1760.3112792969</ele>
        <time>2011-07-09T06:18:09Z</time>
      </trkpt>
      <trkpt lat="45.39695" lon="6.67566">
        <ele>1765.5986328125</ele>
        <time>2011-07-09T06:18:25Z</time>
      </trkpt>
      <trkpt lat="45.39696" lon="6.67566">
        <ele>1761.2727050781</ele>
        <time>2011-07-09T06:18:32Z</time>
      </trkpt>
      <trkpt lat="45.39697" lon="6.67564">
        <ele>1760.3112792969</ele>
        <time>2011-07-09T06:18:36Z</time>
      </trkpt>
      <trkpt lat="45.39697" lon="6.67564">
        <ele>1758.388671875</ele>
        <time>2011-07-09T06:18:42Z</time>
      </trkpt>
      <trkpt lat="45.39695" lon="6.67567">
        <ele>1757.4274902344</ele>
        <time>2011-07-09T06:18:51Z</time>
      </trkpt>
      <trkpt lat="45.39691" lon="6.67562">
        <ele>1761.7534179688</ele>
        <time>2011-07-09T06:19:02Z</time>
      </trkpt>
      <trkpt lat="45.39689" lon="6.67561">
        <ele>1759.3500976562</ele>
        <time>2011-07-09T06:19:09Z</time>
      </trkpt>
      <trkpt lat="45.39687" lon="6.67562">
        <ele>1760.3112792969</ele>
        <time>2011-07-09T06:19:15Z</time>
      </trkpt>
      <trkpt lat="45.39682" lon="6.67559">
        <ele>1762.7145996094</ele>
        <time>2011-07-09T06:19:22Z</time>
      </trkpt>
      <trkpt lat="45.39678" lon="6.67561">
        <ele>1764.1564941406</ele>
        <time>2011-07-09T06:19:29Z</time>
      </trkpt>
      <trkpt lat="45.39677" lon="6.6756">
        <ele>1768.0017089844</ele>
        <time>2011-07-09T06:19:35Z</time>
      </trkpt>
      <trkpt lat="45.39678" lon="6.67558">
        <ele>1774.7312011719</ele>
        <time>2011-07-09T06:19:48Z</time>
      </trkpt>
      <trkpt lat="45.3968" lon="6.67552">
        <ele>1785.3054199219</ele>
        <time>2011-07-09T06:19:59Z</time>
      </trkpt>
      <trkpt lat="45.39678" lon="6.67553">
        <ele>1785.3054199219</ele>
        <time>2011-07-09T06:20:11Z</time>
      </trkpt>
      <trkpt lat="45.39677" lon="6.67556">
        <ele>1777.1345214844</ele>
        <time>2011-07-09T06:20:17Z</time>
      </trkpt>
      <trkpt lat="45.39677" lon="6.67557">
        <ele>1775.2116699219</ele>
        <time>2011-07-09T06:20:20Z</time>
      </trkpt>
      <trkpt lat="45.39676" lon="6.67558">
        <ele>1768.0017089844</ele>
        <time>2011-07-09T06:20:43Z</time>
      </trkpt>
      <trkpt lat="45.39675" lon="6.67559">
        <ele>1764.6372070312</ele>
        <time>2011-07-09T06:20:47Z</time>
      </trkpt>
      <trkpt lat="45.39675" lon="6.67559">
        <ele>1764.6372070312</ele>
        <time>2011-07-09T06:20:48Z</time>
      </trkpt>
      <trkpt lat="45.39675" lon="6.67557">
        <ele>1769.4438476562</ele>
        <time>2011-07-09T06:21:01Z</time>
      </trkpt>
      <trkpt lat="45.39674" lon="6.67556">
        <ele>1770.4050292969</ele>
        <time>2011-07-09T06:21:12Z</time>
      </trkpt>
      <trkpt lat="45.39674" lon="6.67555">
        <ele>1771.8469238281</ele>
        <time>2011-07-09T06:21:21Z</time>
      </trkpt>
      <trkpt lat="45.39672" lon="6.67557">
        <ele>1772.80859375</ele>
        <time>2011-07-09T06:21:42Z</time>
      </trkpt>
      <trkpt lat="45.39671" lon="6.67554">
        <ele>1775.6923828125</ele>
        <time>2011-07-09T06:21:47Z</time>
      </trkpt>
      <trkpt lat="45.39669" lon="6.67553">
        <ele>1776.6538085938</ele>
        <time>2011-07-09T06:21:50Z</time>
      </trkpt>
      <trkpt lat="45.39667" lon="6.67554">
        <ele>1775.2116699219</ele>
        <time>2011-07-09T06:21:57Z</time>
      </trkpt>
      <trkpt lat="45.39667" lon="6.67554">
        <ele>1772.80859375</ele>
        <time>2011-07-09T06:22:04Z</time>
      </trkpt>
      <trkpt lat="45.39661" lon="6.67551">
        <ele>1773.7697753906</ele>
        <time>2011-07-09T06:22:11Z</time>
      </trkpt>
      <trkpt lat="45.39658" lon="6.67549">
        <ele>1774.7312011719</ele>
        <time>2011-07-09T06:22:18Z</time>
      </trkpt>
      <trkpt lat="45.39658" lon="6.67549">
        <ele>1773.2893066406</ele>
        <time>2011-07-09T06:22:24Z</time>
      </trkpt>
      <trkpt lat="45.39658" lon="6.67551">
        <ele>1772.80859375</ele>
        <time>2011-07-09T06:22:31Z</time>
      </trkpt>
      <trkpt lat="45.39657" lon="6.67554">
        <ele>1772.3278808594</ele>
        <time>2011-07-09T06:22:35Z</time>
      </trkpt>
      <trkpt lat="45.39657" lon="6.67555">
        <ele>1771.8469238281</ele>
        <time>2011-07-09T06:22:38Z</time>
      </trkpt>
      <trkpt lat="45.39657" lon="6.67555">
        <ele>1771.3662109375</ele>
        <time>2011-07-09T06:22:39Z</time>
      </trkpt>
      <trkpt lat="45.39657" lon="6.67556">
        <ele>1770.8857421875</ele>
        <time>2011-07-09T06:22:49Z</time>
      </trkpt>
      <trkpt lat="45.39655" lon="6.67559">
        <ele>1771.3662109375</ele>
        <time>2011-07-09T06:22:55Z</time>
      </trkpt>
      <trkpt lat="45.39654" lon="6.6756">
        <ele>1771.8469238281</ele>
        <time>2011-07-09T06:22:57Z</time>
      </trkpt>
      <trkpt lat="45.39653" lon="6.6756">
        <ele>1768.9631347656</ele>
        <time>2011-07-09T06:23:06Z</time>
      </trkpt>
      <trkpt lat="45.39653" lon="6.67559">
        <ele>1768.482421875</ele>
        <time>2011-07-09T06:23:08Z</time>
      </trkpt>
      <trkpt lat="45.39653" lon="6.67559">
        <ele>1768.0017089844</ele>
        <time>2011-07-09T06:23:10Z</time>
      </trkpt>
      <trkpt lat="45.39653" lon="6.67559">
        <ele>1768.0017089844</ele>
        <time>2011-07-09T06:23:12Z</time>
      </trkpt>
      <trkpt lat="45.39653" lon="6.67559">
        <ele>1768.0017089844</ele>
        <time>2011-07-09T06:23:19Z</time>
      </trkpt>
      <trkpt lat="45.39654" lon="6.67558">
        <ele>1768.9631347656</ele>
        <time>2011-07-09T06:23:27Z</time>
      </trkpt>
      <trkpt lat="45.39654" lon="6.67558">
        <ele>1768.0017089844</ele>
        <time>2011-07-09T06:23:30Z</time>
      </trkpt>
      <trkpt lat="45.39656" lon="6.67551">
        <ele>1770.8857421875</ele>
        <time>2011-07-09T06:23:44Z</time>
      </trkpt>
      <trkpt lat="45.39655" lon="6.67549">
        <ele>1771.3662109375</ele>
        <time>2011-07-09T06:23:50Z</time>
      </trkpt>
      <trkpt lat="45.39653" lon="6.67546">
        <ele>1770.4050292969</ele>
        <time>2011-07-09T06:23:56Z</time>
      </trkpt>
      <trkpt lat="45.39649" lon="6.67544">
        <ele>1769.4438476562</ele>
        <time>2011-07-09T06:24:02Z</time>
      </trkpt>
      <trkpt lat="45.39648" lon="6.67543">
        <ele>1768.9631347656</ele>
        <time>2011-07-09T06:24:04Z</time>
      </trkpt>
      <trkpt lat="45.39642" lon="6.67538">
        <ele>1767.5209960938</ele>
        <time>2011-07-09T06:24:10Z</time>
      </trkpt>
      <trkpt lat="45.39633" lon="6.67535">
        <ele>1765.5986328125</ele>
        <time>2011-07-09T06:24:18Z</time>
      </trkpt>
      <trkpt lat="45.39622" lon="6.67533">
        <ele>1765.1179199219</ele>
        <time>2011-07-09T06:24:26Z</time>
      </trkpt>
      <trkpt lat="45.39614" lon="6.67535">
        <ele>1764.6372070312</ele>
        <time>2011-07-09T06:24:32Z</time>
      </trkpt>
      <trkpt lat="45.3961" lon="6.67536">
        <ele>1764.6372070312</ele>
        <time>2011-07-09T06:24:36Z</time>
      </trkpt>
      <trkpt lat="45.39605" lon="6.67538">
        <ele>1763.67578125</ele>
        <time>2011-07-09T06:24:40Z</time>
      </trkpt>
      <trkpt lat="45.39591" lon="6.67538">
        <ele>1765.1179199219</ele>
        <time>2011-07-09T06:24:47Z</time>
      </trkpt>
      <trkpt lat="45.39586" lon="6.67539">
        <ele>1766.5598144531</ele>
        <time>2011-07-09T06:24:49Z</time>
      </trkpt>
      <trkpt lat="45.3958" lon="6.67532">
        <ele>1767.5209960938</ele>
        <time>2011-07-09T06:24:54Z</time>
      </trkpt>
      <trkpt lat="45.39581" lon="6.67531">
        <ele>1768.0017089844</ele>
        <time>2011-07-09T06:24:57Z</time>
      </trkpt>
      <trkpt lat="45.39581" lon="6.67528">
        <ele>1769.4438476562</ele>
        <time>2011-07-09T06:25:00Z</time>
      </trkpt>
      <trkpt lat="45.39582" lon="6.67525">
        <ele>1770.8857421875</ele>
        <time>2011-07-09T06:25:04Z</time>
      </trkpt>
      <trkpt lat="45.39578" lon="6.67523">
        <ele>1770.4050292969</ele>
        <time>2011-07-09T06:25:12Z</time>
      </trkpt>
      <trkpt lat="45.39573" lon="6.67522">
        <ele>1775.2116699219</ele>
        <time>2011-07-09T06:25:25Z</time>
      </trkpt>
      <trkpt lat="45.39574" lon="6.6752">
        <ele>1778.095703125</ele>
        <time>2011-07-09T06:25:33Z</time>
      </trkpt>
      <trkpt lat="45.39573" lon="6.67515">
        <ele>1780.4990234375</ele>
        <time>2011-07-09T06:25:43Z</time>
      </trkpt>
      <trkpt lat="45.39571" lon="6.67516">
        <ele>1781.4602050781</ele>
        <time>2011-07-09T06:25:48Z</time>
      </trkpt>
      <trkpt lat="45.39568" lon="6.67515">
        <ele>1783.8635253906</ele>
        <time>2011-07-09T06:25:54Z</time>
      </trkpt>
      <trkpt lat="45.39569" lon="6.67515">
        <ele>1783.8635253906</ele>
        <time>2011-07-09T06:26:04Z</time>
      </trkpt>
      <trkpt lat="45.39569" lon="6.67516">
        <ele>1783.3828125</ele>
        <time>2011-07-09T06:26:16Z</time>
      </trkpt>
      <trkpt lat="45.39569" lon="6.67517">
        <ele>1782.9020996094</ele>
        <time>2011-07-09T06:26:27Z</time>
      </trkpt>
      <trkpt lat="45.39569" lon="6.67517">
        <ele>1782.4216308594</ele>
        <time>2011-07-09T06:26:36Z</time>
      </trkpt>
      <trkpt lat="45.39569" lon="6.67517">
        <ele>1783.3828125</ele>
        <time>2011-07-09T06:26:52Z</time>
      </trkpt>
      <trkpt lat="45.39569" lon="6.67517">
        <ele>1782.9020996094</ele>
        <time>2011-07-09T06:26:57Z</time>
      </trkpt>
      <trkpt lat="45.39569" lon="6.67517">
        <ele>1782.9020996094</ele>
        <time>2011-07-09T06:27:05Z</time>
      </trkpt>
      <trkpt lat="45.39569" lon="6.67517">
        <ele>1782.9020996094</ele>
        <time>2011-07-09T06:27:07Z</time>
      </trkpt>
      <trkpt lat="45.39569" lon="6.67517">
        <ele>1782.9020996094</ele>
        <time>2011-07-09T06:27:08Z</time>
      </trkpt>
      <trkpt lat="45.39569" lon="6.67517">
        <ele>1783.3828125</ele>
        <time>2011-07-09T06:27:17Z</time>
      </trkpt>
      <trkpt lat="45.3957" lon="6.67517">
        <ele>1783.8635253906</ele>
        <time>2011-07-09T06:27:28Z</time>
      </trkpt>
      <trkpt lat="45.39566" lon="6.67514">
        <ele>1778.5764160156</ele>
        <time>2011-07-09T06:27:51Z</time>
      </trkpt>
      <trkpt lat="45.39564" lon="6.67511">
        <ele>1780.4990234375</ele>
        <time>2011-07-09T06:28:00Z</time>
      </trkpt>
      <trkpt lat="45.39565" lon="6.6751">
        <ele>1781.9409179688</ele>
        <time>2011-07-09T06:28:07Z</time>
      </trkpt>
      <trkpt lat="45.39565" lon="6.67508">
        <ele>1782.4216308594</ele>
        <time>2011-07-09T06:28:13Z</time>
      </trkpt>
      <trkpt lat="45.39563" lon="6.67506">
        <ele>1782.9020996094</ele>
        <time>2011-07-09T06:28:40Z</time>
      </trkpt>
      <trkpt lat="45.39558" lon="6.67504">
        <ele>1783.8635253906</ele>
        <time>2011-07-09T06:28:45Z</time>
      </trkpt>
      <trkpt lat="45.39558" lon="6.67502">
        <ele>1784.3442382812</ele>
        <time>2011-07-09T06:28:49Z</time>
      </trkpt>
      <trkpt lat="45.39557" lon="6.67503">
        <ele>1782.9020996094</ele>
        <time>2011-07-09T06:28:54Z</time>
      </trkpt>
      <trkpt lat="45.39552" lon="6.67498">
        <ele>1784.8249511719</ele>
        <time>2011-07-09T06:29:01Z</time>
      </trkpt>
      <trkpt lat="45.39547" lon="6.67495">
        <ele>1784.3442382812</ele>
        <time>2011-07-09T06:29:05Z</time>
      </trkpt>
      <trkpt lat="45.39538" lon="6.67494">
        <ele>1784.3442382812</ele>
        <time>2011-07-09T06:29:13Z</time>
      </trkpt>
      <trkpt lat="45.39536" lon="6.67497">
        <ele>1784.3442382812</ele>
        <time>2011-07-09T06:29:17Z</time>
      </trkpt>
      <trkpt lat="45.39533" lon="6.67497">
        <ele>1784.3442382812</ele>
        <time>2011-07-09T06:29:23Z</time>
      </trkpt>
      <trkpt lat="45.39531" lon="6.6749">
        <ele>1784.8249511719</ele>
        <time>2011-07-09T06:29:29Z</time>
      </trkpt>
      <trkpt lat="45.39532" lon="6.67484">
        <ele>1785.7861328125</ele>
        <time>2011-07-09T06:29:36Z</time>
      </trkpt>
      <trkpt lat="45.39537" lon="6.67469">
        <ele>1783.8635253906</ele>
        <time>2011-07-09T06:29:42Z</time>
      </trkpt>
      <trkpt lat="45.3954" lon="6.67463">
        <ele>1784.3442382812</ele>
        <time>2011-07-09T06:29:44Z</time>
      </trkpt>
      <trkpt lat="45.39538" lon="6.67459">
        <ele>1783.8635253906</ele>
        <time>2011-07-09T06:29:48Z</time>
      </trkpt>
      <trkpt lat="45.39537" lon="6.67457">
        <ele>1787.7087402344</ele>
        <time>2011-07-09T06:29:53Z</time>
      </trkpt>
      <trkpt lat="45.39537" lon="6.67461">
        <ele>1787.2280273438</ele>
        <time>2011-07-09T06:30:00Z</time>
      </trkpt>
      <trkpt lat="45.39537" lon="6.67461">
        <ele>1787.2280273438</ele>
        <time>2011-07-09T06:30:09Z</time>
      </trkpt>
      <trkpt lat="45.39537" lon="6.6746">
        <ele>1789.1508789062</ele>
        <time>2011-07-09T06:30:12Z</time>
      </trkpt>
      <trkpt lat="45.39538" lon="6.67459">
        <ele>1789.1508789062</ele>
        <time>2011-07-09T06:30:19Z</time>
      </trkpt>
      <trkpt lat="45.39537" lon="6.67458">
        <ele>1790.1123046875</ele>
        <time>2011-07-09T06:30:29Z</time>
      </trkpt>
      <trkpt lat="45.39536" lon="6.67457">
        <ele>1788.6704101562</ele>
        <time>2011-07-09T06:30:31Z</time>
      </trkpt>
      <trkpt lat="45.39524" lon="6.67455">
        <ele>1784.8249511719</ele>
        <time>2011-07-09T06:30:37Z</time>
      </trkpt>
      <trkpt lat="45.39511" lon="6.67456">
        <ele>1783.3828125</ele>
        <time>2011-07-09T06:30:43Z</time>
      </trkpt>
      <trkpt lat="45.39494" lon="6.67458">
        <ele>1780.0183105469</ele>
        <time>2011-07-09T06:30:49Z</time>
      </trkpt>
      <trkpt lat="45.39478" lon="6.67458">
        <ele>1776.6538085938</ele>
        <time>2011-07-09T06:30:54Z</time>
      </trkpt>
      <trkpt lat="45.3946" lon="6.67452">
        <ele>1773.7697753906</ele>
        <time>2011-07-09T06:30:58Z</time>
      </trkpt>
      <trkpt lat="45.39447" lon="6.67445">
        <ele>1771.8469238281</ele>
        <time>2011-07-09T06:31:01Z</time>
      </trkpt>
      <trkpt lat="45.39434" lon="6.67433">
        <ele>1770.8857421875</ele>
        <time>2011-07-09T06:31:04Z</time>
      </trkpt>
      <trkpt lat="45.39426" lon="6.67419">
        <ele>1769.9243164062</ele>
        <time>2011-07-09T06:31:07Z</time>
      </trkpt>
      <trkpt lat="45.3942" lon="6.67407">
        <ele>1770.4050292969</ele>
        <time>2011-07-09T06:31:10Z</time>
      </trkpt>
      <trkpt lat="45.39401" lon="6.67391">
        <ele>1771.8469238281</ele>
        <time>2011-07-09T06:31:18Z</time>
      </trkpt>
      <trkpt lat="45.39383" lon="6.67392">
        <ele>1771.8469238281</ele>
        <time>2011-07-09T06:31:25Z</time>
      </trkpt>
      <trkpt lat="45.39367" lon="6.67394">
        <ele>1773.2893066406</ele>
        <time>2011-07-09T06:31:31Z</time>
      </trkpt>
      <trkpt lat="45.39353" lon="6.67393">
        <ele>1773.7697753906</ele>
        <time>2011-07-09T06:31:37Z</time>
      </trkpt>
      <trkpt lat="45.39338" lon="6.67393">
        <ele>1773.7697753906</ele>
        <time>2011-07-09T06:31:43Z</time>
      </trkpt>
      <trkpt lat="45.3932" lon="6.67386">
        <ele>1774.2504882812</ele>
        <time>2011-07-09T06:31:51Z</time>
      </trkpt>
      <trkpt lat="45.39313" lon="6.67382">
        <ele>1774.7312011719</ele>
        <time>2011-07-09T06:31:54Z</time>
      </trkpt>
      <trkpt lat="45.39315" lon="6.67387">
        <ele>1774.2504882812</ele>
        <time>2011-07-09T06:31:59Z</time>
      </trkpt>
      <trkpt lat="45.39318" lon="6.67389">
        <ele>1774.2504882812</ele>
        <time>2011-07-09T06:32:01Z</time>
      </trkpt>
      <trkpt lat="45.3932" lon="6.67388">
        <ele>1774.2504882812</ele>
        <time>2011-07-09T06:32:07Z</time>
      </trkpt>
      <trkpt lat="45.39311" lon="6.67386">
        <ele>1773.2893066406</ele>
        <time>2011-07-09T06:32:12Z</time>
      </trkpt>
      <trkpt lat="45.39298" lon="6.67379">
        <ele>1773.2893066406</ele>
        <time>2011-07-09T06:32:19Z</time>
      </trkpt>
      <trkpt lat="45.39281" lon="6.67372">
        <ele>1773.2893066406</ele>
        <time>2011-07-09T06:32:27Z</time>
      </trkpt>
      <trkpt lat="45.39279" lon="6.6737">
        <ele>1773.2893066406</ele>
        <time>2011-07-09T06:32:29Z</time>
      </trkpt>
      <trkpt lat="45.39268" lon="6.67365">
        <ele>1772.80859375</ele>
        <time>2011-07-09T06:32:38Z</time>
      </trkpt>
      <trkpt lat="45.39262" lon="6.67364">
        <ele>1771.8469238281</ele>
        <time>2011-07-09T06:32:45Z</time>
      </trkpt>
      <trkpt lat="45.39262" lon="6.67365">
        <ele>1770.8857421875</ele>
        <time>2011-07-09T06:33:05Z</time>
      </trkpt>
      <trkpt lat="45.39262" lon="6.67366">
        <ele>1770.8857421875</ele>
        <time>2011-07-09T06:33:09Z</time>
      </trkpt>
      <trkpt lat="45.39262" lon="6.67366">
        <ele>1770.4050292969</ele>
        <time>2011-07-09T06:33:15Z</time>
      </trkpt>
      <trkpt lat="45.39263" lon="6.67366">
        <ele>1771.3662109375</ele>
        <time>2011-07-09T06:33:25Z</time>
      </trkpt>
      <trkpt lat="45.39263" lon="6.67366">
        <ele>1770.8857421875</ele>
        <time>2011-07-09T06:33:30Z</time>
      </trkpt>
      <trkpt lat="45.39269" lon="6.67367">
        <ele>1763.1953125</ele>
        <time>2011-07-09T06:33:57Z</time>
      </trkpt>
      <trkpt lat="45.39268" lon="6.67364">
        <ele>1767.5209960938</ele>
        <time>2011-07-09T06:34:03Z</time>
      </trkpt>
      <trkpt lat="45.39268" lon="6.67364">
        <ele>1768.0017089844</ele>
        <time>2011-07-09T06:34:05Z</time>
      </trkpt>
      <trkpt lat="45.39267" lon="6.67365">
        <ele>1768.482421875</ele>
        <time>2011-07-09T06:34:09Z</time>
      </trkpt>
      <trkpt lat="45.39258" lon="6.67361">
        <ele>1769.9243164062</ele>
        <time>2011-07-09T06:34:15Z</time>
      </trkpt>
      <trkpt lat="45.39256" lon="6.67361">
        <ele>1770.4050292969</ele>
        <time>2011-07-09T06:34:16Z</time>
      </trkpt>
      <trkpt lat="45.39235" lon="6.67357">
        <ele>1770.4050292969</ele>
        <time>2011-07-09T06:34:26Z</time>
      </trkpt>
      <trkpt lat="45.39217" lon="6.67356">
        <ele>1772.3278808594</ele>
        <time>2011-07-09T06:34:35Z</time>
      </trkpt>
      <trkpt lat="45.3921" lon="6.67356">
        <ele>1773.7697753906</ele>
        <time>2011-07-09T06:34:39Z</time>
      </trkpt>
      <trkpt lat="45.39206" lon="6.67357">
        <ele>1775.6923828125</ele>
        <time>2011-07-09T06:34:42Z</time>
      </trkpt>
      <trkpt lat="45.39201" lon="6.67357">
        <ele>1777.6149902344</ele>
        <time>2011-07-09T06:34:45Z</time>
      </trkpt>
      <trkpt lat="45.39198" lon="6.67357">
        <ele>1778.5764160156</ele>
        <time>2011-07-09T06:34:47Z</time>
      </trkpt>
      <trkpt lat="45.39194" lon="6.67358">
        <ele>1779.5375976562</ele>
        <time>2011-07-09T06:34:49Z</time>
      </trkpt>
      <trkpt lat="45.39191" lon="6.67358">
        <ele>1780.4990234375</ele>
        <time>2011-07-09T06:34:51Z</time>
      </trkpt>
      <trkpt lat="45.39186" lon="6.67359">
        <ele>1781.4602050781</ele>
        <time>2011-07-09T06:34:54Z</time>
      </trkpt>
      <trkpt lat="45.39182" lon="6.67358">
        <ele>1781.4602050781</ele>
        <time>2011-07-09T06:34:57Z</time>
      </trkpt>
      <trkpt lat="45.39178" lon="6.67358">
        <ele>1781.9409179688</ele>
        <time>2011-07-09T06:35:00Z</time>
      </trkpt>
      <trkpt lat="45.39168" lon="6.67355">
        <ele>1783.3828125</ele>
        <time>2011-07-09T06:35:08Z</time>
      </trkpt>
      <trkpt lat="45.39163" lon="6.67352">
        <ele>1783.8635253906</ele>
        <time>2011-07-09T06:35:12Z</time>
      </trkpt>
      <trkpt lat="45.39156" lon="6.67347">
        <ele>1784.8249511719</ele>
        <time>2011-07-09T06:35:18Z</time>
      </trkpt>
      <trkpt lat="45.39148" lon="6.67344">
        <ele>1786.2668457031</ele>
        <time>2011-07-09T06:35:24Z</time>
      </trkpt>
      <trkpt lat="45.3914" lon="6.67341">
        <ele>1789.6315917969</ele>
        <time>2011-07-09T06:35:32Z</time>
      </trkpt>
      <trkpt lat="45.39132" lon="6.67337">
        <ele>1791.0734863281</ele>
        <time>2011-07-09T06:35:39Z</time>
      </trkpt>
      <trkpt lat="45.39128" lon="6.67338">
        <ele>1794.9187011719</ele>
        <time>2011-07-09T06:35:43Z</time>
      </trkpt>
      <trkpt lat="45.39117" lon="6.6734">
        <ele>1794.4379882812</ele>
        <time>2011-07-09T06:35:51Z</time>
      </trkpt>
      <trkpt lat="45.39111" lon="6.67345">
        <ele>1803.08984375</ele>
        <time>2011-07-09T06:35:59Z</time>
      </trkpt>
      <trkpt lat="45.39101" lon="6.67347">
        <ele>1802.1284179688</ele>
        <time>2011-07-09T06:36:07Z</time>
      </trkpt>
      <trkpt lat="45.39091" lon="6.67348">
        <ele>1806.4545898438</ele>
        <time>2011-07-09T06:36:15Z</time>
      </trkpt>
      <trkpt lat="45.39081" lon="6.67346">
        <ele>1806.9353027344</ele>
        <time>2011-07-09T06:36:22Z</time>
      </trkpt>
      <trkpt lat="45.39075" lon="6.67345">
        <ele>1807.8967285156</ele>
        <time>2011-07-09T06:36:27Z</time>
      </trkpt>
      <trkpt lat="45.39064" lon="6.67347">
        <ele>1810.7805175781</ele>
        <time>2011-07-09T06:36:37Z</time>
      </trkpt>
      <trkpt lat="45.39053" lon="6.67352">
        <ele>1811.7419433594</ele>
        <time>2011-07-09T06:36:44Z</time>
      </trkpt>
      <trkpt lat="45.39045" lon="6.67352">
        <ele>1812.703125</ele>
        <time>2011-07-09T06:36:50Z</time>
      </trkpt>
      <trkpt lat="45.39035" lon="6.67348">
        <ele>1808.8579101562</ele>
        <time>2011-07-09T06:36:57Z</time>
      </trkpt>
      <trkpt lat="45.39024" lon="6.67344">
        <ele>1808.3771972656</ele>
        <time>2011-07-09T06:37:04Z</time>
      </trkpt>
      <trkpt lat="45.39013" lon="6.67338">
        <ele>1808.3771972656</ele>
        <time>2011-07-09T06:37:12Z</time>
      </trkpt>
      <trkpt lat="45.39002" lon="6.67328">
        <ele>1809.8190917969</ele>
        <time>2011-07-09T06:37:20Z</time>
      </trkpt>
      <trkpt lat="45.38995" lon="6.67314">
        <ele>1810.7805175781</ele>
        <time>2011-07-09T06:37:28Z</time>
      </trkpt>
      <trkpt lat="45.38991" lon="6.67299">
        <ele>1811.7419433594</ele>
        <time>2011-07-09T06:37:37Z</time>
      </trkpt>
      <trkpt lat="45.38985" lon="6.67285">
        <ele>1814.1450195312</ele>
        <time>2011-07-09T06:37:46Z</time>
      </trkpt>
      <trkpt lat="45.38974" lon="6.67281">
        <ele>1815.5871582031</ele>
        <time>2011-07-09T06:37:53Z</time>
      </trkpt>
      <trkpt lat="45.38963" lon="6.67283">
        <ele>1817.0290527344</ele>
        <time>2011-07-09T06:38:01Z</time>
      </trkpt>
      <trkpt lat="45.38953" lon="6.6728">
        <ele>1818.4709472656</ele>
        <time>2011-07-09T06:38:09Z</time>
      </trkpt>
      <trkpt lat="45.38943" lon="6.67275">
        <ele>1819.9128417969</ele>
        <time>2011-07-09T06:38:17Z</time>
      </trkpt>
      <trkpt lat="45.38934" lon="6.67274">
        <ele>1820.3937988281</ele>
        <time>2011-07-09T06:38:25Z</time>
      </trkpt>
      <trkpt lat="45.38923" lon="6.67274">
        <ele>1820.3937988281</ele>
        <time>2011-07-09T06:38:34Z</time>
      </trkpt>
      <trkpt lat="45.38913" lon="6.67276">
        <ele>1820.3937988281</ele>
        <time>2011-07-09T06:38:41Z</time>
      </trkpt>
      <trkpt lat="45.38905" lon="6.67278">
        <ele>1820.3937988281</ele>
        <time>2011-07-09T06:38:47Z</time>
      </trkpt>
      <trkpt lat="45.38902" lon="6.67278">
        <ele>1819.9128417969</ele>
        <time>2011-07-09T06:38:52Z</time>
      </trkpt>
      <trkpt lat="45.38903" lon="6.67278">
        <ele>1819.9128417969</ele>
        <time>2011-07-09T06:39:01Z</time>
      </trkpt>
      <trkpt lat="45.38903" lon="6.67279">
        <ele>1819.4323730469</ele>
        <time>2011-07-09T06:39:06Z</time>
      </trkpt>
      <trkpt lat="45.38903" lon="6.67278">
        <ele>1821.3549804688</ele>
        <time>2011-07-09T06:39:18Z</time>
      </trkpt>
      <trkpt lat="45.38904" lon="6.67277">
        <ele>1820.8745117188</ele>
        <time>2011-07-09T06:39:25Z</time>
      </trkpt>
      <trkpt lat="45.38901" lon="6.67276">
        <ele>1825.6809082031</ele>
        <time>2011-07-09T06:39:34Z</time>
      </trkpt>
      <trkpt lat="45.38902" lon="6.67273">
        <ele>1829.0454101562</ele>
        <time>2011-07-09T06:39:44Z</time>
      </trkpt>
      <trkpt lat="45.38902" lon="6.67275">
        <ele>1827.603515625</ele>
        <time>2011-07-09T06:39:54Z</time>
      </trkpt>
      <trkpt lat="45.38903" lon="6.67277">
        <ele>1825.6809082031</ele>
        <time>2011-07-09T06:40:06Z</time>
      </trkpt>
      <trkpt lat="45.38897" lon="6.67276">
        <ele>1829.5261230469</ele>
        <time>2011-07-09T06:40:13Z</time>
      </trkpt>
      <trkpt lat="45.3889" lon="6.67275">
        <ele>1829.5261230469</ele>
        <time>2011-07-09T06:40:17Z</time>
      </trkpt>
      <trkpt lat="45.38877" lon="6.67273">
        <ele>1828.0842285156</ele>
        <time>2011-07-09T06:40:25Z</time>
      </trkpt>
      <trkpt lat="45.38862" lon="6.67271">
        <ele>1826.6423339844</ele>
        <time>2011-07-09T06:40:32Z</time>
      </trkpt>
      <trkpt lat="45.3885" lon="6.67263">
        <ele>1825.6809082031</ele>
        <time>2011-07-09T06:40:39Z</time>
      </trkpt>
      <trkpt lat="45.38836" lon="6.67256">
        <ele>1823.7583007812</ele>
        <time>2011-07-09T06:40:47Z</time>
      </trkpt>
      <trkpt lat="45.38823" lon="6.67245">
        <ele>1822.7971191406</ele>
        <time>2011-07-09T06:40:55Z</time>
      </trkpt>
      <trkpt lat="45.38813" lon="6.67227">
        <ele>1820.3937988281</ele>
        <time>2011-07-09T06:41:05Z</time>
      </trkpt>
      <trkpt lat="45.38802" lon="6.67218">
        <ele>1819.9128417969</ele>
        <time>2011-07-09T06:41:13Z</time>
      </trkpt>
      <trkpt lat="45.38791" lon="6.67215">
        <ele>1821.3549804688</ele>
        <time>2011-07-09T06:41:20Z</time>
      </trkpt>
      <trkpt lat="45.38784" lon="6.67216">
        <ele>1820.3937988281</ele>
        <time>2011-07-09T06:41:25Z</time>
      </trkpt>
      <trkpt lat="45.38776" lon="6.67217">
        <ele>1820.3937988281</ele>
        <time>2011-07-09T06:41:30Z</time>
      </trkpt>
      <trkpt lat="45.38762" lon="6.67221">
        <ele>1820.8745117188</ele>
        <time>2011-07-09T06:41:39Z</time>
      </trkpt>
      <trkpt lat="45.38754" lon="6.67238">
        <ele>1822.7971191406</ele>
        <time>2011-07-09T06:41:47Z</time>
      </trkpt>
      <trkpt lat="45.38746" lon="6.67243">
        <ele>1823.7583007812</ele>
        <time>2011-07-09T06:41:53Z</time>
      </trkpt>
      <trkpt lat="45.38735" lon="6.67244">
        <ele>1824.7197265625</ele>
        <time>2011-07-09T06:42:01Z</time>
      </trkpt>
      <trkpt lat="45.38725" lon="6.67244">
        <ele>1826.1616210938</ele>
        <time>2011-07-09T06:42:08Z</time>
      </trkpt>
      <trkpt lat="45.38715" lon="6.67246">
        <ele>1828.0842285156</ele>
        <time>2011-07-09T06:42:15Z</time>
      </trkpt>
      <trkpt lat="45.38704" lon="6.67247">
        <ele>1830.0068359375</ele>
        <time>2011-07-09T06:42:23Z</time>
      </trkpt>
      <trkpt lat="45.38693" lon="6.67245">
        <ele>1832.41015625</ele>
        <time>2011-07-09T06:42:31Z</time>
      </trkpt>
      <trkpt lat="45.38684" lon="6.67243">
        <ele>1834.3327636719</ele>
        <time>2011-07-09T06:42:38Z</time>
      </trkpt>
      <trkpt lat="45.38674" lon="6.67243">
        <ele>1835.7746582031</ele>
        <time>2011-07-09T06:42:45Z</time>
      </trkpt>
      <trkpt lat="45.38663" lon="6.67244">
        <ele>1838.1782226562</ele>
        <time>2011-07-09T06:42:54Z</time>
      </trkpt>
      <trkpt lat="45.38654" lon="6.67249">
        <ele>1839.6201171875</ele>
        <time>2011-07-09T06:43:02Z</time>
      </trkpt>
      <trkpt lat="45.38644" lon="6.67253">
        <ele>1841.5427246094</ele>
        <time>2011-07-09T06:43:11Z</time>
      </trkpt>
      <trkpt lat="45.38636" lon="6.67254">
        <ele>1842.9846191406</ele>
        <time>2011-07-09T06:43:18Z</time>
      </trkpt>
      <trkpt lat="45.38625" lon="6.67255">
        <ele>1843.9460449219</ele>
        <time>2011-07-09T06:43:27Z</time>
      </trkpt>
      <trkpt lat="45.38614" lon="6.67254">
        <ele>1845.3879394531</ele>
        <time>2011-07-09T06:43:37Z</time>
      </trkpt>
      <trkpt lat="45.38602" lon="6.67246">
        <ele>1847.310546875</ele>
        <time>2011-07-09T06:43:48Z</time>
      </trkpt>
      <trkpt lat="45.38596" lon="6.67245">
        <ele>1847.7912597656</ele>
        <time>2011-07-09T06:43:54Z</time>
      </trkpt>
      <trkpt lat="45.38596" lon="6.67245">
        <ele>1847.7912597656</ele>
        <time>2011-07-09T06:44:07Z</time>
      </trkpt>
      <trkpt lat="45.38596" lon="6.67245">
        <ele>1847.7912597656</ele>
        <time>2011-07-09T06:44:12Z</time>
      </trkpt>
      <trkpt lat="45.38596" lon="6.67245">
        <ele>1847.7912597656</ele>
        <time>2011-07-09T06:44:14Z</time>
      </trkpt>
      <trkpt lat="45.38596" lon="6.67245">
        <ele>1848.7524414062</ele>
        <time>2011-07-09T06:44:23Z</time>
      </trkpt>
      <trkpt lat="45.38595" lon="6.67245">
        <ele>1848.7524414062</ele>
        <time>2011-07-09T06:44:26Z</time>
      </trkpt>
      <trkpt lat="45.38595" lon="6.67245">
        <ele>1849.2331542969</ele>
        <time>2011-07-09T06:44:29Z</time>
      </trkpt>
      <trkpt lat="45.38594" lon="6.67245">
        <ele>1851.6364746094</ele>
        <time>2011-07-09T06:44:42Z</time>
      </trkpt>
      <trkpt lat="45.38594" lon="6.67244">
        <ele>1852.1171875</ele>
        <time>2011-07-09T06:44:49Z</time>
      </trkpt>
      <trkpt lat="45.38594" lon="6.67245">
        <ele>1852.1171875</ele>
        <time>2011-07-09T06:44:54Z</time>
      </trkpt>
      <trkpt lat="45.38595" lon="6.67247">
        <ele>1848.2717285156</ele>
        <time>2011-07-09T06:45:19Z</time>
      </trkpt>
      <trkpt lat="45.38593" lon="6.67245">
        <ele>1852.5979003906</ele>
        <time>2011-07-09T06:45:32Z</time>
      </trkpt>
      <trkpt lat="45.38592" lon="6.67244">
        <ele>1854.5205078125</ele>
        <time>2011-07-09T06:45:35Z</time>
      </trkpt>
      <trkpt lat="45.38591" lon="6.67243">
        <ele>1855.9624023438</ele>
        <time>2011-07-09T06:45:38Z</time>
      </trkpt>
      <trkpt lat="45.38591" lon="6.67241">
        <ele>1860.2883300781</ele>
        <time>2011-07-09T06:45:44Z</time>
      </trkpt>
      <trkpt lat="45.38591" lon="6.6724">
        <ele>1860.7690429688</ele>
        <time>2011-07-09T06:45:45Z</time>
      </trkpt>
      <trkpt lat="45.3859" lon="6.6724">
        <ele>1861.73046875</ele>
        <time>2011-07-09T06:45:52Z</time>
      </trkpt>
      <trkpt lat="45.38591" lon="6.67239">
        <ele>1861.73046875</ele>
        <time>2011-07-09T06:45:54Z</time>
      </trkpt>
      <trkpt lat="45.38591" lon="6.67239">
        <ele>1861.73046875</ele>
        <time>2011-07-09T06:45:55Z</time>
      </trkpt>
      <trkpt lat="45.3859" lon="6.6724">
        <ele>1861.73046875</ele>
        <time>2011-07-09T06:46:02Z</time>
      </trkpt>
      <trkpt lat="45.38586" lon="6.67239">
        <ele>1860.2883300781</ele>
        <time>2011-07-09T06:46:10Z</time>
      </trkpt>
      <trkpt lat="45.38574" lon="6.67235">
        <ele>1858.8464355469</ele>
        <time>2011-07-09T06:46:19Z</time>
      </trkpt>
      <trkpt lat="45.38566" lon="6.67233">
        <ele>1858.3657226562</ele>
        <time>2011-07-09T06:46:25Z</time>
      </trkpt>
      <trkpt lat="45.38561" lon="6.67231">
        <ele>1857.8852539062</ele>
        <time>2011-07-09T06:46:29Z</time>
      </trkpt>
      <trkpt lat="45.38556" lon="6.67229">
        <ele>1857.4045410156</ele>
        <time>2011-07-09T06:46:33Z</time>
      </trkpt>
      <trkpt lat="45.38546" lon="6.67228">
        <ele>1856.923828125</ele>
        <time>2011-07-09T06:46:40Z</time>
      </trkpt>
      <trkpt lat="45.38536" lon="6.67226">
        <ele>1859.3271484375</ele>
        <time>2011-07-09T06:46:48Z</time>
      </trkpt>
      <trkpt lat="45.38531" lon="6.67225">
        <ele>1859.8076171875</ele>
        <time>2011-07-09T06:46:52Z</time>
      </trkpt>
      <trkpt lat="45.38524" lon="6.67226">
        <ele>1859.3271484375</ele>
        <time>2011-07-09T06:46:58Z</time>
      </trkpt>
      <trkpt lat="45.38515" lon="6.67227">
        <ele>1859.8076171875</ele>
        <time>2011-07-09T06:47:06Z</time>
      </trkpt>
      <trkpt lat="45.38505" lon="6.67231">
        <ele>1861.2497558594</ele>
        <time>2011-07-09T06:47:15Z</time>
      </trkpt>
      <trkpt lat="45.38496" lon="6.67235">
        <ele>1862.6916503906</ele>
        <time>2011-07-09T06:47:23Z</time>
      </trkpt>
      <trkpt lat="45.38486" lon="6.67237">
        <ele>1864.6142578125</ele>
        <time>2011-07-09T06:47:31Z</time>
      </trkpt>
      <trkpt lat="45.38478" lon="6.67238">
        <ele>1866.0561523438</ele>
        <time>2011-07-09T06:47:39Z</time>
      </trkpt>
      <trkpt lat="45.38468" lon="6.67241">
        <ele>1866.5368652344</ele>
        <time>2011-07-09T06:47:48Z</time>
      </trkpt>
      <trkpt lat="45.38458" lon="6.67243">
        <ele>1867.017578125</ele>
        <time>2011-07-09T06:47:57Z</time>
      </trkpt>
      <trkpt lat="45.38458" lon="6.67243">
        <ele>1867.498046875</ele>
        <time>2011-07-09T06:48:03Z</time>
      </trkpt>
      <trkpt lat="45.38459" lon="6.67243">
        <ele>1867.9787597656</ele>
        <time>2011-07-09T06:48:09Z</time>
      </trkpt>
      <trkpt lat="45.38459" lon="6.67243">
        <ele>1867.9787597656</ele>
        <time>2011-07-09T06:48:19Z</time>
      </trkpt>
      <trkpt lat="45.38459" lon="6.67243">
        <ele>1867.498046875</ele>
        <time>2011-07-09T06:48:21Z</time>
      </trkpt>
      <trkpt lat="45.38458" lon="6.67244">
        <ele>1867.9787597656</ele>
        <time>2011-07-09T06:48:27Z</time>
      </trkpt>
      <trkpt lat="45.38461" lon="6.67242">
        <ele>1867.9787597656</ele>
        <time>2011-07-09T06:48:32Z</time>
      </trkpt>
      <trkpt lat="45.38461" lon="6.67242">
        <ele>1868.4597167969</ele>
        <time>2011-07-09T06:48:37Z</time>
      </trkpt>
      <trkpt lat="45.38455" lon="6.67243">
        <ele>1868.4597167969</ele>
        <time>2011-07-09T06:48:43Z</time>
      </trkpt>
      <trkpt lat="45.38451" lon="6.67243">
        <ele>1868.9404296875</ele>
        <time>2011-07-09T06:48:46Z</time>
      </trkpt>
      <trkpt lat="45.38443" lon="6.67245">
        <ele>1869.9016113281</ele>
        <time>2011-07-09T06:48:51Z</time>
      </trkpt>
      <trkpt lat="45.38429" lon="6.67252">
        <ele>1871.3435058594</ele>
        <time>2011-07-09T06:49:01Z</time>
      </trkpt>
      <trkpt lat="45.38415" lon="6.67262">
        <ele>1873.2663574219</ele>
        <time>2011-07-09T06:49:11Z</time>
      </trkpt>
      <trkpt lat="45.3841" lon="6.67267">
        <ele>1873.7468261719</ele>
        <time>2011-07-09T06:49:18Z</time>
      </trkpt>
      <trkpt lat="45.38411" lon="6.67267">
        <ele>1873.2663574219</ele>
        <time>2011-07-09T06:49:32Z</time>
      </trkpt>
      <trkpt lat="45.38411" lon="6.67267">
        <ele>1872.7856445312</ele>
        <time>2011-07-09T06:49:36Z</time>
      </trkpt>
      <trkpt lat="45.38412" lon="6.67267">
        <ele>1871.82421875</ele>
        <time>2011-07-09T06:49:43Z</time>
      </trkpt>
      <trkpt lat="45.38411" lon="6.67267">
        <ele>1871.82421875</ele>
        <time>2011-07-09T06:49:45Z</time>
      </trkpt>
      <trkpt lat="45.3841" lon="6.67268">
        <ele>1871.3435058594</ele>
        <time>2011-07-09T06:49:46Z</time>
      </trkpt>
      <trkpt lat="45.38403" lon="6.67271">
        <ele>1871.82421875</ele>
        <time>2011-07-09T06:49:52Z</time>
      </trkpt>
      <trkpt lat="45.384" lon="6.67271">
        <ele>1872.3049316406</ele>
        <time>2011-07-09T06:49:55Z</time>
      </trkpt>
      <trkpt lat="45.38391" lon="6.67264">
        <ele>1874.2275390625</ele>
        <time>2011-07-09T06:50:02Z</time>
      </trkpt>
      <trkpt lat="45.38388" lon="6.67257">
        <ele>1875.1887207031</ele>
        <time>2011-07-09T06:50:06Z</time>
      </trkpt>
      <trkpt lat="45.38386" lon="6.67252">
        <ele>1875.6694335938</ele>
        <time>2011-07-09T06:50:09Z</time>
      </trkpt>
      <trkpt lat="45.38385" lon="6.67248">
        <ele>1877.1115722656</ele>
        <time>2011-07-09T06:50:11Z</time>
      </trkpt>
      <trkpt lat="45.38379" lon="6.67232">
        <ele>1879.5146484375</ele>
        <time>2011-07-09T06:50:20Z</time>
      </trkpt>
      <trkpt lat="45.38373" lon="6.6722">
        <ele>1881.91796875</ele>
        <time>2011-07-09T06:50:29Z</time>
      </trkpt>
      <trkpt lat="45.38362" lon="6.6721">
        <ele>1882.8791503906</ele>
        <time>2011-07-09T06:50:39Z</time>
      </trkpt>
      <trkpt lat="45.38352" lon="6.67198">
        <ele>1883.3598632812</ele>
        <time>2011-07-09T06:50:49Z</time>
      </trkpt>
      <trkpt lat="45.38344" lon="6.67192">
        <ele>1882.8791503906</ele>
        <time>2011-07-09T06:50:56Z</time>
      </trkpt>
      <trkpt lat="45.38336" lon="6.67186">
        <ele>1882.8791503906</ele>
        <time>2011-07-09T06:51:03Z</time>
      </trkpt>
      <trkpt lat="45.38326" lon="6.67183">
        <ele>1881.91796875</ele>
        <time>2011-07-09T06:51:10Z</time>
      </trkpt>
      <trkpt lat="45.38308" lon="6.67182">
        <ele>1881.91796875</ele>
        <time>2011-07-09T06:51:18Z</time>
      </trkpt>
      <trkpt lat="45.38295" lon="6.67179">
        <ele>1880.4760742188</ele>
        <time>2011-07-09T06:51:22Z</time>
      </trkpt>
      <trkpt lat="45.38285" lon="6.67173">
        <ele>1879.0339355469</ele>
        <time>2011-07-09T06:51:25Z</time>
      </trkpt>
      <trkpt lat="45.38272" lon="6.67158">
        <ele>1875.1887207031</ele>
        <time>2011-07-09T06:51:31Z</time>
      </trkpt>
      <trkpt lat="45.38258" lon="6.67145">
        <ele>1872.3049316406</ele>
        <time>2011-07-09T06:51:39Z</time>
      </trkpt>
      <trkpt lat="45.38241" lon="6.67136">
        <ele>1871.82421875</ele>
        <time>2011-07-09T06:51:47Z</time>
      </trkpt>
      <trkpt lat="45.38238" lon="6.67123">
        <ele>1872.3049316406</ele>
        <time>2011-07-09T06:51:52Z</time>
      </trkpt>
      <trkpt lat="45.38235" lon="6.6709">
        <ele>1877.1115722656</ele>
        <time>2011-07-09T06:52:03Z</time>
      </trkpt>
      <trkpt lat="45.38221" lon="6.67074">
        <ele>1879.5146484375</ele>
        <time>2011-07-09T06:52:11Z</time>
      </trkpt>
      <trkpt lat="45.38207" lon="6.67067">
        <ele>1881.91796875</ele>
        <time>2011-07-09T06:52:18Z</time>
      </trkpt>
      <trkpt lat="45.38197" lon="6.67061">
        <ele>1883.3598632812</ele>
        <time>2011-07-09T06:52:23Z</time>
      </trkpt>
      <trkpt lat="45.38188" lon="6.67053">
        <ele>1884.8022460938</ele>
        <time>2011-07-09T06:52:27Z</time>
      </trkpt>
      <trkpt lat="45.38183" lon="6.67046">
        <ele>1886.244140625</ele>
        <time>2011-07-09T06:52:30Z</time>
      </trkpt>
      <trkpt lat="45.3818" lon="6.6704">
        <ele>1886.724609375</ele>
        <time>2011-07-09T06:52:33Z</time>
      </trkpt>
      <trkpt lat="45.38178" lon="6.67036">
        <ele>1887.2053222656</ele>
        <time>2011-07-09T06:52:35Z</time>
      </trkpt>
      <trkpt lat="45.38167" lon="6.67016">
        <ele>1888.1667480469</ele>
        <time>2011-07-09T06:52:45Z</time>
      </trkpt>
      <trkpt lat="45.38159" lon="6.67008">
        <ele>1888.6474609375</ele>
        <time>2011-07-09T06:52:52Z</time>
      </trkpt>
      <trkpt lat="45.38153" lon="6.67">
        <ele>1889.1279296875</ele>
        <time>2011-07-09T06:52:59Z</time>
      </trkpt>
      <trkpt lat="45.38154" lon="6.67001">
        <ele>1890.0893554688</ele>
        <time>2011-07-09T06:53:07Z</time>
      </trkpt>
      <trkpt lat="45.38156" lon="6.66999">
        <ele>1890.0893554688</ele>
        <time>2011-07-09T06:53:14Z</time>
      </trkpt>
      <trkpt lat="45.38156" lon="6.66998">
        <ele>1890.5698242188</ele>
        <time>2011-07-09T06:53:18Z</time>
      </trkpt>
      <trkpt lat="45.38156" lon="6.66998">
        <ele>1891.0505371094</ele>
        <time>2011-07-09T06:53:21Z</time>
      </trkpt>
      <trkpt lat="45.38157" lon="6.66998">
        <ele>1891.53125</ele>
        <time>2011-07-09T06:53:28Z</time>
      </trkpt>
      <trkpt lat="45.38157" lon="6.67">
        <ele>1889.6086425781</ele>
        <time>2011-07-09T06:53:43Z</time>
      </trkpt>
      <trkpt lat="45.38157" lon="6.67001">
        <ele>1889.6086425781</ele>
        <time>2011-07-09T06:53:46Z</time>
      </trkpt>
      <trkpt lat="45.38156" lon="6.67">
        <ele>1889.6086425781</ele>
        <time>2011-07-09T06:53:51Z</time>
      </trkpt>
      <trkpt lat="45.38154" lon="6.66995">
        <ele>1890.5698242188</ele>
        <time>2011-07-09T06:53:59Z</time>
      </trkpt>
      <trkpt lat="45.38144" lon="6.66981">
        <ele>1893.9345703125</ele>
        <time>2011-07-09T06:54:07Z</time>
      </trkpt>
      <trkpt lat="45.38137" lon="6.66972">
        <ele>1893.4538574219</ele>
        <time>2011-07-09T06:54:13Z</time>
      </trkpt>
      <trkpt lat="45.38129" lon="6.66964">
        <ele>1892.9731445312</ele>
        <time>2011-07-09T06:54:20Z</time>
      </trkpt>
      <trkpt lat="45.38118" lon="6.66954">
        <ele>1893.4538574219</ele>
        <time>2011-07-09T06:54:29Z</time>
      </trkpt>
      <trkpt lat="45.38105" lon="6.66943">
        <ele>1894.4150390625</ele>
        <time>2011-07-09T06:54:39Z</time>
      </trkpt>
      <trkpt lat="45.38092" lon="6.66934">
        <ele>1893.9345703125</ele>
        <time>2011-07-09T06:54:49Z</time>
      </trkpt>
      <trkpt lat="45.38081" lon="6.66925">
        <ele>1892.9731445312</ele>
        <time>2011-07-09T06:54:58Z</time>
      </trkpt>
      <trkpt lat="45.38071" lon="6.66919">
        <ele>1892.4926757812</ele>
        <time>2011-07-09T06:55:05Z</time>
      </trkpt>
      <trkpt lat="45.38057" lon="6.66911">
        <ele>1891.53125</ele>
        <time>2011-07-09T06:55:15Z</time>
      </trkpt>
      <trkpt lat="45.3804" lon="6.66902">
        <ele>1891.53125</ele>
        <time>2011-07-09T06:55:25Z</time>
      </trkpt>
      <trkpt lat="45.38022" lon="6.66892">
        <ele>1892.0119628906</ele>
        <time>2011-07-09T06:55:35Z</time>
      </trkpt>
      <trkpt lat="45.3802" lon="6.6689">
        <ele>1893.4538574219</ele>
        <time>2011-07-09T06:55:39Z</time>
      </trkpt>
      <trkpt lat="45.38021" lon="6.66891">
        <ele>1899.2216796875</ele>
        <time>2011-07-09T06:56:00Z</time>
      </trkpt>
      <trkpt lat="45.38021" lon="6.66891">
        <ele>1899.7023925781</ele>
        <time>2011-07-09T06:56:03Z</time>
      </trkpt>
      <trkpt lat="45.38021" lon="6.66889">
        <ele>1896.337890625</ele>
        <time>2011-07-09T06:56:22Z</time>
      </trkpt>
      <trkpt lat="45.3802" lon="6.66888">
        <ele>1896.818359375</ele>
        <time>2011-07-09T06:56:31Z</time>
      </trkpt>
      <trkpt lat="45.38018" lon="6.66889">
        <ele>1896.337890625</ele>
        <time>2011-07-09T06:56:43Z</time>
      </trkpt>
      <trkpt lat="45.38018" lon="6.66889">
        <ele>1895.8571777344</ele>
        <time>2011-07-09T06:56:49Z</time>
      </trkpt>
      <trkpt lat="45.38013" lon="6.66887">
        <ele>1894.8957519531</ele>
        <time>2011-07-09T06:57:00Z</time>
      </trkpt>
      <trkpt lat="45.38009" lon="6.66884">
        <ele>1894.8957519531</ele>
        <time>2011-07-09T06:57:03Z</time>
      </trkpt>
      <trkpt lat="45.38007" lon="6.66883">
        <ele>1894.4150390625</ele>
        <time>2011-07-09T06:57:04Z</time>
      </trkpt>
      <trkpt lat="45.37994" lon="6.66873">
        <ele>1895.8571777344</ele>
        <time>2011-07-09T06:57:13Z</time>
      </trkpt>
      <trkpt lat="45.37987" lon="6.66868">
        <ele>1895.8571777344</ele>
        <time>2011-07-09T06:57:17Z</time>
      </trkpt>
      <trkpt lat="45.37978" lon="6.66862">
        <ele>1896.337890625</ele>
        <time>2011-07-09T06:57:23Z</time>
      </trkpt>
      <trkpt lat="45.37965" lon="6.66855">
        <ele>1896.818359375</ele>
        <time>2011-07-09T06:57:30Z</time>
      </trkpt>
      <trkpt lat="45.37965" lon="6.66855">
        <ele>1897.7797851562</ele>
        <time>2011-07-09T06:57:36Z</time>
      </trkpt>
      <trkpt lat="45.37962" lon="6.66858">
        <ele>1903.0671386719</ele>
        <time>2011-07-09T06:57:54Z</time>
      </trkpt>
      <trkpt lat="45.37962" lon="6.66858">
        <ele>1902.1057128906</ele>
        <time>2011-07-09T06:57:58Z</time>
      </trkpt>
      <trkpt lat="45.37963" lon="6.66857">
        <ele>1901.14453125</ele>
        <time>2011-07-09T06:58:08Z</time>
      </trkpt>
      <trkpt lat="45.37963" lon="6.66857">
        <ele>1900.1833496094</ele>
        <time>2011-07-09T06:58:15Z</time>
      </trkpt>
      <trkpt lat="45.37963" lon="6.66857">
        <ele>1901.6252441406</ele>
        <time>2011-07-09T06:58:31Z</time>
      </trkpt>
      <trkpt lat="45.37966" lon="6.66858">
        <ele>1896.337890625</ele>
        <time>2011-07-09T06:58:56Z</time>
      </trkpt>
      <trkpt lat="45.37965" lon="6.66856">
        <ele>1902.1057128906</ele>
        <time>2011-07-09T06:59:05Z</time>
      </trkpt>
      <trkpt lat="45.37965" lon="6.66856">
        <ele>1901.6252441406</ele>
        <time>2011-07-09T06:59:07Z</time>
      </trkpt>
      <trkpt lat="45.37966" lon="6.66857">
        <ele>1902.5864257812</ele>
        <time>2011-07-09T06:59:12Z</time>
      </trkpt>
      <trkpt lat="45.37967" lon="6.66857">
        <ele>1900.1833496094</ele>
        <time>2011-07-09T06:59:21Z</time>
      </trkpt>
      <trkpt lat="45.37968" lon="6.66857">
        <ele>1899.7023925781</ele>
        <time>2011-07-09T06:59:28Z</time>
      </trkpt>
      <trkpt lat="45.37967" lon="6.66854">
        <ele>1896.818359375</ele>
        <time>2011-07-09T06:59:41Z</time>
      </trkpt>
      <trkpt lat="45.37962" lon="6.6685">
        <ele>1896.818359375</ele>
        <time>2011-07-09T06:59:44Z</time>
      </trkpt>
      <trkpt lat="45.37958" lon="6.66847">
        <ele>1896.818359375</ele>
        <time>2011-07-09T06:59:47Z</time>
      </trkpt>
      <trkpt lat="45.37956" lon="6.66846">
        <ele>1896.818359375</ele>
        <time>2011-07-09T06:59:48Z</time>
      </trkpt>
      <trkpt lat="45.37942" lon="6.66834">
        <ele>1897.7797851562</ele>
        <time>2011-07-09T06:59:55Z</time>
      </trkpt>
      <trkpt lat="45.37927" lon="6.66821">
        <ele>1896.818359375</ele>
        <time>2011-07-09T07:00:03Z</time>
      </trkpt>
      <trkpt lat="45.37911" lon="6.66809">
        <ele>1895.8571777344</ele>
        <time>2011-07-09T07:00:11Z</time>
      </trkpt>
      <trkpt lat="45.37891" lon="6.668">
        <ele>1895.3764648438</ele>
        <time>2011-07-09T07:00:20Z</time>
      </trkpt>
      <trkpt lat="45.37875" lon="6.66793">
        <ele>1896.337890625</ele>
        <time>2011-07-09T07:00:27Z</time>
      </trkpt>
      <trkpt lat="45.3786" lon="6.66785">
        <ele>1897.2990722656</ele>
        <time>2011-07-09T07:00:34Z</time>
      </trkpt>
      <trkpt lat="45.37841" lon="6.66775">
        <ele>1899.2216796875</ele>
        <time>2011-07-09T07:00:43Z</time>
      </trkpt>
      <trkpt lat="45.37823" lon="6.66766">
        <ele>1900.6638183594</ele>
        <time>2011-07-09T07:00:51Z</time>
      </trkpt>
      <trkpt lat="45.37803" lon="6.66756">
        <ele>1904.9897460938</ele>
        <time>2011-07-09T07:01:00Z</time>
      </trkpt>
      <trkpt lat="45.37785" lon="6.66748">
        <ele>1907.3930664062</ele>
        <time>2011-07-09T07:01:09Z</time>
      </trkpt>
      <trkpt lat="45.37764" lon="6.66739">
        <ele>1909.3156738281</ele>
        <time>2011-07-09T07:01:20Z</time>
      </trkpt>
      <trkpt lat="45.37752" lon="6.66729">
        <ele>1910.2768554688</ele>
        <time>2011-07-09T07:01:27Z</time>
      </trkpt>
      <trkpt lat="45.37735" lon="6.6671">
        <ele>1910.7575683594</ele>
        <time>2011-07-09T07:01:37Z</time>
      </trkpt>
      <trkpt lat="45.37725" lon="6.66693">
        <ele>1911.7189941406</ele>
        <time>2011-07-09T07:01:45Z</time>
      </trkpt>
      <trkpt lat="45.37715" lon="6.66678">
        <ele>1913.1608886719</ele>
        <time>2011-07-09T07:01:53Z</time>
      </trkpt>
      <trkpt lat="45.37701" lon="6.6666">
        <ele>1914.6027832031</ele>
        <time>2011-07-09T07:02:03Z</time>
      </trkpt>
      <trkpt lat="45.37691" lon="6.66649">
        <ele>1915.5642089844</ele>
        <time>2011-07-09T07:02:10Z</time>
      </trkpt>
      <trkpt lat="45.37682" lon="6.66639">
        <ele>1917.0063476562</ele>
        <time>2011-07-09T07:02:17Z</time>
      </trkpt>
      <trkpt lat="45.37673" lon="6.66627">
        <ele>1918.4482421875</ele>
        <time>2011-07-09T07:02:24Z</time>
      </trkpt>
      <trkpt lat="45.37666" lon="6.66614">
        <ele>1918.9289550781</ele>
        <time>2011-07-09T07:02:31Z</time>
      </trkpt>
      <trkpt lat="45.37654" lon="6.66601">
        <ele>1919.8901367188</ele>
        <time>2011-07-09T07:02:41Z</time>
      </trkpt>
      <trkpt lat="45.37647" lon="6.66596">
        <ele>1920.3708496094</ele>
        <time>2011-07-09T07:02:48Z</time>
      </trkpt>
      <trkpt lat="45.37646" lon="6.66595">
        <ele>1920.3708496094</ele>
        <time>2011-07-09T07:02:49Z</time>
      </trkpt>
      <trkpt lat="45.37644" lon="6.66594">
        <ele>1919.8901367188</ele>
        <time>2011-07-09T07:02:56Z</time>
      </trkpt>
      <trkpt lat="45.3764" lon="6.66591">
        <ele>1919.8901367188</ele>
        <time>2011-07-09T07:03:04Z</time>
      </trkpt>
      <trkpt lat="45.37637" lon="6.66588">
        <ele>1920.3708496094</ele>
        <time>2011-07-09T07:03:11Z</time>
      </trkpt>
      <trkpt lat="45.3763" lon="6.66584">
        <ele>1920.3708496094</ele>
        <time>2011-07-09T07:03:22Z</time>
      </trkpt>
      <trkpt lat="45.37625" lon="6.6658">
        <ele>1919.8901367188</ele>
        <time>2011-07-09T07:03:31Z</time>
      </trkpt>
      <trkpt lat="45.37623" lon="6.66577">
        <ele>1919.4096679688</ele>
        <time>2011-07-09T07:03:37Z</time>
      </trkpt>
      <trkpt lat="45.37622" lon="6.66575">
        <ele>1919.4096679688</ele>
        <time>2011-07-09T07:03:44Z</time>
      </trkpt>
      <trkpt lat="45.37625" lon="6.66573">
        <ele>1918.9289550781</ele>
        <time>2011-07-09T07:03:49Z</time>
      </trkpt>
      <trkpt lat="45.37625" lon="6.66568">
        <ele>1919.4096679688</ele>
        <time>2011-07-09T07:03:55Z</time>
      </trkpt>
      <trkpt lat="45.37626" lon="6.66569">
        <ele>1916.044921875</ele>
        <time>2011-07-09T07:04:03Z</time>
      </trkpt>
      <trkpt lat="45.37625" lon="6.66575">
        <ele>1917.4868164062</ele>
        <time>2011-07-09T07:04:08Z</time>
      </trkpt>
      <trkpt lat="45.37624" lon="6.66577">
        <ele>1917.9675292969</ele>
        <time>2011-07-09T07:04:13Z</time>
      </trkpt>
      <trkpt lat="45.37625" lon="6.66579">
        <ele>1915.5642089844</ele>
        <time>2011-07-09T07:04:28Z</time>
      </trkpt>
      <trkpt lat="45.37624" lon="6.66578">
        <ele>1917.4868164062</ele>
        <time>2011-07-09T07:04:38Z</time>
      </trkpt>
      <trkpt lat="45.37622" lon="6.66575">
        <ele>1919.8901367188</ele>
        <time>2011-07-09T07:04:47Z</time>
      </trkpt>
      <trkpt lat="45.37621" lon="6.66574">
        <ele>1920.3708496094</ele>
        <time>2011-07-09T07:04:52Z</time>
      </trkpt>
      <trkpt lat="45.37621" lon="6.66574">
        <ele>1918.9289550781</ele>
        <time>2011-07-09T07:05:02Z</time>
      </trkpt>
      <trkpt lat="45.3762" lon="6.66572">
        <ele>1922.2934570312</ele>
        <time>2011-07-09T07:05:12Z</time>
      </trkpt>
      <trkpt lat="45.37613" lon="6.66567">
        <ele>1929.0224609375</ele>
        <time>2011-07-09T07:05:36Z</time>
      </trkpt>
      <trkpt lat="45.37609" lon="6.66565">
        <ele>1927.1000976562</ele>
        <time>2011-07-09T07:05:42Z</time>
      </trkpt>
      <trkpt lat="45.37606" lon="6.66564">
        <ele>1925.6579589844</ele>
        <time>2011-07-09T07:05:48Z</time>
      </trkpt>
      <trkpt lat="45.37606" lon="6.66562">
        <ele>1920.3708496094</ele>
        <time>2011-07-09T07:06:16Z</time>
      </trkpt>
      <trkpt lat="45.376" lon="6.66558">
        <ele>1920.3708496094</ele>
        <time>2011-07-09T07:06:25Z</time>
      </trkpt>
      <trkpt lat="45.37595" lon="6.66555">
        <ele>1920.3708496094</ele>
        <time>2011-07-09T07:06:31Z</time>
      </trkpt>
      <trkpt lat="45.37587" lon="6.66549">
        <ele>1921.8127441406</ele>
        <time>2011-07-09T07:06:41Z</time>
      </trkpt>
      <trkpt lat="45.37584" lon="6.66548">
        <ele>1922.2934570312</ele>
        <time>2011-07-09T07:06:46Z</time>
      </trkpt>
      <trkpt lat="45.3758" lon="6.66544">
        <ele>1923.7353515625</ele>
        <time>2011-07-09T07:06:51Z</time>
      </trkpt>
      <trkpt lat="45.37575" lon="6.66541">
        <ele>1925.1772460938</ele>
        <time>2011-07-09T07:06:57Z</time>
      </trkpt>
      <trkpt lat="45.37564" lon="6.66535">
        <ele>1927.1000976562</ele>
        <time>2011-07-09T07:07:08Z</time>
      </trkpt>
      <trkpt lat="45.37557" lon="6.66531">
        <ele>1927.5805664062</ele>
        <time>2011-07-09T07:07:17Z</time>
      </trkpt>
      <trkpt lat="45.37551" lon="6.66527">
        <ele>1928.0612792969</ele>
        <time>2011-07-09T07:07:24Z</time>
      </trkpt>
      <trkpt lat="45.37543" lon="6.6652">
        <ele>1929.0224609375</ele>
        <time>2011-07-09T07:07:35Z</time>
      </trkpt>
      <trkpt lat="45.37535" lon="6.66514">
        <ele>1930.4645996094</ele>
        <time>2011-07-09T07:07:45Z</time>
      </trkpt>
      <trkpt lat="45.3753" lon="6.6651">
        <ele>1930.9453125</ele>
        <time>2011-07-09T07:07:51Z</time>
      </trkpt>
      <trkpt lat="45.37526" lon="6.66507">
        <ele>1931.9064941406</ele>
        <time>2011-07-09T07:07:56Z</time>
      </trkpt>
      <trkpt lat="45.37517" lon="6.66502">
        <ele>1932.8679199219</ele>
        <time>2011-07-09T07:08:07Z</time>
      </trkpt>
      <trkpt lat="45.37511" lon="6.66498">
        <ele>1934.3100585938</ele>
        <time>2011-07-09T07:08:14Z</time>
      </trkpt>
      <trkpt lat="45.37502" lon="6.66492">
        <ele>1935.2712402344</ele>
        <time>2011-07-09T07:08:24Z</time>
      </trkpt>
      <trkpt lat="45.37497" lon="6.66489">
        <ele>1935.751953125</ele>
        <time>2011-07-09T07:08:30Z</time>
      </trkpt>
      <trkpt lat="45.37487" lon="6.66483">
        <ele>1936.7131347656</ele>
        <time>2011-07-09T07:08:40Z</time>
      </trkpt>
      <trkpt lat="45.37481" lon="6.66479">
        <ele>1937.6745605469</ele>
        <time>2011-07-09T07:08:47Z</time>
      </trkpt>
      <trkpt lat="45.37476" lon="6.66476">
        <ele>1939.1164550781</ele>
        <time>2011-07-09T07:08:54Z</time>
      </trkpt>
      <trkpt lat="45.37476" lon="6.66477">
        <ele>1939.5971679688</ele>
        <time>2011-07-09T07:09:14Z</time>
      </trkpt>
      <trkpt lat="45.37476" lon="6.66477">
        <ele>1939.1164550781</ele>
        <time>2011-07-09T07:09:20Z</time>
      </trkpt>
      <trkpt lat="45.37475" lon="6.66476">
        <ele>1939.1164550781</ele>
        <time>2011-07-09T07:09:21Z</time>
      </trkpt>
      <trkpt lat="45.37465" lon="6.66473">
        <ele>1940.0778808594</ele>
        <time>2011-07-09T07:09:31Z</time>
      </trkpt>
      <trkpt lat="45.3746" lon="6.66472">
        <ele>1940.5583496094</ele>
        <time>2011-07-09T07:09:36Z</time>
      </trkpt>
      <trkpt lat="45.37458" lon="6.66471">
        <ele>1940.5583496094</ele>
        <time>2011-07-09T07:09:39Z</time>
      </trkpt>
      <trkpt lat="45.37458" lon="6.66471">
        <ele>1941.0390625</ele>
        <time>2011-07-09T07:09:40Z</time>
      </trkpt>
      <trkpt lat="45.37458" lon="6.66471">
        <ele>1942.0004882812</ele>
        <time>2011-07-09T07:09:54Z</time>
      </trkpt>
      <trkpt lat="45.37458" lon="6.66471">
        <ele>1942.0004882812</ele>
        <time>2011-07-09T07:09:56Z</time>
      </trkpt>
      <trkpt lat="45.37458" lon="6.66471">
        <ele>1942.4812011719</ele>
        <time>2011-07-09T07:10:03Z</time>
      </trkpt>
      <trkpt lat="45.37453" lon="6.66468">
        <ele>1943.4423828125</ele>
        <time>2011-07-09T07:10:11Z</time>
      </trkpt>
      <trkpt lat="45.37445" lon="6.66465">
        <ele>1944.8842773438</ele>
        <time>2011-07-09T07:10:20Z</time>
      </trkpt>
      <trkpt lat="45.37442" lon="6.66464">
        <ele>1945.3649902344</ele>
        <time>2011-07-09T07:10:24Z</time>
      </trkpt>
      <trkpt lat="45.37439" lon="6.66463">
        <ele>1946.3264160156</ele>
        <time>2011-07-09T07:10:28Z</time>
      </trkpt>
      <trkpt lat="45.37435" lon="6.66462">
        <ele>1946.8068847656</ele>
        <time>2011-07-09T07:10:34Z</time>
      </trkpt>
      <trkpt lat="45.37432" lon="6.66461">
        <ele>1947.2875976562</ele>
        <time>2011-07-09T07:10:38Z</time>
      </trkpt>
      <trkpt lat="45.37428" lon="6.66459">
        <ele>1947.2875976562</ele>
        <time>2011-07-09T07:10:43Z</time>
      </trkpt>
      <trkpt lat="45.37425" lon="6.66458">
        <ele>1947.7683105469</ele>
        <time>2011-07-09T07:10:47Z</time>
      </trkpt>
      <trkpt lat="45.37421" lon="6.66456">
        <ele>1949.2104492188</ele>
        <time>2011-07-09T07:10:53Z</time>
      </trkpt>
      <trkpt lat="45.37416" lon="6.66453">
        <ele>1950.171875</ele>
        <time>2011-07-09T07:11:00Z</time>
      </trkpt>
      <trkpt lat="45.37411" lon="6.6645">
        <ele>1950.65234375</ele>
        <time>2011-07-09T07:11:06Z</time>
      </trkpt>
      <trkpt lat="45.37411" lon="6.6645">
        <ele>1950.65234375</ele>
        <time>2011-07-09T07:11:12Z</time>
      </trkpt>
      <trkpt lat="45.37411" lon="6.6645">
        <ele>1950.171875</ele>
        <time>2011-07-09T07:11:17Z</time>
      </trkpt>
      <trkpt lat="45.37411" lon="6.6645">
        <ele>1949.6911621094</ele>
        <time>2011-07-09T07:11:25Z</time>
      </trkpt>
      <trkpt lat="45.37407" lon="6.66447">
        <ele>1949.6911621094</ele>
        <time>2011-07-09T07:11:31Z</time>
      </trkpt>
      <trkpt lat="45.37402" lon="6.66445">
        <ele>1950.65234375</ele>
        <time>2011-07-09T07:11:37Z</time>
      </trkpt>
      <trkpt lat="45.37396" lon="6.66442">
        <ele>1951.6137695312</ele>
        <time>2011-07-09T07:11:45Z</time>
      </trkpt>
      <trkpt lat="45.37393" lon="6.6644">
        <ele>1952.5749511719</ele>
        <time>2011-07-09T07:11:49Z</time>
      </trkpt>
      <trkpt lat="45.37388" lon="6.6644">
        <ele>1953.5363769531</ele>
        <time>2011-07-09T07:11:54Z</time>
      </trkpt>
      <trkpt lat="45.37384" lon="6.66438">
        <ele>1954.0170898438</ele>
        <time>2011-07-09T07:11:59Z</time>
      </trkpt>
      <trkpt lat="45.37378" lon="6.66436">
        <ele>1954.9782714844</ele>
        <time>2011-07-09T07:12:07Z</time>
      </trkpt>
      <trkpt lat="45.37372" lon="6.66434">
        <ele>1955.939453125</ele>
        <time>2011-07-09T07:12:14Z</time>
      </trkpt>
      <trkpt lat="45.37363" lon="6.66433">
        <ele>1957.8623046875</ele>
        <time>2011-07-09T07:12:24Z</time>
      </trkpt>
      <trkpt lat="45.3736" lon="6.66433">
        <ele>1953.0556640625</ele>
        <time>2011-07-09T07:12:30Z</time>
      </trkpt>
      <trkpt lat="45.37357" lon="6.66431">
        <ele>1945.845703125</ele>
        <time>2011-07-09T07:12:38Z</time>
      </trkpt>
      <trkpt lat="45.37345" lon="6.66431">
        <ele>1943.4423828125</ele>
        <time>2011-07-09T07:12:47Z</time>
      </trkpt>
      <trkpt lat="45.37337" lon="6.66431">
        <ele>1943.4423828125</ele>
        <time>2011-07-09T07:12:54Z</time>
      </trkpt>
      <trkpt lat="45.3733" lon="6.66431">
        <ele>1944.4035644531</ele>
        <time>2011-07-09T07:13:01Z</time>
      </trkpt>
      <trkpt lat="45.37325" lon="6.66429">
        <ele>1944.8842773438</ele>
        <time>2011-07-09T07:13:06Z</time>
      </trkpt>
      <trkpt lat="45.37321" lon="6.66425">
        <ele>1945.845703125</ele>
        <time>2011-07-09T07:13:11Z</time>
      </trkpt>
      <trkpt lat="45.37318" lon="6.66423">
        <ele>1946.3264160156</ele>
        <time>2011-07-09T07:13:15Z</time>
      </trkpt>
      <trkpt lat="45.37312" lon="6.66417">
        <ele>1947.7683105469</ele>
        <time>2011-07-09T07:13:22Z</time>
      </trkpt>
      <trkpt lat="45.37309" lon="6.66415">
        <ele>1948.2490234375</ele>
        <time>2011-07-09T07:13:25Z</time>
      </trkpt>
      <trkpt lat="45.37302" lon="6.6641">
        <ele>1950.171875</ele>
        <time>2011-07-09T07:13:31Z</time>
      </trkpt>
      <trkpt lat="45.37295" lon="6.66404">
        <ele>1952.0942382812</ele>
        <time>2011-07-09T07:13:39Z</time>
      </trkpt>
      <trkpt lat="45.3729" lon="6.66399">
        <ele>1954.0170898438</ele>
        <time>2011-07-09T07:13:45Z</time>
      </trkpt>
      <trkpt lat="45.37284" lon="6.66392">
        <ele>1955.939453125</ele>
        <time>2011-07-09T07:13:52Z</time>
      </trkpt>
      <trkpt lat="45.37278" lon="6.66387">
        <ele>1958.3427734375</ele>
        <time>2011-07-09T07:14:00Z</time>
      </trkpt>
      <trkpt lat="45.37271" lon="6.66381">
        <ele>1960.74609375</ele>
        <time>2011-07-09T07:14:08Z</time>
      </trkpt>
      <trkpt lat="45.37269" lon="6.6638">
        <ele>1961.2268066406</ele>
        <time>2011-07-09T07:14:10Z</time>
      </trkpt>
      <trkpt lat="45.3726" lon="6.66374">
        <ele>1963.6298828125</ele>
        <time>2011-07-09T07:14:19Z</time>
      </trkpt>
      <trkpt lat="45.37261" lon="6.66374">
        <ele>1966.9948730469</ele>
        <time>2011-07-09T07:14:35Z</time>
      </trkpt>
      <trkpt lat="45.3726" lon="6.66377">
        <ele>1973.2434082031</ele>
        <time>2011-07-09T07:14:45Z</time>
      </trkpt>
      <trkpt lat="45.37262" lon="6.66375">
        <ele>1975.1657714844</ele>
        <time>2011-07-09T07:14:51Z</time>
      </trkpt>
      <trkpt lat="45.37262" lon="6.66374">
        <ele>1976.1271972656</ele>
        <time>2011-07-09T07:14:54Z</time>
      </trkpt>
      <trkpt lat="45.37262" lon="6.66374">
        <ele>1982.3759765625</ele>
        <time>2011-07-09T07:15:00Z</time>
      </trkpt>
      <trkpt lat="45.37262" lon="6.66374">
        <ele>1984.2985839844</ele>
        <time>2011-07-09T07:15:05Z</time>
      </trkpt>
      <trkpt lat="45.37264" lon="6.66375">
        <ele>1983.8178710938</ele>
        <time>2011-07-09T07:15:11Z</time>
      </trkpt>
      <trkpt lat="45.37257" lon="6.66369">
        <ele>1987.1823730469</ele>
        <time>2011-07-09T07:15:27Z</time>
      </trkpt>
      <trkpt lat="45.37249" lon="6.66363">
        <ele>1985.7404785156</ele>
        <time>2011-07-09T07:15:37Z</time>
      </trkpt>
      <trkpt lat="45.37243" lon="6.6636">
        <ele>1985.259765625</ele>
        <time>2011-07-09T07:15:45Z</time>
      </trkpt>
      <trkpt lat="45.37236" lon="6.66358">
        <ele>1984.779296875</ele>
        <time>2011-07-09T07:15:53Z</time>
      </trkpt>
      <trkpt lat="45.37231" lon="6.66357">
        <ele>1984.779296875</ele>
        <time>2011-07-09T07:16:01Z</time>
      </trkpt>
      <trkpt lat="45.37228" lon="6.66357">
        <ele>1983.3371582031</ele>
        <time>2011-07-09T07:16:17Z</time>
      </trkpt>
      <trkpt lat="45.37225" lon="6.66357">
        <ele>1983.3371582031</ele>
        <time>2011-07-09T07:16:22Z</time>
      </trkpt>
      <trkpt lat="45.37222" lon="6.66357">
        <ele>1983.3371582031</ele>
        <time>2011-07-09T07:16:27Z</time>
      </trkpt>
      <trkpt lat="45.37224" lon="6.66358">
        <ele>1982.3759765625</ele>
        <time>2011-07-09T07:16:40Z</time>
      </trkpt>
      <trkpt lat="45.37224" lon="6.66359">
        <ele>1982.3759765625</ele>
        <time>2011-07-09T07:16:44Z</time>
      </trkpt>
      <trkpt lat="45.37224" lon="6.66359">
        <ele>1982.3759765625</ele>
        <time>2011-07-09T07:16:53Z</time>
      </trkpt>
      <trkpt lat="45.37224" lon="6.66361">
        <ele>1980.9340820312</ele>
        <time>2011-07-09T07:17:12Z</time>
      </trkpt>
      <trkpt lat="45.37224" lon="6.66361">
        <ele>1983.3371582031</ele>
        <time>2011-07-09T07:17:17Z</time>
      </trkpt>
      <trkpt lat="45.37223" lon="6.66362">
        <ele>1991.0275878906</ele>
        <time>2011-07-09T07:18:09Z</time>
      </trkpt>
      <trkpt lat="45.37221" lon="6.66361">
        <ele>1995.353515625</ele>
        <time>2011-07-09T07:18:26Z</time>
      </trkpt>
      <trkpt lat="45.3722" lon="6.66361">
        <ele>1995.8342285156</ele>
        <time>2011-07-09T07:18:31Z</time>
      </trkpt>
      <trkpt lat="45.37218" lon="6.6636">
        <ele>1995.8342285156</ele>
        <time>2011-07-09T07:18:39Z</time>
      </trkpt>
      <trkpt lat="45.37219" lon="6.6636">
        <ele>1993.4309082031</ele>
        <time>2011-07-09T07:18:47Z</time>
      </trkpt>
      <trkpt lat="45.3722" lon="6.66359">
        <ele>1989.5856933594</ele>
        <time>2011-07-09T07:19:09Z</time>
      </trkpt>
      <trkpt lat="45.3722" lon="6.66357">
        <ele>1989.1049804688</ele>
        <time>2011-07-09T07:19:17Z</time>
      </trkpt>
      <trkpt lat="45.37215" lon="6.66357">
        <ele>1989.5856933594</ele>
        <time>2011-07-09T07:19:23Z</time>
      </trkpt>
      <trkpt lat="45.37207" lon="6.66355">
        <ele>1991.5083007812</ele>
        <time>2011-07-09T07:19:32Z</time>
      </trkpt>
      <trkpt lat="45.37203" lon="6.66354">
        <ele>1992.4697265625</ele>
        <time>2011-07-09T07:19:37Z</time>
      </trkpt>
      <trkpt lat="45.37201" lon="6.66352">
        <ele>1993.4309082031</ele>
        <time>2011-07-09T07:19:41Z</time>
      </trkpt>
      <trkpt lat="45.37197" lon="6.6635">
        <ele>1996.3151855469</ele>
        <time>2011-07-09T07:19:46Z</time>
      </trkpt>
      <trkpt lat="45.37195" lon="6.6635">
        <ele>1997.7570800781</ele>
        <time>2011-07-09T07:19:50Z</time>
      </trkpt>
      <trkpt lat="45.37195" lon="6.6635">
        <ele>1998.7182617188</ele>
        <time>2011-07-09T07:19:53Z</time>
      </trkpt>
      <trkpt lat="45.37192" lon="6.66349">
        <ele>1999.6796875</ele>
        <time>2011-07-09T07:19:58Z</time>
      </trkpt>
      <trkpt lat="45.37185" lon="6.66347">
        <ele>2001.1215820312</ele>
        <time>2011-07-09T07:20:08Z</time>
      </trkpt>
      <trkpt lat="45.3718" lon="6.66346">
        <ele>2002.0827636719</ele>
        <time>2011-07-09T07:20:16Z</time>
      </trkpt>
      <trkpt lat="45.37173" lon="6.66345">
        <ele>2003.0441894531</ele>
        <time>2011-07-09T07:20:25Z</time>
      </trkpt>
      <trkpt lat="45.37165" lon="6.66344">
        <ele>2003.5249023438</ele>
        <time>2011-07-09T07:20:35Z</time>
      </trkpt>
      <trkpt lat="45.3716" lon="6.66342">
        <ele>2004.4860839844</ele>
        <time>2011-07-09T07:20:51Z</time>
      </trkpt>
      <trkpt lat="45.37156" lon="6.66342">
        <ele>2004.966796875</ele>
        <time>2011-07-09T07:20:57Z</time>
      </trkpt>
      <trkpt lat="45.37153" lon="6.66342">
        <ele>2005.4475097656</ele>
        <time>2011-07-09T07:21:01Z</time>
      </trkpt>
      <trkpt lat="45.37144" lon="6.66344">
        <ele>2004.4860839844</ele>
        <time>2011-07-09T07:21:12Z</time>
      </trkpt>
      <trkpt lat="45.37138" lon="6.66346">
        <ele>2004.0056152344</ele>
        <time>2011-07-09T07:21:20Z</time>
      </trkpt>
      <trkpt lat="45.37132" lon="6.66348">
        <ele>2004.0056152344</ele>
        <time>2011-07-09T07:21:28Z</time>
      </trkpt>
      <trkpt lat="45.37124" lon="6.66351">
        <ele>2004.966796875</ele>
        <time>2011-07-09T07:21:38Z</time>
      </trkpt>
      <trkpt lat="45.37122" lon="6.66352">
        <ele>2004.966796875</ele>
        <time>2011-07-09T07:21:45Z</time>
      </trkpt>
      <trkpt lat="45.37122" lon="6.66352">
        <ele>2005.4475097656</ele>
        <time>2011-07-09T07:21:57Z</time>
      </trkpt>
      <trkpt lat="45.37122" lon="6.6635">
        <ele>2005.4475097656</ele>
        <time>2011-07-09T07:22:14Z</time>
      </trkpt>
      <trkpt lat="45.37122" lon="6.66349">
        <ele>2005.9279785156</ele>
        <time>2011-07-09T07:22:18Z</time>
      </trkpt>
      <trkpt lat="45.37119" lon="6.66349">
        <ele>2005.9279785156</ele>
        <time>2011-07-09T07:22:22Z</time>
      </trkpt>
      <trkpt lat="45.37117" lon="6.6635">
        <ele>2008.3312988281</ele>
        <time>2011-07-09T07:22:27Z</time>
      </trkpt>
      <trkpt lat="45.37116" lon="6.66349">
        <ele>2009.2927246094</ele>
        <time>2011-07-09T07:22:30Z</time>
      </trkpt>
      <trkpt lat="45.37113" lon="6.66349">
        <ele>2009.7731933594</ele>
        <time>2011-07-09T07:22:32Z</time>
      </trkpt>
      <trkpt lat="45.37105" lon="6.66343">
        <ele>2013.1381835938</ele>
        <time>2011-07-09T07:22:40Z</time>
      </trkpt>
      <trkpt lat="45.37099" lon="6.66337">
        <ele>2014.580078125</ele>
        <time>2011-07-09T07:22:47Z</time>
      </trkpt>
      <trkpt lat="45.37093" lon="6.66332">
        <ele>2016.0219726562</ele>
        <time>2011-07-09T07:22:53Z</time>
      </trkpt>
      <trkpt lat="45.37083" lon="6.66325">
        <ele>2018.4252929688</ele>
        <time>2011-07-09T07:23:02Z</time>
      </trkpt>
      <trkpt lat="45.37072" lon="6.66323">
        <ele>2021.3090820312</ele>
        <time>2011-07-09T07:23:10Z</time>
      </trkpt>
      <trkpt lat="45.37067" lon="6.66323">
        <ele>2022.2705078125</ele>
        <time>2011-07-09T07:23:14Z</time>
      </trkpt>
      <trkpt lat="45.37059" lon="6.66324">
        <ele>2023.7124023438</ele>
        <time>2011-07-09T07:23:22Z</time>
      </trkpt>
      <trkpt lat="45.37052" lon="6.66327">
        <ele>2025.154296875</ele>
        <time>2011-07-09T07:23:30Z</time>
      </trkpt>
      <trkpt lat="45.37045" lon="6.66334">
        <ele>2026.5964355469</ele>
        <time>2011-07-09T07:23:39Z</time>
      </trkpt>
      <trkpt lat="45.37038" lon="6.66339">
        <ele>2028.0385742188</ele>
        <time>2011-07-09T07:23:46Z</time>
      </trkpt>
      <trkpt lat="45.3703" lon="6.66341">
        <ele>2028.9997558594</ele>
        <time>2011-07-09T07:23:54Z</time>
      </trkpt>
      <trkpt lat="45.37019" lon="6.66335">
        <ele>2030.9226074219</ele>
        <time>2011-07-09T07:24:05Z</time>
      </trkpt>
      <trkpt lat="45.37012" lon="6.66332">
        <ele>2031.4030761719</ele>
        <time>2011-07-09T07:24:11Z</time>
      </trkpt>
      <trkpt lat="45.37004" lon="6.66327">
        <ele>2032.3645019531</ele>
        <time>2011-07-09T07:24:20Z</time>
      </trkpt>
      <trkpt lat="45.36996" lon="6.66323">
        <ele>2033.3256835938</ele>
        <time>2011-07-09T07:24:27Z</time>
      </trkpt>
      <trkpt lat="45.36988" lon="6.6632">
        <ele>2034.7678222656</ele>
        <time>2011-07-09T07:24:34Z</time>
      </trkpt>
      <trkpt lat="45.36979" lon="6.66315">
        <ele>2036.2097167969</ele>
        <time>2011-07-09T07:24:43Z</time>
      </trkpt>
      <trkpt lat="45.36971" lon="6.6631">
        <ele>2038.1323242188</ele>
        <time>2011-07-09T07:24:51Z</time>
      </trkpt>
      <trkpt lat="45.36961" lon="6.66307">
        <ele>2039.57421875</ele>
        <time>2011-07-09T07:25:00Z</time>
      </trkpt>
      <trkpt lat="45.3695" lon="6.66307">
        <ele>2041.0161132812</ele>
        <time>2011-07-09T07:25:08Z</time>
      </trkpt>
      <trkpt lat="45.36946" lon="6.66303">
        <ele>2041.9775390625</ele>
        <time>2011-07-09T07:25:12Z</time>
      </trkpt>
      <trkpt lat="45.36945" lon="6.66297">
        <ele>2042.9387207031</ele>
        <time>2011-07-09T07:25:18Z</time>
      </trkpt>
      <trkpt lat="45.36945" lon="6.66297">
        <ele>2043.9001464844</ele>
        <time>2011-07-09T07:25:32Z</time>
      </trkpt>
      <trkpt lat="45.36946" lon="6.66299">
        <ele>2044.380859375</ele>
        <time>2011-07-09T07:25:46Z</time>
      </trkpt>
      <trkpt lat="45.36946" lon="6.66299">
        <ele>2042.9387207031</ele>
        <time>2011-07-09T07:25:53Z</time>
      </trkpt>
      <trkpt lat="45.36946" lon="6.66299">
        <ele>2042.9387207031</ele>
        <time>2011-07-09T07:25:57Z</time>
      </trkpt>
      <trkpt lat="45.36946" lon="6.66299">
        <ele>2043.4194335938</ele>
        <time>2011-07-09T07:26:01Z</time>
      </trkpt>
      <trkpt lat="45.36946" lon="6.663">
        <ele>2045.3422851562</ele>
        <time>2011-07-09T07:26:13Z</time>
      </trkpt>
      <trkpt lat="45.36945" lon="6.66299">
        <ele>2045.3422851562</ele>
        <time>2011-07-09T07:26:20Z</time>
      </trkpt>
      <trkpt lat="45.36944" lon="6.66298">
        <ele>2046.3037109375</ele>
        <time>2011-07-09T07:26:34Z</time>
      </trkpt>
      <trkpt lat="45.36944" lon="6.66298">
        <ele>2046.3037109375</ele>
        <time>2011-07-09T07:26:38Z</time>
      </trkpt>
      <trkpt lat="45.36945" lon="6.66294">
        <ele>2044.8615722656</ele>
        <time>2011-07-09T07:26:46Z</time>
      </trkpt>
      <trkpt lat="45.36946" lon="6.66289">
        <ele>2043.9001464844</ele>
        <time>2011-07-09T07:26:52Z</time>
      </trkpt>
      <trkpt lat="45.36949" lon="6.66285">
        <ele>2041.4968261719</ele>
        <time>2011-07-09T07:27:16Z</time>
      </trkpt>
      <trkpt lat="45.36951" lon="6.6628">
        <ele>2042.4582519531</ele>
        <time>2011-07-09T07:27:20Z</time>
      </trkpt>
      <trkpt lat="45.36956" lon="6.66271">
        <ele>2043.4194335938</ele>
        <time>2011-07-09T07:27:29Z</time>
      </trkpt>
      <trkpt lat="45.3696" lon="6.66262">
        <ele>2045.3422851562</ele>
        <time>2011-07-09T07:27:38Z</time>
      </trkpt>
      <trkpt lat="45.36962" lon="6.66258">
        <ele>2045.8229980469</ele>
        <time>2011-07-09T07:27:42Z</time>
      </trkpt>
      <trkpt lat="45.36964" lon="6.66255">
        <ele>2046.3037109375</ele>
        <time>2011-07-09T07:27:45Z</time>
      </trkpt>
      <trkpt lat="45.36966" lon="6.66251">
        <ele>2047.2648925781</ele>
        <time>2011-07-09T07:27:53Z</time>
      </trkpt>
      <trkpt lat="45.36969" lon="6.66251">
        <ele>2044.380859375</ele>
        <time>2011-07-09T07:28:07Z</time>
      </trkpt>
      <trkpt lat="45.36971" lon="6.66244">
        <ele>2045.3422851562</ele>
        <time>2011-07-09T07:28:15Z</time>
      </trkpt>
      <trkpt lat="45.36972" lon="6.6624">
        <ele>2045.8229980469</ele>
        <time>2011-07-09T07:28:18Z</time>
      </trkpt>
      <trkpt lat="45.36977" lon="6.66231">
        <ele>2048.2260742188</ele>
        <time>2011-07-09T07:28:27Z</time>
      </trkpt>
      <trkpt lat="45.36981" lon="6.66222">
        <ele>2049.6682128906</ele>
        <time>2011-07-09T07:28:36Z</time>
      </trkpt>
      <trkpt lat="45.3698" lon="6.66215">
        <ele>2051.5908203125</ele>
        <time>2011-07-09T07:28:43Z</time>
      </trkpt>
      <trkpt lat="45.36977" lon="6.66213">
        <ele>2052.0712890625</ele>
        <time>2011-07-09T07:28:49Z</time>
      </trkpt>
      <trkpt lat="45.36977" lon="6.66213">
        <ele>2052.5520019531</ele>
        <time>2011-07-09T07:29:00Z</time>
      </trkpt>
      <trkpt lat="45.36977" lon="6.66213">
        <ele>2053.5134277344</ele>
        <time>2011-07-09T07:29:06Z</time>
      </trkpt>
      <trkpt lat="45.36976" lon="6.66213">
        <ele>2057.8393554688</ele>
        <time>2011-07-09T07:29:17Z</time>
      </trkpt>
      <trkpt lat="45.36976" lon="6.66213">
        <ele>2059.28125</ele>
        <time>2011-07-09T07:29:24Z</time>
      </trkpt>
      <trkpt lat="45.36975" lon="6.66214">
        <ele>2060.7233886719</ele>
        <time>2011-07-09T07:29:32Z</time>
      </trkpt>
      <trkpt lat="45.36975" lon="6.66214">
        <ele>2061.2041015625</ele>
        <time>2011-07-09T07:29:35Z</time>
      </trkpt>
      <trkpt lat="45.36975" lon="6.66214">
        <ele>2061.2041015625</ele>
        <time>2011-07-09T07:29:36Z</time>
      </trkpt>
      <trkpt lat="45.36975" lon="6.66214">
        <ele>2061.2041015625</ele>
        <time>2011-07-09T07:29:43Z</time>
      </trkpt>
      <trkpt lat="45.36975" lon="6.66214">
        <ele>2061.2041015625</ele>
        <time>2011-07-09T07:29:46Z</time>
      </trkpt>
      <trkpt lat="45.36975" lon="6.66214">
        <ele>2061.2041015625</ele>
        <time>2011-07-09T07:29:47Z</time>
      </trkpt>
      <trkpt lat="45.36975" lon="6.66214">
        <ele>2061.2041015625</ele>
        <time>2011-07-09T07:29:54Z</time>
      </trkpt>
      <trkpt lat="45.36975" lon="6.66213">
        <ele>2060.7233886719</ele>
        <time>2011-07-09T07:30:08Z</time>
      </trkpt>
      <trkpt lat="45.36975" lon="6.66212">
        <ele>2059.76171875</ele>
        <time>2011-07-09T07:30:17Z</time>
      </trkpt>
      <trkpt lat="45.36975" lon="6.6621">
        <ele>2058.8005371094</ele>
        <time>2011-07-09T07:30:30Z</time>
      </trkpt>
      <trkpt lat="45.36971" lon="6.6621">
        <ele>2057.8393554688</ele>
        <time>2011-07-09T07:30:42Z</time>
      </trkpt>
      <trkpt lat="45.36963" lon="6.66211">
        <ele>2058.3198242188</ele>
        <time>2011-07-09T07:30:50Z</time>
      </trkpt>
      <trkpt lat="45.36958" lon="6.66211">
        <ele>2059.28125</ele>
        <time>2011-07-09T07:30:55Z</time>
      </trkpt>
      <trkpt lat="45.36954" lon="6.66211">
        <ele>2059.76171875</ele>
        <time>2011-07-09T07:31:00Z</time>
      </trkpt>
      <trkpt lat="45.36951" lon="6.6621">
        <ele>2060.2426757812</ele>
        <time>2011-07-09T07:31:03Z</time>
      </trkpt>
      <trkpt lat="45.36947" lon="6.66208">
        <ele>2061.2041015625</ele>
        <time>2011-07-09T07:31:08Z</time>
      </trkpt>
      <trkpt lat="45.36945" lon="6.66207">
        <ele>2061.6848144531</ele>
        <time>2011-07-09T07:31:14Z</time>
      </trkpt>
      <trkpt lat="45.36941" lon="6.66206">
        <ele>2065.5300292969</ele>
        <time>2011-07-09T07:31:28Z</time>
      </trkpt>
      <trkpt lat="45.3693" lon="6.66202">
        <ele>2068.89453125</ele>
        <time>2011-07-09T07:31:38Z</time>
      </trkpt>
      <trkpt lat="45.36924" lon="6.66199">
        <ele>2069.8557128906</ele>
        <time>2011-07-09T07:31:44Z</time>
      </trkpt>
      <trkpt lat="45.36921" lon="6.66196">
        <ele>2070.3364257812</ele>
        <time>2011-07-09T07:31:47Z</time>
      </trkpt>
      <trkpt lat="45.36911" lon="6.66191">
        <ele>2071.2976074219</ele>
        <time>2011-07-09T07:31:56Z</time>
      </trkpt>
      <trkpt lat="45.36903" lon="6.66187">
        <ele>2072.2590332031</ele>
        <time>2011-07-09T07:32:03Z</time>
      </trkpt>
      <trkpt lat="45.36898" lon="6.66183">
        <ele>2073.7009277344</ele>
        <time>2011-07-09T07:32:07Z</time>
      </trkpt>
      <trkpt lat="45.36895" lon="6.66179">
        <ele>2074.181640625</ele>
        <time>2011-07-09T07:32:10Z</time>
      </trkpt>
      <trkpt lat="45.36895" lon="6.66173">
        <ele>2075.6235351562</ele>
        <time>2011-07-09T07:32:15Z</time>
      </trkpt>
      <trkpt lat="45.36898" lon="6.66169">
        <ele>2076.1044921875</ele>
        <time>2011-07-09T07:32:25Z</time>
      </trkpt>
      <trkpt lat="45.36904" lon="6.66169">
        <ele>2077.0659179688</ele>
        <time>2011-07-09T07:32:33Z</time>
      </trkpt>
      <trkpt lat="45.36911" lon="6.66165">
        <ele>2077.5463867188</ele>
        <time>2011-07-09T07:32:42Z</time>
      </trkpt>
      <trkpt lat="45.36911" lon="6.66157">
        <ele>2077.0659179688</ele>
        <time>2011-07-09T07:32:50Z</time>
      </trkpt>
      <trkpt lat="45.36909" lon="6.66154">
        <ele>2076.5852050781</ele>
        <time>2011-07-09T07:32:57Z</time>
      </trkpt>
      <trkpt lat="45.3691" lon="6.66153">
        <ele>2072.7397460938</ele>
        <time>2011-07-09T07:33:11Z</time>
      </trkpt>
      <trkpt lat="45.36911" lon="6.66153">
        <ele>2074.6623535156</ele>
        <time>2011-07-09T07:33:17Z</time>
      </trkpt>
      <trkpt lat="45.36911" lon="6.66151">
        <ele>2075.1428222656</ele>
        <time>2011-07-09T07:33:23Z</time>
      </trkpt>
      <trkpt lat="45.36911" lon="6.66152">
        <ele>2077.0659179688</ele>
        <time>2011-07-09T07:33:28Z</time>
      </trkpt>
      <trkpt lat="45.36911" lon="6.66154">
        <ele>2078.98828125</ele>
        <time>2011-07-09T07:33:38Z</time>
      </trkpt>
      <trkpt lat="45.36911" lon="6.66152">
        <ele>2077.0659179688</ele>
        <time>2011-07-09T07:33:48Z</time>
      </trkpt>
      <trkpt lat="45.36911" lon="6.66152">
        <ele>2076.5852050781</ele>
        <time>2011-07-09T07:33:54Z</time>
      </trkpt>
      <trkpt lat="45.36909" lon="6.66149">
        <ele>2077.0659179688</ele>
        <time>2011-07-09T07:34:10Z</time>
      </trkpt>
      <trkpt lat="45.36907" lon="6.66147">
        <ele>2078.5078125</ele>
        <time>2011-07-09T07:34:18Z</time>
      </trkpt>
      <trkpt lat="45.369" lon="6.66143">
        <ele>2080.4304199219</ele>
        <time>2011-07-09T07:34:25Z</time>
      </trkpt>
      <trkpt lat="45.3689" lon="6.66142">
        <ele>2081.8723144531</ele>
        <time>2011-07-09T07:34:35Z</time>
      </trkpt>
      <trkpt lat="45.36885" lon="6.66144">
        <ele>2082.8334960938</ele>
        <time>2011-07-09T07:34:41Z</time>
      </trkpt>
      <trkpt lat="45.36878" lon="6.66147">
        <ele>2083.794921875</ele>
        <time>2011-07-09T07:34:49Z</time>
      </trkpt>
      <trkpt lat="45.36873" lon="6.66151">
        <ele>2084.7563476562</ele>
        <time>2011-07-09T07:34:56Z</time>
      </trkpt>
      <trkpt lat="45.36867" lon="6.66157">
        <ele>2084.7563476562</ele>
        <time>2011-07-09T07:35:05Z</time>
      </trkpt>
      <trkpt lat="45.36861" lon="6.66161">
        <ele>2085.2368164062</ele>
        <time>2011-07-09T07:35:14Z</time>
      </trkpt>
      <trkpt lat="45.36858" lon="6.66164">
        <ele>2086.1982421875</ele>
        <time>2011-07-09T07:35:24Z</time>
      </trkpt>
      <trkpt lat="45.36855" lon="6.66158">
        <ele>2088.1208496094</ele>
        <time>2011-07-09T07:35:41Z</time>
      </trkpt>
      <trkpt lat="45.36854" lon="6.66163">
        <ele>2086.1982421875</ele>
        <time>2011-07-09T07:35:50Z</time>
      </trkpt>
      <trkpt lat="45.36851" lon="6.66166">
        <ele>2086.6787109375</ele>
        <time>2011-07-09T07:35:55Z</time>
      </trkpt>
      <trkpt lat="45.36844" lon="6.66172">
        <ele>2089.5627441406</ele>
        <time>2011-07-09T07:36:05Z</time>
      </trkpt>
      <trkpt lat="45.36839" lon="6.66174">
        <ele>2092.4470214844</ele>
        <time>2011-07-09T07:36:12Z</time>
      </trkpt>
      <trkpt lat="45.36832" lon="6.66177">
        <ele>2094.3693847656</ele>
        <time>2011-07-09T07:36:21Z</time>
      </trkpt>
      <trkpt lat="45.36822" lon="6.66182">
        <ele>2096.7727050781</ele>
        <time>2011-07-09T07:36:32Z</time>
      </trkpt>
      <trkpt lat="45.36821" lon="6.66184">
        <ele>2097.2534179688</ele>
        <time>2011-07-09T07:36:38Z</time>
      </trkpt>
      <trkpt lat="45.36821" lon="6.66184">
        <ele>2096.2922363281</ele>
        <time>2011-07-09T07:36:54Z</time>
      </trkpt>
      <trkpt lat="45.36821" lon="6.66184">
        <ele>2095.8115234375</ele>
        <time>2011-07-09T07:37:00Z</time>
      </trkpt>
      <trkpt lat="45.36817" lon="6.66187">
        <ele>2096.2922363281</ele>
        <time>2011-07-09T07:37:08Z</time>
      </trkpt>
      <trkpt lat="45.36814" lon="6.66189">
        <ele>2097.2534179688</ele>
        <time>2011-07-09T07:37:12Z</time>
      </trkpt>
      <trkpt lat="45.3681" lon="6.66194">
        <ele>2097.7341308594</ele>
        <time>2011-07-09T07:37:19Z</time>
      </trkpt>
      <trkpt lat="45.36808" lon="6.66196">
        <ele>2097.7341308594</ele>
        <time>2011-07-09T07:37:25Z</time>
      </trkpt>
      <trkpt lat="45.36801" lon="6.662">
        <ele>2098.6953125</ele>
        <time>2011-07-09T07:37:34Z</time>
      </trkpt>
      <trkpt lat="45.36794" lon="6.66204">
        <ele>2100.1374511719</ele>
        <time>2011-07-09T07:37:43Z</time>
      </trkpt>
      <trkpt lat="45.36782" lon="6.66206">
        <ele>2103.0212402344</ele>
        <time>2011-07-09T07:37:57Z</time>
      </trkpt>
      <trkpt lat="45.36775" lon="6.66206">
        <ele>2105.4245605469</ele>
        <time>2011-07-09T07:38:06Z</time>
      </trkpt>
      <trkpt lat="45.36765" lon="6.66203">
        <ele>2108.30859375</ele>
        <time>2011-07-09T07:38:18Z</time>
      </trkpt>
      <trkpt lat="45.36758" lon="6.66204">
        <ele>2109.7504882812</ele>
        <time>2011-07-09T07:38:26Z</time>
      </trkpt>
      <trkpt lat="45.36749" lon="6.66206">
        <ele>2111.6733398438</ele>
        <time>2011-07-09T07:38:36Z</time>
      </trkpt>
      <trkpt lat="45.36749" lon="6.66206">
        <ele>2112.1538085938</ele>
        <time>2011-07-09T07:38:43Z</time>
      </trkpt>
      <trkpt lat="45.36749" lon="6.66205">
        <ele>2112.1538085938</ele>
        <time>2011-07-09T07:38:54Z</time>
      </trkpt>
      <trkpt lat="45.36747" lon="6.66207">
        <ele>2110.2312011719</ele>
        <time>2011-07-09T07:39:07Z</time>
      </trkpt>
      <trkpt lat="45.36741" lon="6.66211">
        <ele>2111.6733398438</ele>
        <time>2011-07-09T07:39:13Z</time>
      </trkpt>
      <trkpt lat="45.36731" lon="6.6622">
        <ele>2114.0764160156</ele>
        <time>2011-07-09T07:39:24Z</time>
      </trkpt>
      <trkpt lat="45.36722" lon="6.66234">
        <ele>2115.9990234375</ele>
        <time>2011-07-09T07:39:36Z</time>
      </trkpt>
      <trkpt lat="45.36719" lon="6.66239">
        <ele>2116.9604492188</ele>
        <time>2011-07-09T07:39:43Z</time>
      </trkpt>
      <trkpt lat="45.3672" lon="6.66237">
        <ele>2117.4409179688</ele>
        <time>2011-07-09T07:40:00Z</time>
      </trkpt>
      <trkpt lat="45.36719" lon="6.66237">
        <ele>2117.4409179688</ele>
        <time>2011-07-09T07:40:05Z</time>
      </trkpt>
      <trkpt lat="45.36719" lon="6.66236">
        <ele>2117.4409179688</ele>
        <time>2011-07-09T07:40:11Z</time>
      </trkpt>
      <trkpt lat="45.36719" lon="6.66236">
        <ele>2117.9216308594</ele>
        <time>2011-07-09T07:40:21Z</time>
      </trkpt>
      <trkpt lat="45.36718" lon="6.66236">
        <ele>2119.3637695312</ele>
        <time>2011-07-09T07:40:35Z</time>
      </trkpt>
      <trkpt lat="45.36718" lon="6.66236">
        <ele>2118.8830566406</ele>
        <time>2011-07-09T07:40:38Z</time>
      </trkpt>
      <trkpt lat="45.36718" lon="6.66236">
        <ele>2118.40234375</ele>
        <time>2011-07-09T07:40:39Z</time>
      </trkpt>
      <trkpt lat="45.36715" lon="6.6623">
        <ele>2116.4797363281</ele>
        <time>2011-07-09T07:40:58Z</time>
      </trkpt>
      <trkpt lat="45.36714" lon="6.66229">
        <ele>2116.4797363281</ele>
        <time>2011-07-09T07:40:59Z</time>
      </trkpt>
      <trkpt lat="45.36716" lon="6.66232">
        <ele>2115.0378417969</ele>
        <time>2011-07-09T07:41:15Z</time>
      </trkpt>
      <trkpt lat="45.36717" lon="6.66237">
        <ele>2113.115234375</ele>
        <time>2011-07-09T07:41:23Z</time>
      </trkpt>
      <trkpt lat="45.36712" lon="6.66246">
        <ele>2113.595703125</ele>
        <time>2011-07-09T07:41:29Z</time>
      </trkpt>
      <trkpt lat="45.3671" lon="6.66249">
        <ele>2114.0764160156</ele>
        <time>2011-07-09T07:41:31Z</time>
      </trkpt>
      <trkpt lat="45.3671" lon="6.6625">
        <ele>2114.5571289062</ele>
        <time>2011-07-09T07:41:33Z</time>
      </trkpt>
      <trkpt lat="45.36711" lon="6.66252">
        <ele>2115.9990234375</ele>
        <time>2011-07-09T07:41:39Z</time>
      </trkpt>
      <trkpt lat="45.36712" lon="6.66253">
        <ele>2115.5185546875</ele>
        <time>2011-07-09T07:41:41Z</time>
      </trkpt>
      <trkpt lat="45.36711" lon="6.66253">
        <ele>2115.9990234375</ele>
        <time>2011-07-09T07:41:42Z</time>
      </trkpt>
      <trkpt lat="45.36711" lon="6.66251">
        <ele>2116.4797363281</ele>
        <time>2011-07-09T07:41:46Z</time>
      </trkpt>
      <trkpt lat="45.36714" lon="6.66252">
        <ele>2116.4797363281</ele>
        <time>2011-07-09T07:41:50Z</time>
      </trkpt>
      <trkpt lat="45.36714" lon="6.66253">
        <ele>2117.4409179688</ele>
        <time>2011-07-09T07:41:57Z</time>
      </trkpt>
      <trkpt lat="45.36718" lon="6.66255">
        <ele>2117.9216308594</ele>
        <time>2011-07-09T07:42:01Z</time>
      </trkpt>
      <trkpt lat="45.36724" lon="6.66262">
        <ele>2119.8442382812</ele>
        <time>2011-07-09T07:42:06Z</time>
      </trkpt>
      <trkpt lat="45.36726" lon="6.66262">
        <ele>2122.2475585938</ele>
        <time>2011-07-09T07:42:12Z</time>
      </trkpt>
      <trkpt lat="45.36724" lon="6.66263">
        <ele>2121.7668457031</ele>
        <time>2011-07-09T07:42:33Z</time>
      </trkpt>
      <trkpt lat="45.36724" lon="6.66263">
        <ele>2121.7668457031</ele>
        <time>2011-07-09T07:42:37Z</time>
      </trkpt>
      <trkpt lat="45.36723" lon="6.66264">
        <ele>2124.6511230469</ele>
        <time>2011-07-09T07:42:47Z</time>
      </trkpt>
      <trkpt lat="45.36721" lon="6.66261">
        <ele>2127.5349121094</ele>
        <time>2011-07-09T07:43:03Z</time>
      </trkpt>
      <trkpt lat="45.3672" lon="6.66253">
        <ele>2128.9768066406</ele>
        <time>2011-07-09T07:43:09Z</time>
      </trkpt>
      <trkpt lat="45.36719" lon="6.66251">
        <ele>2129.9382324219</ele>
        <time>2011-07-09T07:43:11Z</time>
      </trkpt>
      <trkpt lat="45.36718" lon="6.66251">
        <ele>2129.9382324219</ele>
        <time>2011-07-09T07:43:12Z</time>
      </trkpt>
      <trkpt lat="45.36714" lon="6.66251">
        <ele>2128.4963378906</ele>
        <time>2011-07-09T07:43:17Z</time>
      </trkpt>
      <trkpt lat="45.36714" lon="6.66252">
        <ele>2127.5349121094</ele>
        <time>2011-07-09T07:43:21Z</time>
      </trkpt>
      <trkpt lat="45.36712" lon="6.66254">
        <ele>2126.0930175781</ele>
        <time>2011-07-09T07:43:26Z</time>
      </trkpt>
      <trkpt lat="45.36712" lon="6.66252">
        <ele>2125.6123046875</ele>
        <time>2011-07-09T07:43:30Z</time>
      </trkpt>
      <trkpt lat="45.36712" lon="6.66249">
        <ele>2124.6511230469</ele>
        <time>2011-07-09T07:43:34Z</time>
      </trkpt>
      <trkpt lat="45.36713" lon="6.66245">
        <ele>2124.1704101562</ele>
        <time>2011-07-09T07:43:36Z</time>
      </trkpt>
      <trkpt lat="45.36716" lon="6.66239">
        <ele>2123.689453125</ele>
        <time>2011-07-09T07:43:40Z</time>
      </trkpt>
      <trkpt lat="45.36717" lon="6.66236">
        <ele>2123.689453125</ele>
        <time>2011-07-09T07:43:47Z</time>
      </trkpt>
      <trkpt lat="45.36718" lon="6.66234">
        <ele>2123.208984375</ele>
        <time>2011-07-09T07:43:50Z</time>
      </trkpt>
      <trkpt lat="45.36717" lon="6.66234">
        <ele>2123.689453125</ele>
        <time>2011-07-09T07:43:56Z</time>
      </trkpt>
      <trkpt lat="45.36717" lon="6.66234">
        <ele>2123.208984375</ele>
        <time>2011-07-09T07:44:08Z</time>
      </trkpt>
      <trkpt lat="45.36717" lon="6.66233">
        <ele>2130.4189453125</ele>
        <time>2011-07-09T07:44:25Z</time>
      </trkpt>
      <trkpt lat="45.36718" lon="6.66233">
        <ele>2128.4963378906</ele>
        <time>2011-07-09T07:44:37Z</time>
      </trkpt>
      <trkpt lat="45.3672" lon="6.66235">
        <ele>2126.5737304688</ele>
        <time>2011-07-09T07:44:46Z</time>
      </trkpt>
      <trkpt lat="45.3672" lon="6.66235">
        <ele>2125.6123046875</ele>
        <time>2011-07-09T07:44:57Z</time>
      </trkpt>
      <trkpt lat="45.3672" lon="6.66239">
        <ele>2124.1704101562</ele>
        <time>2011-07-09T07:45:10Z</time>
      </trkpt>
      <trkpt lat="45.36719" lon="6.66243">
        <ele>2123.689453125</ele>
        <time>2011-07-09T07:45:12Z</time>
      </trkpt>
      <trkpt lat="45.36711" lon="6.66251">
        <ele>2123.689453125</ele>
        <time>2011-07-09T07:45:20Z</time>
      </trkpt>
      <trkpt lat="45.36711" lon="6.66252">
        <ele>2123.689453125</ele>
        <time>2011-07-09T07:45:21Z</time>
      </trkpt>
      <trkpt lat="45.3671" lon="6.66253">
        <ele>2125.1315917969</ele>
        <time>2011-07-09T07:45:29Z</time>
      </trkpt>
      <trkpt lat="45.3671" lon="6.66253">
        <ele>2124.1704101562</ele>
        <time>2011-07-09T07:45:36Z</time>
      </trkpt>
      <trkpt lat="45.36705" lon="6.66255">
        <ele>2123.689453125</ele>
        <time>2011-07-09T07:45:41Z</time>
      </trkpt>
      <trkpt lat="45.36702" lon="6.66257">
        <ele>2123.689453125</ele>
        <time>2011-07-09T07:45:44Z</time>
      </trkpt>
      <trkpt lat="45.36693" lon="6.66262">
        <ele>2123.208984375</ele>
        <time>2011-07-09T07:45:53Z</time>
      </trkpt>
      <trkpt lat="45.36691" lon="6.66263">
        <ele>2122.7282714844</ele>
        <time>2011-07-09T07:45:59Z</time>
      </trkpt>
      <trkpt lat="45.36687" lon="6.66265">
        <ele>2122.7282714844</ele>
        <time>2011-07-09T07:46:05Z</time>
      </trkpt>
      <trkpt lat="45.36681" lon="6.66269">
        <ele>2123.208984375</ele>
        <time>2011-07-09T07:46:10Z</time>
      </trkpt>
      <trkpt lat="45.3667" lon="6.66272">
        <ele>2124.1704101562</ele>
        <time>2011-07-09T07:46:19Z</time>
      </trkpt>
      <trkpt lat="45.36661" lon="6.66271">
        <ele>2125.1315917969</ele>
        <time>2011-07-09T07:46:26Z</time>
      </trkpt>
      <trkpt lat="45.36655" lon="6.66271">
        <ele>2126.5737304688</ele>
        <time>2011-07-09T07:46:32Z</time>
      </trkpt>
      <trkpt lat="45.36646" lon="6.6627">
        <ele>2128.015625</ele>
        <time>2011-07-09T07:46:40Z</time>
      </trkpt>
      <trkpt lat="45.36636" lon="6.6627">
        <ele>2129.4575195312</ele>
        <time>2011-07-09T07:46:48Z</time>
      </trkpt>
      <trkpt lat="45.36626" lon="6.66267">
        <ele>2130.8996582031</ele>
        <time>2011-07-09T07:46:57Z</time>
      </trkpt>
      <trkpt lat="45.36617" lon="6.66266">
        <ele>2131.3801269531</ele>
        <time>2011-07-09T07:47:04Z</time>
      </trkpt>
      <trkpt lat="45.3661" lon="6.66271">
        <ele>2131.8608398438</ele>
        <time>2011-07-09T07:47:11Z</time>
      </trkpt>
      <trkpt lat="45.36609" lon="6.66276">
        <ele>2131.8608398438</ele>
        <time>2011-07-09T07:47:14Z</time>
      </trkpt>
      <trkpt lat="45.36612" lon="6.6629">
        <ele>2133.7834472656</ele>
        <time>2011-07-09T07:47:21Z</time>
      </trkpt>
      <trkpt lat="45.36614" lon="6.66303">
        <ele>2135.2253417969</ele>
        <time>2011-07-09T07:47:29Z</time>
      </trkpt>
      <trkpt lat="45.36613" lon="6.66317">
        <ele>2136.6672363281</ele>
        <time>2011-07-09T07:47:38Z</time>
      </trkpt>
      <trkpt lat="45.36609" lon="6.66323">
        <ele>2137.1479492188</ele>
        <time>2011-07-09T07:47:44Z</time>
      </trkpt>
      <trkpt lat="45.36599" lon="6.66327">
        <ele>2138.5900878906</ele>
        <time>2011-07-09T07:47:51Z</time>
      </trkpt>
      <trkpt lat="45.36592" lon="6.66332">
        <ele>2140.0322265625</ele>
        <time>2011-07-09T07:47:57Z</time>
      </trkpt>
      <trkpt lat="45.36585" lon="6.6634">
        <ele>2141.4741210938</ele>
        <time>2011-07-09T07:48:05Z</time>
      </trkpt>
      <trkpt lat="45.36578" lon="6.66351">
        <ele>2142.916015625</ele>
        <time>2011-07-09T07:48:15Z</time>
      </trkpt>
      <trkpt lat="45.36572" lon="6.66364">
        <ele>2145.3193359375</ele>
        <time>2011-07-09T07:48:25Z</time>
      </trkpt>
      <trkpt lat="45.36567" lon="6.6637">
        <ele>2146.2807617188</ele>
        <time>2011-07-09T07:48:31Z</time>
      </trkpt>
      <trkpt lat="45.36563" lon="6.66378">
        <ele>2147.2419433594</ele>
        <time>2011-07-09T07:48:38Z</time>
      </trkpt>
      <trkpt lat="45.36555" lon="6.66387">
        <ele>2148.6838378906</ele>
        <time>2011-07-09T07:48:48Z</time>
      </trkpt>
      <trkpt lat="45.36553" lon="6.66388">
        <ele>2149.1645507812</ele>
        <time>2011-07-09T07:48:50Z</time>
      </trkpt>
      <trkpt lat="45.36545" lon="6.66396">
        <ele>2151.0871582031</ele>
        <time>2011-07-09T07:48:58Z</time>
      </trkpt>
      <trkpt lat="45.36543" lon="6.66398">
        <ele>2151.5678710938</ele>
        <time>2011-07-09T07:49:00Z</time>
      </trkpt>
      <trkpt lat="45.36542" lon="6.66399">
        <ele>2152.0483398438</ele>
        <time>2011-07-09T07:49:08Z</time>
      </trkpt>
      <trkpt lat="45.36542" lon="6.664">
        <ele>2153.009765625</ele>
        <time>2011-07-09T07:49:17Z</time>
      </trkpt>
      <trkpt lat="45.3654" lon="6.66401">
        <ele>2155.8935546875</ele>
        <time>2011-07-09T07:49:30Z</time>
      </trkpt>
      <trkpt lat="45.3654" lon="6.66401">
        <ele>2156.8552246094</ele>
        <time>2011-07-09T07:49:37Z</time>
      </trkpt>
      <trkpt lat="45.36539" lon="6.66401">
        <ele>2157.3359375</ele>
        <time>2011-07-09T07:49:46Z</time>
      </trkpt>
      <trkpt lat="45.36539" lon="6.664">
        <ele>2158.7778320312</ele>
        <time>2011-07-09T07:49:57Z</time>
      </trkpt>
      <trkpt lat="45.36535" lon="6.66404">
        <ele>2159.7390136719</ele>
        <time>2011-07-09T07:50:05Z</time>
      </trkpt>
      <trkpt lat="45.36533" lon="6.66406">
        <ele>2159.7390136719</ele>
        <time>2011-07-09T07:50:12Z</time>
      </trkpt>
      <trkpt lat="45.36533" lon="6.66405">
        <ele>2158.7778320312</ele>
        <time>2011-07-09T07:50:18Z</time>
      </trkpt>
      <trkpt lat="45.36533" lon="6.66404">
        <ele>2158.2971191406</ele>
        <time>2011-07-09T07:50:30Z</time>
      </trkpt>
      <trkpt lat="45.36533" lon="6.66404">
        <ele>2157.8166503906</ele>
        <time>2011-07-09T07:50:42Z</time>
      </trkpt>
      <trkpt lat="45.36533" lon="6.66404">
        <ele>2157.3359375</ele>
        <time>2011-07-09T07:50:46Z</time>
      </trkpt>
      <trkpt lat="45.36534" lon="6.66405">
        <ele>2154.9323730469</ele>
        <time>2011-07-09T07:51:16Z</time>
      </trkpt>
      <trkpt lat="45.36534" lon="6.66405">
        <ele>2154.9323730469</ele>
        <time>2011-07-09T07:51:17Z</time>
      </trkpt>
      <trkpt lat="45.36534" lon="6.66405">
        <ele>2154.9323730469</ele>
        <time>2011-07-09T07:51:27Z</time>
      </trkpt>
      <trkpt lat="45.36534" lon="6.66405">
        <ele>2154.9323730469</ele>
        <time>2011-07-09T07:51:32Z</time>
      </trkpt>
      <trkpt lat="45.36533" lon="6.66406">
        <ele>2154.9323730469</ele>
        <time>2011-07-09T07:51:33Z</time>
      </trkpt>
      <trkpt lat="45.36529" lon="6.66413">
        <ele>2155.8935546875</ele>
        <time>2011-07-09T07:51:45Z</time>
      </trkpt>
      <trkpt lat="45.3653" lon="6.66413">
        <ele>2155.4130859375</ele>
        <time>2011-07-09T07:51:51Z</time>
      </trkpt>
      <trkpt lat="45.36528" lon="6.66415">
        <ele>2155.8935546875</ele>
        <time>2011-07-09T07:52:03Z</time>
      </trkpt>
      <trkpt lat="45.36526" lon="6.66418">
        <ele>2155.8935546875</ele>
        <time>2011-07-09T07:52:13Z</time>
      </trkpt>
      <trkpt lat="45.36521" lon="6.66427">
        <ele>2158.2971191406</ele>
        <time>2011-07-09T07:52:24Z</time>
      </trkpt>
      <trkpt lat="45.36517" lon="6.66433">
        <ele>2159.2585449219</ele>
        <time>2011-07-09T07:52:31Z</time>
      </trkpt>
      <trkpt lat="45.36514" lon="6.66438">
        <ele>2160.2197265625</ele>
        <time>2011-07-09T07:52:38Z</time>
      </trkpt>
      <trkpt lat="45.36514" lon="6.66437">
        <ele>2159.7390136719</ele>
        <time>2011-07-09T07:52:45Z</time>
      </trkpt>
      <trkpt lat="45.36511" lon="6.6644">
        <ele>2159.2585449219</ele>
        <time>2011-07-09T07:52:53Z</time>
      </trkpt>
      <trkpt lat="45.36506" lon="6.66446">
        <ele>2160.2197265625</ele>
        <time>2011-07-09T07:53:02Z</time>
      </trkpt>
      <trkpt lat="45.36499" lon="6.66453">
        <ele>2161.1811523438</ele>
        <time>2011-07-09T07:53:12Z</time>
      </trkpt>
      <trkpt lat="45.36499" lon="6.66456">
        <ele>2161.6618652344</ele>
        <time>2011-07-09T07:53:19Z</time>
      </trkpt>
      <trkpt lat="45.36496" lon="6.66457">
        <ele>2164.0649414062</ele>
        <time>2011-07-09T07:53:27Z</time>
      </trkpt>
      <trkpt lat="45.36491" lon="6.66461">
        <ele>2165.0263671875</ele>
        <time>2011-07-09T07:53:33Z</time>
      </trkpt>
      <trkpt lat="45.36491" lon="6.66462">
        <ele>2165.9875488281</ele>
        <time>2011-07-09T07:53:39Z</time>
      </trkpt>
      <trkpt lat="45.36483" lon="6.66471">
        <ele>2167.4294433594</ele>
        <time>2011-07-09T07:53:50Z</time>
      </trkpt>
      <trkpt lat="45.36477" lon="6.66476">
        <ele>2168.3908691406</ele>
        <time>2011-07-09T07:53:59Z</time>
      </trkpt>
      <trkpt lat="45.36474" lon="6.6648">
        <ele>2168.3908691406</ele>
        <time>2011-07-09T07:54:06Z</time>
      </trkpt>
      <trkpt lat="45.36473" lon="6.66481">
        <ele>2168.3908691406</ele>
        <time>2011-07-09T07:54:07Z</time>
      </trkpt>
      <trkpt lat="45.36463" lon="6.66489">
        <ele>2168.3908691406</ele>
        <time>2011-07-09T07:54:16Z</time>
      </trkpt>
      <trkpt lat="45.36456" lon="6.66494">
        <ele>2167.91015625</ele>
        <time>2011-07-09T07:54:24Z</time>
      </trkpt>
      <trkpt lat="45.36449" lon="6.665">
        <ele>2166.9489746094</ele>
        <time>2011-07-09T07:54:32Z</time>
      </trkpt>
      <trkpt lat="45.36448" lon="6.66501">
        <ele>2166.9489746094</ele>
        <time>2011-07-09T07:54:34Z</time>
      </trkpt>
      <trkpt lat="45.36439" lon="6.66508">
        <ele>2166.9489746094</ele>
        <time>2011-07-09T07:54:42Z</time>
      </trkpt>
      <trkpt lat="45.36425" lon="6.66514">
        <ele>2169.3522949219</ele>
        <time>2011-07-09T07:54:51Z</time>
      </trkpt>
      <trkpt lat="45.36409" lon="6.6652">
        <ele>2169.8327636719</ele>
        <time>2011-07-09T07:54:58Z</time>
      </trkpt>
      <trkpt lat="45.36393" lon="6.6653">
        <ele>2169.8327636719</ele>
        <time>2011-07-09T07:55:05Z</time>
      </trkpt>
      <trkpt lat="45.36379" lon="6.66538">
        <ele>2171.2746582031</ele>
        <time>2011-07-09T07:55:12Z</time>
      </trkpt>
      <trkpt lat="45.36374" lon="6.66541">
        <ele>2171.7553710938</ele>
        <time>2011-07-09T07:55:15Z</time>
      </trkpt>
      <trkpt lat="45.36359" lon="6.66549">
        <ele>2173.6782226562</ele>
        <time>2011-07-09T07:55:24Z</time>
      </trkpt>
      <trkpt lat="45.36345" lon="6.66553">
        <ele>2173.1977539062</ele>
        <time>2011-07-09T07:55:33Z</time>
      </trkpt>
      <trkpt lat="45.36329" lon="6.66554">
        <ele>2173.6782226562</ele>
        <time>2011-07-09T07:55:42Z</time>
      </trkpt>
      <trkpt lat="45.3632" lon="6.66555">
        <ele>2174.6396484375</ele>
        <time>2011-07-09T07:55:48Z</time>
      </trkpt>
      <trkpt lat="45.36306" lon="6.66558">
        <ele>2176.5622558594</ele>
        <time>2011-07-09T07:55:57Z</time>
      </trkpt>
      <trkpt lat="45.36293" lon="6.66558">
        <ele>2178.0041503906</ele>
        <time>2011-07-09T07:56:04Z</time>
      </trkpt>
      <trkpt lat="45.36281" lon="6.66554">
        <ele>2179.4460449219</ele>
        <time>2011-07-09T07:56:13Z</time>
      </trkpt>
      <trkpt lat="45.36274" lon="6.66556">
        <ele>2179.9267578125</ele>
        <time>2011-07-09T07:56:20Z</time>
      </trkpt>
      <trkpt lat="45.36275" lon="6.66554">
        <ele>2175.6008300781</ele>
        <time>2011-07-09T07:56:29Z</time>
      </trkpt>
      <trkpt lat="45.36275" lon="6.66553">
        <ele>2174.1589355469</ele>
        <time>2011-07-09T07:56:35Z</time>
      </trkpt>
      <trkpt lat="45.36276" lon="6.66554">
        <ele>2174.1589355469</ele>
        <time>2011-07-09T07:56:38Z</time>
      </trkpt>
      <trkpt lat="45.36276" lon="6.66556">
        <ele>2175.1201171875</ele>
        <time>2011-07-09T07:56:43Z</time>
      </trkpt>
      <trkpt lat="45.36276" lon="6.66556">
        <ele>2175.1201171875</ele>
        <time>2011-07-09T07:56:46Z</time>
      </trkpt>
      <trkpt lat="45.36276" lon="6.66557">
        <ele>2175.6008300781</ele>
        <time>2011-07-09T07:56:53Z</time>
      </trkpt>
      <trkpt lat="45.36276" lon="6.66557">
        <ele>2176.0815429688</ele>
        <time>2011-07-09T07:57:05Z</time>
      </trkpt>
      <trkpt lat="45.36277" lon="6.66557">
        <ele>2177.04296875</ele>
        <time>2011-07-09T07:57:16Z</time>
      </trkpt>
      <trkpt lat="45.36277" lon="6.66556">
        <ele>2177.5234375</ele>
        <time>2011-07-09T07:57:27Z</time>
      </trkpt>
      <trkpt lat="45.36275" lon="6.66558">
        <ele>2181.3686523438</ele>
        <time>2011-07-09T07:57:57Z</time>
      </trkpt>
      <trkpt lat="45.36276" lon="6.66559">
        <ele>2181.8493652344</ele>
        <time>2011-07-09T07:57:59Z</time>
      </trkpt>
      <trkpt lat="45.36275" lon="6.66564">
        <ele>2181.3686523438</ele>
        <time>2011-07-09T07:58:04Z</time>
      </trkpt>
      <trkpt lat="45.36277" lon="6.66561">
        <ele>2180.8881835938</ele>
        <time>2011-07-09T07:58:22Z</time>
      </trkpt>
      <trkpt lat="45.36276" lon="6.66558">
        <ele>2183.7719726562</ele>
        <time>2011-07-09T07:58:39Z</time>
      </trkpt>
      <trkpt lat="45.36276" lon="6.66557">
        <ele>2185.2138671875</ele>
        <time>2011-07-09T07:58:51Z</time>
      </trkpt>
      <trkpt lat="45.36275" lon="6.66557">
        <ele>2186.6557617188</ele>
        <time>2011-07-09T07:58:59Z</time>
      </trkpt>
      <trkpt lat="45.36275" lon="6.66556">
        <ele>2187.6171875</ele>
        <time>2011-07-09T07:59:10Z</time>
      </trkpt>
      <trkpt lat="45.36275" lon="6.66556">
        <ele>2187.1364746094</ele>
        <time>2011-07-09T07:59:24Z</time>
      </trkpt>
      <trkpt lat="45.36275" lon="6.66556">
        <ele>2186.6557617188</ele>
        <time>2011-07-09T07:59:53Z</time>
      </trkpt>
      <trkpt lat="45.36277" lon="6.66557">
        <ele>2180.4074707031</ele>
        <time>2011-07-09T08:00:29Z</time>
      </trkpt>
      <trkpt lat="45.36274" lon="6.66563">
        <ele>2179.9267578125</ele>
        <time>2011-07-09T08:00:50Z</time>
      </trkpt>
      <trkpt lat="45.36274" lon="6.66562">
        <ele>2177.04296875</ele>
        <time>2011-07-09T08:00:54Z</time>
      </trkpt>
      <trkpt lat="45.36272" lon="6.6656">
        <ele>2173.1977539062</ele>
        <time>2011-07-09T08:01:19Z</time>
      </trkpt>
      <trkpt lat="45.36266" lon="6.66562">
        <ele>2174.1589355469</ele>
        <time>2011-07-09T08:01:23Z</time>
      </trkpt>
      <trkpt lat="45.36257" lon="6.66567">
        <ele>2175.6008300781</ele>
        <time>2011-07-09T08:01:28Z</time>
      </trkpt>
      <trkpt lat="45.36247" lon="6.66569">
        <ele>2174.6396484375</ele>
        <time>2011-07-09T08:01:35Z</time>
      </trkpt>
      <trkpt lat="45.36234" lon="6.6657">
        <ele>2174.6396484375</ele>
        <time>2011-07-09T08:01:43Z</time>
      </trkpt>
      <trkpt lat="45.36216" lon="6.66571">
        <ele>2173.6782226562</ele>
        <time>2011-07-09T08:01:53Z</time>
      </trkpt>
      <trkpt lat="45.36203" lon="6.66571">
        <ele>2175.1201171875</ele>
        <time>2011-07-09T08:02:00Z</time>
      </trkpt>
      <trkpt lat="45.36193" lon="6.66571">
        <ele>2175.6008300781</ele>
        <time>2011-07-09T08:02:05Z</time>
      </trkpt>
      <trkpt lat="45.36176" lon="6.6657">
        <ele>2174.6396484375</ele>
        <time>2011-07-09T08:02:11Z</time>
      </trkpt>
      <trkpt lat="45.36148" lon="6.66569">
        <ele>2174.6396484375</ele>
        <time>2011-07-09T08:02:17Z</time>
      </trkpt>
      <trkpt lat="45.36124" lon="6.66568">
        <ele>2175.6008300781</ele>
        <time>2011-07-09T08:02:23Z</time>
      </trkpt>
      <trkpt lat="45.36109" lon="6.66566">
        <ele>2176.5622558594</ele>
        <time>2011-07-09T08:02:29Z</time>
      </trkpt>
      <trkpt lat="45.36095" lon="6.66564">
        <ele>2178.0041503906</ele>
        <time>2011-07-09T08:02:37Z</time>
      </trkpt>
      <trkpt lat="45.36084" lon="6.66565">
        <ele>2177.04296875</ele>
        <time>2011-07-09T08:02:43Z</time>
      </trkpt>
      <trkpt lat="45.36072" lon="6.66577">
        <ele>2177.5234375</ele>
        <time>2011-07-09T08:02:49Z</time>
      </trkpt>
      <trkpt lat="45.36062" lon="6.66591">
        <ele>2177.04296875</ele>
        <time>2011-07-09T08:02:57Z</time>
      </trkpt>
      <trkpt lat="45.36057" lon="6.66595">
        <ele>2177.5234375</ele>
        <time>2011-07-09T08:03:01Z</time>
      </trkpt>
      <trkpt lat="45.3605" lon="6.66596">
        <ele>2178.4848632812</ele>
        <time>2011-07-09T08:03:06Z</time>
      </trkpt>
      <trkpt lat="45.3604" lon="6.66591">
        <ele>2178.9653320312</ele>
        <time>2011-07-09T08:03:14Z</time>
      </trkpt>
      <trkpt lat="45.36033" lon="6.6659">
        <ele>2178.9653320312</ele>
        <time>2011-07-09T08:03:20Z</time>
      </trkpt>
      <trkpt lat="45.36029" lon="6.66587">
        <ele>2178.4848632812</ele>
        <time>2011-07-09T08:03:24Z</time>
      </trkpt>
      <trkpt lat="45.36023" lon="6.66588">
        <ele>2178.4848632812</ele>
        <time>2011-07-09T08:03:28Z</time>
      </trkpt>
      <trkpt lat="45.3601" lon="6.66595">
        <ele>2179.9267578125</ele>
        <time>2011-07-09T08:03:37Z</time>
      </trkpt>
      <trkpt lat="45.35999" lon="6.66599">
        <ele>2180.8881835938</ele>
        <time>2011-07-09T08:03:44Z</time>
      </trkpt>
      <trkpt lat="45.35982" lon="6.66606">
        <ele>2181.3686523438</ele>
        <time>2011-07-09T08:03:55Z</time>
      </trkpt>
      <trkpt lat="45.35967" lon="6.66613">
        <ele>2181.8493652344</ele>
        <time>2011-07-09T08:04:04Z</time>
      </trkpt>
      <trkpt lat="45.35949" lon="6.6662">
        <ele>2182.810546875</ele>
        <time>2011-07-09T08:04:14Z</time>
      </trkpt>
      <trkpt lat="45.3594" lon="6.66623">
        <ele>2183.2912597656</ele>
        <time>2011-07-09T08:04:20Z</time>
      </trkpt>
      <trkpt lat="45.35926" lon="6.6662">
        <ele>2184.7333984375</ele>
        <time>2011-07-09T08:04:29Z</time>
      </trkpt>
      <trkpt lat="45.35912" lon="6.66616">
        <ele>2187.6171875</ele>
        <time>2011-07-09T08:04:39Z</time>
      </trkpt>
      <trkpt lat="45.359" lon="6.66613">
        <ele>2190.5012207031</ele>
        <time>2011-07-09T08:04:48Z</time>
      </trkpt>
      <trkpt lat="45.35891" lon="6.66611">
        <ele>2192.4240722656</ele>
        <time>2011-07-09T08:04:55Z</time>
      </trkpt>
      <trkpt lat="45.35879" lon="6.6661">
        <ele>2194.3464355469</ele>
        <time>2011-07-09T08:05:04Z</time>
      </trkpt>
      <trkpt lat="45.3587" lon="6.66616">
        <ele>2196.2692871094</ele>
        <time>2011-07-09T08:05:12Z</time>
      </trkpt>
      <trkpt lat="45.35867" lon="6.66629">
        <ele>2196.7497558594</ele>
        <time>2011-07-09T08:05:20Z</time>
      </trkpt>
      <trkpt lat="45.35865" lon="6.66641">
        <ele>2198.1916503906</ele>
        <time>2011-07-09T08:05:27Z</time>
      </trkpt>
      <trkpt lat="45.35867" lon="6.66657">
        <ele>2200.1145019531</ele>
        <time>2011-07-09T08:05:35Z</time>
      </trkpt>
      <trkpt lat="45.3587" lon="6.66668">
        <ele>2202.0368652344</ele>
        <time>2011-07-09T08:05:41Z</time>
      </trkpt>
      <trkpt lat="45.35875" lon="6.66683">
        <ele>2204.9211425781</ele>
        <time>2011-07-09T08:05:50Z</time>
      </trkpt>
      <trkpt lat="45.3588" lon="6.66693">
        <ele>2206.84375</ele>
        <time>2011-07-09T08:05:57Z</time>
      </trkpt>
      <trkpt lat="45.3588" lon="6.66694">
        <ele>2208.2856445312</ele>
        <time>2011-07-09T08:06:14Z</time>
      </trkpt>
      <trkpt lat="45.3588" lon="6.66695">
        <ele>2206.3630371094</ele>
        <time>2011-07-09T08:06:22Z</time>
      </trkpt>
      <trkpt lat="45.3588" lon="6.66696">
        <ele>2205.8823242188</ele>
        <time>2011-07-09T08:06:27Z</time>
      </trkpt>
      <trkpt lat="45.35881" lon="6.66696">
        <ele>2204.9211425781</ele>
        <time>2011-07-09T08:06:31Z</time>
      </trkpt>
      <trkpt lat="45.35882" lon="6.66694">
        <ele>2203.4790039062</ele>
        <time>2011-07-09T08:06:39Z</time>
      </trkpt>
      <trkpt lat="45.35883" lon="6.66696">
        <ele>2203.9597167969</ele>
        <time>2011-07-09T08:06:46Z</time>
      </trkpt>
      <trkpt lat="45.35887" lon="6.66701">
        <ele>2204.9211425781</ele>
        <time>2011-07-09T08:06:52Z</time>
      </trkpt>
      <trkpt lat="45.35891" lon="6.66713">
        <ele>2207.3244628906</ele>
        <time>2011-07-09T08:07:03Z</time>
      </trkpt>
      <trkpt lat="45.35896" lon="6.66724">
        <ele>2209.2470703125</ele>
        <time>2011-07-09T08:07:13Z</time>
      </trkpt>
      <trkpt lat="45.359" lon="6.66731">
        <ele>2211.1696777344</ele>
        <time>2011-07-09T08:07:21Z</time>
      </trkpt>
      <trkpt lat="45.35906" lon="6.6674">
        <ele>2213.0922851562</ele>
        <time>2011-07-09T08:07:30Z</time>
      </trkpt>
      <trkpt lat="45.35913" lon="6.6675">
        <ele>2214.5341796875</ele>
        <time>2011-07-09T08:07:40Z</time>
      </trkpt>
      <trkpt lat="45.3592" lon="6.66761">
        <ele>2216.4567871094</ele>
        <time>2011-07-09T08:07:50Z</time>
      </trkpt>
      <trkpt lat="45.35926" lon="6.66773">
        <ele>2218.3793945312</ele>
        <time>2011-07-09T08:08:00Z</time>
      </trkpt>
      <trkpt lat="45.3593" lon="6.6678">
        <ele>2219.3408203125</ele>
        <time>2011-07-09T08:08:06Z</time>
      </trkpt>
      <trkpt lat="45.35931" lon="6.6678">
        <ele>2220.3022460938</ele>
        <time>2011-07-09T08:08:13Z</time>
      </trkpt>
      <trkpt lat="45.35929" lon="6.66779">
        <ele>2224.6281738281</ele>
        <time>2011-07-09T08:08:31Z</time>
      </trkpt>
      <trkpt lat="45.35928" lon="6.6678">
        <ele>2226.0700683594</ele>
        <time>2011-07-09T08:08:40Z</time>
      </trkpt>
      <trkpt lat="45.35928" lon="6.66779">
        <ele>2226.55078125</ele>
        <time>2011-07-09T08:08:45Z</time>
      </trkpt>
      <trkpt lat="45.35928" lon="6.66779">
        <ele>2227.5119628906</ele>
        <time>2011-07-09T08:08:47Z</time>
      </trkpt>
      <trkpt lat="45.35928" lon="6.66779">
        <ele>2227.5119628906</ele>
        <time>2011-07-09T08:08:48Z</time>
      </trkpt>
      <trkpt lat="45.35929" lon="6.6678">
        <ele>2226.55078125</ele>
        <time>2011-07-09T08:08:59Z</time>
      </trkpt>
      <trkpt lat="45.35928" lon="6.6678">
        <ele>2226.55078125</ele>
        <time>2011-07-09T08:09:08Z</time>
      </trkpt>
      <trkpt lat="45.35928" lon="6.6678">
        <ele>2226.55078125</ele>
        <time>2011-07-09T08:09:14Z</time>
      </trkpt>
      <trkpt lat="45.35929" lon="6.6678">
        <ele>2225.1086425781</ele>
        <time>2011-07-09T08:09:31Z</time>
      </trkpt>
      <trkpt lat="45.35931" lon="6.6678">
        <ele>2223.1862792969</ele>
        <time>2011-07-09T08:09:48Z</time>
      </trkpt>
      <trkpt lat="45.35932" lon="6.66789">
        <ele>2222.2248535156</ele>
        <time>2011-07-09T08:09:54Z</time>
      </trkpt>
      <trkpt lat="45.35933" lon="6.66796">
        <ele>2222.7055664062</ele>
        <time>2011-07-09T08:10:01Z</time>
      </trkpt>
      <trkpt lat="45.35933" lon="6.66799">
        <ele>2222.7055664062</ele>
        <time>2011-07-09T08:10:09Z</time>
      </trkpt>
      <trkpt lat="45.35933" lon="6.66798">
        <ele>2221.744140625</ele>
        <time>2011-07-09T08:10:35Z</time>
      </trkpt>
      <trkpt lat="45.35933" lon="6.66804">
        <ele>2222.7055664062</ele>
        <time>2011-07-09T08:10:40Z</time>
      </trkpt>
      <trkpt lat="45.35933" lon="6.66808">
        <ele>2223.6667480469</ele>
        <time>2011-07-09T08:10:46Z</time>
      </trkpt>
      <trkpt lat="45.35933" lon="6.66808">
        <ele>2224.6281738281</ele>
        <time>2011-07-09T08:10:54Z</time>
      </trkpt>
      <trkpt lat="45.35933" lon="6.66813">
        <ele>2225.1086425781</ele>
        <time>2011-07-09T08:11:01Z</time>
      </trkpt>
      <trkpt lat="45.35934" lon="6.66828">
        <ele>2226.55078125</ele>
        <time>2011-07-09T08:11:11Z</time>
      </trkpt>
      <trkpt lat="45.35934" lon="6.66838">
        <ele>2227.9926757812</ele>
        <time>2011-07-09T08:11:17Z</time>
      </trkpt>
      <trkpt lat="45.35936" lon="6.66848">
        <ele>2228.9538574219</ele>
        <time>2011-07-09T08:11:23Z</time>
      </trkpt>
      <trkpt lat="45.35937" lon="6.66854">
        <ele>2229.4345703125</ele>
        <time>2011-07-09T08:11:27Z</time>
      </trkpt>
      <trkpt lat="45.35938" lon="6.66861">
        <ele>2229.9152832031</ele>
        <time>2011-07-09T08:11:32Z</time>
      </trkpt>
      <trkpt lat="45.35938" lon="6.66868">
        <ele>2231.3571777344</ele>
        <time>2011-07-09T08:11:40Z</time>
      </trkpt>
      <trkpt lat="45.35938" lon="6.66874">
        <ele>2232.7990722656</ele>
        <time>2011-07-09T08:11:53Z</time>
      </trkpt>
      <trkpt lat="45.35934" lon="6.66885">
        <ele>2235.2023925781</ele>
        <time>2011-07-09T08:12:02Z</time>
      </trkpt>
      <trkpt lat="45.35929" lon="6.66888">
        <ele>2236.64453125</ele>
        <time>2011-07-09T08:12:10Z</time>
      </trkpt>
      <trkpt lat="45.35925" lon="6.66889">
        <ele>2238.5673828125</ele>
        <time>2011-07-09T08:12:22Z</time>
      </trkpt>
      <trkpt lat="45.35922" lon="6.66889">
        <ele>2239.5285644531</ele>
        <time>2011-07-09T08:12:28Z</time>
      </trkpt>
      <trkpt lat="45.35923" lon="6.66889">
        <ele>2240.4897460938</ele>
        <time>2011-07-09T08:12:40Z</time>
      </trkpt>
      <trkpt lat="45.35919" lon="6.66891">
        <ele>2240.4897460938</ele>
        <time>2011-07-09T08:12:49Z</time>
      </trkpt>
      <trkpt lat="45.3591" lon="6.66897">
        <ele>2242.4125976562</ele>
        <time>2011-07-09T08:12:59Z</time>
      </trkpt>
      <trkpt lat="45.35899" lon="6.66907">
        <ele>2244.8156738281</ele>
        <time>2011-07-09T08:13:11Z</time>
      </trkpt>
      <trkpt lat="45.35891" lon="6.66917">
        <ele>2245.7770996094</ele>
        <time>2011-07-09T08:13:20Z</time>
      </trkpt>
      <trkpt lat="45.35884" lon="6.66925">
        <ele>2246.73828125</ele>
        <time>2011-07-09T08:13:27Z</time>
      </trkpt>
      <trkpt lat="45.35879" lon="6.6694">
        <ele>2248.6608886719</ele>
        <time>2011-07-09T08:13:38Z</time>
      </trkpt>
      <trkpt lat="45.35878" lon="6.66942">
        <ele>2248.6608886719</ele>
        <time>2011-07-09T08:13:43Z</time>
      </trkpt>
      <trkpt lat="45.35878" lon="6.66942">
        <ele>2249.6223144531</ele>
        <time>2011-07-09T08:13:53Z</time>
      </trkpt>
      <trkpt lat="45.35878" lon="6.66942">
        <ele>2249.6223144531</ele>
        <time>2011-07-09T08:14:01Z</time>
      </trkpt>
      <trkpt lat="45.35878" lon="6.66941">
        <ele>2250.5834960938</ele>
        <time>2011-07-09T08:14:20Z</time>
      </trkpt>
      <trkpt lat="45.35879" lon="6.66943">
        <ele>2249.6223144531</ele>
        <time>2011-07-09T08:14:29Z</time>
      </trkpt>
      <trkpt lat="45.35879" lon="6.66943">
        <ele>2249.6223144531</ele>
        <time>2011-07-09T08:14:32Z</time>
      </trkpt>
      <trkpt lat="45.35878" lon="6.66943">
        <ele>2249.6223144531</ele>
        <time>2011-07-09T08:14:36Z</time>
      </trkpt>
      <trkpt lat="45.35879" lon="6.66943">
        <ele>2251.0642089844</ele>
        <time>2011-07-09T08:14:57Z</time>
      </trkpt>
      <trkpt lat="45.35878" lon="6.66941">
        <ele>2251.0642089844</ele>
        <time>2011-07-09T08:15:09Z</time>
      </trkpt>
      <trkpt lat="45.35878" lon="6.66942">
        <ele>2250.5834960938</ele>
        <time>2011-07-09T08:15:18Z</time>
      </trkpt>
      <trkpt lat="45.35878" lon="6.66942">
        <ele>2250.5834960938</ele>
        <time>2011-07-09T08:15:22Z</time>
      </trkpt>
      <trkpt lat="45.35877" lon="6.66943">
        <ele>2248.1801757812</ele>
        <time>2011-07-09T08:15:54Z</time>
      </trkpt>
      <trkpt lat="45.35877" lon="6.66943">
        <ele>2247.6997070312</ele>
        <time>2011-07-09T08:16:07Z</time>
      </trkpt>
      <trkpt lat="45.35878" lon="6.66945">
        <ele>2247.2189941406</ele>
        <time>2011-07-09T08:16:23Z</time>
      </trkpt>
      <trkpt lat="45.35878" lon="6.66946">
        <ele>2246.73828125</ele>
        <time>2011-07-09T08:16:25Z</time>
      </trkpt>
      <trkpt lat="45.35878" lon="6.66946">
        <ele>2246.73828125</ele>
        <time>2011-07-09T08:16:31Z</time>
      </trkpt>
      <trkpt lat="45.35878" lon="6.66946">
        <ele>2247.2189941406</ele>
        <time>2011-07-09T08:16:39Z</time>
      </trkpt>
      <trkpt lat="45.35878" lon="6.66946">
        <ele>2247.2189941406</ele>
        <time>2011-07-09T08:16:48Z</time>
      </trkpt>
      <trkpt lat="45.35879" lon="6.66948">
        <ele>2247.6997070312</ele>
        <time>2011-07-09T08:17:54Z</time>
      </trkpt>
      <trkpt lat="45.3588" lon="6.66948">
        <ele>2248.1801757812</ele>
        <time>2011-07-09T08:18:00Z</time>
      </trkpt>
      <trkpt lat="45.35879" lon="6.66947">
        <ele>2248.1801757812</ele>
        <time>2011-07-09T08:18:07Z</time>
      </trkpt>
      <trkpt lat="45.35879" lon="6.66947">
        <ele>2248.6608886719</ele>
        <time>2011-07-09T08:18:16Z</time>
      </trkpt>
      <trkpt lat="45.3588" lon="6.66947">
        <ele>2248.6608886719</ele>
        <time>2011-07-09T08:18:24Z</time>
      </trkpt>
      <trkpt lat="45.3588" lon="6.66947">
        <ele>2248.6608886719</ele>
        <time>2011-07-09T08:18:28Z</time>
      </trkpt>
      <trkpt lat="45.3588" lon="6.66951">
        <ele>2249.6223144531</ele>
        <time>2011-07-09T08:18:41Z</time>
      </trkpt>
      <trkpt lat="45.35879" lon="6.66951">
        <ele>2249.6223144531</ele>
        <time>2011-07-09T08:18:48Z</time>
      </trkpt>
      <trkpt lat="45.35879" lon="6.6695">
        <ele>2249.6223144531</ele>
        <time>2011-07-09T08:18:59Z</time>
      </trkpt>
      <trkpt lat="45.35877" lon="6.66954">
        <ele>2250.1030273438</ele>
        <time>2011-07-09T08:19:05Z</time>
      </trkpt>
      <trkpt lat="45.35876" lon="6.6696">
        <ele>2250.5834960938</ele>
        <time>2011-07-09T08:19:09Z</time>
      </trkpt>
      <trkpt lat="45.35875" lon="6.66966">
        <ele>2251.0642089844</ele>
        <time>2011-07-09T08:19:13Z</time>
      </trkpt>
      <trkpt lat="45.35874" lon="6.6697">
        <ele>2251.544921875</ele>
        <time>2011-07-09T08:19:15Z</time>
      </trkpt>
      <trkpt lat="45.35875" lon="6.66978">
        <ele>2252.5063476562</ele>
        <time>2011-07-09T08:19:19Z</time>
      </trkpt>
      <trkpt lat="45.35875" lon="6.66995">
        <ele>2253.9484863281</ele>
        <time>2011-07-09T08:19:29Z</time>
      </trkpt>
      <trkpt lat="45.35875" lon="6.67003">
        <ele>2254.9096679688</ele>
        <time>2011-07-09T08:19:34Z</time>
      </trkpt>
      <trkpt lat="45.35875" lon="6.67009">
        <ele>2255.3903808594</ele>
        <time>2011-07-09T08:19:38Z</time>
      </trkpt>
      <trkpt lat="45.35875" lon="6.67014">
        <ele>2255.8708496094</ele>
        <time>2011-07-09T08:19:41Z</time>
      </trkpt>
      <trkpt lat="45.35875" lon="6.67022">
        <ele>2256.8322753906</ele>
        <time>2011-07-09T08:19:46Z</time>
      </trkpt>
      <trkpt lat="45.35876" lon="6.67032">
        <ele>2257.7937011719</ele>
        <time>2011-07-09T08:19:52Z</time>
      </trkpt>
      <trkpt lat="45.35878" lon="6.67046">
        <ele>2259.2355957031</ele>
        <time>2011-07-09T08:20:00Z</time>
      </trkpt>
      <trkpt lat="45.35879" lon="6.67049">
        <ele>2260.1967773438</ele>
        <time>2011-07-09T08:20:05Z</time>
      </trkpt>
      <trkpt lat="45.35881" lon="6.67057">
        <ele>2260.6774902344</ele>
        <time>2011-07-09T08:20:15Z</time>
      </trkpt>
      <trkpt lat="45.35878" lon="6.67058">
        <ele>2261.158203125</ele>
        <time>2011-07-09T08:20:27Z</time>
      </trkpt>
      <trkpt lat="45.35881" lon="6.67063">
        <ele>2262.6000976562</ele>
        <time>2011-07-09T08:20:32Z</time>
      </trkpt>
      <trkpt lat="45.35886" lon="6.67072">
        <ele>2263.5612792969</ele>
        <time>2011-07-09T08:20:41Z</time>
      </trkpt>
      <trkpt lat="45.35892" lon="6.6708">
        <ele>2263.5612792969</ele>
        <time>2011-07-09T08:20:49Z</time>
      </trkpt>
      <trkpt lat="45.35898" lon="6.67088">
        <ele>2265.0034179688</ele>
        <time>2011-07-09T08:20:58Z</time>
      </trkpt>
      <trkpt lat="45.35904" lon="6.67098">
        <ele>2266.4453125</ele>
        <time>2011-07-09T08:21:08Z</time>
      </trkpt>
      <trkpt lat="45.35909" lon="6.67108">
        <ele>2267.4064941406</ele>
        <time>2011-07-09T08:21:18Z</time>
      </trkpt>
      <trkpt lat="45.35914" lon="6.67118">
        <ele>2268.8488769531</ele>
        <time>2011-07-09T08:21:28Z</time>
      </trkpt>
      <trkpt lat="45.35918" lon="6.67126">
        <ele>2269.3295898438</ele>
        <time>2011-07-09T08:21:36Z</time>
      </trkpt>
      <trkpt lat="45.35921" lon="6.67134">
        <ele>2270.771484375</ele>
        <time>2011-07-09T08:21:44Z</time>
      </trkpt>
      <trkpt lat="45.35928" lon="6.67148">
        <ele>2272.6940917969</ele>
        <time>2011-07-09T08:21:56Z</time>
      </trkpt>
      <trkpt lat="45.35929" lon="6.67151">
        <ele>2273.1748046875</ele>
        <time>2011-07-09T08:22:03Z</time>
      </trkpt>
      <trkpt lat="45.35929" lon="6.67151">
        <ele>2273.6552734375</ele>
        <time>2011-07-09T08:22:10Z</time>
      </trkpt>
      <trkpt lat="45.35929" lon="6.67151">
        <ele>2273.6552734375</ele>
        <time>2011-07-09T08:22:13Z</time>
      </trkpt>
      <trkpt lat="45.35929" lon="6.67153">
        <ele>2273.6552734375</ele>
        <time>2011-07-09T08:22:24Z</time>
      </trkpt>
      <trkpt lat="45.35932" lon="6.67161">
        <ele>2273.6552734375</ele>
        <time>2011-07-09T08:22:30Z</time>
      </trkpt>
      <trkpt lat="45.3593" lon="6.67173">
        <ele>2276.05859375</ele>
        <time>2011-07-09T08:22:39Z</time>
      </trkpt>
      <trkpt lat="45.35929" lon="6.67176">
        <ele>2277.0200195312</ele>
        <time>2011-07-09T08:22:45Z</time>
      </trkpt>
      <trkpt lat="45.35928" lon="6.67176">
        <ele>2278.4619140625</ele>
        <time>2011-07-09T08:23:05Z</time>
      </trkpt>
      <trkpt lat="45.35928" lon="6.67176">
        <ele>2278.9423828125</ele>
        <time>2011-07-09T08:23:16Z</time>
      </trkpt>
      <trkpt lat="45.35928" lon="6.67176">
        <ele>2278.4619140625</ele>
        <time>2011-07-09T08:23:37Z</time>
      </trkpt>
      <trkpt lat="45.35928" lon="6.67176">
        <ele>2277.9812011719</ele>
        <time>2011-07-09T08:23:42Z</time>
      </trkpt>
      <trkpt lat="45.35927" lon="6.67179">
        <ele>2278.9423828125</ele>
        <time>2011-07-09T08:23:51Z</time>
      </trkpt>
      <trkpt lat="45.35927" lon="6.67178">
        <ele>2278.4619140625</ele>
        <time>2011-07-09T08:24:06Z</time>
      </trkpt>
      <trkpt lat="45.35926" lon="6.6718">
        <ele>2278.9423828125</ele>
        <time>2011-07-09T08:24:12Z</time>
      </trkpt>
      <trkpt lat="45.35927" lon="6.67178">
        <ele>2280.3845214844</ele>
        <time>2011-07-09T08:24:22Z</time>
      </trkpt>
      <trkpt lat="45.35926" lon="6.67181">
        <ele>2280.865234375</ele>
        <time>2011-07-09T08:24:29Z</time>
      </trkpt>
      <trkpt lat="45.35925" lon="6.67181">
        <ele>2280.865234375</ele>
        <time>2011-07-09T08:24:32Z</time>
      </trkpt>
      <trkpt lat="45.35923" lon="6.67186">
        <ele>2281.345703125</ele>
        <time>2011-07-09T08:24:56Z</time>
      </trkpt>
      <trkpt lat="45.35918" lon="6.67199">
        <ele>2283.2683105469</ele>
        <time>2011-07-09T08:25:06Z</time>
      </trkpt>
      <trkpt lat="45.3592" lon="6.67207">
        <ele>2284.2299804688</ele>
        <time>2011-07-09T08:25:12Z</time>
      </trkpt>
      <trkpt lat="45.35924" lon="6.67211">
        <ele>2284.7106933594</ele>
        <time>2011-07-09T08:25:16Z</time>
      </trkpt>
      <trkpt lat="45.35928" lon="6.67213">
        <ele>2285.1911621094</ele>
        <time>2011-07-09T08:25:20Z</time>
      </trkpt>
      <trkpt lat="45.35936" lon="6.67215">
        <ele>2285.1911621094</ele>
        <time>2011-07-09T08:25:27Z</time>
      </trkpt>
      <trkpt lat="45.35945" lon="6.67214">
        <ele>2287.1137695312</ele>
        <time>2011-07-09T08:25:36Z</time>
      </trkpt>
      <trkpt lat="45.35954" lon="6.67212">
        <ele>2289.0363769531</ele>
        <time>2011-07-09T08:25:46Z</time>
      </trkpt>
      <trkpt lat="45.35953" lon="6.67212">
        <ele>2289.0363769531</ele>
        <time>2011-07-09T08:25:50Z</time>
      </trkpt>
      <trkpt lat="45.35956" lon="6.67212">
        <ele>2289.9978027344</ele>
        <time>2011-07-09T08:26:00Z</time>
      </trkpt>
      <trkpt lat="45.35961" lon="6.67211">
        <ele>2290.958984375</ele>
        <time>2011-07-09T08:26:07Z</time>
      </trkpt>
      <trkpt lat="45.35968" lon="6.67209">
        <ele>2292.4011230469</ele>
        <time>2011-07-09T08:26:16Z</time>
      </trkpt>
      <trkpt lat="45.35976" lon="6.67206">
        <ele>2293.8430175781</ele>
        <time>2011-07-09T08:26:26Z</time>
      </trkpt>
      <trkpt lat="45.35984" lon="6.67203">
        <ele>2296.2463378906</ele>
        <time>2011-07-09T08:26:36Z</time>
      </trkpt>
      <trkpt lat="45.35991" lon="6.67197">
        <ele>2297.6882324219</ele>
        <time>2011-07-09T08:26:46Z</time>
      </trkpt>
      <trkpt lat="45.35996" lon="6.67189">
        <ele>2298.6494140625</ele>
        <time>2011-07-09T08:26:55Z</time>
      </trkpt>
      <trkpt lat="45.36001" lon="6.67181">
        <ele>2298.1687011719</ele>
        <time>2011-07-09T08:27:02Z</time>
      </trkpt>
      <trkpt lat="45.36007" lon="6.6717">
        <ele>2297.6882324219</ele>
        <time>2011-07-09T08:27:12Z</time>
      </trkpt>
      <trkpt lat="45.36008" lon="6.67168">
        <ele>2298.1687011719</ele>
        <time>2011-07-09T08:27:18Z</time>
      </trkpt>
      <trkpt lat="45.3601" lon="6.67165">
        <ele>2298.6494140625</ele>
        <time>2011-07-09T08:27:32Z</time>
      </trkpt>
      <trkpt lat="45.36014" lon="6.67159">
        <ele>2299.1301269531</ele>
        <time>2011-07-09T08:27:37Z</time>
      </trkpt>
      <trkpt lat="45.36022" lon="6.67151">
        <ele>2299.6108398438</ele>
        <time>2011-07-09T08:27:48Z</time>
      </trkpt>
      <trkpt lat="45.36025" lon="6.6715">
        <ele>2300.091796875</ele>
        <time>2011-07-09T08:27:53Z</time>
      </trkpt>
      <trkpt lat="45.36026" lon="6.6715">
        <ele>2300.572265625</ele>
        <time>2011-07-09T08:28:02Z</time>
      </trkpt>
      <trkpt lat="45.36025" lon="6.6715">
        <ele>2302.9755859375</ele>
        <time>2011-07-09T08:28:13Z</time>
      </trkpt>
      <trkpt lat="45.36028" lon="6.67149">
        <ele>2303.9370117188</ele>
        <time>2011-07-09T08:28:18Z</time>
      </trkpt>
      <trkpt lat="45.36035" lon="6.67146">
        <ele>2305.37890625</ele>
        <time>2011-07-09T08:28:25Z</time>
      </trkpt>
      <trkpt lat="45.36045" lon="6.67142">
        <ele>2306.8208007812</ele>
        <time>2011-07-09T08:28:36Z</time>
      </trkpt>
      <trkpt lat="45.36056" lon="6.6714">
        <ele>2307.7822265625</ele>
        <time>2011-07-09T08:28:47Z</time>
      </trkpt>
      <trkpt lat="45.36067" lon="6.67137">
        <ele>2309.2241210938</ele>
        <time>2011-07-09T08:28:58Z</time>
      </trkpt>
      <trkpt lat="45.36073" lon="6.67134">
        <ele>2309.7045898438</ele>
        <time>2011-07-09T08:29:07Z</time>
      </trkpt>
      <trkpt lat="45.36076" lon="6.67134">
        <ele>2310.1853027344</ele>
        <time>2011-07-09T08:29:13Z</time>
      </trkpt>
      <trkpt lat="45.3609" lon="6.67132">
        <ele>2310.666015625</ele>
        <time>2011-07-09T08:29:23Z</time>
      </trkpt>
      <trkpt lat="45.361" lon="6.67132">
        <ele>2312.1079101562</ele>
        <time>2011-07-09T08:29:30Z</time>
      </trkpt>
      <trkpt lat="45.36106" lon="6.67135">
        <ele>2312.5886230469</ele>
        <time>2011-07-09T08:29:35Z</time>
      </trkpt>
      <trkpt lat="45.3611" lon="6.67139">
        <ele>2312.5886230469</ele>
        <time>2011-07-09T08:29:39Z</time>
      </trkpt>
      <trkpt lat="45.36121" lon="6.67147">
        <ele>2314.5112304688</ele>
        <time>2011-07-09T08:29:48Z</time>
      </trkpt>
      <trkpt lat="45.36131" lon="6.67154">
        <ele>2315.47265625</ele>
        <time>2011-07-09T08:29:56Z</time>
      </trkpt>
      <trkpt lat="45.36141" lon="6.67161">
        <ele>2315.953125</ele>
        <time>2011-07-09T08:30:05Z</time>
      </trkpt>
      <trkpt lat="45.36147" lon="6.67158">
        <ele>2315.47265625</ele>
        <time>2011-07-09T08:30:08Z</time>
      </trkpt>
      <trkpt lat="45.3615" lon="6.67147">
        <ele>2316.4340820312</ele>
        <time>2011-07-09T08:30:13Z</time>
      </trkpt>
      <trkpt lat="45.36153" lon="6.6714">
        <ele>2316.9147949219</ele>
        <time>2011-07-09T08:30:17Z</time>
      </trkpt>
      <trkpt lat="45.36164" lon="6.67126">
        <ele>2318.3566894531</ele>
        <time>2011-07-09T08:30:26Z</time>
      </trkpt>
      <trkpt lat="45.36177" lon="6.6712">
        <ele>2318.8374023438</ele>
        <time>2011-07-09T08:30:34Z</time>
      </trkpt>
      <trkpt lat="45.36189" lon="6.67118">
        <ele>2318.8374023438</ele>
        <time>2011-07-09T08:30:41Z</time>
      </trkpt>
      <trkpt lat="45.36205" lon="6.67116">
        <ele>2320.279296875</ele>
        <time>2011-07-09T08:30:51Z</time>
      </trkpt>
      <trkpt lat="45.36214" lon="6.67115">
        <ele>2320.7600097656</ele>
        <time>2011-07-09T08:30:58Z</time>
      </trkpt>
      <trkpt lat="45.36226" lon="6.6711">
        <ele>2321.7211914062</ele>
        <time>2011-07-09T08:31:07Z</time>
      </trkpt>
      <trkpt lat="45.36236" lon="6.67104">
        <ele>2323.1633300781</ele>
        <time>2011-07-09T08:31:15Z</time>
      </trkpt>
      <trkpt lat="45.36244" lon="6.67106">
        <ele>2324.1245117188</ele>
        <time>2011-07-09T08:31:22Z</time>
      </trkpt>
      <trkpt lat="45.3625" lon="6.67117">
        <ele>2324.6052246094</ele>
        <time>2011-07-09T08:31:30Z</time>
      </trkpt>
      <trkpt lat="45.3625" lon="6.67131">
        <ele>2326.0471191406</ele>
        <time>2011-07-09T08:31:37Z</time>
      </trkpt>
      <trkpt lat="45.36243" lon="6.67142">
        <ele>2327.9697265625</ele>
        <time>2011-07-09T08:31:46Z</time>
      </trkpt>
      <trkpt lat="45.36235" lon="6.67151">
        <ele>2329.8923339844</ele>
        <time>2011-07-09T08:31:55Z</time>
      </trkpt>
      <trkpt lat="45.36229" lon="6.67159">
        <ele>2331.3342285156</ele>
        <time>2011-07-09T08:32:03Z</time>
      </trkpt>
      <trkpt lat="45.36221" lon="6.67169">
        <ele>2333.2570800781</ele>
        <time>2011-07-09T08:32:12Z</time>
      </trkpt>
      <trkpt lat="45.36213" lon="6.67176">
        <ele>2334.2185058594</ele>
        <time>2011-07-09T08:32:20Z</time>
      </trkpt>
      <trkpt lat="45.36204" lon="6.67179">
        <ele>2336.6215820312</ele>
        <time>2011-07-09T08:32:28Z</time>
      </trkpt>
      <trkpt lat="45.36195" lon="6.67183">
        <ele>2339.0249023438</ele>
        <time>2011-07-09T08:32:36Z</time>
      </trkpt>
      <trkpt lat="45.36188" lon="6.67191">
        <ele>2339.986328125</ele>
        <time>2011-07-09T08:32:44Z</time>
      </trkpt>
      <trkpt lat="45.36186" lon="6.67194">
        <ele>2340.466796875</ele>
        <time>2011-07-09T08:32:46Z</time>
      </trkpt>
      <trkpt lat="45.36185" lon="6.67195">
        <ele>2340.9475097656</ele>
        <time>2011-07-09T08:32:53Z</time>
      </trkpt>
      <trkpt lat="45.36185" lon="6.67195">
        <ele>2339.986328125</ele>
        <time>2011-07-09T08:33:03Z</time>
      </trkpt>
      <trkpt lat="45.36186" lon="6.67195">
        <ele>2340.9475097656</ele>
        <time>2011-07-09T08:33:09Z</time>
      </trkpt>
      <trkpt lat="45.36185" lon="6.67198">
        <ele>2342.3896484375</ele>
        <time>2011-07-09T08:33:14Z</time>
      </trkpt>
      <trkpt lat="45.36181" lon="6.6721">
        <ele>2342.8701171875</ele>
        <time>2011-07-09T08:33:22Z</time>
      </trkpt>
      <trkpt lat="45.36178" lon="6.67226">
        <ele>2343.3508300781</ele>
        <time>2011-07-09T08:33:32Z</time>
      </trkpt>
      <trkpt lat="45.36177" lon="6.67239">
        <ele>2343.8315429688</ele>
        <time>2011-07-09T08:33:40Z</time>
      </trkpt>
      <trkpt lat="45.36176" lon="6.67253">
        <ele>2344.3120117188</ele>
        <time>2011-07-09T08:33:49Z</time>
      </trkpt>
      <trkpt lat="45.36177" lon="6.67264">
        <ele>2344.7927246094</ele>
        <time>2011-07-09T08:33:56Z</time>
      </trkpt>
      <trkpt lat="45.36177" lon="6.67276">
        <ele>2345.2734375</ele>
        <time>2011-07-09T08:34:04Z</time>
      </trkpt>
      <trkpt lat="45.36177" lon="6.67286">
        <ele>2345.7541503906</ele>
        <time>2011-07-09T08:34:10Z</time>
      </trkpt>
      <trkpt lat="45.36176" lon="6.67297">
        <ele>2346.7153320312</ele>
        <time>2011-07-09T08:34:17Z</time>
      </trkpt>
      <trkpt lat="45.36171" lon="6.67314">
        <ele>2348.1574707031</ele>
        <time>2011-07-09T08:34:27Z</time>
      </trkpt>
      <trkpt lat="45.36165" lon="6.67329">
        <ele>2349.1188964844</ele>
        <time>2011-07-09T08:34:36Z</time>
      </trkpt>
      <trkpt lat="45.36159" lon="6.67341">
        <ele>2351.5222167969</ele>
        <time>2011-07-09T08:34:44Z</time>
      </trkpt>
      <trkpt lat="45.36154" lon="6.67349">
        <ele>2352.9641113281</ele>
        <time>2011-07-09T08:34:50Z</time>
      </trkpt>
      <trkpt lat="45.36147" lon="6.67362">
        <ele>2354.4060058594</ele>
        <time>2011-07-09T08:35:00Z</time>
      </trkpt>
      <trkpt lat="45.36141" lon="6.67371">
        <ele>2355.3674316406</ele>
        <time>2011-07-09T08:35:07Z</time>
      </trkpt>
      <trkpt lat="45.36134" lon="6.67379">
        <ele>2356.8093261719</ele>
        <time>2011-07-09T08:35:14Z</time>
      </trkpt>
      <trkpt lat="45.36131" lon="6.67378">
        <ele>2356.8093261719</ele>
        <time>2011-07-09T08:35:16Z</time>
      </trkpt>
      <trkpt lat="45.36127" lon="6.67368">
        <ele>2356.8093261719</ele>
        <time>2011-07-09T08:35:22Z</time>
      </trkpt>
      <trkpt lat="45.36126" lon="6.6735">
        <ele>2356.3286132812</ele>
        <time>2011-07-09T08:35:31Z</time>
      </trkpt>
      <trkpt lat="45.36124" lon="6.67333">
        <ele>2357.2900390625</ele>
        <time>2011-07-09T08:35:40Z</time>
      </trkpt>
      <trkpt lat="45.36122" lon="6.67324">
        <ele>2358.2512207031</ele>
        <time>2011-07-09T08:35:45Z</time>
      </trkpt>
      <trkpt lat="45.36115" lon="6.67319">
        <ele>2358.7319335938</ele>
        <time>2011-07-09T08:35:52Z</time>
      </trkpt>
      <trkpt lat="45.36113" lon="6.67318">
        <ele>2358.7319335938</ele>
        <time>2011-07-09T08:35:53Z</time>
      </trkpt>
      <trkpt lat="45.36104" lon="6.6732">
        <ele>2359.6931152344</ele>
        <time>2011-07-09T08:36:00Z</time>
      </trkpt>
      <trkpt lat="45.36096" lon="6.67331">
        <ele>2361.6159667969</ele>
        <time>2011-07-09T08:36:09Z</time>
      </trkpt>
      <trkpt lat="45.36092" lon="6.67342">
        <ele>2362.5771484375</ele>
        <time>2011-07-09T08:36:16Z</time>
      </trkpt>
      <trkpt lat="45.36089" lon="6.67359">
        <ele>2362.0964355469</ele>
        <time>2011-07-09T08:36:25Z</time>
      </trkpt>
      <trkpt lat="45.36081" lon="6.67374">
        <ele>2362.5771484375</ele>
        <time>2011-07-09T08:36:33Z</time>
      </trkpt>
      <trkpt lat="45.36071" lon="6.67388">
        <ele>2363.5383300781</ele>
        <time>2011-07-09T08:36:42Z</time>
      </trkpt>
      <trkpt lat="45.36062" lon="6.67399">
        <ele>2364.9807128906</ele>
        <time>2011-07-09T08:36:49Z</time>
      </trkpt>
      <trkpt lat="45.36052" lon="6.67411">
        <ele>2366.4226074219</ele>
        <time>2011-07-09T08:36:57Z</time>
      </trkpt>
      <trkpt lat="45.36043" lon="6.67422">
        <ele>2368.3452148438</ele>
        <time>2011-07-09T08:37:05Z</time>
      </trkpt>
      <trkpt lat="45.36034" lon="6.67433">
        <ele>2370.7485351562</ele>
        <time>2011-07-09T08:37:13Z</time>
      </trkpt>
      <trkpt lat="45.36029" lon="6.67442">
        <ele>2372.1904296875</ele>
        <time>2011-07-09T08:37:19Z</time>
      </trkpt>
      <trkpt lat="45.36021" lon="6.67456">
        <ele>2372.6711425781</ele>
        <time>2011-07-09T08:37:27Z</time>
      </trkpt>
      <trkpt lat="45.3601" lon="6.67479">
        <ele>2374.1130371094</ele>
        <time>2011-07-09T08:37:39Z</time>
      </trkpt>
      <trkpt lat="45.36005" lon="6.67491">
        <ele>2375.5549316406</ele>
        <time>2011-07-09T08:37:46Z</time>
      </trkpt>
      <trkpt lat="45.35996" lon="6.67508">
        <ele>2376.9970703125</ele>
        <time>2011-07-09T08:37:57Z</time>
      </trkpt>
      <trkpt lat="45.35988" lon="6.67519">
        <ele>2378.4389648438</ele>
        <time>2011-07-09T08:38:05Z</time>
      </trkpt>
      <trkpt lat="45.35979" lon="6.67521">
        <ele>2379.880859375</ele>
        <time>2011-07-09T08:38:11Z</time>
      </trkpt>
      <trkpt lat="45.35971" lon="6.67514">
        <ele>2382.2844238281</ele>
        <time>2011-07-09T08:38:18Z</time>
      </trkpt>
      <trkpt lat="45.35963" lon="6.67506">
        <ele>2384.20703125</ele>
        <time>2011-07-09T08:38:26Z</time>
      </trkpt>
      <trkpt lat="45.35954" lon="6.67504">
        <ele>2384.20703125</ele>
        <time>2011-07-09T08:38:33Z</time>
      </trkpt>
      <trkpt lat="45.35945" lon="6.67507">
        <ele>2384.6877441406</ele>
        <time>2011-07-09T08:38:39Z</time>
      </trkpt>
      <trkpt lat="45.35936" lon="6.67517">
        <ele>2386.1296386719</ele>
        <time>2011-07-09T08:38:47Z</time>
      </trkpt>
      <trkpt lat="45.35928" lon="6.67531">
        <ele>2387.0908203125</ele>
        <time>2011-07-09T08:38:56Z</time>
      </trkpt>
      <trkpt lat="45.35925" lon="6.67547">
        <ele>2386.1296386719</ele>
        <time>2011-07-09T08:39:04Z</time>
      </trkpt>
      <trkpt lat="45.35928" lon="6.67561">
        <ele>2387.0908203125</ele>
        <time>2011-07-09T08:39:12Z</time>
      </trkpt>
      <trkpt lat="45.35933" lon="6.6757">
        <ele>2388.0522460938</ele>
        <time>2011-07-09T08:39:19Z</time>
      </trkpt>
      <trkpt lat="45.35934" lon="6.67574">
        <ele>2388.5329589844</ele>
        <time>2011-07-09T08:39:22Z</time>
      </trkpt>
      <trkpt lat="45.35938" lon="6.67571">
        <ele>2388.5329589844</ele>
        <time>2011-07-09T08:39:28Z</time>
      </trkpt>
      <trkpt lat="45.35936" lon="6.6757">
        <ele>2388.5329589844</ele>
        <time>2011-07-09T08:39:32Z</time>
      </trkpt>
      <trkpt lat="45.35936" lon="6.6757">
        <ele>2388.5329589844</ele>
        <time>2011-07-09T08:39:39Z</time>
      </trkpt>
      <trkpt lat="45.35936" lon="6.6757">
        <ele>2388.5329589844</ele>
        <time>2011-07-09T08:40:00Z</time>
      </trkpt>
      <trkpt lat="45.35936" lon="6.67574">
        <ele>2388.0522460938</ele>
        <time>2011-07-09T08:40:05Z</time>
      </trkpt>
      <trkpt lat="45.35938" lon="6.67574">
        <ele>2387.5715332031</ele>
        <time>2011-07-09T08:40:06Z</time>
      </trkpt>
      <trkpt lat="45.35943" lon="6.67576">
        <ele>2388.0522460938</ele>
        <time>2011-07-09T08:40:10Z</time>
      </trkpt>
      <trkpt lat="45.35945" lon="6.67579">
        <ele>2388.5329589844</ele>
        <time>2011-07-09T08:40:12Z</time>
      </trkpt>
      <trkpt lat="45.3595" lon="6.67588">
        <ele>2390.4553222656</ele>
        <time>2011-07-09T08:40:20Z</time>
      </trkpt>
      <trkpt lat="45.35951" lon="6.67592">
        <ele>2390.4553222656</ele>
        <time>2011-07-09T08:40:23Z</time>
      </trkpt>
      <trkpt lat="45.3595" lon="6.67598">
        <ele>2390.9360351562</ele>
        <time>2011-07-09T08:40:27Z</time>
      </trkpt>
      <trkpt lat="45.35944" lon="6.67609">
        <ele>2390.9360351562</ele>
        <time>2011-07-09T08:40:35Z</time>
      </trkpt>
      <trkpt lat="45.35936" lon="6.67617">
        <ele>2391.8974609375</ele>
        <time>2011-07-09T08:40:43Z</time>
      </trkpt>
      <trkpt lat="45.3593" lon="6.67622">
        <ele>2392.3781738281</ele>
        <time>2011-07-09T08:40:49Z</time>
      </trkpt>
      <trkpt lat="45.35923" lon="6.67628">
        <ele>2393.8200683594</ele>
        <time>2011-07-09T08:40:55Z</time>
      </trkpt>
      <trkpt lat="45.35916" lon="6.67635">
        <ele>2395.2619628906</ele>
        <time>2011-07-09T08:41:02Z</time>
      </trkpt>
      <trkpt lat="45.35909" lon="6.67645">
        <ele>2395.2619628906</ele>
        <time>2011-07-09T08:41:10Z</time>
      </trkpt>
      <trkpt lat="45.359" lon="6.67656">
        <ele>2394.78125</ele>
        <time>2011-07-09T08:41:16Z</time>
      </trkpt>
      <trkpt lat="45.35892" lon="6.67667">
        <ele>2394.78125</ele>
        <time>2011-07-09T08:41:24Z</time>
      </trkpt>
      <trkpt lat="45.35888" lon="6.67677">
        <ele>2394.78125</ele>
        <time>2011-07-09T08:41:31Z</time>
      </trkpt>
      <trkpt lat="45.35885" lon="6.6769">
        <ele>2394.78125</ele>
        <time>2011-07-09T08:41:39Z</time>
      </trkpt>
      <trkpt lat="45.35888" lon="6.677">
        <ele>2395.2619628906</ele>
        <time>2011-07-09T08:41:46Z</time>
      </trkpt>
      <trkpt lat="45.35891" lon="6.67704">
        <ele>2395.7426757812</ele>
        <time>2011-07-09T08:41:50Z</time>
      </trkpt>
      <trkpt lat="45.35899" lon="6.67707">
        <ele>2397.6655273438</ele>
        <time>2011-07-09T08:41:58Z</time>
      </trkpt>
      <trkpt lat="45.35906" lon="6.677">
        <ele>2399.107421875</ele>
        <time>2011-07-09T08:42:05Z</time>
      </trkpt>
      <trkpt lat="45.35915" lon="6.67684">
        <ele>2401.5107421875</ele>
        <time>2011-07-09T08:42:16Z</time>
      </trkpt>
      <trkpt lat="45.35921" lon="6.67673">
        <ele>2402.9526367188</ele>
        <time>2011-07-09T08:42:24Z</time>
      </trkpt>
      <trkpt lat="45.35931" lon="6.67664">
        <ele>2403.9140625</ele>
        <time>2011-07-09T08:42:33Z</time>
      </trkpt>
      <trkpt lat="45.35941" lon="6.67659">
        <ele>2405.3559570312</ele>
        <time>2011-07-09T08:42:42Z</time>
      </trkpt>
      <trkpt lat="45.35952" lon="6.67652">
        <ele>2407.2785644531</ele>
        <time>2011-07-09T08:42:52Z</time>
      </trkpt>
      <trkpt lat="45.35963" lon="6.67645">
        <ele>2408.2397460938</ele>
        <time>2011-07-09T08:43:01Z</time>
      </trkpt>
      <trkpt lat="45.35973" lon="6.67644">
        <ele>2409.201171875</ele>
        <time>2011-07-09T08:43:09Z</time>
      </trkpt>
      <trkpt lat="45.3598" lon="6.6765">
        <ele>2409.681640625</ele>
        <time>2011-07-09T08:43:15Z</time>
      </trkpt>
      <trkpt lat="45.35986" lon="6.6766">
        <ele>2410.6430664062</ele>
        <time>2011-07-09T08:43:23Z</time>
      </trkpt>
      <trkpt lat="45.35992" lon="6.67669">
        <ele>2411.1237792969</ele>
        <time>2011-07-09T08:43:30Z</time>
      </trkpt>
      <trkpt lat="45.35999" lon="6.67676">
        <ele>2411.6044921875</ele>
        <time>2011-07-09T08:43:37Z</time>
      </trkpt>
      <trkpt lat="45.36002" lon="6.67679">
        <ele>2412.0852050781</ele>
        <time>2011-07-09T08:43:43Z</time>
      </trkpt>
      <trkpt lat="45.36001" lon="6.67679">
        <ele>2412.0852050781</ele>
        <time>2011-07-09T08:43:50Z</time>
      </trkpt>
      <trkpt lat="45.36004" lon="6.6768">
        <ele>2412.5659179688</ele>
        <time>2011-07-09T08:43:54Z</time>
      </trkpt>
      <trkpt lat="45.3601" lon="6.67682">
        <ele>2413.5270996094</ele>
        <time>2011-07-09T08:44:03Z</time>
      </trkpt>
      <trkpt lat="45.36015" lon="6.67684">
        <ele>2414.4885253906</ele>
        <time>2011-07-09T08:44:12Z</time>
      </trkpt>
      <trkpt lat="45.36018" lon="6.67685">
        <ele>2414.4885253906</ele>
        <time>2011-07-09T08:44:23Z</time>
      </trkpt>
      <trkpt lat="45.36022" lon="6.67688">
        <ele>2415.4499511719</ele>
        <time>2011-07-09T08:44:30Z</time>
      </trkpt>
      <trkpt lat="45.36024" lon="6.67693">
        <ele>2416.4111328125</ele>
        <time>2011-07-09T08:44:37Z</time>
      </trkpt>
      <trkpt lat="45.36025" lon="6.677">
        <ele>2416.8918457031</ele>
        <time>2011-07-09T08:44:45Z</time>
      </trkpt>
      <trkpt lat="45.36025" lon="6.67706">
        <ele>2416.8918457031</ele>
        <time>2011-07-09T08:44:53Z</time>
      </trkpt>
      <trkpt lat="45.36026" lon="6.67712">
        <ele>2416.4111328125</ele>
        <time>2011-07-09T08:44:58Z</time>
      </trkpt>
      <trkpt lat="45.36026" lon="6.67716">
        <ele>2416.4111328125</ele>
        <time>2011-07-09T08:45:00Z</time>
      </trkpt>
      <trkpt lat="45.36026" lon="6.6773">
        <ele>2416.4111328125</ele>
        <time>2011-07-09T08:45:08Z</time>
      </trkpt>
      <trkpt lat="45.36027" lon="6.67731">
        <ele>2416.4111328125</ele>
        <time>2011-07-09T08:45:09Z</time>
      </trkpt>
      <trkpt lat="45.36028" lon="6.67749">
        <ele>2417.3723144531</ele>
        <time>2011-07-09T08:45:20Z</time>
      </trkpt>
      <trkpt lat="45.36029" lon="6.67766">
        <ele>2419.2951660156</ele>
        <time>2011-07-09T08:45:30Z</time>
      </trkpt>
      <trkpt lat="45.36032" lon="6.67776">
        <ele>2420.7370605469</ele>
        <time>2011-07-09T08:45:37Z</time>
      </trkpt>
      <trkpt lat="45.36032" lon="6.67787">
        <ele>2422.1789550781</ele>
        <time>2011-07-09T08:45:43Z</time>
      </trkpt>
      <trkpt lat="45.36031" lon="6.67796">
        <ele>2423.1403808594</ele>
        <time>2011-07-09T08:45:48Z</time>
      </trkpt>
      <trkpt lat="45.36026" lon="6.67808">
        <ele>2423.6208496094</ele>
        <time>2011-07-09T08:45:56Z</time>
      </trkpt>
      <trkpt lat="45.36016" lon="6.67826">
        <ele>2424.5822753906</ele>
        <time>2011-07-09T08:46:06Z</time>
      </trkpt>
      <trkpt lat="45.36" lon="6.67841">
        <ele>2425.0627441406</ele>
        <time>2011-07-09T08:46:16Z</time>
      </trkpt>
      <trkpt lat="45.35986" lon="6.67846">
        <ele>2424.1015625</ele>
        <time>2011-07-09T08:46:22Z</time>
      </trkpt>
      <trkpt lat="45.35972" lon="6.67836">
        <ele>2423.1403808594</ele>
        <time>2011-07-09T08:46:26Z</time>
      </trkpt>
      <trkpt lat="45.35955" lon="6.67828">
        <ele>2423.1403808594</ele>
        <time>2011-07-09T08:46:30Z</time>
      </trkpt>
      <trkpt lat="45.35942" lon="6.67836">
        <ele>2423.6208496094</ele>
        <time>2011-07-09T08:46:34Z</time>
      </trkpt>
      <trkpt lat="45.35937" lon="6.67839">
        <ele>2424.1015625</ele>
        <time>2011-07-09T08:46:36Z</time>
      </trkpt>
      <trkpt lat="45.35936" lon="6.67843">
        <ele>2424.1015625</ele>
        <time>2011-07-09T08:46:41Z</time>
      </trkpt>
      <trkpt lat="45.35937" lon="6.67843">
        <ele>2424.1015625</ele>
        <time>2011-07-09T08:46:50Z</time>
      </trkpt>
      <trkpt lat="45.35937" lon="6.67843">
        <ele>2424.5822753906</ele>
        <time>2011-07-09T08:47:04Z</time>
      </trkpt>
      <trkpt lat="45.35938" lon="6.67842">
        <ele>2424.1015625</ele>
        <time>2011-07-09T08:47:25Z</time>
      </trkpt>
      <trkpt lat="45.3594" lon="6.67842">
        <ele>2424.5822753906</ele>
        <time>2011-07-09T08:47:31Z</time>
      </trkpt>
      <trkpt lat="45.3594" lon="6.67838">
        <ele>2424.5822753906</ele>
        <time>2011-07-09T08:47:35Z</time>
      </trkpt>
      <trkpt lat="45.35939" lon="6.67836">
        <ele>2424.5822753906</ele>
        <time>2011-07-09T08:47:39Z</time>
      </trkpt>
      <trkpt lat="45.35941" lon="6.67838">
        <ele>2424.1015625</ele>
        <time>2011-07-09T08:47:52Z</time>
      </trkpt>
      <trkpt lat="45.35941" lon="6.67838">
        <ele>2423.6208496094</ele>
        <time>2011-07-09T08:47:57Z</time>
      </trkpt>
      <trkpt lat="45.3594" lon="6.67839">
        <ele>2424.1015625</ele>
        <time>2011-07-09T08:48:04Z</time>
      </trkpt>
      <trkpt lat="45.35939" lon="6.67839">
        <ele>2424.1015625</ele>
        <time>2011-07-09T08:48:08Z</time>
      </trkpt>
      <trkpt lat="45.35939" lon="6.67841">
        <ele>2423.6208496094</ele>
        <time>2011-07-09T08:48:10Z</time>
      </trkpt>
      <trkpt lat="45.3594" lon="6.67845">
        <ele>2424.1015625</ele>
        <time>2011-07-09T08:48:16Z</time>
      </trkpt>
      <trkpt lat="45.35941" lon="6.67846">
        <ele>2424.5822753906</ele>
        <time>2011-07-09T08:48:29Z</time>
      </trkpt>
      <trkpt lat="45.35942" lon="6.67845">
        <ele>2426.5048828125</ele>
        <time>2011-07-09T08:48:46Z</time>
      </trkpt>
      <trkpt lat="45.35944" lon="6.67841">
        <ele>2426.0241699219</ele>
        <time>2011-07-09T08:48:56Z</time>
      </trkpt>
      <trkpt lat="45.35944" lon="6.67843">
        <ele>2426.0241699219</ele>
        <time>2011-07-09T08:49:00Z</time>
      </trkpt>
      <trkpt lat="45.35944" lon="6.67843">
        <ele>2425.5434570312</ele>
        <time>2011-07-09T08:49:02Z</time>
      </trkpt>
      <trkpt lat="45.35944" lon="6.67843">
        <ele>2425.5434570312</ele>
        <time>2011-07-09T08:49:03Z</time>
      </trkpt>
      <trkpt lat="45.35943" lon="6.67843">
        <ele>2426.0241699219</ele>
        <time>2011-07-09T08:49:12Z</time>
      </trkpt>
      <trkpt lat="45.35941" lon="6.67839">
        <ele>2426.0241699219</ele>
        <time>2011-07-09T08:49:17Z</time>
      </trkpt>
      <trkpt lat="45.35941" lon="6.67839">
        <ele>2425.5434570312</ele>
        <time>2011-07-09T08:49:24Z</time>
      </trkpt>
      <trkpt lat="45.35941" lon="6.67838">
        <ele>2425.0627441406</ele>
        <time>2011-07-09T08:49:35Z</time>
      </trkpt>
      <trkpt lat="45.3594" lon="6.67837">
        <ele>2425.0627441406</ele>
        <time>2011-07-09T08:49:50Z</time>
      </trkpt>
      <trkpt lat="45.3594" lon="6.67836">
        <ele>2424.5822753906</ele>
        <time>2011-07-09T08:49:53Z</time>
      </trkpt>
      <trkpt lat="45.3594" lon="6.67837">
        <ele>2424.1015625</ele>
        <time>2011-07-09T08:50:00Z</time>
      </trkpt>
      <trkpt lat="45.35941" lon="6.67837">
        <ele>2424.1015625</ele>
        <time>2011-07-09T08:50:02Z</time>
      </trkpt>
      <trkpt lat="45.35943" lon="6.67842">
        <ele>2424.1015625</ele>
        <time>2011-07-09T08:50:06Z</time>
      </trkpt>
      <trkpt lat="45.35943" lon="6.67841">
        <ele>2424.1015625</ele>
        <time>2011-07-09T08:50:12Z</time>
      </trkpt>
      <trkpt lat="45.35941" lon="6.67837">
        <ele>2424.5822753906</ele>
        <time>2011-07-09T08:50:17Z</time>
      </trkpt>
      <trkpt lat="45.35941" lon="6.67838">
        <ele>2423.6208496094</ele>
        <time>2011-07-09T08:50:25Z</time>
      </trkpt>
      <trkpt lat="45.3594" lon="6.67836">
        <ele>2423.6208496094</ele>
        <time>2011-07-09T08:50:34Z</time>
      </trkpt>
      <trkpt lat="45.3594" lon="6.67837">
        <ele>2422.6596679688</ele>
        <time>2011-07-09T08:50:44Z</time>
      </trkpt>
      <trkpt lat="45.35942" lon="6.67839">
        <ele>2422.1789550781</ele>
        <time>2011-07-09T08:50:57Z</time>
      </trkpt>
      <trkpt lat="45.35942" lon="6.6784">
        <ele>2423.6208496094</ele>
        <time>2011-07-09T08:51:03Z</time>
      </trkpt>
      <trkpt lat="45.35941" lon="6.67837">
        <ele>2425.0627441406</ele>
        <time>2011-07-09T08:51:07Z</time>
      </trkpt>
      <trkpt lat="45.3594" lon="6.67835">
        <ele>2425.0627441406</ele>
        <time>2011-07-09T08:51:13Z</time>
      </trkpt>
      <trkpt lat="45.3594" lon="6.67837">
        <ele>2424.1015625</ele>
        <time>2011-07-09T08:51:33Z</time>
      </trkpt>
      <trkpt lat="45.3594" lon="6.67838">
        <ele>2423.1403808594</ele>
        <time>2011-07-09T08:51:39Z</time>
      </trkpt>
      <trkpt lat="45.35939" lon="6.67839">
        <ele>2423.1403808594</ele>
        <time>2011-07-09T08:51:43Z</time>
      </trkpt>
      <trkpt lat="45.35938" lon="6.67839">
        <ele>2424.1015625</ele>
        <time>2011-07-09T08:51:49Z</time>
      </trkpt>
      <trkpt lat="45.35938" lon="6.67839">
        <ele>2424.5822753906</ele>
        <time>2011-07-09T08:52:00Z</time>
      </trkpt>
      <trkpt lat="45.35939" lon="6.67839">
        <ele>2426.0241699219</ele>
        <time>2011-07-09T08:52:07Z</time>
      </trkpt>
      <trkpt lat="45.35942" lon="6.6784">
        <ele>2426.5048828125</ele>
        <time>2011-07-09T08:52:11Z</time>
      </trkpt>
      <trkpt lat="45.3594" lon="6.67838">
        <ele>2425.5434570312</ele>
        <time>2011-07-09T08:52:18Z</time>
      </trkpt>
      <trkpt lat="45.35937" lon="6.67837">
        <ele>2424.5822753906</ele>
        <time>2011-07-09T08:52:24Z</time>
      </trkpt>
      <trkpt lat="45.35936" lon="6.67836">
        <ele>2425.5434570312</ele>
        <time>2011-07-09T08:52:30Z</time>
      </trkpt>
      <trkpt lat="45.35938" lon="6.6784">
        <ele>2424.5822753906</ele>
        <time>2011-07-09T08:52:40Z</time>
      </trkpt>
      <trkpt lat="45.35938" lon="6.6784">
        <ele>2425.5434570312</ele>
        <time>2011-07-09T08:52:45Z</time>
      </trkpt>
      <trkpt lat="45.35938" lon="6.6784">
        <ele>2424.5822753906</ele>
        <time>2011-07-09T08:52:56Z</time>
      </trkpt>
      <trkpt lat="45.35937" lon="6.6784">
        <ele>2424.1015625</ele>
        <time>2011-07-09T08:53:03Z</time>
      </trkpt>
      <trkpt lat="45.35936" lon="6.6784">
        <ele>2424.1015625</ele>
        <time>2011-07-09T08:53:18Z</time>
      </trkpt>
      <trkpt lat="45.35936" lon="6.67837">
        <ele>2424.5822753906</ele>
        <time>2011-07-09T08:53:24Z</time>
      </trkpt>
      <trkpt lat="45.35937" lon="6.67837">
        <ele>2425.0627441406</ele>
        <time>2011-07-09T08:53:28Z</time>
      </trkpt>
      <trkpt lat="45.35939" lon="6.67838">
        <ele>2424.5822753906</ele>
        <time>2011-07-09T08:53:31Z</time>
      </trkpt>
      <trkpt lat="45.35951" lon="6.67831">
        <ele>2423.6208496094</ele>
        <time>2011-07-09T08:53:38Z</time>
      </trkpt>
      <trkpt lat="45.35965" lon="6.67832">
        <ele>2422.1789550781</ele>
        <time>2011-07-09T08:53:44Z</time>
      </trkpt>
      <trkpt lat="45.35979" lon="6.67845">
        <ele>2422.1789550781</ele>
        <time>2011-07-09T08:53:52Z</time>
      </trkpt>
      <trkpt lat="45.35991" lon="6.67848">
        <ele>2422.6596679688</ele>
        <time>2011-07-09T08:53:57Z</time>
      </trkpt>
      <trkpt lat="45.36002" lon="6.6784">
        <ele>2423.6208496094</ele>
        <time>2011-07-09T08:54:03Z</time>
      </trkpt>
      <trkpt lat="45.36014" lon="6.6783">
        <ele>2424.1015625</ele>
        <time>2011-07-09T08:54:09Z</time>
      </trkpt>
      <trkpt lat="45.36022" lon="6.67817">
        <ele>2423.1403808594</ele>
        <time>2011-07-09T08:54:15Z</time>
      </trkpt>
      <trkpt lat="45.36032" lon="6.67793">
        <ele>2421.6982421875</ele>
        <time>2011-07-09T08:54:23Z</time>
      </trkpt>
      <trkpt lat="45.36032" lon="6.67774">
        <ele>2419.7756347656</ele>
        <time>2011-07-09T08:54:28Z</time>
      </trkpt>
      <trkpt lat="45.36029" lon="6.67748">
        <ele>2417.3723144531</ele>
        <time>2011-07-09T08:54:33Z</time>
      </trkpt>
      <trkpt lat="45.36026" lon="6.67709">
        <ele>2414.9692382812</ele>
        <time>2011-07-09T08:54:39Z</time>
      </trkpt>
      <trkpt lat="45.36025" lon="6.67694">
        <ele>2413.5270996094</ele>
        <time>2011-07-09T08:54:43Z</time>
      </trkpt>
      <trkpt lat="45.36016" lon="6.67683">
        <ele>2411.1237792969</ele>
        <time>2011-07-09T08:54:48Z</time>
      </trkpt>
      <trkpt lat="45.36001" lon="6.67678">
        <ele>2408.7204589844</ele>
        <time>2011-07-09T08:54:52Z</time>
      </trkpt>
      <trkpt lat="45.35987" lon="6.67661">
        <ele>2406.7978515625</ele>
        <time>2011-07-09T08:54:56Z</time>
      </trkpt>
      <trkpt lat="45.3598" lon="6.67648">
        <ele>2406.3171386719</ele>
        <time>2011-07-09T08:55:00Z</time>
      </trkpt>
      <trkpt lat="45.35979" lon="6.67647">
        <ele>2405.8364257812</ele>
        <time>2011-07-09T08:55:04Z</time>
      </trkpt>
      <trkpt lat="45.35979" lon="6.67646">
        <ele>2407.7592773438</ele>
        <time>2011-07-09T08:55:09Z</time>
      </trkpt>
      <trkpt lat="45.35979" lon="6.67647">
        <ele>2408.2397460938</ele>
        <time>2011-07-09T08:55:17Z</time>
      </trkpt>
      <trkpt lat="45.35979" lon="6.67647">
        <ele>2409.201171875</ele>
        <time>2011-07-09T08:55:26Z</time>
      </trkpt>
      <trkpt lat="45.35978" lon="6.67648">
        <ele>2409.681640625</ele>
        <time>2011-07-09T08:55:38Z</time>
      </trkpt>
      <trkpt lat="45.35978" lon="6.67648">
        <ele>2409.201171875</ele>
        <time>2011-07-09T08:55:46Z</time>
      </trkpt>
      <trkpt lat="45.35978" lon="6.67649">
        <ele>2408.2397460938</ele>
        <time>2011-07-09T08:55:54Z</time>
      </trkpt>
      <trkpt lat="45.35979" lon="6.67648">
        <ele>2409.201171875</ele>
        <time>2011-07-09T08:55:58Z</time>
      </trkpt>
      <trkpt lat="45.35979" lon="6.67649">
        <ele>2409.201171875</ele>
        <time>2011-07-09T08:56:01Z</time>
      </trkpt>
      <trkpt lat="45.35978" lon="6.67647">
        <ele>2408.7204589844</ele>
        <time>2011-07-09T08:56:04Z</time>
      </trkpt>
      <trkpt lat="45.35962" lon="6.67646">
        <ele>2407.7592773438</ele>
        <time>2011-07-09T08:56:09Z</time>
      </trkpt>
      <trkpt lat="45.35941" lon="6.67658">
        <ele>2406.3171386719</ele>
        <time>2011-07-09T08:56:14Z</time>
      </trkpt>
      <trkpt lat="45.35927" lon="6.67666">
        <ele>2405.8364257812</ele>
        <time>2011-07-09T08:56:17Z</time>
      </trkpt>
      <trkpt lat="45.3591" lon="6.6769">
        <ele>2405.3559570312</ele>
        <time>2011-07-09T08:56:22Z</time>
      </trkpt>
      <trkpt lat="45.35906" lon="6.67697">
        <ele>2405.3559570312</ele>
        <time>2011-07-09T08:56:23Z</time>
      </trkpt>
      <trkpt lat="45.35893" lon="6.67704">
        <ele>2403.9140625</ele>
        <time>2011-07-09T08:56:26Z</time>
      </trkpt>
      <trkpt lat="45.35886" lon="6.67689">
        <ele>2401.5107421875</ele>
        <time>2011-07-09T08:56:29Z</time>
      </trkpt>
      <trkpt lat="45.35892" lon="6.67668">
        <ele>2399.107421875</ele>
        <time>2011-07-09T08:56:32Z</time>
      </trkpt>
      <trkpt lat="45.35915" lon="6.67638">
        <ele>2397.1848144531</ele>
        <time>2011-07-09T08:56:38Z</time>
      </trkpt>
      <trkpt lat="45.35933" lon="6.67619">
        <ele>2394.3005371094</ele>
        <time>2011-07-09T08:56:43Z</time>
      </trkpt>
      <trkpt lat="45.35951" lon="6.67597">
        <ele>2390.4553222656</ele>
        <time>2011-07-09T08:56:48Z</time>
      </trkpt>
      <trkpt lat="45.35947" lon="6.67585">
        <ele>2388.5329589844</ele>
        <time>2011-07-09T08:56:51Z</time>
      </trkpt>
      <trkpt lat="45.35941" lon="6.67577">
        <ele>2386.6101074219</ele>
        <time>2011-07-09T08:56:53Z</time>
      </trkpt>
      <trkpt lat="45.35933" lon="6.6757">
        <ele>2385.1682128906</ele>
        <time>2011-07-09T08:56:55Z</time>
      </trkpt>
      <trkpt lat="45.35925" lon="6.67548">
        <ele>2381.8037109375</ele>
        <time>2011-07-09T08:56:59Z</time>
      </trkpt>
      <trkpt lat="45.35929" lon="6.6753">
        <ele>2379.880859375</ele>
        <time>2011-07-09T08:57:02Z</time>
      </trkpt>
      <trkpt lat="45.35941" lon="6.67513">
        <ele>2378.4389648438</ele>
        <time>2011-07-09T08:57:06Z</time>
      </trkpt>
      <trkpt lat="45.35959" lon="6.67504">
        <ele>2376.5163574219</ele>
        <time>2011-07-09T08:57:10Z</time>
      </trkpt>
      <trkpt lat="45.35968" lon="6.67506">
        <ele>2376.0356445312</ele>
        <time>2011-07-09T08:57:13Z</time>
      </trkpt>
      <trkpt lat="45.35968" lon="6.67506">
        <ele>2376.0356445312</ele>
        <time>2011-07-09T08:57:17Z</time>
      </trkpt>
      <trkpt lat="45.35968" lon="6.67508">
        <ele>2375.5549316406</ele>
        <time>2011-07-09T08:57:22Z</time>
      </trkpt>
      <trkpt lat="45.35969" lon="6.67508">
        <ele>2375.5549316406</ele>
        <time>2011-07-09T08:57:23Z</time>
      </trkpt>
      <trkpt lat="45.35982" lon="6.67523">
        <ele>2374.59375</ele>
        <time>2011-07-09T08:57:29Z</time>
      </trkpt>
      <trkpt lat="45.35986" lon="6.67525">
        <ele>2374.59375</ele>
        <time>2011-07-09T08:57:33Z</time>
      </trkpt>
      <trkpt lat="45.35986" lon="6.67525">
        <ele>2374.59375</ele>
        <time>2011-07-09T08:57:40Z</time>
      </trkpt>
      <trkpt lat="45.35986" lon="6.67525">
        <ele>2374.59375</ele>
        <time>2011-07-09T08:57:49Z</time>
      </trkpt>
      <trkpt lat="45.35985" lon="6.67525">
        <ele>2374.1130371094</ele>
        <time>2011-07-09T08:57:58Z</time>
      </trkpt>
      <trkpt lat="45.35985" lon="6.67525">
        <ele>2373.6323242188</ele>
        <time>2011-07-09T08:58:04Z</time>
      </trkpt>
      <trkpt lat="45.35985" lon="6.67525">
        <ele>2373.6323242188</ele>
        <time>2011-07-09T08:58:10Z</time>
      </trkpt>
      <trkpt lat="45.35985" lon="6.67525">
        <ele>2373.6323242188</ele>
        <time>2011-07-09T08:58:15Z</time>
      </trkpt>
      <trkpt lat="45.35986" lon="6.67524">
        <ele>2373.6323242188</ele>
        <time>2011-07-09T08:58:20Z</time>
      </trkpt>
      <trkpt lat="45.35992" lon="6.67516">
        <ele>2373.1518554688</ele>
        <time>2011-07-09T08:58:24Z</time>
      </trkpt>
      <trkpt lat="45.36008" lon="6.67488">
        <ele>2371.2290039062</ele>
        <time>2011-07-09T08:58:29Z</time>
      </trkpt>
      <trkpt lat="45.36015" lon="6.67472">
        <ele>2370.2678222656</ele>
        <time>2011-07-09T08:58:31Z</time>
      </trkpt>
      <trkpt lat="45.36019" lon="6.67463">
        <ele>2369.787109375</ele>
        <time>2011-07-09T08:58:32Z</time>
      </trkpt>
      <trkpt lat="45.36034" lon="6.67435">
        <ele>2367.8645019531</ele>
        <time>2011-07-09T08:58:36Z</time>
      </trkpt>
      <trkpt lat="45.36059" lon="6.67402">
        <ele>2363.0578613281</ele>
        <time>2011-07-09T08:58:41Z</time>
      </trkpt>
      <trkpt lat="45.36081" lon="6.67373">
        <ele>2361.1352539062</ele>
        <time>2011-07-09T08:58:45Z</time>
      </trkpt>
      <trkpt lat="45.36092" lon="6.67342">
        <ele>2359.6931152344</ele>
        <time>2011-07-09T08:58:49Z</time>
      </trkpt>
      <trkpt lat="45.36105" lon="6.67321">
        <ele>2357.2900390625</ele>
        <time>2011-07-09T08:58:53Z</time>
      </trkpt>
      <trkpt lat="45.36117" lon="6.67321">
        <ele>2355.3674316406</ele>
        <time>2011-07-09T08:58:56Z</time>
      </trkpt>
      <trkpt lat="45.36125" lon="6.67334">
        <ele>2353.4448242188</ele>
        <time>2011-07-09T08:58:59Z</time>
      </trkpt>
      <trkpt lat="45.36127" lon="6.67348">
        <ele>2352.4833984375</ele>
        <time>2011-07-09T08:59:01Z</time>
      </trkpt>
      <trkpt lat="45.36129" lon="6.67368">
        <ele>2351.5222167969</ele>
        <time>2011-07-09T08:59:04Z</time>
      </trkpt>
      <trkpt lat="45.36135" lon="6.67384">
        <ele>2351.0415039062</ele>
        <time>2011-07-09T08:59:08Z</time>
      </trkpt>
      <trkpt lat="45.3614" lon="6.6738">
        <ele>2351.5222167969</ele>
        <time>2011-07-09T08:59:11Z</time>
      </trkpt>
      <trkpt lat="45.36144" lon="6.67373">
        <ele>2351.0415039062</ele>
        <time>2011-07-09T08:59:13Z</time>
      </trkpt>
      <trkpt lat="45.36158" lon="6.6735">
        <ele>2348.6381835938</ele>
        <time>2011-07-09T08:59:17Z</time>
      </trkpt>
      <trkpt lat="45.36168" lon="6.67329">
        <ele>2346.7153320312</ele>
        <time>2011-07-09T08:59:20Z</time>
      </trkpt>
      <trkpt lat="45.36177" lon="6.67297">
        <ele>2345.2734375</ele>
        <time>2011-07-09T08:59:24Z</time>
      </trkpt>
      <trkpt lat="45.36178" lon="6.67255">
        <ele>2342.8701171875</ele>
        <time>2011-07-09T08:59:29Z</time>
      </trkpt>
      <trkpt lat="45.36183" lon="6.67213">
        <ele>2339.0249023438</ele>
        <time>2011-07-09T08:59:35Z</time>
      </trkpt>
      <trkpt lat="45.36197" lon="6.67186">
        <ele>2335.6604003906</ele>
        <time>2011-07-09T08:59:40Z</time>
      </trkpt>
      <trkpt lat="45.36207" lon="6.6718">
        <ele>2333.7377929688</ele>
        <time>2011-07-09T08:59:42Z</time>
      </trkpt>
      <trkpt lat="45.36233" lon="6.67157">
        <ele>2329.4116210938</ele>
        <time>2011-07-09T08:59:47Z</time>
      </trkpt>
      <trkpt lat="45.36238" lon="6.67151">
        <ele>2328.9309082031</ele>
        <time>2011-07-09T08:59:48Z</time>
      </trkpt>
      <trkpt lat="45.36246" lon="6.67141">
        <ele>2327.0085449219</ele>
        <time>2011-07-09T08:59:50Z</time>
      </trkpt>
      <trkpt lat="45.36253" lon="6.6712">
        <ele>2323.6437988281</ele>
        <time>2011-07-09T08:59:54Z</time>
      </trkpt>
      <trkpt lat="45.36243" lon="6.67104">
        <ele>2322.2019042969</ele>
        <time>2011-07-09T08:59:57Z</time>
      </trkpt>
      <trkpt lat="45.36233" lon="6.67105">
        <ele>2321.2404785156</ele>
        <time>2011-07-09T08:59:59Z</time>
      </trkpt>
      <trkpt lat="45.36208" lon="6.67115">
        <ele>2320.279296875</ele>
        <time>2011-07-09T09:00:03Z</time>
      </trkpt>
      <trkpt lat="45.36173" lon="6.67121">
        <ele>2316.9147949219</ele>
        <time>2011-07-09T09:00:09Z</time>
      </trkpt>
      <trkpt lat="45.36153" lon="6.67137">
        <ele>2315.47265625</ele>
        <time>2011-07-09T09:00:13Z</time>
      </trkpt>
      <trkpt lat="45.36151" lon="6.67145">
        <ele>2314.9919433594</ele>
        <time>2011-07-09T09:00:14Z</time>
      </trkpt>
      <trkpt lat="45.36137" lon="6.67158">
        <ele>2314.5112304688</ele>
        <time>2011-07-09T09:00:19Z</time>
      </trkpt>
      <trkpt lat="45.36134" lon="6.67156">
        <ele>2314.5112304688</ele>
        <time>2011-07-09T09:00:20Z</time>
      </trkpt>
      <trkpt lat="45.36124" lon="6.67147">
        <ele>2314.5112304688</ele>
        <time>2011-07-09T09:00:23Z</time>
      </trkpt>
      <trkpt lat="45.36118" lon="6.67144">
        <ele>2314.0305175781</ele>
        <time>2011-07-09T09:00:25Z</time>
      </trkpt>
      <trkpt lat="45.36105" lon="6.67135">
        <ele>2313.0693359375</ele>
        <time>2011-07-09T09:00:28Z</time>
      </trkpt>
      <trkpt lat="45.36079" lon="6.6713">
        <ele>2309.2241210938</ele>
        <time>2011-07-09T09:00:33Z</time>
      </trkpt>
      <trkpt lat="45.36072" lon="6.67132">
        <ele>2308.7434082031</ele>
        <time>2011-07-09T09:00:34Z</time>
      </trkpt>
      <trkpt lat="45.36035" lon="6.67142">
        <ele>2304.8981933594</ele>
        <time>2011-07-09T09:00:40Z</time>
      </trkpt>
      <trkpt lat="45.36019" lon="6.6715">
        <ele>2302.4948730469</ele>
        <time>2011-07-09T09:00:43Z</time>
      </trkpt>
      <trkpt lat="45.35995" lon="6.67181">
        <ele>2299.6108398438</ele>
        <time>2011-07-09T09:00:48Z</time>
      </trkpt>
      <trkpt lat="45.35992" lon="6.67187">
        <ele>2299.6108398438</ele>
        <time>2011-07-09T09:00:49Z</time>
      </trkpt>
      <trkpt lat="45.35973" lon="6.67203">
        <ele>2296.7268066406</ele>
        <time>2011-07-09T09:00:53Z</time>
      </trkpt>
      <trkpt lat="45.35953" lon="6.67209">
        <ele>2294.8041992188</ele>
        <time>2011-07-09T09:00:57Z</time>
      </trkpt>
      <trkpt lat="45.35941" lon="6.67211">
        <ele>2292.4011230469</ele>
        <time>2011-07-09T09:00:59Z</time>
      </trkpt>
      <trkpt lat="45.3592" lon="6.67206">
        <ele>2288.5559082031</ele>
        <time>2011-07-09T09:01:03Z</time>
      </trkpt>
      <trkpt lat="45.35918" lon="6.67191">
        <ele>2286.1525878906</ele>
        <time>2011-07-09T09:01:06Z</time>
      </trkpt>
      <trkpt lat="45.35927" lon="6.67173">
        <ele>2281.8264160156</ele>
        <time>2011-07-09T09:01:10Z</time>
      </trkpt>
      <trkpt lat="45.35929" lon="6.67165">
        <ele>2279.9038085938</ele>
        <time>2011-07-09T09:01:13Z</time>
      </trkpt>
      <trkpt lat="45.3593" lon="6.67158">
        <ele>2278.4619140625</ele>
        <time>2011-07-09T09:01:15Z</time>
      </trkpt>
      <trkpt lat="45.35929" lon="6.67156">
        <ele>2277.5004882812</ele>
        <time>2011-07-09T09:01:21Z</time>
      </trkpt>
      <trkpt lat="45.35928" lon="6.67149">
        <ele>2277.0200195312</ele>
        <time>2011-07-09T09:01:29Z</time>
      </trkpt>
      <trkpt lat="45.35922" lon="6.67134">
        <ele>2275.5778808594</ele>
        <time>2011-07-09T09:01:35Z</time>
      </trkpt>
      <trkpt lat="45.35916" lon="6.67123">
        <ele>2274.6166992188</ele>
        <time>2011-07-09T09:01:39Z</time>
      </trkpt>
      <trkpt lat="45.35909" lon="6.67109">
        <ele>2272.6940917969</ele>
        <time>2011-07-09T09:01:44Z</time>
      </trkpt>
      <trkpt lat="45.35893" lon="6.67082">
        <ele>2269.3295898438</ele>
        <time>2011-07-09T09:01:50Z</time>
      </trkpt>
      <trkpt lat="45.35882" lon="6.67064">
        <ele>2267.4064941406</ele>
        <time>2011-07-09T09:01:53Z</time>
      </trkpt>
      <trkpt lat="45.35876" lon="6.67043">
        <ele>2265.0034179688</ele>
        <time>2011-07-09T09:01:56Z</time>
      </trkpt>
      <trkpt lat="45.35873" lon="6.6701">
        <ele>2261.158203125</ele>
        <time>2011-07-09T09:02:01Z</time>
      </trkpt>
      <trkpt lat="45.35873" lon="6.66969">
        <ele>2258.2741699219</ele>
        <time>2011-07-09T09:02:06Z</time>
      </trkpt>
      <trkpt lat="45.35882" lon="6.66935">
        <ele>2253.4677734375</ele>
        <time>2011-07-09T09:02:11Z</time>
      </trkpt>
      <trkpt lat="45.35885" lon="6.66926">
        <ele>2252.5063476562</ele>
        <time>2011-07-09T09:02:12Z</time>
      </trkpt>
      <trkpt lat="45.35904" lon="6.66899">
        <ele>2247.6997070312</ele>
        <time>2011-07-09T09:02:16Z</time>
      </trkpt>
      <trkpt lat="45.35922" lon="6.66886">
        <ele>2243.3737792969</ele>
        <time>2011-07-09T09:02:20Z</time>
      </trkpt>
      <trkpt lat="45.35927" lon="6.66884">
        <ele>2240.9704589844</ele>
        <time>2011-07-09T09:02:24Z</time>
      </trkpt>
      <trkpt lat="45.35928" lon="6.66885">
        <ele>2240.4897460938</ele>
        <time>2011-07-09T09:02:27Z</time>
      </trkpt>
      <trkpt lat="45.35936" lon="6.66877">
        <ele>2238.0866699219</ele>
        <time>2011-07-09T09:02:32Z</time>
      </trkpt>
      <trkpt lat="45.35937" lon="6.66869">
        <ele>2236.64453125</ele>
        <time>2011-07-09T09:02:34Z</time>
      </trkpt>
      <trkpt lat="45.35934" lon="6.66842">
        <ele>2232.7990722656</ele>
        <time>2011-07-09T09:02:40Z</time>
      </trkpt>
      <trkpt lat="45.35931" lon="6.66803">
        <ele>2228.4733886719</ele>
        <time>2011-07-09T09:02:46Z</time>
      </trkpt>
      <trkpt lat="45.3593" lon="6.6679">
        <ele>2227.0314941406</ele>
        <time>2011-07-09T09:02:48Z</time>
      </trkpt>
      <trkpt lat="45.3592" lon="6.66763">
        <ele>2223.6667480469</ele>
        <time>2011-07-09T09:02:52Z</time>
      </trkpt>
      <trkpt lat="45.35901" lon="6.66737">
        <ele>2219.3408203125</ele>
        <time>2011-07-09T09:02:56Z</time>
      </trkpt>
      <trkpt lat="45.35885" lon="6.66707">
        <ele>2213.0922851562</ele>
        <time>2011-07-09T09:03:01Z</time>
      </trkpt>
      <trkpt lat="45.35879" lon="6.66694">
        <ele>2210.6889648438</ele>
        <time>2011-07-09T09:03:03Z</time>
      </trkpt>
      <trkpt lat="45.35866" lon="6.66666">
        <ele>2207.8051757812</ele>
        <time>2011-07-09T09:03:07Z</time>
      </trkpt>
      <trkpt lat="45.35865" lon="6.66624">
        <ele>2202.0368652344</ele>
        <time>2011-07-09T09:03:12Z</time>
      </trkpt>
      <trkpt lat="45.35875" lon="6.66611">
        <ele>2198.6723632812</ele>
        <time>2011-07-09T09:03:15Z</time>
      </trkpt>
      <trkpt lat="45.35895" lon="6.66612">
        <ele>2194.8271484375</ele>
        <time>2011-07-09T09:03:18Z</time>
      </trkpt>
      <trkpt lat="45.35926" lon="6.66623">
        <ele>2189.5400390625</ele>
        <time>2011-07-09T09:03:22Z</time>
      </trkpt>
      <trkpt lat="45.3596" lon="6.66622">
        <ele>2185.6945800781</ele>
        <time>2011-07-09T09:03:27Z</time>
      </trkpt>
      <trkpt lat="45.36009" lon="6.66599">
        <ele>2182.330078125</ele>
        <time>2011-07-09T09:03:34Z</time>
      </trkpt>
      <trkpt lat="45.36026" lon="6.66593">
        <ele>2181.3686523438</ele>
        <time>2011-07-09T09:03:37Z</time>
      </trkpt>
      <trkpt lat="45.36034" lon="6.66593">
        <ele>2180.8881835938</ele>
        <time>2011-07-09T09:03:41Z</time>
      </trkpt>
      <trkpt lat="45.3603" lon="6.66595">
        <ele>2175.1201171875</ele>
        <time>2011-07-09T09:03:52Z</time>
      </trkpt>
      <trkpt lat="45.36031" lon="6.66594">
        <ele>2174.6396484375</ele>
        <time>2011-07-09T09:03:59Z</time>
      </trkpt>
      <trkpt lat="45.36031" lon="6.66594">
        <ele>2177.04296875</ele>
        <time>2011-07-09T09:04:11Z</time>
      </trkpt>
      <trkpt lat="45.36031" lon="6.66594">
        <ele>2178.0041503906</ele>
        <time>2011-07-09T09:04:26Z</time>
      </trkpt>
      <trkpt lat="45.36031" lon="6.66594">
        <ele>2178.0041503906</ele>
        <time>2011-07-09T09:04:33Z</time>
      </trkpt>
      <trkpt lat="45.36032" lon="6.66595">
        <ele>2178.4848632812</ele>
        <time>2011-07-09T09:04:35Z</time>
      </trkpt>
      <trkpt lat="45.36034" lon="6.66594">
        <ele>2178.4848632812</ele>
        <time>2011-07-09T09:04:42Z</time>
      </trkpt>
      <trkpt lat="45.36038" lon="6.66595">
        <ele>2178.4848632812</ele>
        <time>2011-07-09T09:04:49Z</time>
      </trkpt>
      <trkpt lat="45.36038" lon="6.66595">
        <ele>2178.9653320312</ele>
        <time>2011-07-09T09:04:57Z</time>
      </trkpt>
      <trkpt lat="45.36037" lon="6.66594">
        <ele>2179.9267578125</ele>
        <time>2011-07-09T09:05:06Z</time>
      </trkpt>
      <trkpt lat="45.3604" lon="6.66596">
        <ele>2180.4074707031</ele>
        <time>2011-07-09T09:05:10Z</time>
      </trkpt>
      <trkpt lat="45.3605" lon="6.66599">
        <ele>2179.9267578125</ele>
        <time>2011-07-09T09:05:18Z</time>
      </trkpt>
      <trkpt lat="45.36055" lon="6.66598">
        <ele>2179.9267578125</ele>
        <time>2011-07-09T09:05:22Z</time>
      </trkpt>
      <trkpt lat="45.36064" lon="6.66586">
        <ele>2179.9267578125</ele>
        <time>2011-07-09T09:05:27Z</time>
      </trkpt>
      <trkpt lat="45.36082" lon="6.6657">
        <ele>2179.4460449219</ele>
        <time>2011-07-09T09:05:32Z</time>
      </trkpt>
      <trkpt lat="45.36094" lon="6.66569">
        <ele>2179.9267578125</ele>
        <time>2011-07-09T09:05:36Z</time>
      </trkpt>
      <trkpt lat="45.36108" lon="6.6657">
        <ele>2179.9267578125</ele>
        <time>2011-07-09T09:05:42Z</time>
      </trkpt>
      <trkpt lat="45.36123" lon="6.66573">
        <ele>2179.9267578125</ele>
        <time>2011-07-09T09:05:47Z</time>
      </trkpt>
      <trkpt lat="45.3614" lon="6.66575">
        <ele>2180.4074707031</ele>
        <time>2011-07-09T09:05:54Z</time>
      </trkpt>
      <trkpt lat="45.36154" lon="6.66576">
        <ele>2180.8881835938</ele>
        <time>2011-07-09T09:06:00Z</time>
      </trkpt>
      <trkpt lat="45.36171" lon="6.66577">
        <ele>2181.3686523438</ele>
        <time>2011-07-09T09:06:08Z</time>
      </trkpt>
      <trkpt lat="45.3618" lon="6.66578">
        <ele>2182.330078125</ele>
        <time>2011-07-09T09:06:12Z</time>
      </trkpt>
      <trkpt lat="45.36184" lon="6.66578">
        <ele>2182.330078125</ele>
        <time>2011-07-09T09:06:14Z</time>
      </trkpt>
      <trkpt lat="45.3619" lon="6.66578">
        <ele>2182.810546875</ele>
        <time>2011-07-09T09:06:18Z</time>
      </trkpt>
      <trkpt lat="45.36203" lon="6.6658">
        <ele>2182.810546875</ele>
        <time>2011-07-09T09:06:26Z</time>
      </trkpt>
      <trkpt lat="45.36216" lon="6.6658">
        <ele>2182.330078125</ele>
        <time>2011-07-09T09:06:32Z</time>
      </trkpt>
      <trkpt lat="45.36232" lon="6.66579">
        <ele>2181.3686523438</ele>
        <time>2011-07-09T09:06:40Z</time>
      </trkpt>
      <trkpt lat="45.36248" lon="6.66576">
        <ele>2180.4074707031</ele>
        <time>2011-07-09T09:06:48Z</time>
      </trkpt>
      <trkpt lat="45.36263" lon="6.6657">
        <ele>2180.4074707031</ele>
        <time>2011-07-09T09:06:57Z</time>
      </trkpt>
      <trkpt lat="45.36267" lon="6.66566">
        <ele>2179.9267578125</ele>
        <time>2011-07-09T09:07:01Z</time>
      </trkpt>
      <trkpt lat="45.36266" lon="6.66555">
        <ele>2179.4460449219</ele>
        <time>2011-07-09T09:07:07Z</time>
      </trkpt>
      <trkpt lat="45.36264" lon="6.66553">
        <ele>2179.9267578125</ele>
        <time>2011-07-09T09:07:09Z</time>
      </trkpt>
      <trkpt lat="45.36251" lon="6.66552">
        <ele>2181.3686523438</ele>
        <time>2011-07-09T09:07:17Z</time>
      </trkpt>
      <trkpt lat="45.36238" lon="6.66551">
        <ele>2183.7719726562</ele>
        <time>2011-07-09T09:07:26Z</time>
      </trkpt>
      <trkpt lat="45.36226" lon="6.66553">
        <ele>2184.7333984375</ele>
        <time>2011-07-09T09:07:34Z</time>
      </trkpt>
      <trkpt lat="45.36208" lon="6.66555">
        <ele>2185.6945800781</ele>
        <time>2011-07-09T09:07:44Z</time>
      </trkpt>
      <trkpt lat="45.36191" lon="6.66551">
        <ele>2187.6171875</ele>
        <time>2011-07-09T09:07:55Z</time>
      </trkpt>
      <trkpt lat="45.36176" lon="6.66547">
        <ele>2189.0593261719</ele>
        <time>2011-07-09T09:08:04Z</time>
      </trkpt>
      <trkpt lat="45.36166" lon="6.66544">
        <ele>2190.5012207031</ele>
        <time>2011-07-09T09:08:12Z</time>
      </trkpt>
      <trkpt lat="45.36156" lon="6.6654">
        <ele>2191.4626464844</ele>
        <time>2011-07-09T09:08:21Z</time>
      </trkpt>
      <trkpt lat="45.36143" lon="6.66535">
        <ele>2193.8659667969</ele>
        <time>2011-07-09T09:08:31Z</time>
      </trkpt>
      <trkpt lat="45.3613" lon="6.6653">
        <ele>2195.7885742188</ele>
        <time>2011-07-09T09:08:41Z</time>
      </trkpt>
      <trkpt lat="45.36119" lon="6.66529">
        <ele>2197.7111816406</ele>
        <time>2011-07-09T09:08:49Z</time>
      </trkpt>
      <trkpt lat="45.36108" lon="6.66528">
        <ele>2199.1530761719</ele>
        <time>2011-07-09T09:08:57Z</time>
      </trkpt>
      <trkpt lat="45.36098" lon="6.66524">
        <ele>2200.5949707031</ele>
        <time>2011-07-09T09:09:04Z</time>
      </trkpt>
      <trkpt lat="45.3609" lon="6.66514">
        <ele>2201.5563964844</ele>
        <time>2011-07-09T09:09:11Z</time>
      </trkpt>
      <trkpt lat="45.36083" lon="6.66502">
        <ele>2201.0756835938</ele>
        <time>2011-07-09T09:09:19Z</time>
      </trkpt>
      <trkpt lat="45.36073" lon="6.66486">
        <ele>2201.5563964844</ele>
        <time>2011-07-09T09:09:29Z</time>
      </trkpt>
      <trkpt lat="45.36065" lon="6.66473">
        <ele>2201.0756835938</ele>
        <time>2011-07-09T09:09:37Z</time>
      </trkpt>
      <trkpt lat="45.36058" lon="6.66459">
        <ele>2200.1145019531</ele>
        <time>2011-07-09T09:09:46Z</time>
      </trkpt>
      <trkpt lat="45.36055" lon="6.66452">
        <ele>2200.1145019531</ele>
        <time>2011-07-09T09:09:50Z</time>
      </trkpt>
      <trkpt lat="45.36049" lon="6.6644">
        <ele>2201.0756835938</ele>
        <time>2011-07-09T09:09:58Z</time>
      </trkpt>
      <trkpt lat="45.36049" lon="6.6644">
        <ele>2200.1145019531</ele>
        <time>2011-07-09T09:10:05Z</time>
      </trkpt>
      <trkpt lat="45.36049" lon="6.66441">
        <ele>2198.6723632812</ele>
        <time>2011-07-09T09:10:13Z</time>
      </trkpt>
      <trkpt lat="45.36047" lon="6.66436">
        <ele>2199.6337890625</ele>
        <time>2011-07-09T09:10:18Z</time>
      </trkpt>
      <trkpt lat="45.36045" lon="6.6643">
        <ele>2200.1145019531</ele>
        <time>2011-07-09T09:10:24Z</time>
      </trkpt>
      <trkpt lat="45.36044" lon="6.66432">
        <ele>2200.5949707031</ele>
        <time>2011-07-09T09:10:29Z</time>
      </trkpt>
      <trkpt lat="45.36044" lon="6.66429">
        <ele>2203.4790039062</ele>
        <time>2011-07-09T09:10:41Z</time>
      </trkpt>
      <trkpt lat="45.36043" lon="6.66425">
        <ele>2202.9982910156</ele>
        <time>2011-07-09T09:10:46Z</time>
      </trkpt>
      <trkpt lat="45.36039" lon="6.66416">
        <ele>2203.4790039062</ele>
        <time>2011-07-09T09:10:55Z</time>
      </trkpt>
      <trkpt lat="45.36034" lon="6.66411">
        <ele>2203.9597167969</ele>
        <time>2011-07-09T09:11:02Z</time>
      </trkpt>
      <trkpt lat="45.36027" lon="6.66408">
        <ele>2205.4018554688</ele>
        <time>2011-07-09T09:11:11Z</time>
      </trkpt>
      <trkpt lat="45.36021" lon="6.66405">
        <ele>2205.8823242188</ele>
        <time>2011-07-09T09:11:18Z</time>
      </trkpt>
      <trkpt lat="45.36013" lon="6.66403">
        <ele>2207.3244628906</ele>
        <time>2011-07-09T09:11:26Z</time>
      </trkpt>
      <trkpt lat="45.36005" lon="6.66399">
        <ele>2208.7663574219</ele>
        <time>2011-07-09T09:11:34Z</time>
      </trkpt>
      <trkpt lat="45.36" lon="6.66396">
        <ele>2209.7275390625</ele>
        <time>2011-07-09T09:11:41Z</time>
      </trkpt>
      <trkpt lat="45.35997" lon="6.66391">
        <ele>2208.7663574219</ele>
        <time>2011-07-09T09:11:49Z</time>
      </trkpt>
      <trkpt lat="45.35995" lon="6.66386">
        <ele>2209.2470703125</ele>
        <time>2011-07-09T09:11:54Z</time>
      </trkpt>
      <trkpt lat="45.35992" lon="6.66378">
        <ele>2209.2470703125</ele>
        <time>2011-07-09T09:12:02Z</time>
      </trkpt>
      <trkpt lat="45.35991" lon="6.66373">
        <ele>2209.2470703125</ele>
        <time>2011-07-09T09:12:08Z</time>
      </trkpt>
      <trkpt lat="45.35989" lon="6.66364">
        <ele>2211.650390625</ele>
        <time>2011-07-09T09:12:14Z</time>
      </trkpt>
      <trkpt lat="45.35989" lon="6.66362">
        <ele>2211.650390625</ele>
        <time>2011-07-09T09:12:15Z</time>
      </trkpt>
      <trkpt lat="45.35989" lon="6.66359">
        <ele>2213.0922851562</ele>
        <time>2011-07-09T09:12:23Z</time>
      </trkpt>
      <trkpt lat="45.35987" lon="6.66353">
        <ele>2212.130859375</ele>
        <time>2011-07-09T09:12:31Z</time>
      </trkpt>
      <trkpt lat="45.35985" lon="6.66345">
        <ele>2213.5727539062</ele>
        <time>2011-07-09T09:12:36Z</time>
      </trkpt>
      <trkpt lat="45.3598" lon="6.66326">
        <ele>2215.0148925781</ele>
        <time>2011-07-09T09:12:47Z</time>
      </trkpt>
      <trkpt lat="45.35976" lon="6.66314">
        <ele>2215.9760742188</ele>
        <time>2011-07-09T09:12:56Z</time>
      </trkpt>
      <trkpt lat="45.35974" lon="6.66304">
        <ele>2216.4567871094</ele>
        <time>2011-07-09T09:13:03Z</time>
      </trkpt>
      <trkpt lat="45.35969" lon="6.66292">
        <ele>2217.8986816406</ele>
        <time>2011-07-09T09:13:12Z</time>
      </trkpt>
      <trkpt lat="45.35965" lon="6.66278">
        <ele>2220.3022460938</ele>
        <time>2011-07-09T09:13:22Z</time>
      </trkpt>
      <trkpt lat="45.35962" lon="6.66271">
        <ele>2221.2634277344</ele>
        <time>2011-07-09T09:13:29Z</time>
      </trkpt>
      <trkpt lat="45.35963" lon="6.66265">
        <ele>2222.7055664062</ele>
        <time>2011-07-09T09:13:38Z</time>
      </trkpt>
      <trkpt lat="45.35962" lon="6.66256">
        <ele>2224.1474609375</ele>
        <time>2011-07-09T09:13:46Z</time>
      </trkpt>
      <trkpt lat="45.3596" lon="6.66246">
        <ele>2225.5893554688</ele>
        <time>2011-07-09T09:13:54Z</time>
      </trkpt>
      <trkpt lat="45.35958" lon="6.66232">
        <ele>2227.0314941406</ele>
        <time>2011-07-09T09:14:04Z</time>
      </trkpt>
      <trkpt lat="45.35959" lon="6.66222">
        <ele>2228.4733886719</ele>
        <time>2011-07-09T09:14:12Z</time>
      </trkpt>
      <trkpt lat="45.35962" lon="6.66214">
        <ele>2230.3959960938</ele>
        <time>2011-07-09T09:14:20Z</time>
      </trkpt>
      <trkpt lat="45.35963" lon="6.66211">
        <ele>2229.9152832031</ele>
        <time>2011-07-09T09:14:26Z</time>
      </trkpt>
      <trkpt lat="45.35962" lon="6.66212">
        <ele>2228.9538574219</ele>
        <time>2011-07-09T09:14:32Z</time>
      </trkpt>
      <trkpt lat="45.3596" lon="6.66213">
        <ele>2230.3959960938</ele>
        <time>2011-07-09T09:14:36Z</time>
      </trkpt>
      <trkpt lat="45.3596" lon="6.66212">
        <ele>2229.4345703125</ele>
        <time>2011-07-09T09:14:42Z</time>
      </trkpt>
      <trkpt lat="45.35961" lon="6.66213">
        <ele>2229.4345703125</ele>
        <time>2011-07-09T09:14:52Z</time>
      </trkpt>
      <trkpt lat="45.3596" lon="6.66213">
        <ele>2229.4345703125</ele>
        <time>2011-07-09T09:14:59Z</time>
      </trkpt>
      <trkpt lat="45.3596" lon="6.66213">
        <ele>2229.4345703125</ele>
        <time>2011-07-09T09:15:10Z</time>
      </trkpt>
      <trkpt lat="45.3596" lon="6.66211">
        <ele>2229.9152832031</ele>
        <time>2011-07-09T09:15:14Z</time>
      </trkpt>
      <trkpt lat="45.3596" lon="6.6621">
        <ele>2230.3959960938</ele>
        <time>2011-07-09T09:15:18Z</time>
      </trkpt>
      <trkpt lat="45.35961" lon="6.6621">
        <ele>2230.8767089844</ele>
        <time>2011-07-09T09:15:21Z</time>
      </trkpt>
      <trkpt lat="45.3596" lon="6.6621">
        <ele>2234.2412109375</ele>
        <time>2011-07-09T09:15:29Z</time>
      </trkpt>
      <trkpt lat="45.3596" lon="6.66211">
        <ele>2233.2797851562</ele>
        <time>2011-07-09T09:15:41Z</time>
      </trkpt>
      <trkpt lat="45.35959" lon="6.66212">
        <ele>2231.3571777344</ele>
        <time>2011-07-09T09:15:49Z</time>
      </trkpt>
      <trkpt lat="45.35959" lon="6.66213">
        <ele>2232.3186035156</ele>
        <time>2011-07-09T09:16:02Z</time>
      </trkpt>
      <trkpt lat="45.3596" lon="6.66212">
        <ele>2233.7604980469</ele>
        <time>2011-07-09T09:16:10Z</time>
      </trkpt>
      <trkpt lat="45.35961" lon="6.66211">
        <ele>2234.2412109375</ele>
        <time>2011-07-09T09:16:18Z</time>
      </trkpt>
      <trkpt lat="45.35961" lon="6.66212">
        <ele>2234.7219238281</ele>
        <time>2011-07-09T09:16:23Z</time>
      </trkpt>
      <trkpt lat="45.35962" lon="6.66212">
        <ele>2234.7219238281</ele>
        <time>2011-07-09T09:16:25Z</time>
      </trkpt>
      <trkpt lat="45.35962" lon="6.66213">
        <ele>2234.7219238281</ele>
        <time>2011-07-09T09:16:35Z</time>
      </trkpt>
      <trkpt lat="45.35961" lon="6.66212">
        <ele>2232.3186035156</ele>
        <time>2011-07-09T09:16:39Z</time>
      </trkpt>
      <trkpt lat="45.35962" lon="6.66212">
        <ele>2231.3571777344</ele>
        <time>2011-07-09T09:16:46Z</time>
      </trkpt>
      <trkpt lat="45.35962" lon="6.66211">
        <ele>2232.7990722656</ele>
        <time>2011-07-09T09:17:10Z</time>
      </trkpt>
      <trkpt lat="45.35961" lon="6.66212">
        <ele>2234.2412109375</ele>
        <time>2011-07-09T09:17:26Z</time>
      </trkpt>
      <trkpt lat="45.35961" lon="6.66211">
        <ele>2233.7604980469</ele>
        <time>2011-07-09T09:17:34Z</time>
      </trkpt>
      <trkpt lat="45.35962" lon="6.66211">
        <ele>2235.2023925781</ele>
        <time>2011-07-09T09:17:47Z</time>
      </trkpt>
      <trkpt lat="45.35962" lon="6.66209">
        <ele>2238.5673828125</ele>
        <time>2011-07-09T09:18:10Z</time>
      </trkpt>
      <trkpt lat="45.35962" lon="6.66209">
        <ele>2238.5673828125</ele>
        <time>2011-07-09T09:18:16Z</time>
      </trkpt>
      <trkpt lat="45.35962" lon="6.66209">
        <ele>2238.5673828125</ele>
        <time>2011-07-09T09:18:19Z</time>
      </trkpt>
      <trkpt lat="45.35962" lon="6.6621">
        <ele>2238.5673828125</ele>
        <time>2011-07-09T09:18:20Z</time>
      </trkpt>
      <trkpt lat="45.35963" lon="6.66211">
        <ele>2239.0478515625</ele>
        <time>2011-07-09T09:18:36Z</time>
      </trkpt>
      <trkpt lat="45.35964" lon="6.66212">
        <ele>2240.4897460938</ele>
        <time>2011-07-09T09:18:47Z</time>
      </trkpt>
      <trkpt lat="45.35964" lon="6.66212">
        <ele>2241.451171875</ele>
        <time>2011-07-09T09:18:52Z</time>
      </trkpt>
      <trkpt lat="45.35965" lon="6.66214">
        <ele>2241.451171875</ele>
        <time>2011-07-09T09:18:57Z</time>
      </trkpt>
      <trkpt lat="45.35967" lon="6.66218">
        <ele>2241.9318847656</ele>
        <time>2011-07-09T09:19:04Z</time>
      </trkpt>
      <trkpt lat="45.35969" lon="6.66218">
        <ele>2243.8544921875</ele>
        <time>2011-07-09T09:19:15Z</time>
      </trkpt>
      <trkpt lat="45.35968" lon="6.66218">
        <ele>2243.3737792969</ele>
        <time>2011-07-09T09:19:27Z</time>
      </trkpt>
      <trkpt lat="45.35962" lon="6.66212">
        <ele>2242.4125976562</ele>
        <time>2011-07-09T09:19:34Z</time>
      </trkpt>
      <trkpt lat="45.35962" lon="6.66212">
        <ele>2239.5285644531</ele>
        <time>2011-07-09T09:19:41Z</time>
      </trkpt>
      <trkpt lat="45.35963" lon="6.66211">
        <ele>2238.0866699219</ele>
        <time>2011-07-09T09:19:48Z</time>
      </trkpt>
      <trkpt lat="45.35959" lon="6.66213">
        <ele>2236.1640625</ele>
        <time>2011-07-09T09:19:58Z</time>
      </trkpt>
      <trkpt lat="45.3596" lon="6.66213">
        <ele>2236.1640625</ele>
        <time>2011-07-09T09:20:02Z</time>
      </trkpt>
      <trkpt lat="45.35958" lon="6.66213">
        <ele>2235.6831054688</ele>
        <time>2011-07-09T09:20:09Z</time>
      </trkpt>
      <trkpt lat="45.3595" lon="6.66206">
        <ele>2235.2023925781</ele>
        <time>2011-07-09T09:20:16Z</time>
      </trkpt>
      <trkpt lat="45.35942" lon="6.66201">
        <ele>2235.6831054688</ele>
        <time>2011-07-09T09:20:23Z</time>
      </trkpt>
      <trkpt lat="45.35932" lon="6.66199">
        <ele>2236.1640625</ele>
        <time>2011-07-09T09:20:30Z</time>
      </trkpt>
      <trkpt lat="45.35924" lon="6.66199">
        <ele>2237.1252441406</ele>
        <time>2011-07-09T09:20:36Z</time>
      </trkpt>
      <trkpt lat="45.35915" lon="6.66198">
        <ele>2237.6059570312</ele>
        <time>2011-07-09T09:20:42Z</time>
      </trkpt>
      <trkpt lat="45.35909" lon="6.66193">
        <ele>2238.0866699219</ele>
        <time>2011-07-09T09:20:47Z</time>
      </trkpt>
      <trkpt lat="45.35903" lon="6.66188">
        <ele>2238.5673828125</ele>
        <time>2011-07-09T09:20:52Z</time>
      </trkpt>
      <trkpt lat="45.35893" lon="6.66177">
        <ele>2239.5285644531</ele>
        <time>2011-07-09T09:21:01Z</time>
      </trkpt>
      <trkpt lat="45.35882" lon="6.66164">
        <ele>2239.0478515625</ele>
        <time>2011-07-09T09:21:10Z</time>
      </trkpt>
      <trkpt lat="45.35873" lon="6.6615">
        <ele>2239.0478515625</ele>
        <time>2011-07-09T09:21:19Z</time>
      </trkpt>
      <trkpt lat="45.35867" lon="6.66137">
        <ele>2239.0478515625</ele>
        <time>2011-07-09T09:21:26Z</time>
      </trkpt>
      <trkpt lat="45.35864" lon="6.66122">
        <ele>2239.5285644531</ele>
        <time>2011-07-09T09:21:33Z</time>
      </trkpt>
      <trkpt lat="45.35862" lon="6.66107">
        <ele>2240.0092773438</ele>
        <time>2011-07-09T09:21:40Z</time>
      </trkpt>
      <trkpt lat="45.35857" lon="6.66084">
        <ele>2240.4897460938</ele>
        <time>2011-07-09T09:21:51Z</time>
      </trkpt>
      <trkpt lat="45.35851" lon="6.66069">
        <ele>2240.9704589844</ele>
        <time>2011-07-09T09:22:01Z</time>
      </trkpt>
      <trkpt lat="45.35847" lon="6.66058">
        <ele>2241.9318847656</ele>
        <time>2011-07-09T09:22:09Z</time>
      </trkpt>
      <trkpt lat="45.35839" lon="6.66046">
        <ele>2242.8930664062</ele>
        <time>2011-07-09T09:22:18Z</time>
      </trkpt>
      <trkpt lat="45.35833" lon="6.66035">
        <ele>2243.8544921875</ele>
        <time>2011-07-09T09:22:26Z</time>
      </trkpt>
      <trkpt lat="45.35826" lon="6.66024">
        <ele>2244.8156738281</ele>
        <time>2011-07-09T09:22:34Z</time>
      </trkpt>
      <trkpt lat="45.35816" lon="6.66014">
        <ele>2245.7770996094</ele>
        <time>2011-07-09T09:22:43Z</time>
      </trkpt>
      <trkpt lat="45.35806" lon="6.66002">
        <ele>2246.73828125</ele>
        <time>2011-07-09T09:22:52Z</time>
      </trkpt>
      <trkpt lat="45.35798" lon="6.6599">
        <ele>2248.1801757812</ele>
        <time>2011-07-09T09:23:01Z</time>
      </trkpt>
      <trkpt lat="45.3579" lon="6.65978">
        <ele>2249.6223144531</ele>
        <time>2011-07-09T09:23:10Z</time>
      </trkpt>
      <trkpt lat="45.35781" lon="6.65966">
        <ele>2250.1030273438</ele>
        <time>2011-07-09T09:23:19Z</time>
      </trkpt>
      <trkpt lat="45.35773" lon="6.65954">
        <ele>2250.1030273438</ele>
        <time>2011-07-09T09:23:27Z</time>
      </trkpt>
      <trkpt lat="45.35764" lon="6.65945">
        <ele>2250.5834960938</ele>
        <time>2011-07-09T09:23:35Z</time>
      </trkpt>
      <trkpt lat="45.35755" lon="6.65933">
        <ele>2252.0256347656</ele>
        <time>2011-07-09T09:23:45Z</time>
      </trkpt>
      <trkpt lat="45.35748" lon="6.65927">
        <ele>2252.9870605469</ele>
        <time>2011-07-09T09:23:52Z</time>
      </trkpt>
      <trkpt lat="45.35741" lon="6.65918">
        <ele>2253.4677734375</ele>
        <time>2011-07-09T09:23:59Z</time>
      </trkpt>
      <trkpt lat="45.35734" lon="6.65902">
        <ele>2253.9484863281</ele>
        <time>2011-07-09T09:24:07Z</time>
      </trkpt>
      <trkpt lat="45.35727" lon="6.65888">
        <ele>2254.4289550781</ele>
        <time>2011-07-09T09:24:16Z</time>
      </trkpt>
      <trkpt lat="45.3572" lon="6.65884">
        <ele>2255.3903808594</ele>
        <time>2011-07-09T09:24:22Z</time>
      </trkpt>
      <trkpt lat="45.35713" lon="6.65884">
        <ele>2256.3515625</ele>
        <time>2011-07-09T09:24:28Z</time>
      </trkpt>
      <trkpt lat="45.35712" lon="6.65885">
        <ele>2256.3515625</ele>
        <time>2011-07-09T09:24:29Z</time>
      </trkpt>
      <trkpt lat="45.35711" lon="6.65884">
        <ele>2256.8322753906</ele>
        <time>2011-07-09T09:24:36Z</time>
      </trkpt>
      <trkpt lat="45.35712" lon="6.65884">
        <ele>2256.3515625</ele>
        <time>2011-07-09T09:24:45Z</time>
      </trkpt>
      <trkpt lat="45.3571" lon="6.65885">
        <ele>2256.3515625</ele>
        <time>2011-07-09T09:24:53Z</time>
      </trkpt>
      <trkpt lat="45.35706" lon="6.65889">
        <ele>2258.2741699219</ele>
        <time>2011-07-09T09:24:59Z</time>
      </trkpt>
      <trkpt lat="45.35702" lon="6.65898">
        <ele>2261.6389160156</ele>
        <time>2011-07-09T09:25:10Z</time>
      </trkpt>
      <trkpt lat="45.35698" lon="6.65903">
        <ele>2263.5612792969</ele>
        <time>2011-07-09T09:25:18Z</time>
      </trkpt>
      <trkpt lat="45.35696" lon="6.65904">
        <ele>2265.0034179688</ele>
        <time>2011-07-09T09:25:25Z</time>
      </trkpt>
      <trkpt lat="45.35689" lon="6.65904">
        <ele>2266.9260253906</ele>
        <time>2011-07-09T09:25:34Z</time>
      </trkpt>
      <trkpt lat="45.35683" lon="6.65903">
        <ele>2267.8872070312</ele>
        <time>2011-07-09T09:25:41Z</time>
      </trkpt>
      <trkpt lat="45.35672" lon="6.65904">
        <ele>2269.8100585938</ele>
        <time>2011-07-09T09:25:53Z</time>
      </trkpt>
      <trkpt lat="45.35663" lon="6.65906">
        <ele>2271.251953125</ele>
        <time>2011-07-09T09:26:03Z</time>
      </trkpt>
      <trkpt lat="45.35653" lon="6.65907">
        <ele>2272.2133789062</ele>
        <time>2011-07-09T09:26:14Z</time>
      </trkpt>
      <trkpt lat="45.35648" lon="6.65906">
        <ele>2272.2133789062</ele>
        <time>2011-07-09T09:26:22Z</time>
      </trkpt>
      <trkpt lat="45.35644" lon="6.65905">
        <ele>2271.251953125</ele>
        <time>2011-07-09T09:26:30Z</time>
      </trkpt>
      <trkpt lat="45.35637" lon="6.65901">
        <ele>2270.771484375</ele>
        <time>2011-07-09T09:26:38Z</time>
      </trkpt>
      <trkpt lat="45.35629" lon="6.65892">
        <ele>2272.2133789062</ele>
        <time>2011-07-09T09:26:50Z</time>
      </trkpt>
      <trkpt lat="45.35629" lon="6.65893">
        <ele>2272.6940917969</ele>
        <time>2011-07-09T09:27:03Z</time>
      </trkpt>
      <trkpt lat="45.3563" lon="6.65893">
        <ele>2272.6940917969</ele>
        <time>2011-07-09T09:27:15Z</time>
      </trkpt>
      <trkpt lat="45.35627" lon="6.65889">
        <ele>2273.1748046875</ele>
        <time>2011-07-09T09:27:22Z</time>
      </trkpt>
      <trkpt lat="45.35622" lon="6.6588">
        <ele>2274.6166992188</ele>
        <time>2011-07-09T09:27:32Z</time>
      </trkpt>
      <trkpt lat="45.35616" lon="6.6587">
        <ele>2276.5393066406</ele>
        <time>2011-07-09T09:27:42Z</time>
      </trkpt>
      <trkpt lat="45.3561" lon="6.65861">
        <ele>2278.4619140625</ele>
        <time>2011-07-09T09:27:52Z</time>
      </trkpt>
      <trkpt lat="45.35604" lon="6.65852">
        <ele>2280.3845214844</ele>
        <time>2011-07-09T09:28:02Z</time>
      </trkpt>
      <trkpt lat="45.35603" lon="6.6585">
        <ele>2280.865234375</ele>
        <time>2011-07-09T09:28:12Z</time>
      </trkpt>
      <trkpt lat="45.35595" lon="6.65839">
        <ele>2282.3071289062</ele>
        <time>2011-07-09T09:28:22Z</time>
      </trkpt>
      <trkpt lat="45.35592" lon="6.65831">
        <ele>2283.7490234375</ele>
        <time>2011-07-09T09:28:30Z</time>
      </trkpt>
      <trkpt lat="45.3559" lon="6.65825">
        <ele>2285.671875</ele>
        <time>2011-07-09T09:28:37Z</time>
      </trkpt>
      <trkpt lat="45.35587" lon="6.65816">
        <ele>2288.0751953125</ele>
        <time>2011-07-09T09:28:46Z</time>
      </trkpt>
      <trkpt lat="45.35582" lon="6.65806">
        <ele>2289.0363769531</ele>
        <time>2011-07-09T09:28:55Z</time>
      </trkpt>
      <trkpt lat="45.35575" lon="6.65797">
        <ele>2289.0363769531</ele>
        <time>2011-07-09T09:29:05Z</time>
      </trkpt>
      <trkpt lat="45.35565" lon="6.65793">
        <ele>2289.0363769531</ele>
        <time>2011-07-09T09:29:15Z</time>
      </trkpt>
      <trkpt lat="45.35557" lon="6.65787">
        <ele>2289.9978027344</ele>
        <time>2011-07-09T09:29:24Z</time>
      </trkpt>
      <trkpt lat="45.35553" lon="6.6578">
        <ele>2291.4396972656</ele>
        <time>2011-07-09T09:29:31Z</time>
      </trkpt>
      <trkpt lat="45.35549" lon="6.65772">
        <ele>2292.4011230469</ele>
        <time>2011-07-09T09:29:39Z</time>
      </trkpt>
      <trkpt lat="45.35548" lon="6.65771">
        <ele>2292.8815917969</ele>
        <time>2011-07-09T09:29:46Z</time>
      </trkpt>
      <trkpt lat="45.35545" lon="6.65766">
        <ele>2293.8430175781</ele>
        <time>2011-07-09T09:29:50Z</time>
      </trkpt>
      <trkpt lat="45.35542" lon="6.65757">
        <ele>2294.3234863281</ele>
        <time>2011-07-09T09:29:56Z</time>
      </trkpt>
      <trkpt lat="45.35533" lon="6.6574">
        <ele>2297.2075195312</ele>
        <time>2011-07-09T09:30:05Z</time>
      </trkpt>
      <trkpt lat="45.35525" lon="6.65727">
        <ele>2297.6882324219</ele>
        <time>2011-07-09T09:30:13Z</time>
      </trkpt>
      <trkpt lat="45.35516" lon="6.65714">
        <ele>2298.1687011719</ele>
        <time>2011-07-09T09:30:22Z</time>
      </trkpt>
      <trkpt lat="45.35505" lon="6.65699">
        <ele>2298.6494140625</ele>
        <time>2011-07-09T09:30:32Z</time>
      </trkpt>
      <trkpt lat="45.35498" lon="6.65689">
        <ele>2299.6108398438</ele>
        <time>2011-07-09T09:30:39Z</time>
      </trkpt>
      <trkpt lat="45.3549" lon="6.65672">
        <ele>2301.0529785156</ele>
        <time>2011-07-09T09:30:49Z</time>
      </trkpt>
      <trkpt lat="45.35486" lon="6.65659">
        <ele>2302.4948730469</ele>
        <time>2011-07-09T09:30:56Z</time>
      </trkpt>
      <trkpt lat="45.35487" lon="6.65654">
        <ele>2303.4562988281</ele>
        <time>2011-07-09T09:31:02Z</time>
      </trkpt>
      <trkpt lat="45.35488" lon="6.65649">
        <ele>2303.4562988281</ele>
        <time>2011-07-09T09:31:08Z</time>
      </trkpt>
      <trkpt lat="45.3549" lon="6.65638">
        <ele>2304.4174804688</ele>
        <time>2011-07-09T09:31:18Z</time>
      </trkpt>
      <trkpt lat="45.35492" lon="6.65629">
        <ele>2305.859375</ele>
        <time>2011-07-09T09:31:27Z</time>
      </trkpt>
      <trkpt lat="45.35492" lon="6.65625">
        <ele>2307.3015136719</ele>
        <time>2011-07-09T09:31:36Z</time>
      </trkpt>
      <trkpt lat="45.35493" lon="6.65616">
        <ele>2309.2241210938</ele>
        <time>2011-07-09T09:31:44Z</time>
      </trkpt>
      <trkpt lat="45.35492" lon="6.65605">
        <ele>2311.6274414062</ele>
        <time>2011-07-09T09:31:54Z</time>
      </trkpt>
      <trkpt lat="45.3549" lon="6.65594">
        <ele>2312.5886230469</ele>
        <time>2011-07-09T09:32:03Z</time>
      </trkpt>
      <trkpt lat="45.35485" lon="6.65583">
        <ele>2313.5498046875</ele>
        <time>2011-07-09T09:32:14Z</time>
      </trkpt>
      <trkpt lat="45.35481" lon="6.65578">
        <ele>2313.0693359375</ele>
        <time>2011-07-09T09:32:21Z</time>
      </trkpt>
      <trkpt lat="45.35475" lon="6.65576">
        <ele>2313.0693359375</ele>
        <time>2011-07-09T09:32:27Z</time>
      </trkpt>
      <trkpt lat="45.35468" lon="6.65574">
        <ele>2313.0693359375</ele>
        <time>2011-07-09T09:32:35Z</time>
      </trkpt>
      <trkpt lat="45.35468" lon="6.65574">
        <ele>2312.5886230469</ele>
        <time>2011-07-09T09:32:42Z</time>
      </trkpt>
      <trkpt lat="45.35467" lon="6.65575">
        <ele>2311.6274414062</ele>
        <time>2011-07-09T09:32:52Z</time>
      </trkpt>
      <trkpt lat="45.35467" lon="6.65575">
        <ele>2311.6274414062</ele>
        <time>2011-07-09T09:33:00Z</time>
      </trkpt>
      <trkpt lat="45.35467" lon="6.65575">
        <ele>2311.1467285156</ele>
        <time>2011-07-09T09:33:05Z</time>
      </trkpt>
      <trkpt lat="45.35468" lon="6.65575">
        <ele>2310.1853027344</ele>
        <time>2011-07-09T09:33:27Z</time>
      </trkpt>
      <trkpt lat="45.35468" lon="6.65574">
        <ele>2312.1079101562</ele>
        <time>2011-07-09T09:33:51Z</time>
      </trkpt>
      <trkpt lat="45.35468" lon="6.65575">
        <ele>2311.1467285156</ele>
        <time>2011-07-09T09:34:01Z</time>
      </trkpt>
      <trkpt lat="45.35467" lon="6.65576">
        <ele>2314.0305175781</ele>
        <time>2011-07-09T09:34:33Z</time>
      </trkpt>
      <trkpt lat="45.35469" lon="6.65577">
        <ele>2314.5112304688</ele>
        <time>2011-07-09T09:34:46Z</time>
      </trkpt>
      <trkpt lat="45.35471" lon="6.65577">
        <ele>2315.47265625</ele>
        <time>2011-07-09T09:34:58Z</time>
      </trkpt>
      <trkpt lat="45.35471" lon="6.65576">
        <ele>2317.8759765625</ele>
        <time>2011-07-09T09:35:15Z</time>
      </trkpt>
      <trkpt lat="45.35471" lon="6.65576">
        <ele>2318.3566894531</ele>
        <time>2011-07-09T09:35:23Z</time>
      </trkpt>
      <trkpt lat="45.35471" lon="6.65575">
        <ele>2319.7985839844</ele>
        <time>2011-07-09T09:35:26Z</time>
      </trkpt>
      <trkpt lat="45.35471" lon="6.65576">
        <ele>2319.3181152344</ele>
        <time>2011-07-09T09:35:33Z</time>
      </trkpt>
      <trkpt lat="45.35469" lon="6.65574">
        <ele>2317.8759765625</ele>
        <time>2011-07-09T09:35:56Z</time>
      </trkpt>
      <trkpt lat="45.35469" lon="6.65573">
        <ele>2316.9147949219</ele>
        <time>2011-07-09T09:36:10Z</time>
      </trkpt>
      <trkpt lat="45.35468" lon="6.65573">
        <ele>2318.8374023438</ele>
        <time>2011-07-09T09:36:28Z</time>
      </trkpt>
      <trkpt lat="45.35468" lon="6.65571">
        <ele>2312.1079101562</ele>
        <time>2011-07-09T09:36:53Z</time>
      </trkpt>
      <trkpt lat="45.35468" lon="6.65568">
        <ele>2303.4562988281</ele>
        <time>2011-07-09T09:37:57Z</time>
      </trkpt>
      <trkpt lat="45.35468" lon="6.65568">
        <ele>2304.4174804688</ele>
        <time>2011-07-09T09:38:00Z</time>
      </trkpt>
      <trkpt lat="45.35468" lon="6.65568">
        <ele>2304.8981933594</ele>
        <time>2011-07-09T09:38:07Z</time>
      </trkpt>
      <trkpt lat="45.35463" lon="6.6557">
        <ele>2314.5112304688</ele>
        <time>2011-07-09T09:38:38Z</time>
      </trkpt>
      <trkpt lat="45.35459" lon="6.6557">
        <ele>2313.5498046875</ele>
        <time>2011-07-09T09:38:42Z</time>
      </trkpt>
      <trkpt lat="45.35455" lon="6.65571">
        <ele>2313.5498046875</ele>
        <time>2011-07-09T09:38:46Z</time>
      </trkpt>
      <trkpt lat="45.35448" lon="6.65575">
        <ele>2314.0305175781</ele>
        <time>2011-07-09T09:38:55Z</time>
      </trkpt>
      <trkpt lat="45.35448" lon="6.65576">
        <ele>2314.5112304688</ele>
        <time>2011-07-09T09:39:10Z</time>
      </trkpt>
      <trkpt lat="45.35448" lon="6.65578">
        <ele>2315.953125</ele>
        <time>2011-07-09T09:39:53Z</time>
      </trkpt>
      <trkpt lat="45.35447" lon="6.65578">
        <ele>2315.953125</ele>
        <time>2011-07-09T09:39:55Z</time>
      </trkpt>
      <trkpt lat="45.35448" lon="6.65578">
        <ele>2315.47265625</ele>
        <time>2011-07-09T09:40:23Z</time>
      </trkpt>
      <trkpt lat="45.35445" lon="6.65578">
        <ele>2314.9919433594</ele>
        <time>2011-07-09T09:40:30Z</time>
      </trkpt>
      <trkpt lat="45.3544" lon="6.65582">
        <ele>2314.9919433594</ele>
        <time>2011-07-09T09:40:38Z</time>
      </trkpt>
      <trkpt lat="45.35438" lon="6.65583">
        <ele>2315.47265625</ele>
        <time>2011-07-09T09:40:44Z</time>
      </trkpt>
      <trkpt lat="45.35438" lon="6.65584">
        <ele>2315.953125</ele>
        <time>2011-07-09T09:40:50Z</time>
      </trkpt>
      <trkpt lat="45.35439" lon="6.65583">
        <ele>2315.953125</ele>
        <time>2011-07-09T09:41:02Z</time>
      </trkpt>
      <trkpt lat="45.35437" lon="6.65586">
        <ele>2316.9147949219</ele>
        <time>2011-07-09T09:41:14Z</time>
      </trkpt>
      <trkpt lat="45.35438" lon="6.65583">
        <ele>2316.4340820312</ele>
        <time>2011-07-09T09:41:19Z</time>
      </trkpt>
      <trkpt lat="45.35438" lon="6.65583">
        <ele>2315.47265625</ele>
        <time>2011-07-09T09:41:24Z</time>
      </trkpt>
      <trkpt lat="45.35434" lon="6.65585">
        <ele>2316.4340820312</ele>
        <time>2011-07-09T09:41:30Z</time>
      </trkpt>
      <trkpt lat="45.35427" lon="6.65586">
        <ele>2315.953125</ele>
        <time>2011-07-09T09:41:37Z</time>
      </trkpt>
      <trkpt lat="45.35423" lon="6.65586">
        <ele>2315.953125</ele>
        <time>2011-07-09T09:41:43Z</time>
      </trkpt>
      <trkpt lat="45.35418" lon="6.65587">
        <ele>2315.953125</ele>
        <time>2011-07-09T09:41:48Z</time>
      </trkpt>
      <trkpt lat="45.35407" lon="6.65588">
        <ele>2315.953125</ele>
        <time>2011-07-09T09:41:58Z</time>
      </trkpt>
      <trkpt lat="45.35406" lon="6.65588">
        <ele>2315.953125</ele>
        <time>2011-07-09T09:42:02Z</time>
      </trkpt>
      <trkpt lat="45.35401" lon="6.65588">
        <ele>2316.9147949219</ele>
        <time>2011-07-09T09:42:20Z</time>
      </trkpt>
      <trkpt lat="45.35396" lon="6.65587">
        <ele>2315.953125</ele>
        <time>2011-07-09T09:42:26Z</time>
      </trkpt>
      <trkpt lat="45.35392" lon="6.65585">
        <ele>2314.9919433594</ele>
        <time>2011-07-09T09:42:32Z</time>
      </trkpt>
      <trkpt lat="45.35387" lon="6.65586">
        <ele>2314.5112304688</ele>
        <time>2011-07-09T09:42:40Z</time>
      </trkpt>
      <trkpt lat="45.35381" lon="6.65588">
        <ele>2314.9919433594</ele>
        <time>2011-07-09T09:42:47Z</time>
      </trkpt>
      <trkpt lat="45.35381" lon="6.65588">
        <ele>2314.9919433594</ele>
        <time>2011-07-09T09:42:51Z</time>
      </trkpt>
      <trkpt lat="45.35381" lon="6.65588">
        <ele>2314.5112304688</ele>
        <time>2011-07-09T09:42:55Z</time>
      </trkpt>
      <trkpt lat="45.35381" lon="6.6559">
        <ele>2313.5498046875</ele>
        <time>2011-07-09T09:43:01Z</time>
      </trkpt>
      <trkpt lat="45.35379" lon="6.65591">
        <ele>2313.5498046875</ele>
        <time>2011-07-09T09:43:09Z</time>
      </trkpt>
      <trkpt lat="45.35379" lon="6.6559">
        <ele>2314.5112304688</ele>
        <time>2011-07-09T09:43:26Z</time>
      </trkpt>
      <trkpt lat="45.35379" lon="6.6559">
        <ele>2314.9919433594</ele>
        <time>2011-07-09T09:43:39Z</time>
      </trkpt>
      <trkpt lat="45.35378" lon="6.6559">
        <ele>2314.9919433594</ele>
        <time>2011-07-09T09:43:49Z</time>
      </trkpt>
      <trkpt lat="45.35378" lon="6.6559">
        <ele>2314.9919433594</ele>
        <time>2011-07-09T09:43:52Z</time>
      </trkpt>
      <trkpt lat="45.35378" lon="6.6559">
        <ele>2314.9919433594</ele>
        <time>2011-07-09T09:44:02Z</time>
      </trkpt>
      <trkpt lat="45.35377" lon="6.6559">
        <ele>2314.9919433594</ele>
        <time>2011-07-09T09:44:04Z</time>
      </trkpt>
      <trkpt lat="45.35369" lon="6.65585">
        <ele>2314.9919433594</ele>
        <time>2011-07-09T09:44:12Z</time>
      </trkpt>
      <trkpt lat="45.35363" lon="6.65583">
        <ele>2314.9919433594</ele>
        <time>2011-07-09T09:44:19Z</time>
      </trkpt>
      <trkpt lat="45.35357" lon="6.65582">
        <ele>2315.47265625</ele>
        <time>2011-07-09T09:44:26Z</time>
      </trkpt>
      <trkpt lat="45.35357" lon="6.65583">
        <ele>2315.953125</ele>
        <time>2011-07-09T09:44:39Z</time>
      </trkpt>
      <trkpt lat="45.35356" lon="6.65583">
        <ele>2316.4340820312</ele>
        <time>2011-07-09T09:44:54Z</time>
      </trkpt>
      <trkpt lat="45.35356" lon="6.65584">
        <ele>2316.4340820312</ele>
        <time>2011-07-09T09:45:05Z</time>
      </trkpt>
      <trkpt lat="45.35355" lon="6.65584">
        <ele>2315.953125</ele>
        <time>2011-07-09T09:45:08Z</time>
      </trkpt>
      <trkpt lat="45.35355" lon="6.65584">
        <ele>2316.4340820312</ele>
        <time>2011-07-09T09:45:09Z</time>
      </trkpt>
      <trkpt lat="45.3536" lon="6.6558">
        <ele>2315.47265625</ele>
        <time>2011-07-09T09:45:18Z</time>
      </trkpt>
      <trkpt lat="45.35361" lon="6.65582">
        <ele>2314.9919433594</ele>
        <time>2011-07-09T09:45:23Z</time>
      </trkpt>
      <trkpt lat="45.35362" lon="6.65584">
        <ele>2314.9919433594</ele>
        <time>2011-07-09T09:45:30Z</time>
      </trkpt>
      <trkpt lat="45.35362" lon="6.65586">
        <ele>2317.3952636719</ele>
        <time>2011-07-09T09:45:54Z</time>
      </trkpt>
      <trkpt lat="45.3536" lon="6.65588">
        <ele>2317.3952636719</ele>
        <time>2011-07-09T09:46:04Z</time>
      </trkpt>
      <trkpt lat="45.3536" lon="6.65587">
        <ele>2316.9147949219</ele>
        <time>2011-07-09T09:46:06Z</time>
      </trkpt>
      <trkpt lat="45.35363" lon="6.65587">
        <ele>2318.8374023438</ele>
        <time>2011-07-09T09:46:12Z</time>
      </trkpt>
      <trkpt lat="45.35362" lon="6.65589">
        <ele>2319.3181152344</ele>
        <time>2011-07-09T09:46:22Z</time>
      </trkpt>
      <trkpt lat="45.35361" lon="6.65583">
        <ele>2316.4340820312</ele>
        <time>2011-07-09T09:46:27Z</time>
      </trkpt>
      <trkpt lat="45.3536" lon="6.65581">
        <ele>2316.4340820312</ele>
        <time>2011-07-09T09:46:29Z</time>
      </trkpt>
      <trkpt lat="45.3536" lon="6.6558">
        <ele>2314.9919433594</ele>
        <time>2011-07-09T09:46:34Z</time>
      </trkpt>
      <trkpt lat="45.3536" lon="6.6558">
        <ele>2314.5112304688</ele>
        <time>2011-07-09T09:46:40Z</time>
      </trkpt>
      <trkpt lat="45.35359" lon="6.6558">
        <ele>2314.0305175781</ele>
        <time>2011-07-09T09:46:42Z</time>
      </trkpt>
      <trkpt lat="45.35359" lon="6.6558">
        <ele>2314.0305175781</ele>
        <time>2011-07-09T09:46:43Z</time>
      </trkpt>
      <trkpt lat="45.35358" lon="6.65577">
        <ele>2315.953125</ele>
        <time>2011-07-09T09:46:50Z</time>
      </trkpt>
      <trkpt lat="45.35357" lon="6.65578">
        <ele>2315.953125</ele>
        <time>2011-07-09T09:47:02Z</time>
      </trkpt>
      <trkpt lat="45.35356" lon="6.65576">
        <ele>2318.8374023438</ele>
        <time>2011-07-09T09:47:12Z</time>
      </trkpt>
      <trkpt lat="45.35353" lon="6.65572">
        <ele>2321.7211914062</ele>
        <time>2011-07-09T09:47:23Z</time>
      </trkpt>
      <trkpt lat="45.35353" lon="6.65572">
        <ele>2320.7600097656</ele>
        <time>2011-07-09T09:47:25Z</time>
      </trkpt>
      <trkpt lat="45.35354" lon="6.65573">
        <ele>2318.8374023438</ele>
        <time>2011-07-09T09:47:30Z</time>
      </trkpt>
      <trkpt lat="45.35354" lon="6.65574">
        <ele>2318.3566894531</ele>
        <time>2011-07-09T09:47:33Z</time>
      </trkpt>
      <trkpt lat="45.35354" lon="6.65575">
        <ele>2317.8759765625</ele>
        <time>2011-07-09T09:47:47Z</time>
      </trkpt>
      <trkpt lat="45.35354" lon="6.65575">
        <ele>2317.3952636719</ele>
        <time>2011-07-09T09:48:00Z</time>
      </trkpt>
      <trkpt lat="45.35354" lon="6.65575">
        <ele>2317.3952636719</ele>
        <time>2011-07-09T09:48:07Z</time>
      </trkpt>
      <trkpt lat="45.35354" lon="6.65575">
        <ele>2317.8759765625</ele>
        <time>2011-07-09T09:48:18Z</time>
      </trkpt>
      <trkpt lat="45.35355" lon="6.65577">
        <ele>2317.3952636719</ele>
        <time>2011-07-09T09:48:22Z</time>
      </trkpt>
      <trkpt lat="45.35357" lon="6.65579">
        <ele>2317.8759765625</ele>
        <time>2011-07-09T09:48:24Z</time>
      </trkpt>
      <trkpt lat="45.35358" lon="6.65577">
        <ele>2318.8374023438</ele>
        <time>2011-07-09T09:48:30Z</time>
      </trkpt>
      <trkpt lat="45.35353" lon="6.65573">
        <ele>2318.8374023438</ele>
        <time>2011-07-09T09:48:37Z</time>
      </trkpt>
      <trkpt lat="45.35353" lon="6.65571">
        <ele>2318.8374023438</ele>
        <time>2011-07-09T09:48:43Z</time>
      </trkpt>
      <trkpt lat="45.35352" lon="6.65567">
        <ele>2318.8374023438</ele>
        <time>2011-07-09T09:48:49Z</time>
      </trkpt>
      <trkpt lat="45.35349" lon="6.65566">
        <ele>2318.8374023438</ele>
        <time>2011-07-09T09:48:54Z</time>
      </trkpt>
      <trkpt lat="45.35344" lon="6.6556">
        <ele>2317.8759765625</ele>
        <time>2011-07-09T09:49:01Z</time>
      </trkpt>
      <trkpt lat="45.35341" lon="6.65554">
        <ele>2316.4340820312</ele>
        <time>2011-07-09T09:49:08Z</time>
      </trkpt>
      <trkpt lat="45.35337" lon="6.65554">
        <ele>2315.47265625</ele>
        <time>2011-07-09T09:49:15Z</time>
      </trkpt>
      <trkpt lat="45.35336" lon="6.65555">
        <ele>2314.9919433594</ele>
        <time>2011-07-09T09:49:22Z</time>
      </trkpt>
      <trkpt lat="45.35334" lon="6.65555">
        <ele>2314.5112304688</ele>
        <time>2011-07-09T09:49:26Z</time>
      </trkpt>
      <trkpt lat="45.35332" lon="6.65555">
        <ele>2314.5112304688</ele>
        <time>2011-07-09T09:49:32Z</time>
      </trkpt>
      <trkpt lat="45.35328" lon="6.65555">
        <ele>2314.0305175781</ele>
        <time>2011-07-09T09:49:39Z</time>
      </trkpt>
      <trkpt lat="45.35323" lon="6.65556">
        <ele>2313.5498046875</ele>
        <time>2011-07-09T09:49:43Z</time>
      </trkpt>
      <trkpt lat="45.35319" lon="6.65555">
        <ele>2313.0693359375</ele>
        <time>2011-07-09T09:49:49Z</time>
      </trkpt>
      <trkpt lat="45.35317" lon="6.65556">
        <ele>2313.0693359375</ele>
        <time>2011-07-09T09:49:53Z</time>
      </trkpt>
      <trkpt lat="45.35314" lon="6.65551">
        <ele>2313.0693359375</ele>
        <time>2011-07-09T09:49:58Z</time>
      </trkpt>
      <trkpt lat="45.3531" lon="6.65548">
        <ele>2312.5886230469</ele>
        <time>2011-07-09T09:50:02Z</time>
      </trkpt>
      <trkpt lat="45.35305" lon="6.65543">
        <ele>2311.6274414062</ele>
        <time>2011-07-09T09:50:09Z</time>
      </trkpt>
      <trkpt lat="45.35302" lon="6.65543">
        <ele>2311.1467285156</ele>
        <time>2011-07-09T09:50:15Z</time>
      </trkpt>
      <trkpt lat="45.353" lon="6.65545">
        <ele>2311.1467285156</ele>
        <time>2011-07-09T09:50:22Z</time>
      </trkpt>
      <trkpt lat="45.35299" lon="6.65547">
        <ele>2310.666015625</ele>
        <time>2011-07-09T09:50:32Z</time>
      </trkpt>
      <trkpt lat="45.353" lon="6.65548">
        <ele>2312.5886230469</ele>
        <time>2011-07-09T09:50:48Z</time>
      </trkpt>
      <trkpt lat="45.353" lon="6.65547">
        <ele>2313.0693359375</ele>
        <time>2011-07-09T09:51:11Z</time>
      </trkpt>
      <trkpt lat="45.35299" lon="6.65544">
        <ele>2312.5886230469</ele>
        <time>2011-07-09T09:51:16Z</time>
      </trkpt>
      <trkpt lat="45.35297" lon="6.65543">
        <ele>2311.6274414062</ele>
        <time>2011-07-09T09:51:18Z</time>
      </trkpt>
      <trkpt lat="45.35294" lon="6.65537">
        <ele>2310.666015625</ele>
        <time>2011-07-09T09:51:22Z</time>
      </trkpt>
      <trkpt lat="45.35294" lon="6.65534">
        <ele>2310.1853027344</ele>
        <time>2011-07-09T09:51:24Z</time>
      </trkpt>
      <trkpt lat="45.35291" lon="6.65528">
        <ele>2307.7822265625</ele>
        <time>2011-07-09T09:51:30Z</time>
      </trkpt>
      <trkpt lat="45.35288" lon="6.6552">
        <ele>2305.37890625</ele>
        <time>2011-07-09T09:51:37Z</time>
      </trkpt>
      <trkpt lat="45.35286" lon="6.65513">
        <ele>2303.4562988281</ele>
        <time>2011-07-09T09:51:44Z</time>
      </trkpt>
      <trkpt lat="45.35283" lon="6.65511">
        <ele>2302.0141601562</ele>
        <time>2011-07-09T09:51:51Z</time>
      </trkpt>
      <trkpt lat="45.3528" lon="6.65507">
        <ele>2301.0529785156</ele>
        <time>2011-07-09T09:51:55Z</time>
      </trkpt>
      <trkpt lat="45.35279" lon="6.65503">
        <ele>2299.6108398438</ele>
        <time>2011-07-09T09:51:59Z</time>
      </trkpt>
      <trkpt lat="45.35271" lon="6.65495">
        <ele>2298.1687011719</ele>
        <time>2011-07-09T09:52:07Z</time>
      </trkpt>
      <trkpt lat="45.35268" lon="6.65487">
        <ele>2296.7268066406</ele>
        <time>2011-07-09T09:52:13Z</time>
      </trkpt>
      <trkpt lat="45.35267" lon="6.65484">
        <ele>2295.765625</ele>
        <time>2011-07-09T09:52:20Z</time>
      </trkpt>
      <trkpt lat="45.35266" lon="6.65484">
        <ele>2296.7268066406</ele>
        <time>2011-07-09T09:52:27Z</time>
      </trkpt>
      <trkpt lat="45.35267" lon="6.65483">
        <ele>2298.1687011719</ele>
        <time>2011-07-09T09:52:35Z</time>
      </trkpt>
      <trkpt lat="45.35267" lon="6.65484">
        <ele>2297.6882324219</ele>
        <time>2011-07-09T09:52:41Z</time>
      </trkpt>
      <trkpt lat="45.35265" lon="6.65486">
        <ele>2297.2075195312</ele>
        <time>2011-07-09T09:52:48Z</time>
      </trkpt>
      <trkpt lat="45.35264" lon="6.65487">
        <ele>2297.2075195312</ele>
        <time>2011-07-09T09:52:55Z</time>
      </trkpt>
      <trkpt lat="45.35263" lon="6.6549">
        <ele>2296.7268066406</ele>
        <time>2011-07-09T09:53:01Z</time>
      </trkpt>
      <trkpt lat="45.35262" lon="6.65495">
        <ele>2296.7268066406</ele>
        <time>2011-07-09T09:53:07Z</time>
      </trkpt>
      <trkpt lat="45.35262" lon="6.65494">
        <ele>2297.6882324219</ele>
        <time>2011-07-09T09:53:18Z</time>
      </trkpt>
      <trkpt lat="45.35263" lon="6.65492">
        <ele>2295.2849121094</ele>
        <time>2011-07-09T09:53:30Z</time>
      </trkpt>
      <trkpt lat="45.35261" lon="6.65494">
        <ele>2293.8430175781</ele>
        <time>2011-07-09T09:53:38Z</time>
      </trkpt>
      <trkpt lat="45.35263" lon="6.65497">
        <ele>2293.3623046875</ele>
        <time>2011-07-09T09:53:44Z</time>
      </trkpt>
      <trkpt lat="45.35262" lon="6.65497">
        <ele>2293.8430175781</ele>
        <time>2011-07-09T09:53:49Z</time>
      </trkpt>
      <trkpt lat="45.35262" lon="6.65499">
        <ele>2295.2849121094</ele>
        <time>2011-07-09T09:54:04Z</time>
      </trkpt>
      <trkpt lat="45.35262" lon="6.655">
        <ele>2295.2849121094</ele>
        <time>2011-07-09T09:54:11Z</time>
      </trkpt>
      <trkpt lat="45.35262" lon="6.655">
        <ele>2295.765625</ele>
        <time>2011-07-09T09:54:19Z</time>
      </trkpt>
      <trkpt lat="45.35258" lon="6.655">
        <ele>2295.765625</ele>
        <time>2011-07-09T09:54:26Z</time>
      </trkpt>
      <trkpt lat="45.35256" lon="6.65501">
        <ele>2295.765625</ele>
        <time>2011-07-09T09:54:31Z</time>
      </trkpt>
      <trkpt lat="45.35254" lon="6.65504">
        <ele>2295.2849121094</ele>
        <time>2011-07-09T09:54:37Z</time>
      </trkpt>
      <trkpt lat="45.35253" lon="6.65505">
        <ele>2295.2849121094</ele>
        <time>2011-07-09T09:54:42Z</time>
      </trkpt>
      <trkpt lat="45.35254" lon="6.65505">
        <ele>2294.8041992188</ele>
        <time>2011-07-09T09:54:57Z</time>
      </trkpt>
      <trkpt lat="45.35254" lon="6.65504">
        <ele>2295.2849121094</ele>
        <time>2011-07-09T09:55:01Z</time>
      </trkpt>
      <trkpt lat="45.35254" lon="6.65505">
        <ele>2295.2849121094</ele>
        <time>2011-07-09T09:55:07Z</time>
      </trkpt>
      <trkpt lat="45.35253" lon="6.65507">
        <ele>2295.2849121094</ele>
        <time>2011-07-09T09:55:12Z</time>
      </trkpt>
      <trkpt lat="45.35254" lon="6.65507">
        <ele>2296.2463378906</ele>
        <time>2011-07-09T09:55:16Z</time>
      </trkpt>
      <trkpt lat="45.35252" lon="6.65505">
        <ele>2299.6108398438</ele>
        <time>2011-07-09T09:55:24Z</time>
      </trkpt>
      <trkpt lat="45.35251" lon="6.65504">
        <ele>2302.0141601562</ele>
        <time>2011-07-09T09:55:29Z</time>
      </trkpt>
      <trkpt lat="45.35249" lon="6.65504">
        <ele>2303.9370117188</ele>
        <time>2011-07-09T09:55:41Z</time>
      </trkpt>
      <trkpt lat="45.35249" lon="6.65504">
        <ele>2303.9370117188</ele>
        <time>2011-07-09T09:55:45Z</time>
      </trkpt>
      <trkpt lat="45.3525" lon="6.65504">
        <ele>2302.9755859375</ele>
        <time>2011-07-09T09:56:01Z</time>
      </trkpt>
      <trkpt lat="45.35255" lon="6.65501">
        <ele>2302.4948730469</ele>
        <time>2011-07-09T09:56:06Z</time>
      </trkpt>
      <trkpt lat="45.35257" lon="6.65499">
        <ele>2302.4948730469</ele>
        <time>2011-07-09T09:56:08Z</time>
      </trkpt>
      <trkpt lat="45.3526" lon="6.65497">
        <ele>2300.572265625</ele>
        <time>2011-07-09T09:56:15Z</time>
      </trkpt>
      <trkpt lat="45.3526" lon="6.65499">
        <ele>2296.2463378906</ele>
        <time>2011-07-09T09:56:30Z</time>
      </trkpt>
      <trkpt lat="45.3526" lon="6.65499">
        <ele>2296.7268066406</ele>
        <time>2011-07-09T09:56:33Z</time>
      </trkpt>
      <trkpt lat="45.35261" lon="6.65498">
        <ele>2296.7268066406</ele>
        <time>2011-07-09T09:56:38Z</time>
      </trkpt>
      <trkpt lat="45.35261" lon="6.65499">
        <ele>2296.2463378906</ele>
        <time>2011-07-09T09:56:45Z</time>
      </trkpt>
      <trkpt lat="45.35262" lon="6.655">
        <ele>2295.2849121094</ele>
        <time>2011-07-09T09:56:54Z</time>
      </trkpt>
      <trkpt lat="45.35262" lon="6.65499">
        <ele>2295.2849121094</ele>
        <time>2011-07-09T09:56:59Z</time>
      </trkpt>
      <trkpt lat="45.35263" lon="6.65493">
        <ele>2295.2849121094</ele>
        <time>2011-07-09T09:57:05Z</time>
      </trkpt>
      <trkpt lat="45.35263" lon="6.65487">
        <ele>2296.7268066406</ele>
        <time>2011-07-09T09:57:11Z</time>
      </trkpt>
      <trkpt lat="45.35263" lon="6.6548">
        <ele>2300.091796875</ele>
        <time>2011-07-09T09:57:18Z</time>
      </trkpt>
      <trkpt lat="45.35263" lon="6.65479">
        <ele>2299.6108398438</ele>
        <time>2011-07-09T09:57:23Z</time>
      </trkpt>
      <trkpt lat="45.35264" lon="6.65478">
        <ele>2299.6108398438</ele>
        <time>2011-07-09T09:57:29Z</time>
      </trkpt>
      <trkpt lat="45.35262" lon="6.65478">
        <ele>2299.6108398438</ele>
        <time>2011-07-09T09:57:33Z</time>
      </trkpt>
      <trkpt lat="45.35262" lon="6.65478">
        <ele>2299.6108398438</ele>
        <time>2011-07-09T09:57:38Z</time>
      </trkpt>
      <trkpt lat="45.35262" lon="6.65479">
        <ele>2299.6108398438</ele>
        <time>2011-07-09T09:57:44Z</time>
      </trkpt>
      <trkpt lat="45.35262" lon="6.65479">
        <ele>2299.6108398438</ele>
        <time>2011-07-09T09:57:47Z</time>
      </trkpt>
      <trkpt lat="45.35262" lon="6.65479">
        <ele>2299.6108398438</ele>
        <time>2011-07-09T09:57:48Z</time>
      </trkpt>
      <trkpt lat="45.35263" lon="6.6548">
        <ele>2299.1301269531</ele>
        <time>2011-07-09T09:57:54Z</time>
      </trkpt>
      <trkpt lat="45.35262" lon="6.6548">
        <ele>2296.7268066406</ele>
        <time>2011-07-09T09:58:06Z</time>
      </trkpt>
      <trkpt lat="45.35263" lon="6.65479">
        <ele>2297.2075195312</ele>
        <time>2011-07-09T09:58:15Z</time>
      </trkpt>
      <trkpt lat="45.35263" lon="6.65478">
        <ele>2296.7268066406</ele>
        <time>2011-07-09T09:58:19Z</time>
      </trkpt>
      <trkpt lat="45.35264" lon="6.65481">
        <ele>2297.6882324219</ele>
        <time>2011-07-09T09:58:24Z</time>
      </trkpt>
      <trkpt lat="45.35264" lon="6.65483">
        <ele>2297.6882324219</ele>
        <time>2011-07-09T09:58:29Z</time>
      </trkpt>
      <trkpt lat="45.35264" lon="6.65481">
        <ele>2298.1687011719</ele>
        <time>2011-07-09T09:58:37Z</time>
      </trkpt>
      <trkpt lat="45.35263" lon="6.6548">
        <ele>2299.1301269531</ele>
        <time>2011-07-09T09:58:45Z</time>
      </trkpt>
      <trkpt lat="45.35263" lon="6.6548">
        <ele>2301.0529785156</ele>
        <time>2011-07-09T09:58:51Z</time>
      </trkpt>
      <trkpt lat="45.35263" lon="6.65481">
        <ele>2300.091796875</ele>
        <time>2011-07-09T09:58:58Z</time>
      </trkpt>
      <trkpt lat="45.35263" lon="6.65481">
        <ele>2299.6108398438</ele>
        <time>2011-07-09T09:59:02Z</time>
      </trkpt>
      <trkpt lat="45.35264" lon="6.65481">
        <ele>2297.6882324219</ele>
        <time>2011-07-09T09:59:09Z</time>
      </trkpt>
      <trkpt lat="45.35266" lon="6.65481">
        <ele>2294.8041992188</ele>
        <time>2011-07-09T09:59:15Z</time>
      </trkpt>
      <trkpt lat="45.35267" lon="6.65481">
        <ele>2294.3234863281</ele>
        <time>2011-07-09T09:59:23Z</time>
      </trkpt>
      <trkpt lat="45.35267" lon="6.65481">
        <ele>2294.3234863281</ele>
        <time>2011-07-09T09:59:31Z</time>
      </trkpt>
      <trkpt lat="45.35266" lon="6.65481">
        <ele>2294.8041992188</ele>
        <time>2011-07-09T09:59:37Z</time>
      </trkpt>
      <trkpt lat="45.35265" lon="6.65483">
        <ele>2297.6882324219</ele>
        <time>2011-07-09T09:59:44Z</time>
      </trkpt>
      <trkpt lat="45.35265" lon="6.65483">
        <ele>2298.1687011719</ele>
        <time>2011-07-09T09:59:49Z</time>
      </trkpt>
      <trkpt lat="45.35265" lon="6.65484">
        <ele>2298.1687011719</ele>
        <time>2011-07-09T09:59:54Z</time>
      </trkpt>
      <trkpt lat="45.35265" lon="6.65483">
        <ele>2298.1687011719</ele>
        <time>2011-07-09T10:00:04Z</time>
      </trkpt>
      <trkpt lat="45.35265" lon="6.65483">
        <ele>2298.1687011719</ele>
        <time>2011-07-09T10:00:10Z</time>
      </trkpt>
      <trkpt lat="45.35265" lon="6.65483">
        <ele>2298.1687011719</ele>
        <time>2011-07-09T10:00:14Z</time>
      </trkpt>
      <trkpt lat="45.35264" lon="6.65483">
        <ele>2298.1687011719</ele>
        <time>2011-07-09T10:00:20Z</time>
      </trkpt>
      <trkpt lat="45.35264" lon="6.65483">
        <ele>2298.1687011719</ele>
        <time>2011-07-09T10:00:27Z</time>
      </trkpt>
      <trkpt lat="45.35265" lon="6.65482">
        <ele>2295.765625</ele>
        <time>2011-07-09T10:00:41Z</time>
      </trkpt>
      <trkpt lat="45.35265" lon="6.65482">
        <ele>2295.2849121094</ele>
        <time>2011-07-09T10:00:51Z</time>
      </trkpt>
      <trkpt lat="45.35264" lon="6.65482">
        <ele>2294.3234863281</ele>
        <time>2011-07-09T10:00:59Z</time>
      </trkpt>
      <trkpt lat="45.35264" lon="6.65482">
        <ele>2295.2849121094</ele>
        <time>2011-07-09T10:01:03Z</time>
      </trkpt>
      <trkpt lat="45.35264" lon="6.65483">
        <ele>2294.8041992188</ele>
        <time>2011-07-09T10:01:07Z</time>
      </trkpt>
      <trkpt lat="45.35262" lon="6.65482">
        <ele>2295.2849121094</ele>
        <time>2011-07-09T10:01:13Z</time>
      </trkpt>
      <trkpt lat="45.35262" lon="6.65482">
        <ele>2295.2849121094</ele>
        <time>2011-07-09T10:01:14Z</time>
      </trkpt>
      <trkpt lat="45.35262" lon="6.65482">
        <ele>2295.2849121094</ele>
        <time>2011-07-09T10:01:15Z</time>
      </trkpt>
      <trkpt lat="45.35262" lon="6.65482">
        <ele>2296.7268066406</ele>
        <time>2011-07-09T10:01:20Z</time>
      </trkpt>
      <trkpt lat="45.35262" lon="6.65482">
        <ele>2297.2075195312</ele>
        <time>2011-07-09T10:01:27Z</time>
      </trkpt>
      <trkpt lat="45.35262" lon="6.65482">
        <ele>2297.6882324219</ele>
        <time>2011-07-09T10:01:30Z</time>
      </trkpt>
      <trkpt lat="45.35262" lon="6.65482">
        <ele>2298.1687011719</ele>
        <time>2011-07-09T10:01:35Z</time>
      </trkpt>
      <trkpt lat="45.35262" lon="6.65482">
        <ele>2299.1301269531</ele>
        <time>2011-07-09T10:01:41Z</time>
      </trkpt>
      <trkpt lat="45.35263" lon="6.65482">
        <ele>2299.6108398438</ele>
        <time>2011-07-09T10:01:48Z</time>
      </trkpt>
      <trkpt lat="45.35265" lon="6.65478">
        <ele>2297.6882324219</ele>
        <time>2011-07-09T10:01:55Z</time>
      </trkpt>
      <trkpt lat="45.35266" lon="6.65479">
        <ele>2296.7268066406</ele>
        <time>2011-07-09T10:01:59Z</time>
      </trkpt>
      <trkpt lat="45.35267" lon="6.65479">
        <ele>2294.8041992188</ele>
        <time>2011-07-09T10:02:08Z</time>
      </trkpt>
      <trkpt lat="45.35267" lon="6.65479">
        <ele>2294.3234863281</ele>
        <time>2011-07-09T10:02:09Z</time>
      </trkpt>
      <trkpt lat="45.35267" lon="6.65479">
        <ele>2294.3234863281</ele>
        <time>2011-07-09T10:02:14Z</time>
      </trkpt>
      <trkpt lat="45.35268" lon="6.65479">
        <ele>2294.3234863281</ele>
        <time>2011-07-09T10:02:20Z</time>
      </trkpt>
      <trkpt lat="45.35268" lon="6.65479">
        <ele>2294.3234863281</ele>
        <time>2011-07-09T10:02:27Z</time>
      </trkpt>
      <trkpt lat="45.35267" lon="6.65479">
        <ele>2293.8430175781</ele>
        <time>2011-07-09T10:02:45Z</time>
      </trkpt>
      <trkpt lat="45.35267" lon="6.65479">
        <ele>2294.8041992188</ele>
        <time>2011-07-09T10:02:55Z</time>
      </trkpt>
      <trkpt lat="45.35266" lon="6.65479">
        <ele>2295.2849121094</ele>
        <time>2011-07-09T10:03:05Z</time>
      </trkpt>
      <trkpt lat="45.35266" lon="6.6548">
        <ele>2296.2463378906</ele>
        <time>2011-07-09T10:03:10Z</time>
      </trkpt>
      <trkpt lat="45.35266" lon="6.6548">
        <ele>2296.2463378906</ele>
        <time>2011-07-09T10:03:56Z</time>
      </trkpt>
      <trkpt lat="45.35266" lon="6.6548">
        <ele>2296.2463378906</ele>
        <time>2011-07-09T10:04:06Z</time>
      </trkpt>
      <trkpt lat="45.35265" lon="6.6548">
        <ele>2297.2075195312</ele>
        <time>2011-07-09T10:04:15Z</time>
      </trkpt>
      <trkpt lat="45.35265" lon="6.65482">
        <ele>2297.2075195312</ele>
        <time>2011-07-09T10:04:20Z</time>
      </trkpt>
      <trkpt lat="45.35263" lon="6.65484">
        <ele>2297.2075195312</ele>
        <time>2011-07-09T10:04:23Z</time>
      </trkpt>
      <trkpt lat="45.35263" lon="6.65481">
        <ele>2297.6882324219</ele>
        <time>2011-07-09T10:04:26Z</time>
      </trkpt>
      <trkpt lat="45.35264" lon="6.65481">
        <ele>2297.6882324219</ele>
        <time>2011-07-09T10:04:31Z</time>
      </trkpt>
      <trkpt lat="45.35265" lon="6.65483">
        <ele>2297.6882324219</ele>
        <time>2011-07-09T10:04:36Z</time>
      </trkpt>
      <trkpt lat="45.35263" lon="6.65486">
        <ele>2297.6882324219</ele>
        <time>2011-07-09T10:04:41Z</time>
      </trkpt>
      <trkpt lat="45.35263" lon="6.65485">
        <ele>2297.6882324219</ele>
        <time>2011-07-09T10:04:48Z</time>
      </trkpt>
      <trkpt lat="45.35263" lon="6.65485">
        <ele>2298.1687011719</ele>
        <time>2011-07-09T10:04:59Z</time>
      </trkpt>
      <trkpt lat="45.3526" lon="6.65482">
        <ele>2300.572265625</ele>
        <time>2011-07-09T10:05:06Z</time>
      </trkpt>
      <trkpt lat="45.3526" lon="6.65479">
        <ele>2301.5336914062</ele>
        <time>2011-07-09T10:05:11Z</time>
      </trkpt>
      <trkpt lat="45.35261" lon="6.65479">
        <ele>2301.5336914062</ele>
        <time>2011-07-09T10:05:13Z</time>
      </trkpt>
      <trkpt lat="45.3526" lon="6.65478">
        <ele>2301.0529785156</ele>
        <time>2011-07-09T10:05:20Z</time>
      </trkpt>
      <trkpt lat="45.35261" lon="6.65479">
        <ele>2300.091796875</ele>
        <time>2011-07-09T10:05:27Z</time>
      </trkpt>
      <trkpt lat="45.35262" lon="6.6548">
        <ele>2300.091796875</ele>
        <time>2011-07-09T10:05:34Z</time>
      </trkpt>
      <trkpt lat="45.35262" lon="6.6548">
        <ele>2299.1301269531</ele>
        <time>2011-07-09T10:05:47Z</time>
      </trkpt>
      <trkpt lat="45.35264" lon="6.65481">
        <ele>2298.1687011719</ele>
        <time>2011-07-09T10:05:59Z</time>
      </trkpt>
      <trkpt lat="45.35264" lon="6.65481">
        <ele>2298.1687011719</ele>
        <time>2011-07-09T10:06:04Z</time>
      </trkpt>
      <trkpt lat="45.35264" lon="6.65482">
        <ele>2298.1687011719</ele>
        <time>2011-07-09T10:06:10Z</time>
      </trkpt>
      <trkpt lat="45.35265" lon="6.65482">
        <ele>2298.6494140625</ele>
        <time>2011-07-09T10:06:15Z</time>
      </trkpt>
      <trkpt lat="45.35265" lon="6.65481">
        <ele>2298.6494140625</ele>
        <time>2011-07-09T10:06:23Z</time>
      </trkpt>
      <trkpt lat="45.35265" lon="6.65481">
        <ele>2298.1687011719</ele>
        <time>2011-07-09T10:06:30Z</time>
      </trkpt>
      <trkpt lat="45.35265" lon="6.65481">
        <ele>2297.6882324219</ele>
        <time>2011-07-09T10:06:35Z</time>
      </trkpt>
      <trkpt lat="45.35265" lon="6.65481">
        <ele>2297.2075195312</ele>
        <time>2011-07-09T10:06:41Z</time>
      </trkpt>
      <trkpt lat="45.35265" lon="6.65483">
        <ele>2295.765625</ele>
        <time>2011-07-09T10:06:50Z</time>
      </trkpt>
      <trkpt lat="45.35264" lon="6.65482">
        <ele>2293.8430175781</ele>
        <time>2011-07-09T10:07:04Z</time>
      </trkpt>
      <trkpt lat="45.35265" lon="6.65482">
        <ele>2294.8041992188</ele>
        <time>2011-07-09T10:07:14Z</time>
      </trkpt>
      <trkpt lat="45.35265" lon="6.65484">
        <ele>2294.8041992188</ele>
        <time>2011-07-09T10:07:17Z</time>
      </trkpt>
      <trkpt lat="45.35264" lon="6.65486">
        <ele>2294.8041992188</ele>
        <time>2011-07-09T10:07:22Z</time>
      </trkpt>
      <trkpt lat="45.35264" lon="6.65482">
        <ele>2294.8041992188</ele>
        <time>2011-07-09T10:07:30Z</time>
      </trkpt>
      <trkpt lat="45.35264" lon="6.65479">
        <ele>2294.8041992188</ele>
        <time>2011-07-09T10:07:36Z</time>
      </trkpt>
      <trkpt lat="45.35264" lon="6.65477">
        <ele>2295.2849121094</ele>
        <time>2011-07-09T10:07:48Z</time>
      </trkpt>
      <trkpt lat="45.35265" lon="6.65477">
        <ele>2294.8041992188</ele>
        <time>2011-07-09T10:07:57Z</time>
      </trkpt>
      <trkpt lat="45.35264" lon="6.65479">
        <ele>2295.2849121094</ele>
        <time>2011-07-09T10:08:08Z</time>
      </trkpt>
      <trkpt lat="45.35263" lon="6.65479">
        <ele>2295.2849121094</ele>
        <time>2011-07-09T10:08:11Z</time>
      </trkpt>
      <trkpt lat="45.35263" lon="6.65481">
        <ele>2295.765625</ele>
        <time>2011-07-09T10:08:17Z</time>
      </trkpt>
      <trkpt lat="45.35265" lon="6.65482">
        <ele>2295.765625</ele>
        <time>2011-07-09T10:08:23Z</time>
      </trkpt>
      <trkpt lat="45.35264" lon="6.65482">
        <ele>2295.2849121094</ele>
        <time>2011-07-09T10:08:27Z</time>
      </trkpt>
      <trkpt lat="45.35264" lon="6.65482">
        <ele>2295.2849121094</ele>
        <time>2011-07-09T10:08:33Z</time>
      </trkpt>
      <trkpt lat="45.35264" lon="6.65482">
        <ele>2295.765625</ele>
        <time>2011-07-09T10:08:38Z</time>
      </trkpt>
      <trkpt lat="45.35263" lon="6.65482">
        <ele>2294.8041992188</ele>
        <time>2011-07-09T10:09:01Z</time>
      </trkpt>
      <trkpt lat="45.35263" lon="6.65482">
        <ele>2294.3234863281</ele>
        <time>2011-07-09T10:09:12Z</time>
      </trkpt>
      <trkpt lat="45.35264" lon="6.65482">
        <ele>2294.8041992188</ele>
        <time>2011-07-09T10:09:18Z</time>
      </trkpt>
      <trkpt lat="45.35264" lon="6.65483">
        <ele>2294.8041992188</ele>
        <time>2011-07-09T10:09:23Z</time>
      </trkpt>
      <trkpt lat="45.35263" lon="6.65483">
        <ele>2295.765625</ele>
        <time>2011-07-09T10:09:32Z</time>
      </trkpt>
      <trkpt lat="45.35263" lon="6.65485">
        <ele>2296.7268066406</ele>
        <time>2011-07-09T10:09:44Z</time>
      </trkpt>
      <trkpt lat="45.35263" lon="6.65485">
        <ele>2296.2463378906</ele>
        <time>2011-07-09T10:09:47Z</time>
      </trkpt>
      <trkpt lat="45.35262" lon="6.65482">
        <ele>2296.7268066406</ele>
        <time>2011-07-09T10:09:50Z</time>
      </trkpt>
      <trkpt lat="45.35262" lon="6.65482">
        <ele>2296.7268066406</ele>
        <time>2011-07-09T10:09:51Z</time>
      </trkpt>
      <trkpt lat="45.35265" lon="6.65482">
        <ele>2295.765625</ele>
        <time>2011-07-09T10:09:58Z</time>
      </trkpt>
      <trkpt lat="45.35265" lon="6.65482">
        <ele>2295.2849121094</ele>
        <time>2011-07-09T10:10:08Z</time>
      </trkpt>
      <trkpt lat="45.35265" lon="6.65484">
        <ele>2295.765625</ele>
        <time>2011-07-09T10:10:14Z</time>
      </trkpt>
      <trkpt lat="45.35265" lon="6.65484">
        <ele>2294.8041992188</ele>
        <time>2011-07-09T10:10:17Z</time>
      </trkpt>
      <trkpt lat="45.35265" lon="6.65484">
        <ele>2294.8041992188</ele>
        <time>2011-07-09T10:10:18Z</time>
      </trkpt>
      <trkpt lat="45.35265" lon="6.65486">
        <ele>2294.8041992188</ele>
        <time>2011-07-09T10:10:23Z</time>
      </trkpt>
      <trkpt lat="45.35264" lon="6.65485">
        <ele>2294.3234863281</ele>
        <time>2011-07-09T10:10:26Z</time>
      </trkpt>
      <trkpt lat="45.35263" lon="6.65485">
        <ele>2294.3234863281</ele>
        <time>2011-07-09T10:10:33Z</time>
      </trkpt>
      <trkpt lat="45.35263" lon="6.65485">
        <ele>2294.3234863281</ele>
        <time>2011-07-09T10:10:38Z</time>
      </trkpt>
      <trkpt lat="45.35263" lon="6.65485">
        <ele>2294.3234863281</ele>
        <time>2011-07-09T10:10:42Z</time>
      </trkpt>
      <trkpt lat="45.35263" lon="6.65484">
        <ele>2293.8430175781</ele>
        <time>2011-07-09T10:10:44Z</time>
      </trkpt>
      <trkpt lat="45.35264" lon="6.65484">
        <ele>2294.3234863281</ele>
        <time>2011-07-09T10:10:49Z</time>
      </trkpt>
      <trkpt lat="45.35265" lon="6.65482">
        <ele>2294.3234863281</ele>
        <time>2011-07-09T10:10:51Z</time>
      </trkpt>
      <trkpt lat="45.35265" lon="6.65482">
        <ele>2293.8430175781</ele>
        <time>2011-07-09T10:10:52Z</time>
      </trkpt>
      <trkpt lat="45.35265" lon="6.65482">
        <ele>2294.8041992188</ele>
        <time>2011-07-09T10:10:58Z</time>
      </trkpt>
      <trkpt lat="45.35264" lon="6.65484">
        <ele>2294.8041992188</ele>
        <time>2011-07-09T10:11:03Z</time>
      </trkpt>
      <trkpt lat="45.35264" lon="6.65484">
        <ele>2294.8041992188</ele>
        <time>2011-07-09T10:11:09Z</time>
      </trkpt>
      <trkpt lat="45.35264" lon="6.65484">
        <ele>2294.8041992188</ele>
        <time>2011-07-09T10:11:10Z</time>
      </trkpt>
      <trkpt lat="45.35264" lon="6.65484">
        <ele>2294.8041992188</ele>
        <time>2011-07-09T10:11:11Z</time>
      </trkpt>
      <trkpt lat="45.35264" lon="6.65484">
        <ele>2292.8815917969</ele>
        <time>2011-07-09T10:11:18Z</time>
      </trkpt>
      <trkpt lat="45.35263" lon="6.65483">
        <ele>2289.5170898438</ele>
        <time>2011-07-09T10:11:25Z</time>
      </trkpt>
      <trkpt lat="45.35264" lon="6.65484">
        <ele>2290.958984375</ele>
        <time>2011-07-09T10:11:34Z</time>
      </trkpt>
      <trkpt lat="45.35264" lon="6.65483">
        <ele>2291.9204101562</ele>
        <time>2011-07-09T10:11:39Z</time>
      </trkpt>
      <trkpt lat="45.35265" lon="6.65482">
        <ele>2292.4011230469</ele>
        <time>2011-07-09T10:11:44Z</time>
      </trkpt>
      <trkpt lat="45.35265" lon="6.65482">
        <ele>2293.3623046875</ele>
        <time>2011-07-09T10:11:49Z</time>
      </trkpt>
      <trkpt lat="45.35266" lon="6.65481">
        <ele>2294.3234863281</ele>
        <time>2011-07-09T10:11:54Z</time>
      </trkpt>
      <trkpt lat="45.35266" lon="6.65481">
        <ele>2294.3234863281</ele>
        <time>2011-07-09T10:11:59Z</time>
      </trkpt>
      <trkpt lat="45.35266" lon="6.65481">
        <ele>2294.3234863281</ele>
        <time>2011-07-09T10:12:06Z</time>
      </trkpt>
      <trkpt lat="45.35266" lon="6.65482">
        <ele>2294.3234863281</ele>
        <time>2011-07-09T10:12:15Z</time>
      </trkpt>
      <trkpt lat="45.35265" lon="6.65483">
        <ele>2293.3623046875</ele>
        <time>2011-07-09T10:12:35Z</time>
      </trkpt>
      <trkpt lat="45.35265" lon="6.65483">
        <ele>2292.8815917969</ele>
        <time>2011-07-09T10:12:56Z</time>
      </trkpt>
      <trkpt lat="45.35265" lon="6.65482">
        <ele>2292.8815917969</ele>
        <time>2011-07-09T10:13:02Z</time>
      </trkpt>
      <trkpt lat="45.35264" lon="6.65482">
        <ele>2293.3623046875</ele>
        <time>2011-07-09T10:13:17Z</time>
      </trkpt>
      <trkpt lat="45.35263" lon="6.65482">
        <ele>2292.8815917969</ele>
        <time>2011-07-09T10:13:33Z</time>
      </trkpt>
      <trkpt lat="45.35263" lon="6.65481">
        <ele>2292.8815917969</ele>
        <time>2011-07-09T10:13:57Z</time>
      </trkpt>
      <trkpt lat="45.35264" lon="6.65483">
        <ele>2292.8815917969</ele>
        <time>2011-07-09T10:14:13Z</time>
      </trkpt>
      <trkpt lat="45.35265" lon="6.65482">
        <ele>2293.8430175781</ele>
        <time>2011-07-09T10:14:42Z</time>
      </trkpt>
      <trkpt lat="45.35265" lon="6.65483">
        <ele>2293.8430175781</ele>
        <time>2011-07-09T10:14:54Z</time>
      </trkpt>
      <trkpt lat="45.35265" lon="6.65483">
        <ele>2294.3234863281</ele>
        <time>2011-07-09T10:15:16Z</time>
      </trkpt>
      <trkpt lat="45.35263" lon="6.65481">
        <ele>2294.3234863281</ele>
        <time>2011-07-09T10:15:42Z</time>
      </trkpt>
      <trkpt lat="45.35263" lon="6.65481">
        <ele>2294.3234863281</ele>
        <time>2011-07-09T10:15:53Z</time>
      </trkpt>
      <trkpt lat="45.35263" lon="6.65482">
        <ele>2294.3234863281</ele>
        <time>2011-07-09T10:16:00Z</time>
      </trkpt>
      <trkpt lat="45.35264" lon="6.65482">
        <ele>2294.3234863281</ele>
        <time>2011-07-09T10:16:04Z</time>
      </trkpt>
      <trkpt lat="45.35265" lon="6.65482">
        <ele>2294.3234863281</ele>
        <time>2011-07-09T10:16:16Z</time>
      </trkpt>
      <trkpt lat="45.35265" lon="6.65482">
        <ele>2293.8430175781</ele>
        <time>2011-07-09T10:16:30Z</time>
      </trkpt>
      <trkpt lat="45.35265" lon="6.65482">
        <ele>2294.8041992188</ele>
        <time>2011-07-09T10:17:00Z</time>
      </trkpt>
      <trkpt lat="45.35265" lon="6.65482">
        <ele>2294.3234863281</ele>
        <time>2011-07-09T10:17:04Z</time>
      </trkpt>
      <trkpt lat="45.35265" lon="6.65482">
        <ele>2294.8041992188</ele>
        <time>2011-07-09T10:17:21Z</time>
      </trkpt>
      <trkpt lat="45.35265" lon="6.65482">
        <ele>2294.3234863281</ele>
        <time>2011-07-09T10:17:29Z</time>
      </trkpt>
      <trkpt lat="45.35264" lon="6.65482">
        <ele>2294.8041992188</ele>
        <time>2011-07-09T10:17:37Z</time>
      </trkpt>
      <trkpt lat="45.35265" lon="6.65482">
        <ele>2294.8041992188</ele>
        <time>2011-07-09T10:17:42Z</time>
      </trkpt>
      <trkpt lat="45.35265" lon="6.65482">
        <ele>2294.8041992188</ele>
        <time>2011-07-09T10:17:46Z</time>
      </trkpt>
      <trkpt lat="45.35265" lon="6.65482">
        <ele>2294.8041992188</ele>
        <time>2011-07-09T10:17:57Z</time>
      </trkpt>
      <trkpt lat="45.35266" lon="6.65484">
        <ele>2295.2849121094</ele>
        <time>2011-07-09T10:18:11Z</time>
      </trkpt>
      <trkpt lat="45.35266" lon="6.65484">
        <ele>2294.8041992188</ele>
        <time>2011-07-09T10:18:17Z</time>
      </trkpt>
      <trkpt lat="45.35266" lon="6.65484">
        <ele>2294.8041992188</ele>
        <time>2011-07-09T10:18:23Z</time>
      </trkpt>
      <trkpt lat="45.35266" lon="6.65484">
        <ele>2294.8041992188</ele>
        <time>2011-07-09T10:18:31Z</time>
      </trkpt>
      <trkpt lat="45.35266" lon="6.65484">
        <ele>2294.8041992188</ele>
        <time>2011-07-09T10:18:32Z</time>
      </trkpt>
      <trkpt lat="45.35266" lon="6.65483">
        <ele>2294.3234863281</ele>
        <time>2011-07-09T10:18:45Z</time>
      </trkpt>
      <trkpt lat="45.35266" lon="6.65484">
        <ele>2293.8430175781</ele>
        <time>2011-07-09T10:18:54Z</time>
      </trkpt>
      <trkpt lat="45.35266" lon="6.65484">
        <ele>2293.3623046875</ele>
        <time>2011-07-09T10:19:00Z</time>
      </trkpt>
      <trkpt lat="45.35266" lon="6.65484">
        <ele>2293.8430175781</ele>
        <time>2011-07-09T10:19:10Z</time>
      </trkpt>
      <trkpt lat="45.35266" lon="6.65483">
        <ele>2293.8430175781</ele>
        <time>2011-07-09T10:19:23Z</time>
      </trkpt>
      <trkpt lat="45.35265" lon="6.65483">
        <ele>2293.8430175781</ele>
        <time>2011-07-09T10:19:27Z</time>
      </trkpt>
      <trkpt lat="45.35266" lon="6.65484">
        <ele>2293.8430175781</ele>
        <time>2011-07-09T10:19:38Z</time>
      </trkpt>
      <trkpt lat="45.35266" lon="6.65484">
        <ele>2293.3623046875</ele>
        <time>2011-07-09T10:19:53Z</time>
      </trkpt>
      <trkpt lat="45.35265" lon="6.65483">
        <ele>2293.3623046875</ele>
        <time>2011-07-09T10:20:01Z</time>
      </trkpt>
      <trkpt lat="45.35265" lon="6.65484">
        <ele>2293.3623046875</ele>
        <time>2011-07-09T10:20:07Z</time>
      </trkpt>
      <trkpt lat="45.35265" lon="6.65484">
        <ele>2293.3623046875</ele>
        <time>2011-07-09T10:20:24Z</time>
      </trkpt>
      <trkpt lat="45.35266" lon="6.65484">
        <ele>2293.3623046875</ele>
        <time>2011-07-09T10:20:33Z</time>
      </trkpt>
      <trkpt lat="45.35265" lon="6.65483">
        <ele>2293.8430175781</ele>
        <time>2011-07-09T10:20:46Z</time>
      </trkpt>
      <trkpt lat="45.35265" lon="6.65484">
        <ele>2294.8041992188</ele>
        <time>2011-07-09T10:20:53Z</time>
      </trkpt>
      <trkpt lat="45.35265" lon="6.65484">
        <ele>2295.2849121094</ele>
        <time>2011-07-09T10:21:07Z</time>
      </trkpt>
      <trkpt lat="45.35265" lon="6.65484">
        <ele>2295.2849121094</ele>
        <time>2011-07-09T10:21:14Z</time>
      </trkpt>
      <trkpt lat="45.35265" lon="6.65484">
        <ele>2295.2849121094</ele>
        <time>2011-07-09T10:21:24Z</time>
      </trkpt>
      <trkpt lat="45.35265" lon="6.65484">
        <ele>2295.2849121094</ele>
        <time>2011-07-09T10:21:30Z</time>
      </trkpt>
      <trkpt lat="45.35265" lon="6.65484">
        <ele>2295.2849121094</ele>
        <time>2011-07-09T10:21:39Z</time>
      </trkpt>
      <trkpt lat="45.35265" lon="6.65483">
        <ele>2295.765625</ele>
        <time>2011-07-09T10:21:46Z</time>
      </trkpt>
      <trkpt lat="45.35265" lon="6.65482">
        <ele>2295.2849121094</ele>
        <time>2011-07-09T10:21:51Z</time>
      </trkpt>
      <trkpt lat="45.35265" lon="6.65482">
        <ele>2295.2849121094</ele>
        <time>2011-07-09T10:21:58Z</time>
      </trkpt>
      <trkpt lat="45.35265" lon="6.65483">
        <ele>2295.2849121094</ele>
        <time>2011-07-09T10:22:03Z</time>
      </trkpt>
      <trkpt lat="45.35263" lon="6.65479">
        <ele>2296.2463378906</ele>
        <time>2011-07-09T10:22:09Z</time>
      </trkpt>
      <trkpt lat="45.35265" lon="6.65475">
        <ele>2296.7268066406</ele>
        <time>2011-07-09T10:22:14Z</time>
      </trkpt>
      <trkpt lat="45.35266" lon="6.65476">
        <ele>2296.2463378906</ele>
        <time>2011-07-09T10:22:18Z</time>
      </trkpt>
      <trkpt lat="45.35265" lon="6.65476">
        <ele>2296.7268066406</ele>
        <time>2011-07-09T10:22:24Z</time>
      </trkpt>
      <trkpt lat="45.35263" lon="6.65481">
        <ele>2296.7268066406</ele>
        <time>2011-07-09T10:22:28Z</time>
      </trkpt>
      <trkpt lat="45.35264" lon="6.65482">
        <ele>2295.765625</ele>
        <time>2011-07-09T10:22:33Z</time>
      </trkpt>
      <trkpt lat="45.35263" lon="6.65482">
        <ele>2295.765625</ele>
        <time>2011-07-09T10:22:49Z</time>
      </trkpt>
      <trkpt lat="45.35263" lon="6.65482">
        <ele>2295.2849121094</ele>
        <time>2011-07-09T10:23:01Z</time>
      </trkpt>
      <trkpt lat="45.35263" lon="6.65481">
        <ele>2295.2849121094</ele>
        <time>2011-07-09T10:23:09Z</time>
      </trkpt>
      <trkpt lat="45.35263" lon="6.65482">
        <ele>2295.765625</ele>
        <time>2011-07-09T10:23:15Z</time>
      </trkpt>
      <trkpt lat="45.35265" lon="6.65479">
        <ele>2295.2849121094</ele>
        <time>2011-07-09T10:23:20Z</time>
      </trkpt>
      <trkpt lat="45.35264" lon="6.6548">
        <ele>2295.765625</ele>
        <time>2011-07-09T10:23:26Z</time>
      </trkpt>
      <trkpt lat="45.35263" lon="6.65481">
        <ele>2295.2849121094</ele>
        <time>2011-07-09T10:23:31Z</time>
      </trkpt>
      <trkpt lat="45.35264" lon="6.65481">
        <ele>2295.765625</ele>
        <time>2011-07-09T10:23:37Z</time>
      </trkpt>
      <trkpt lat="45.35263" lon="6.65482">
        <ele>2295.2849121094</ele>
        <time>2011-07-09T10:23:49Z</time>
      </trkpt>
      <trkpt lat="45.35264" lon="6.65481">
        <ele>2295.2849121094</ele>
        <time>2011-07-09T10:24:09Z</time>
      </trkpt>
      <trkpt lat="45.35265" lon="6.65481">
        <ele>2295.2849121094</ele>
        <time>2011-07-09T10:24:18Z</time>
      </trkpt>
      <trkpt lat="45.35265" lon="6.65481">
        <ele>2295.2849121094</ele>
        <time>2011-07-09T10:24:21Z</time>
      </trkpt>
      <trkpt lat="45.35264" lon="6.65481">
        <ele>2295.2849121094</ele>
        <time>2011-07-09T10:24:35Z</time>
      </trkpt>
      <trkpt lat="45.35264" lon="6.65481">
        <ele>2294.8041992188</ele>
        <time>2011-07-09T10:24:46Z</time>
      </trkpt>
      <trkpt lat="45.35264" lon="6.65481">
        <ele>2294.8041992188</ele>
        <time>2011-07-09T10:24:51Z</time>
      </trkpt>
      <trkpt lat="45.35263" lon="6.65481">
        <ele>2294.3234863281</ele>
        <time>2011-07-09T10:25:00Z</time>
      </trkpt>
      <trkpt lat="45.35264" lon="6.65481">
        <ele>2294.3234863281</ele>
        <time>2011-07-09T10:25:02Z</time>
      </trkpt>
      <trkpt lat="45.35265" lon="6.65483">
        <ele>2293.8430175781</ele>
        <time>2011-07-09T10:25:16Z</time>
      </trkpt>
      <trkpt lat="45.35266" lon="6.65483">
        <ele>2294.3234863281</ele>
        <time>2011-07-09T10:25:28Z</time>
      </trkpt>
      <trkpt lat="45.35266" lon="6.65483">
        <ele>2294.8041992188</ele>
        <time>2011-07-09T10:25:43Z</time>
      </trkpt>
      <trkpt lat="45.35266" lon="6.65483">
        <ele>2294.8041992188</ele>
        <time>2011-07-09T10:25:55Z</time>
      </trkpt>
      <trkpt lat="45.35265" lon="6.65483">
        <ele>2294.8041992188</ele>
        <time>2011-07-09T10:26:04Z</time>
      </trkpt>
      <trkpt lat="45.35264" lon="6.65482">
        <ele>2294.8041992188</ele>
        <time>2011-07-09T10:26:28Z</time>
      </trkpt>
      <trkpt lat="45.35265" lon="6.65482">
        <ele>2295.2849121094</ele>
        <time>2011-07-09T10:26:37Z</time>
      </trkpt>
      <trkpt lat="45.35264" lon="6.65481">
        <ele>2296.7268066406</ele>
        <time>2011-07-09T10:26:42Z</time>
      </trkpt>
      <trkpt lat="45.35266" lon="6.65479">
        <ele>2296.2463378906</ele>
        <time>2011-07-09T10:26:46Z</time>
      </trkpt>
      <trkpt lat="45.35267" lon="6.65479">
        <ele>2295.765625</ele>
        <time>2011-07-09T10:26:52Z</time>
      </trkpt>
      <trkpt lat="45.35266" lon="6.65479">
        <ele>2296.2463378906</ele>
        <time>2011-07-09T10:26:58Z</time>
      </trkpt>
      <trkpt lat="45.35266" lon="6.65479">
        <ele>2296.2463378906</ele>
        <time>2011-07-09T10:27:03Z</time>
      </trkpt>
      <trkpt lat="45.35266" lon="6.65479">
        <ele>2296.2463378906</ele>
        <time>2011-07-09T10:27:05Z</time>
      </trkpt>
      <trkpt lat="45.35266" lon="6.6548">
        <ele>2296.2463378906</ele>
        <time>2011-07-09T10:27:14Z</time>
      </trkpt>
      <trkpt lat="45.35266" lon="6.6548">
        <ele>2296.7268066406</ele>
        <time>2011-07-09T10:27:24Z</time>
      </trkpt>
      <trkpt lat="45.35266" lon="6.65479">
        <ele>2296.2463378906</ele>
        <time>2011-07-09T10:27:31Z</time>
      </trkpt>
      <trkpt lat="45.35266" lon="6.65479">
        <ele>2295.2849121094</ele>
        <time>2011-07-09T10:27:38Z</time>
      </trkpt>
      <trkpt lat="45.35266" lon="6.6548">
        <ele>2295.765625</ele>
        <time>2011-07-09T10:27:44Z</time>
      </trkpt>
      <trkpt lat="45.35265" lon="6.65483">
        <ele>2296.2463378906</ele>
        <time>2011-07-09T10:27:50Z</time>
      </trkpt>
      <trkpt lat="45.35266" lon="6.65483">
        <ele>2296.2463378906</ele>
        <time>2011-07-09T10:27:56Z</time>
      </trkpt>
      <trkpt lat="45.35265" lon="6.65483">
        <ele>2295.765625</ele>
        <time>2011-07-09T10:28:03Z</time>
      </trkpt>
      <trkpt lat="45.35265" lon="6.65483">
        <ele>2295.2849121094</ele>
        <time>2011-07-09T10:28:09Z</time>
      </trkpt>
      <trkpt lat="45.35264" lon="6.65482">
        <ele>2296.7268066406</ele>
        <time>2011-07-09T10:28:21Z</time>
      </trkpt>
      <trkpt lat="45.35265" lon="6.65482">
        <ele>2296.7268066406</ele>
        <time>2011-07-09T10:28:27Z</time>
      </trkpt>
      <trkpt lat="45.35266" lon="6.65483">
        <ele>2297.2075195312</ele>
        <time>2011-07-09T10:28:39Z</time>
      </trkpt>
      <trkpt lat="45.35266" lon="6.65482">
        <ele>2296.7268066406</ele>
        <time>2011-07-09T10:28:56Z</time>
      </trkpt>
      <trkpt lat="45.35265" lon="6.65482">
        <ele>2296.2463378906</ele>
        <time>2011-07-09T10:29:07Z</time>
      </trkpt>
      <trkpt lat="45.35265" lon="6.65482">
        <ele>2295.2849121094</ele>
        <time>2011-07-09T10:29:16Z</time>
      </trkpt>
      <trkpt lat="45.35266" lon="6.65482">
        <ele>2295.2849121094</ele>
        <time>2011-07-09T10:29:34Z</time>
      </trkpt>
      <trkpt lat="45.35266" lon="6.65482">
        <ele>2294.8041992188</ele>
        <time>2011-07-09T10:29:48Z</time>
      </trkpt>
      <trkpt lat="45.35266" lon="6.65482">
        <ele>2294.3234863281</ele>
        <time>2011-07-09T10:30:03Z</time>
      </trkpt>
      <trkpt lat="45.35265" lon="6.65481">
        <ele>2293.8430175781</ele>
        <time>2011-07-09T10:30:19Z</time>
      </trkpt>
      <trkpt lat="45.35265" lon="6.65481">
        <ele>2293.3623046875</ele>
        <time>2011-07-09T10:30:28Z</time>
      </trkpt>
      <trkpt lat="45.35265" lon="6.65481">
        <ele>2293.3623046875</ele>
        <time>2011-07-09T10:30:36Z</time>
      </trkpt>
      <trkpt lat="45.35265" lon="6.65481">
        <ele>2293.3623046875</ele>
        <time>2011-07-09T10:30:56Z</time>
      </trkpt>
      <trkpt lat="45.35265" lon="6.6548">
        <ele>2294.3234863281</ele>
        <time>2011-07-09T10:31:03Z</time>
      </trkpt>
      <trkpt lat="45.35265" lon="6.6548">
        <ele>2293.8430175781</ele>
        <time>2011-07-09T10:31:13Z</time>
      </trkpt>
      <trkpt lat="45.35265" lon="6.65479">
        <ele>2295.2849121094</ele>
        <time>2011-07-09T10:31:28Z</time>
      </trkpt>
      <trkpt lat="45.35268" lon="6.65481">
        <ele>2299.1301269531</ele>
        <time>2011-07-09T10:31:47Z</time>
      </trkpt>
      <trkpt lat="45.35268" lon="6.65481">
        <ele>2299.1301269531</ele>
        <time>2011-07-09T10:31:52Z</time>
      </trkpt>
      <trkpt lat="45.35268" lon="6.65481">
        <ele>2299.1301269531</ele>
        <time>2011-07-09T10:31:55Z</time>
      </trkpt>
      <trkpt lat="45.35267" lon="6.65481">
        <ele>2298.1687011719</ele>
        <time>2011-07-09T10:32:03Z</time>
      </trkpt>
      <trkpt lat="45.35266" lon="6.65481">
        <ele>2298.1687011719</ele>
        <time>2011-07-09T10:32:15Z</time>
      </trkpt>
      <trkpt lat="45.35264" lon="6.65482">
        <ele>2297.2075195312</ele>
        <time>2011-07-09T10:32:34Z</time>
      </trkpt>
      <trkpt lat="45.35262" lon="6.65483">
        <ele>2296.2463378906</ele>
        <time>2011-07-09T10:32:42Z</time>
      </trkpt>
      <trkpt lat="45.35262" lon="6.65483">
        <ele>2295.2849121094</ele>
        <time>2011-07-09T10:32:46Z</time>
      </trkpt>
      <trkpt lat="45.35263" lon="6.65482">
        <ele>2293.8430175781</ele>
        <time>2011-07-09T10:32:53Z</time>
      </trkpt>
      <trkpt lat="45.35264" lon="6.65483">
        <ele>2292.8815917969</ele>
        <time>2011-07-09T10:33:06Z</time>
      </trkpt>
      <trkpt lat="45.35264" lon="6.65483">
        <ele>2292.4011230469</ele>
        <time>2011-07-09T10:33:23Z</time>
      </trkpt>
      <trkpt lat="45.35264" lon="6.65483">
        <ele>2293.3623046875</ele>
        <time>2011-07-09T10:33:32Z</time>
      </trkpt>
      <trkpt lat="45.35264" lon="6.65481">
        <ele>2292.4011230469</ele>
        <time>2011-07-09T10:33:59Z</time>
      </trkpt>
      <trkpt lat="45.35264" lon="6.65481">
        <ele>2292.4011230469</ele>
        <time>2011-07-09T10:34:04Z</time>
      </trkpt>
      <trkpt lat="45.35264" lon="6.65482">
        <ele>2291.9204101562</ele>
        <time>2011-07-09T10:34:20Z</time>
      </trkpt>
      <trkpt lat="45.35264" lon="6.65482">
        <ele>2291.9204101562</ele>
        <time>2011-07-09T10:34:33Z</time>
      </trkpt>
      <trkpt lat="45.35265" lon="6.65481">
        <ele>2292.4011230469</ele>
        <time>2011-07-09T10:34:55Z</time>
      </trkpt>
      <trkpt lat="45.35265" lon="6.65481">
        <ele>2292.4011230469</ele>
        <time>2011-07-09T10:35:11Z</time>
      </trkpt>
      <trkpt lat="45.35265" lon="6.6548">
        <ele>2293.3623046875</ele>
        <time>2011-07-09T10:35:53Z</time>
      </trkpt>
      <trkpt lat="45.35264" lon="6.65481">
        <ele>2292.8815917969</ele>
        <time>2011-07-09T10:36:02Z</time>
      </trkpt>
      <trkpt lat="45.35264" lon="6.65481">
        <ele>2292.4011230469</ele>
        <time>2011-07-09T10:36:14Z</time>
      </trkpt>
      <trkpt lat="45.35264" lon="6.65481">
        <ele>2291.9204101562</ele>
        <time>2011-07-09T10:36:20Z</time>
      </trkpt>
      <trkpt lat="45.35264" lon="6.65482">
        <ele>2292.4011230469</ele>
        <time>2011-07-09T10:36:33Z</time>
      </trkpt>
      <trkpt lat="45.35265" lon="6.65484">
        <ele>2293.8430175781</ele>
        <time>2011-07-09T10:37:11Z</time>
      </trkpt>
      <trkpt lat="45.35265" lon="6.65484">
        <ele>2296.7268066406</ele>
        <time>2011-07-09T10:37:27Z</time>
      </trkpt>
      <trkpt lat="45.35265" lon="6.65483">
        <ele>2295.765625</ele>
        <time>2011-07-09T10:37:46Z</time>
      </trkpt>
      <trkpt lat="45.35264" lon="6.65483">
        <ele>2294.3234863281</ele>
        <time>2011-07-09T10:38:17Z</time>
      </trkpt>
      <trkpt lat="45.35263" lon="6.65483">
        <ele>2293.8430175781</ele>
        <time>2011-07-09T10:38:40Z</time>
      </trkpt>
      <trkpt lat="45.35263" lon="6.65483">
        <ele>2292.4011230469</ele>
        <time>2011-07-09T10:39:03Z</time>
      </trkpt>
      <trkpt lat="45.35264" lon="6.65483">
        <ele>2292.8815917969</ele>
        <time>2011-07-09T10:39:19Z</time>
      </trkpt>
      <trkpt lat="45.35264" lon="6.65483">
        <ele>2292.8815917969</ele>
        <time>2011-07-09T10:39:33Z</time>
      </trkpt>
      <trkpt lat="45.35264" lon="6.65483">
        <ele>2293.3623046875</ele>
        <time>2011-07-09T10:39:39Z</time>
      </trkpt>
      <trkpt lat="45.35264" lon="6.65483">
        <ele>2293.8430175781</ele>
        <time>2011-07-09T10:40:02Z</time>
      </trkpt>
      <trkpt lat="45.35263" lon="6.65481">
        <ele>2294.3234863281</ele>
        <time>2011-07-09T10:40:38Z</time>
      </trkpt>
      <trkpt lat="45.35265" lon="6.6548">
        <ele>2293.8430175781</ele>
        <time>2011-07-09T10:40:42Z</time>
      </trkpt>
      <trkpt lat="45.35265" lon="6.6548">
        <ele>2293.3623046875</ele>
        <time>2011-07-09T10:40:47Z</time>
      </trkpt>
      <trkpt lat="45.35266" lon="6.6548">
        <ele>2293.8430175781</ele>
        <time>2011-07-09T10:40:54Z</time>
      </trkpt>
      <trkpt lat="45.35265" lon="6.6548">
        <ele>2294.3234863281</ele>
        <time>2011-07-09T10:41:04Z</time>
      </trkpt>
      <trkpt lat="45.35264" lon="6.6548">
        <ele>2295.2849121094</ele>
        <time>2011-07-09T10:41:08Z</time>
      </trkpt>
      <trkpt lat="45.35265" lon="6.65481">
        <ele>2295.2849121094</ele>
        <time>2011-07-09T10:41:14Z</time>
      </trkpt>
      <trkpt lat="45.35266" lon="6.65482">
        <ele>2294.8041992188</ele>
        <time>2011-07-09T10:41:22Z</time>
      </trkpt>
      <trkpt lat="45.35266" lon="6.65482">
        <ele>2294.8041992188</ele>
        <time>2011-07-09T10:41:29Z</time>
      </trkpt>
      <trkpt lat="45.35265" lon="6.65482">
        <ele>2293.3623046875</ele>
        <time>2011-07-09T10:41:39Z</time>
      </trkpt>
      <trkpt lat="45.35264" lon="6.65481">
        <ele>2292.4011230469</ele>
        <time>2011-07-09T10:41:48Z</time>
      </trkpt>
      <trkpt lat="45.35262" lon="6.6548">
        <ele>2291.4396972656</ele>
        <time>2011-07-09T10:42:02Z</time>
      </trkpt>
      <trkpt lat="45.35261" lon="6.6548">
        <ele>2292.8815917969</ele>
        <time>2011-07-09T10:42:42Z</time>
      </trkpt>
      <trkpt lat="45.35262" lon="6.65479">
        <ele>2293.3623046875</ele>
        <time>2011-07-09T10:43:02Z</time>
      </trkpt>
      <trkpt lat="45.35262" lon="6.6548">
        <ele>2293.8430175781</ele>
        <time>2011-07-09T10:43:08Z</time>
      </trkpt>
      <trkpt lat="45.35263" lon="6.65481">
        <ele>2295.2849121094</ele>
        <time>2011-07-09T10:43:47Z</time>
      </trkpt>
      <trkpt lat="45.35263" lon="6.65481">
        <ele>2295.765625</ele>
        <time>2011-07-09T10:44:36Z</time>
      </trkpt>
      <trkpt lat="45.35263" lon="6.65482">
        <ele>2295.2849121094</ele>
        <time>2011-07-09T10:44:57Z</time>
      </trkpt>
      <trkpt lat="45.35263" lon="6.65481">
        <ele>2296.7268066406</ele>
        <time>2011-07-09T10:45:13Z</time>
      </trkpt>
      <trkpt lat="45.35263" lon="6.65481">
        <ele>2295.765625</ele>
        <time>2011-07-09T10:45:20Z</time>
      </trkpt>
      <trkpt lat="45.35263" lon="6.6548">
        <ele>2295.765625</ele>
        <time>2011-07-09T10:45:26Z</time>
      </trkpt>
      <trkpt lat="45.35262" lon="6.6548">
        <ele>2294.3234863281</ele>
        <time>2011-07-09T10:45:31Z</time>
      </trkpt>
      <trkpt lat="45.35263" lon="6.65479">
        <ele>2293.3623046875</ele>
        <time>2011-07-09T10:45:38Z</time>
      </trkpt>
      <trkpt lat="45.35266" lon="6.6548">
        <ele>2293.3623046875</ele>
        <time>2011-07-09T10:45:54Z</time>
      </trkpt>
      <trkpt lat="45.35267" lon="6.65481">
        <ele>2292.8815917969</ele>
        <time>2011-07-09T10:46:00Z</time>
      </trkpt>
      <trkpt lat="45.35266" lon="6.65482">
        <ele>2292.8815917969</ele>
        <time>2011-07-09T10:46:04Z</time>
      </trkpt>
      <trkpt lat="45.35265" lon="6.65481">
        <ele>2293.8430175781</ele>
        <time>2011-07-09T10:46:08Z</time>
      </trkpt>
      <trkpt lat="45.35264" lon="6.6548">
        <ele>2293.3623046875</ele>
        <time>2011-07-09T10:46:14Z</time>
      </trkpt>
      <trkpt lat="45.35264" lon="6.65475">
        <ele>2292.4011230469</ele>
        <time>2011-07-09T10:46:18Z</time>
      </trkpt>
      <trkpt lat="45.35266" lon="6.65475">
        <ele>2291.9204101562</ele>
        <time>2011-07-09T10:46:24Z</time>
      </trkpt>
      <trkpt lat="45.35266" lon="6.65477">
        <ele>2291.9204101562</ele>
        <time>2011-07-09T10:46:27Z</time>
      </trkpt>
      <trkpt lat="45.35264" lon="6.65479">
        <ele>2292.4011230469</ele>
        <time>2011-07-09T10:46:33Z</time>
      </trkpt>
      <trkpt lat="45.35264" lon="6.65479">
        <ele>2292.4011230469</ele>
        <time>2011-07-09T10:46:37Z</time>
      </trkpt>
      <trkpt lat="45.35266" lon="6.65479">
        <ele>2292.4011230469</ele>
        <time>2011-07-09T10:46:59Z</time>
      </trkpt>
      <trkpt lat="45.35266" lon="6.6548">
        <ele>2297.2075195312</ele>
        <time>2011-07-09T10:47:12Z</time>
      </trkpt>
      <trkpt lat="45.35266" lon="6.65479">
        <ele>2295.2849121094</ele>
        <time>2011-07-09T10:47:31Z</time>
      </trkpt>
      <trkpt lat="45.35266" lon="6.65477">
        <ele>2296.7268066406</ele>
        <time>2011-07-09T10:47:36Z</time>
      </trkpt>
      <trkpt lat="45.35267" lon="6.65475">
        <ele>2296.2463378906</ele>
        <time>2011-07-09T10:47:41Z</time>
      </trkpt>
      <trkpt lat="45.35267" lon="6.65475">
        <ele>2296.2463378906</ele>
        <time>2011-07-09T10:47:47Z</time>
      </trkpt>
      <trkpt lat="45.35266" lon="6.65474">
        <ele>2293.8430175781</ele>
        <time>2011-07-09T10:48:20Z</time>
      </trkpt>
      <trkpt lat="45.35266" lon="6.65476">
        <ele>2299.1301269531</ele>
        <time>2011-07-09T10:48:36Z</time>
      </trkpt>
      <trkpt lat="45.35267" lon="6.65476">
        <ele>2301.0529785156</ele>
        <time>2011-07-09T10:48:53Z</time>
      </trkpt>
      <trkpt lat="45.35266" lon="6.6548">
        <ele>2301.0529785156</ele>
        <time>2011-07-09T10:49:03Z</time>
      </trkpt>
      <trkpt lat="45.35265" lon="6.65482">
        <ele>2299.6108398438</ele>
        <time>2011-07-09T10:49:07Z</time>
      </trkpt>
      <trkpt lat="45.35264" lon="6.65484">
        <ele>2297.6882324219</ele>
        <time>2011-07-09T10:49:11Z</time>
      </trkpt>
      <trkpt lat="45.35263" lon="6.65483">
        <ele>2294.8041992188</ele>
        <time>2011-07-09T10:49:17Z</time>
      </trkpt>
      <trkpt lat="45.35261" lon="6.65482">
        <ele>2295.765625</ele>
        <time>2011-07-09T10:49:27Z</time>
      </trkpt>
      <trkpt lat="45.3526" lon="6.65481">
        <ele>2296.2463378906</ele>
        <time>2011-07-09T10:49:30Z</time>
      </trkpt>
      <trkpt lat="45.35262" lon="6.6548">
        <ele>2295.765625</ele>
        <time>2011-07-09T10:49:37Z</time>
      </trkpt>
      <trkpt lat="45.35261" lon="6.6548">
        <ele>2293.3623046875</ele>
        <time>2011-07-09T10:49:46Z</time>
      </trkpt>
      <trkpt lat="45.35262" lon="6.65481">
        <ele>2292.8815917969</ele>
        <time>2011-07-09T10:49:57Z</time>
      </trkpt>
      <trkpt lat="45.35262" lon="6.65481">
        <ele>2292.8815917969</ele>
        <time>2011-07-09T10:50:02Z</time>
      </trkpt>
      <trkpt lat="45.35262" lon="6.6548">
        <ele>2293.3623046875</ele>
        <time>2011-07-09T10:50:10Z</time>
      </trkpt>
      <trkpt lat="45.35263" lon="6.65481">
        <ele>2293.8430175781</ele>
        <time>2011-07-09T10:50:17Z</time>
      </trkpt>
      <trkpt lat="45.35263" lon="6.65481">
        <ele>2293.8430175781</ele>
        <time>2011-07-09T10:50:28Z</time>
      </trkpt>
      <trkpt lat="45.35263" lon="6.6548">
        <ele>2291.4396972656</ele>
        <time>2011-07-09T10:51:30Z</time>
      </trkpt>
      <trkpt lat="45.35263" lon="6.6548">
        <ele>2291.4396972656</ele>
        <time>2011-07-09T10:51:33Z</time>
      </trkpt>
      <trkpt lat="45.35262" lon="6.65479">
        <ele>2290.4782714844</ele>
        <time>2011-07-09T10:51:38Z</time>
      </trkpt>
      <trkpt lat="45.35265" lon="6.65481">
        <ele>2288.0751953125</ele>
        <time>2011-07-09T10:52:40Z</time>
      </trkpt>
      <trkpt lat="45.35265" lon="6.65481">
        <ele>2289.0363769531</ele>
        <time>2011-07-09T10:52:43Z</time>
      </trkpt>
      <trkpt lat="45.35264" lon="6.65481">
        <ele>2289.0363769531</ele>
        <time>2011-07-09T10:52:44Z</time>
      </trkpt>
      <trkpt lat="45.35264" lon="6.65479">
        <ele>2289.5170898438</ele>
        <time>2011-07-09T10:52:48Z</time>
      </trkpt>
      <trkpt lat="45.35265" lon="6.6548">
        <ele>2289.5170898438</ele>
        <time>2011-07-09T10:52:50Z</time>
      </trkpt>
      <trkpt lat="45.35265" lon="6.65481">
        <ele>2289.5170898438</ele>
        <time>2011-07-09T10:52:51Z</time>
      </trkpt>
      <trkpt lat="45.35266" lon="6.65481">
        <ele>2289.9978027344</ele>
        <time>2011-07-09T10:52:54Z</time>
      </trkpt>
      <trkpt lat="45.35265" lon="6.65481">
        <ele>2289.5170898438</ele>
        <time>2011-07-09T10:52:57Z</time>
      </trkpt>
      <trkpt lat="45.35265" lon="6.65481">
        <ele>2289.0363769531</ele>
        <time>2011-07-09T10:52:58Z</time>
      </trkpt>
      <trkpt lat="45.35261" lon="6.65479">
        <ele>2289.9978027344</ele>
        <time>2011-07-09T10:53:05Z</time>
      </trkpt>
      <trkpt lat="45.35263" lon="6.6548">
        <ele>2290.958984375</ele>
        <time>2011-07-09T10:53:10Z</time>
      </trkpt>
      <trkpt lat="45.35262" lon="6.6548">
        <ele>2290.958984375</ele>
        <time>2011-07-09T10:53:19Z</time>
      </trkpt>
      <trkpt lat="45.35262" lon="6.65481">
        <ele>2290.958984375</ele>
        <time>2011-07-09T10:53:24Z</time>
      </trkpt>
      <trkpt lat="45.35265" lon="6.65481">
        <ele>2290.4782714844</ele>
        <time>2011-07-09T10:53:28Z</time>
      </trkpt>
      <trkpt lat="45.35263" lon="6.6548">
        <ele>2290.958984375</ele>
        <time>2011-07-09T10:53:35Z</time>
      </trkpt>
      <trkpt lat="45.35264" lon="6.6548">
        <ele>2290.4782714844</ele>
        <time>2011-07-09T10:53:39Z</time>
      </trkpt>
      <trkpt lat="45.35265" lon="6.6548">
        <ele>2290.4782714844</ele>
        <time>2011-07-09T10:53:43Z</time>
      </trkpt>
      <trkpt lat="45.35263" lon="6.65479">
        <ele>2289.9978027344</ele>
        <time>2011-07-09T10:54:04Z</time>
      </trkpt>
      <trkpt lat="45.35263" lon="6.65479">
        <ele>2289.9978027344</ele>
        <time>2011-07-09T10:54:10Z</time>
      </trkpt>
      <trkpt lat="45.35263" lon="6.65479">
        <ele>2289.0363769531</ele>
        <time>2011-07-09T10:54:18Z</time>
      </trkpt>
      <trkpt lat="45.35263" lon="6.6548">
        <ele>2289.0363769531</ele>
        <time>2011-07-09T10:54:25Z</time>
      </trkpt>
      <trkpt lat="45.35263" lon="6.65479">
        <ele>2289.0363769531</ele>
        <time>2011-07-09T10:54:27Z</time>
      </trkpt>
      <trkpt lat="45.35264" lon="6.65479">
        <ele>2289.0363769531</ele>
        <time>2011-07-09T10:54:32Z</time>
      </trkpt>
      <trkpt lat="45.35263" lon="6.65479">
        <ele>2289.5170898438</ele>
        <time>2011-07-09T10:54:40Z</time>
      </trkpt>
      <trkpt lat="45.35263" lon="6.65479">
        <ele>2289.9978027344</ele>
        <time>2011-07-09T10:54:47Z</time>
      </trkpt>
      <trkpt lat="45.35263" lon="6.65479">
        <ele>2289.9978027344</ele>
        <time>2011-07-09T10:54:53Z</time>
      </trkpt>
      <trkpt lat="45.35262" lon="6.6548">
        <ele>2290.958984375</ele>
        <time>2011-07-09T10:54:58Z</time>
      </trkpt>
      <trkpt lat="45.35262" lon="6.6548">
        <ele>2292.4011230469</ele>
        <time>2011-07-09T10:55:03Z</time>
      </trkpt>
      <trkpt lat="45.35264" lon="6.65479">
        <ele>2292.8815917969</ele>
        <time>2011-07-09T10:55:06Z</time>
      </trkpt>
      <trkpt lat="45.35265" lon="6.65479">
        <ele>2293.3623046875</ele>
        <time>2011-07-09T10:55:07Z</time>
      </trkpt>
      <trkpt lat="45.35265" lon="6.65479">
        <ele>2292.8815917969</ele>
        <time>2011-07-09T10:55:11Z</time>
      </trkpt>
      <trkpt lat="45.35264" lon="6.65479">
        <ele>2292.8815917969</ele>
        <time>2011-07-09T10:55:13Z</time>
      </trkpt>
      <trkpt lat="45.35265" lon="6.65478">
        <ele>2292.4011230469</ele>
        <time>2011-07-09T10:55:36Z</time>
      </trkpt>
      <trkpt lat="45.35265" lon="6.65479">
        <ele>2293.3623046875</ele>
        <time>2011-07-09T10:55:41Z</time>
      </trkpt>
      <trkpt lat="45.35265" lon="6.6548">
        <ele>2293.8430175781</ele>
        <time>2011-07-09T10:55:45Z</time>
      </trkpt>
      <trkpt lat="45.35266" lon="6.65481">
        <ele>2294.3234863281</ele>
        <time>2011-07-09T10:55:54Z</time>
      </trkpt>
      <trkpt lat="45.35264" lon="6.65479">
        <ele>2297.6882324219</ele>
        <time>2011-07-09T10:56:05Z</time>
      </trkpt>
      <trkpt lat="45.35262" lon="6.65476">
        <ele>2298.1687011719</ele>
        <time>2011-07-09T10:56:11Z</time>
      </trkpt>
      <trkpt lat="45.35262" lon="6.65477">
        <ele>2298.1687011719</ele>
        <time>2011-07-09T10:56:21Z</time>
      </trkpt>
      <trkpt lat="45.35263" lon="6.65478">
        <ele>2296.7268066406</ele>
        <time>2011-07-09T10:56:27Z</time>
      </trkpt>
      <trkpt lat="45.35263" lon="6.65478">
        <ele>2296.7268066406</ele>
        <time>2011-07-09T10:56:30Z</time>
      </trkpt>
      <trkpt lat="45.35266" lon="6.65478">
        <ele>2297.6882324219</ele>
        <time>2011-07-09T10:56:50Z</time>
      </trkpt>
      <trkpt lat="45.35264" lon="6.65478">
        <ele>2299.1301269531</ele>
        <time>2011-07-09T10:56:57Z</time>
      </trkpt>
      <trkpt lat="45.35265" lon="6.6548">
        <ele>2298.1687011719</ele>
        <time>2011-07-09T10:57:01Z</time>
      </trkpt>
      <trkpt lat="45.35264" lon="6.65481">
        <ele>2297.6882324219</ele>
        <time>2011-07-09T10:57:09Z</time>
      </trkpt>
      <trkpt lat="45.35264" lon="6.65481">
        <ele>2298.1687011719</ele>
        <time>2011-07-09T10:57:16Z</time>
      </trkpt>
      <trkpt lat="45.35264" lon="6.65481">
        <ele>2298.1687011719</ele>
        <time>2011-07-09T10:57:26Z</time>
      </trkpt>
      <trkpt lat="45.35264" lon="6.65481">
        <ele>2297.2075195312</ele>
        <time>2011-07-09T10:57:29Z</time>
      </trkpt>
      <trkpt lat="45.35264" lon="6.65481">
        <ele>2297.2075195312</ele>
        <time>2011-07-09T10:57:30Z</time>
      </trkpt>
      <trkpt lat="45.35264" lon="6.65481">
        <ele>2296.7268066406</ele>
        <time>2011-07-09T10:57:35Z</time>
      </trkpt>
      <trkpt lat="45.35264" lon="6.65481">
        <ele>2296.2463378906</ele>
        <time>2011-07-09T10:57:39Z</time>
      </trkpt>
      <trkpt lat="45.35263" lon="6.65482">
        <ele>2296.2463378906</ele>
        <time>2011-07-09T10:57:45Z</time>
      </trkpt>
      <trkpt lat="45.35263" lon="6.65482">
        <ele>2296.2463378906</ele>
        <time>2011-07-09T10:57:57Z</time>
      </trkpt>
      <trkpt lat="45.35263" lon="6.65482">
        <ele>2296.2463378906</ele>
        <time>2011-07-09T10:58:03Z</time>
      </trkpt>
      <trkpt lat="45.35264" lon="6.65482">
        <ele>2296.2463378906</ele>
        <time>2011-07-09T10:58:13Z</time>
      </trkpt>
      <trkpt lat="45.35266" lon="6.65481">
        <ele>2295.765625</ele>
        <time>2011-07-09T10:58:27Z</time>
      </trkpt>
      <trkpt lat="45.35266" lon="6.65481">
        <ele>2296.2463378906</ele>
        <time>2011-07-09T10:58:32Z</time>
      </trkpt>
      <trkpt lat="45.35265" lon="6.65481">
        <ele>2295.2849121094</ele>
        <time>2011-07-09T10:58:55Z</time>
      </trkpt>
      <trkpt lat="45.35265" lon="6.65481">
        <ele>2294.8041992188</ele>
        <time>2011-07-09T10:59:00Z</time>
      </trkpt>
      <trkpt lat="45.35265" lon="6.65481">
        <ele>2294.8041992188</ele>
        <time>2011-07-09T10:59:03Z</time>
      </trkpt>
      <trkpt lat="45.35265" lon="6.65482">
        <ele>2295.2849121094</ele>
        <time>2011-07-09T10:59:16Z</time>
      </trkpt>
      <trkpt lat="45.35263" lon="6.65482">
        <ele>2295.765625</ele>
        <time>2011-07-09T10:59:43Z</time>
      </trkpt>
      <trkpt lat="45.35263" lon="6.65481">
        <ele>2293.3623046875</ele>
        <time>2011-07-09T11:00:23Z</time>
      </trkpt>
      <trkpt lat="45.35262" lon="6.6548">
        <ele>2291.9204101562</ele>
        <time>2011-07-09T11:01:02Z</time>
      </trkpt>
      <trkpt lat="45.35263" lon="6.6548">
        <ele>2293.3623046875</ele>
        <time>2011-07-09T11:01:17Z</time>
      </trkpt>
      <trkpt lat="45.35263" lon="6.65481">
        <ele>2293.3623046875</ele>
        <time>2011-07-09T11:01:29Z</time>
      </trkpt>
      <trkpt lat="45.35262" lon="6.65481">
        <ele>2293.3623046875</ele>
        <time>2011-07-09T11:01:41Z</time>
      </trkpt>
      <trkpt lat="45.35262" lon="6.65481">
        <ele>2293.8430175781</ele>
        <time>2011-07-09T11:02:06Z</time>
      </trkpt>
      <trkpt lat="45.35262" lon="6.65481">
        <ele>2293.3623046875</ele>
        <time>2011-07-09T11:02:33Z</time>
      </trkpt>
      <trkpt lat="45.35262" lon="6.6548">
        <ele>2293.3623046875</ele>
        <time>2011-07-09T11:02:50Z</time>
      </trkpt>
      <trkpt lat="45.35262" lon="6.65481">
        <ele>2293.8430175781</ele>
        <time>2011-07-09T11:02:53Z</time>
      </trkpt>
      <trkpt lat="45.35262" lon="6.65482">
        <ele>2293.8430175781</ele>
        <time>2011-07-09T11:02:58Z</time>
      </trkpt>
      <trkpt lat="45.35262" lon="6.65481">
        <ele>2289.9978027344</ele>
        <time>2011-07-09T11:03:26Z</time>
      </trkpt>
      <trkpt lat="45.35261" lon="6.65481">
        <ele>2287.1137695312</ele>
        <time>2011-07-09T11:03:53Z</time>
      </trkpt>
      <trkpt lat="45.35261" lon="6.65481">
        <ele>2286.6330566406</ele>
        <time>2011-07-09T11:04:13Z</time>
      </trkpt>
      <trkpt lat="45.35261" lon="6.6548">
        <ele>2288.0751953125</ele>
        <time>2011-07-09T11:04:58Z</time>
      </trkpt>
      <trkpt lat="45.35262" lon="6.65481">
        <ele>2288.5559082031</ele>
        <time>2011-07-09T11:05:08Z</time>
      </trkpt>
      <trkpt lat="45.35262" lon="6.6548">
        <ele>2290.4782714844</ele>
        <time>2011-07-09T11:05:22Z</time>
      </trkpt>
      <trkpt lat="45.35262" lon="6.6548">
        <ele>2290.958984375</ele>
        <time>2011-07-09T11:05:30Z</time>
      </trkpt>
      <trkpt lat="45.35262" lon="6.6548">
        <ele>2291.4396972656</ele>
        <time>2011-07-09T11:05:47Z</time>
      </trkpt>
      <trkpt lat="45.35263" lon="6.6548">
        <ele>2291.9204101562</ele>
        <time>2011-07-09T11:05:52Z</time>
      </trkpt>
      <trkpt lat="45.35263" lon="6.65481">
        <ele>2291.9204101562</ele>
        <time>2011-07-09T11:05:58Z</time>
      </trkpt>
      <trkpt lat="45.35263" lon="6.65481">
        <ele>2291.4396972656</ele>
        <time>2011-07-09T11:06:03Z</time>
      </trkpt>
      <trkpt lat="45.35263" lon="6.65482">
        <ele>2290.958984375</ele>
        <time>2011-07-09T11:06:08Z</time>
      </trkpt>
      <trkpt lat="45.35264" lon="6.65482">
        <ele>2290.958984375</ele>
        <time>2011-07-09T11:06:14Z</time>
      </trkpt>
      <trkpt lat="45.35265" lon="6.65482">
        <ele>2294.3234863281</ele>
        <time>2011-07-09T11:06:36Z</time>
      </trkpt>
      <trkpt lat="45.35265" lon="6.65482">
        <ele>2294.8041992188</ele>
        <time>2011-07-09T11:06:55Z</time>
      </trkpt>
      <trkpt lat="45.35264" lon="6.65483">
        <ele>2294.8041992188</ele>
        <time>2011-07-09T11:07:02Z</time>
      </trkpt>
      <trkpt lat="45.35264" lon="6.65483">
        <ele>2294.3234863281</ele>
        <time>2011-07-09T11:07:06Z</time>
      </trkpt>
      <trkpt lat="45.35264" lon="6.65483">
        <ele>2294.3234863281</ele>
        <time>2011-07-09T11:07:08Z</time>
      </trkpt>
      <trkpt lat="45.35263" lon="6.65482">
        <ele>2293.3623046875</ele>
        <time>2011-07-09T11:07:19Z</time>
      </trkpt>
      <trkpt lat="45.35263" lon="6.65481">
        <ele>2293.3623046875</ele>
        <time>2011-07-09T11:07:34Z</time>
      </trkpt>
      <trkpt lat="45.35264" lon="6.65481">
        <ele>2293.3623046875</ele>
        <time>2011-07-09T11:07:43Z</time>
      </trkpt>
      <trkpt lat="45.35263" lon="6.65482">
        <ele>2293.3623046875</ele>
        <time>2011-07-09T11:07:57Z</time>
      </trkpt>
      <trkpt lat="45.35263" lon="6.65481">
        <ele>2292.8815917969</ele>
        <time>2011-07-09T11:08:17Z</time>
      </trkpt>
      <trkpt lat="45.35262" lon="6.65481">
        <ele>2291.4396972656</ele>
        <time>2011-07-09T11:08:38Z</time>
      </trkpt>
      <trkpt lat="45.35262" lon="6.6548">
        <ele>2290.4782714844</ele>
        <time>2011-07-09T11:08:49Z</time>
      </trkpt>
      <trkpt lat="45.35263" lon="6.6548">
        <ele>2290.958984375</ele>
        <time>2011-07-09T11:08:58Z</time>
      </trkpt>
      <trkpt lat="45.35263" lon="6.6548">
        <ele>2290.958984375</ele>
        <time>2011-07-09T11:09:06Z</time>
      </trkpt>
      <trkpt lat="45.35264" lon="6.65481">
        <ele>2290.958984375</ele>
        <time>2011-07-09T11:09:20Z</time>
      </trkpt>
      <trkpt lat="45.35264" lon="6.65481">
        <ele>2290.958984375</ele>
        <time>2011-07-09T11:09:27Z</time>
      </trkpt>
      <trkpt lat="45.35264" lon="6.65481">
        <ele>2290.958984375</ele>
        <time>2011-07-09T11:09:30Z</time>
      </trkpt>
      <trkpt lat="45.35263" lon="6.65482">
        <ele>2291.4396972656</ele>
        <time>2011-07-09T11:09:38Z</time>
      </trkpt>
      <trkpt lat="45.35264" lon="6.65482">
        <ele>2292.4011230469</ele>
        <time>2011-07-09T11:09:46Z</time>
      </trkpt>
      <trkpt lat="45.35263" lon="6.65482">
        <ele>2291.4396972656</ele>
        <time>2011-07-09T11:09:59Z</time>
      </trkpt>
      <trkpt lat="45.35264" lon="6.65481">
        <ele>2291.4396972656</ele>
        <time>2011-07-09T11:10:14Z</time>
      </trkpt>
      <trkpt lat="45.35264" lon="6.65481">
        <ele>2291.9204101562</ele>
        <time>2011-07-09T11:10:23Z</time>
      </trkpt>
      <trkpt lat="45.35264" lon="6.6548">
        <ele>2292.4011230469</ele>
        <time>2011-07-09T11:10:34Z</time>
      </trkpt>
      <trkpt lat="45.35264" lon="6.65481">
        <ele>2292.8815917969</ele>
        <time>2011-07-09T11:10:42Z</time>
      </trkpt>
      <trkpt lat="45.35264" lon="6.6548">
        <ele>2292.8815917969</ele>
        <time>2011-07-09T11:10:50Z</time>
      </trkpt>
      <trkpt lat="45.35267" lon="6.65481">
        <ele>2293.3623046875</ele>
        <time>2011-07-09T11:12:05Z</time>
      </trkpt>
      <trkpt lat="45.35268" lon="6.65481">
        <ele>2292.8815917969</ele>
        <time>2011-07-09T11:12:14Z</time>
      </trkpt>
      <trkpt lat="45.35266" lon="6.65482">
        <ele>2296.7268066406</ele>
        <time>2011-07-09T11:12:52Z</time>
      </trkpt>
      <trkpt lat="45.35265" lon="6.65481">
        <ele>2295.2849121094</ele>
        <time>2011-07-09T11:13:07Z</time>
      </trkpt>
      <trkpt lat="45.35263" lon="6.6548">
        <ele>2293.8430175781</ele>
        <time>2011-07-09T11:13:22Z</time>
      </trkpt>
      <trkpt lat="45.35264" lon="6.65481">
        <ele>2293.8430175781</ele>
        <time>2011-07-09T11:13:28Z</time>
      </trkpt>
      <trkpt lat="45.35264" lon="6.65481">
        <ele>2293.3623046875</ele>
        <time>2011-07-09T11:13:40Z</time>
      </trkpt>
      <trkpt lat="45.35264" lon="6.65482">
        <ele>2293.3623046875</ele>
        <time>2011-07-09T11:13:46Z</time>
      </trkpt>
      <trkpt lat="45.35264" lon="6.65483">
        <ele>2292.4011230469</ele>
        <time>2011-07-09T11:14:03Z</time>
      </trkpt>
      <trkpt lat="45.35263" lon="6.65482">
        <ele>2293.3623046875</ele>
        <time>2011-07-09T11:14:21Z</time>
      </trkpt>
      <trkpt lat="45.35263" lon="6.65481">
        <ele>2292.4011230469</ele>
        <time>2011-07-09T11:14:39Z</time>
      </trkpt>
      <trkpt lat="45.35263" lon="6.65481">
        <ele>2291.4396972656</ele>
        <time>2011-07-09T11:14:52Z</time>
      </trkpt>
      <trkpt lat="45.35263" lon="6.6548">
        <ele>2291.4396972656</ele>
        <time>2011-07-09T11:15:12Z</time>
      </trkpt>
      <trkpt lat="45.35263" lon="6.6548">
        <ele>2292.4011230469</ele>
        <time>2011-07-09T11:15:28Z</time>
      </trkpt>
      <trkpt lat="45.35263" lon="6.65481">
        <ele>2291.9204101562</ele>
        <time>2011-07-09T11:15:38Z</time>
      </trkpt>
      <trkpt lat="45.35264" lon="6.65481">
        <ele>2291.9204101562</ele>
        <time>2011-07-09T11:15:47Z</time>
      </trkpt>
      <trkpt lat="45.35263" lon="6.65482">
        <ele>2292.4011230469</ele>
        <time>2011-07-09T11:15:57Z</time>
      </trkpt>
      <trkpt lat="45.35263" lon="6.65482">
        <ele>2293.3623046875</ele>
        <time>2011-07-09T11:16:16Z</time>
      </trkpt>
      <trkpt lat="45.35263" lon="6.65481">
        <ele>2292.4011230469</ele>
        <time>2011-07-09T11:16:34Z</time>
      </trkpt>
      <trkpt lat="45.35263" lon="6.65482">
        <ele>2294.3234863281</ele>
        <time>2011-07-09T11:16:51Z</time>
      </trkpt>
      <trkpt lat="45.35263" lon="6.65483">
        <ele>2295.2849121094</ele>
        <time>2011-07-09T11:17:03Z</time>
      </trkpt>
      <trkpt lat="45.35262" lon="6.65483">
        <ele>2296.2463378906</ele>
        <time>2011-07-09T11:17:14Z</time>
      </trkpt>
      <trkpt lat="45.35266" lon="6.65479">
        <ele>2296.2463378906</ele>
        <time>2011-07-09T11:17:27Z</time>
      </trkpt>
      <trkpt lat="45.35268" lon="6.65473">
        <ele>2300.091796875</ele>
        <time>2011-07-09T11:18:11Z</time>
      </trkpt>
      <trkpt lat="45.35269" lon="6.65474">
        <ele>2298.6494140625</ele>
        <time>2011-07-09T11:18:15Z</time>
      </trkpt>
      <trkpt lat="45.35268" lon="6.65475">
        <ele>2298.6494140625</ele>
        <time>2011-07-09T11:18:18Z</time>
      </trkpt>
      <trkpt lat="45.35267" lon="6.65478">
        <ele>2294.8041992188</ele>
        <time>2011-07-09T11:18:50Z</time>
      </trkpt>
      <trkpt lat="45.35266" lon="6.65479">
        <ele>2294.3234863281</ele>
        <time>2011-07-09T11:19:10Z</time>
      </trkpt>
      <trkpt lat="45.35266" lon="6.65479">
        <ele>2294.3234863281</ele>
        <time>2011-07-09T11:19:16Z</time>
      </trkpt>
      <trkpt lat="45.35265" lon="6.6548">
        <ele>2293.8430175781</ele>
        <time>2011-07-09T11:20:09Z</time>
      </trkpt>
      <trkpt lat="45.35266" lon="6.65479">
        <ele>2294.3234863281</ele>
        <time>2011-07-09T11:20:18Z</time>
      </trkpt>
      <trkpt lat="45.35266" lon="6.6548">
        <ele>2294.3234863281</ele>
        <time>2011-07-09T11:20:25Z</time>
      </trkpt>
      <trkpt lat="45.35266" lon="6.6548">
        <ele>2294.3234863281</ele>
        <time>2011-07-09T11:20:29Z</time>
      </trkpt>
      <trkpt lat="45.35265" lon="6.65479">
        <ele>2294.8041992188</ele>
        <time>2011-07-09T11:20:51Z</time>
      </trkpt>
      <trkpt lat="45.35265" lon="6.6548">
        <ele>2294.3234863281</ele>
        <time>2011-07-09T11:21:30Z</time>
      </trkpt>
      <trkpt lat="45.35265" lon="6.6548">
        <ele>2293.8430175781</ele>
        <time>2011-07-09T11:21:39Z</time>
      </trkpt>
      <trkpt lat="45.35265" lon="6.6548">
        <ele>2292.8815917969</ele>
        <time>2011-07-09T11:22:02Z</time>
      </trkpt>
      <trkpt lat="45.35266" lon="6.6548">
        <ele>2292.8815917969</ele>
        <time>2011-07-09T11:22:17Z</time>
      </trkpt>
      <trkpt lat="45.35266" lon="6.65479">
        <ele>2292.8815917969</ele>
        <time>2011-07-09T11:22:25Z</time>
      </trkpt>
      <trkpt lat="45.35266" lon="6.6548">
        <ele>2293.3623046875</ele>
        <time>2011-07-09T11:22:39Z</time>
      </trkpt>
      <trkpt lat="45.35265" lon="6.65481">
        <ele>2293.8430175781</ele>
        <time>2011-07-09T11:23:07Z</time>
      </trkpt>
      <trkpt lat="45.35265" lon="6.65481">
        <ele>2293.8430175781</ele>
        <time>2011-07-09T11:23:18Z</time>
      </trkpt>
      <trkpt lat="45.35263" lon="6.65482">
        <ele>2294.3234863281</ele>
        <time>2011-07-09T11:23:46Z</time>
      </trkpt>
      <trkpt lat="45.35262" lon="6.65481">
        <ele>2295.2849121094</ele>
        <time>2011-07-09T11:23:51Z</time>
      </trkpt>
      <trkpt lat="45.35262" lon="6.65482">
        <ele>2295.765625</ele>
        <time>2011-07-09T11:23:54Z</time>
      </trkpt>
      <trkpt lat="45.35263" lon="6.65483">
        <ele>2295.765625</ele>
        <time>2011-07-09T11:23:56Z</time>
      </trkpt>
      <trkpt lat="45.35263" lon="6.65483">
        <ele>2295.765625</ele>
        <time>2011-07-09T11:24:02Z</time>
      </trkpt>
      <trkpt lat="45.35265" lon="6.65484">
        <ele>2296.7268066406</ele>
        <time>2011-07-09T11:24:19Z</time>
      </trkpt>
      <trkpt lat="45.35267" lon="6.65484">
        <ele>2298.1687011719</ele>
        <time>2011-07-09T11:24:29Z</time>
      </trkpt>
      <trkpt lat="45.35266" lon="6.65484">
        <ele>2296.7268066406</ele>
        <time>2011-07-09T11:24:46Z</time>
      </trkpt>
      <trkpt lat="45.35265" lon="6.65483">
        <ele>2293.8430175781</ele>
        <time>2011-07-09T11:25:01Z</time>
      </trkpt>
      <trkpt lat="45.35266" lon="6.65481">
        <ele>2293.8430175781</ele>
        <time>2011-07-09T11:25:05Z</time>
      </trkpt>
      <trkpt lat="45.35266" lon="6.65481">
        <ele>2294.3234863281</ele>
        <time>2011-07-09T11:25:07Z</time>
      </trkpt>
      <trkpt lat="45.35266" lon="6.65481">
        <ele>2293.8430175781</ele>
        <time>2011-07-09T11:25:12Z</time>
      </trkpt>
      <trkpt lat="45.35266" lon="6.65481">
        <ele>2293.8430175781</ele>
        <time>2011-07-09T11:25:16Z</time>
      </trkpt>
      <trkpt lat="45.35264" lon="6.65481">
        <ele>2295.2849121094</ele>
        <time>2011-07-09T11:25:43Z</time>
      </trkpt>
      <trkpt lat="45.35264" lon="6.65481">
        <ele>2295.765625</ele>
        <time>2011-07-09T11:25:49Z</time>
      </trkpt>
      <trkpt lat="45.35263" lon="6.65482">
        <ele>2294.3234863281</ele>
        <time>2011-07-09T11:26:13Z</time>
      </trkpt>
      <trkpt lat="45.35263" lon="6.65483">
        <ele>2293.3623046875</ele>
        <time>2011-07-09T11:26:45Z</time>
      </trkpt>
      <trkpt lat="45.35263" lon="6.65483">
        <ele>2291.9204101562</ele>
        <time>2011-07-09T11:27:02Z</time>
      </trkpt>
      <trkpt lat="45.35263" lon="6.65483">
        <ele>2291.4396972656</ele>
        <time>2011-07-09T11:27:10Z</time>
      </trkpt>
      <trkpt lat="45.35263" lon="6.65483">
        <ele>2289.9978027344</ele>
        <time>2011-07-09T11:27:25Z</time>
      </trkpt>
      <trkpt lat="45.35264" lon="6.65482">
        <ele>2289.9978027344</ele>
        <time>2011-07-09T11:27:44Z</time>
      </trkpt>
      <trkpt lat="45.35263" lon="6.65482">
        <ele>2289.9978027344</ele>
        <time>2011-07-09T11:28:03Z</time>
      </trkpt>
      <trkpt lat="45.35263" lon="6.65481">
        <ele>2289.9978027344</ele>
        <time>2011-07-09T11:28:10Z</time>
      </trkpt>
      <trkpt lat="45.35264" lon="6.65481">
        <ele>2289.9978027344</ele>
        <time>2011-07-09T11:28:21Z</time>
      </trkpt>
      <trkpt lat="45.35264" lon="6.65481">
        <ele>2289.9978027344</ele>
        <time>2011-07-09T11:28:24Z</time>
      </trkpt>
      <trkpt lat="45.35264" lon="6.65481">
        <ele>2289.9978027344</ele>
        <time>2011-07-09T11:28:25Z</time>
      </trkpt>
      <trkpt lat="45.35264" lon="6.6548">
        <ele>2289.9978027344</ele>
        <time>2011-07-09T11:28:52Z</time>
      </trkpt>
      <trkpt lat="45.35264" lon="6.65479">
        <ele>2290.4782714844</ele>
        <time>2011-07-09T11:29:21Z</time>
      </trkpt>
      <trkpt lat="45.35264" lon="6.6548">
        <ele>2290.958984375</ele>
        <time>2011-07-09T11:29:28Z</time>
      </trkpt>
      <trkpt lat="45.35265" lon="6.65479">
        <ele>2292.4011230469</ele>
        <time>2011-07-09T11:29:51Z</time>
      </trkpt>
      <trkpt lat="45.35266" lon="6.65479">
        <ele>2292.8815917969</ele>
        <time>2011-07-09T11:30:14Z</time>
      </trkpt>
      <trkpt lat="45.35266" lon="6.65479">
        <ele>2293.8430175781</ele>
        <time>2011-07-09T11:30:20Z</time>
      </trkpt>
      <trkpt lat="45.35265" lon="6.65477">
        <ele>2295.765625</ele>
        <time>2011-07-09T11:30:36Z</time>
      </trkpt>
      <trkpt lat="45.35265" lon="6.65476">
        <ele>2295.2849121094</ele>
        <time>2011-07-09T11:30:51Z</time>
      </trkpt>
      <trkpt lat="45.35266" lon="6.65475">
        <ele>2295.2849121094</ele>
        <time>2011-07-09T11:31:09Z</time>
      </trkpt>
      <trkpt lat="45.35265" lon="6.65477">
        <ele>2293.8430175781</ele>
        <time>2011-07-09T11:31:53Z</time>
      </trkpt>
      <trkpt lat="45.35265" lon="6.65479">
        <ele>2294.3234863281</ele>
        <time>2011-07-09T11:32:18Z</time>
      </trkpt>
      <trkpt lat="45.35265" lon="6.65479">
        <ele>2294.8041992188</ele>
        <time>2011-07-09T11:32:29Z</time>
      </trkpt>
      <trkpt lat="45.35265" lon="6.6548">
        <ele>2295.2849121094</ele>
        <time>2011-07-09T11:32:35Z</time>
      </trkpt>
      <trkpt lat="45.35264" lon="6.6548">
        <ele>2295.2849121094</ele>
        <time>2011-07-09T11:32:37Z</time>
      </trkpt>
      <trkpt lat="45.35264" lon="6.6548">
        <ele>2295.2849121094</ele>
        <time>2011-07-09T11:32:38Z</time>
      </trkpt>
      <trkpt lat="45.35264" lon="6.6548">
        <ele>2295.2849121094</ele>
        <time>2011-07-09T11:32:41Z</time>
      </trkpt>
      <trkpt lat="45.35263" lon="6.65481">
        <ele>2295.765625</ele>
        <time>2011-07-09T11:32:51Z</time>
      </trkpt>
      <trkpt lat="45.35263" lon="6.65481">
        <ele>2295.765625</ele>
        <time>2011-07-09T11:33:07Z</time>
      </trkpt>
      <trkpt lat="45.35264" lon="6.6548">
        <ele>2294.8041992188</ele>
        <time>2011-07-09T11:33:17Z</time>
      </trkpt>
      <trkpt lat="45.35264" lon="6.65479">
        <ele>2293.3623046875</ele>
        <time>2011-07-09T11:33:25Z</time>
      </trkpt>
      <trkpt lat="45.35264" lon="6.65479">
        <ele>2293.3623046875</ele>
        <time>2011-07-09T11:33:31Z</time>
      </trkpt>
      <trkpt lat="45.35263" lon="6.65481">
        <ele>2293.8430175781</ele>
        <time>2011-07-09T11:33:43Z</time>
      </trkpt>
      <trkpt lat="45.35263" lon="6.6548">
        <ele>2293.8430175781</ele>
        <time>2011-07-09T11:33:48Z</time>
      </trkpt>
      <trkpt lat="45.35265" lon="6.6548">
        <ele>2293.3623046875</ele>
        <time>2011-07-09T11:33:53Z</time>
      </trkpt>
      <trkpt lat="45.35265" lon="6.65479">
        <ele>2293.8430175781</ele>
        <time>2011-07-09T11:34:05Z</time>
      </trkpt>
      <trkpt lat="45.35266" lon="6.65478">
        <ele>2293.8430175781</ele>
        <time>2011-07-09T11:34:21Z</time>
      </trkpt>
      <trkpt lat="45.35265" lon="6.65479">
        <ele>2294.8041992188</ele>
        <time>2011-07-09T11:34:34Z</time>
      </trkpt>
      <trkpt lat="45.35265" lon="6.65479">
        <ele>2294.8041992188</ele>
        <time>2011-07-09T11:34:35Z</time>
      </trkpt>
      <trkpt lat="45.35264" lon="6.65478">
        <ele>2294.8041992188</ele>
        <time>2011-07-09T11:34:43Z</time>
      </trkpt>
      <trkpt lat="45.35264" lon="6.65479">
        <ele>2294.8041992188</ele>
        <time>2011-07-09T11:34:47Z</time>
      </trkpt>
      <trkpt lat="45.35265" lon="6.65479">
        <ele>2294.8041992188</ele>
        <time>2011-07-09T11:34:55Z</time>
      </trkpt>
      <trkpt lat="45.35265" lon="6.65479">
        <ele>2294.8041992188</ele>
        <time>2011-07-09T11:34:57Z</time>
      </trkpt>
      <trkpt lat="45.35265" lon="6.65479">
        <ele>2295.2849121094</ele>
        <time>2011-07-09T11:34:58Z</time>
      </trkpt>
      <trkpt lat="45.35265" lon="6.65479">
        <ele>2295.2849121094</ele>
        <time>2011-07-09T11:35:05Z</time>
      </trkpt>
      <trkpt lat="45.35265" lon="6.65479">
        <ele>2295.2849121094</ele>
        <time>2011-07-09T11:35:09Z</time>
      </trkpt>
      <trkpt lat="45.35265" lon="6.65479">
        <ele>2295.2849121094</ele>
        <time>2011-07-09T11:35:17Z</time>
      </trkpt>
      <trkpt lat="45.35265" lon="6.65482">
        <ele>2295.2849121094</ele>
        <time>2011-07-09T11:35:34Z</time>
      </trkpt>
      <trkpt lat="45.35264" lon="6.6548">
        <ele>2295.2849121094</ele>
        <time>2011-07-09T11:35:39Z</time>
      </trkpt>
      <trkpt lat="45.35264" lon="6.6548">
        <ele>2295.2849121094</ele>
        <time>2011-07-09T11:35:44Z</time>
      </trkpt>
      <trkpt lat="45.35265" lon="6.65479">
        <ele>2295.2849121094</ele>
        <time>2011-07-09T11:35:53Z</time>
      </trkpt>
      <trkpt lat="45.35266" lon="6.65479">
        <ele>2294.3234863281</ele>
        <time>2011-07-09T11:36:09Z</time>
      </trkpt>
      <trkpt lat="45.35265" lon="6.65479">
        <ele>2293.8430175781</ele>
        <time>2011-07-09T11:36:15Z</time>
      </trkpt>
      <trkpt lat="45.35265" lon="6.65479">
        <ele>2293.8430175781</ele>
        <time>2011-07-09T11:36:18Z</time>
      </trkpt>
      <trkpt lat="45.35265" lon="6.65479">
        <ele>2293.3623046875</ele>
        <time>2011-07-09T11:36:23Z</time>
      </trkpt>
      <trkpt lat="45.35266" lon="6.65478">
        <ele>2293.3623046875</ele>
        <time>2011-07-09T11:36:41Z</time>
      </trkpt>
      <trkpt lat="45.35265" lon="6.65479">
        <ele>2293.8430175781</ele>
        <time>2011-07-09T11:37:02Z</time>
      </trkpt>
      <trkpt lat="45.35265" lon="6.65478">
        <ele>2294.3234863281</ele>
        <time>2011-07-09T11:37:05Z</time>
      </trkpt>
      <trkpt lat="45.35266" lon="6.65479">
        <ele>2294.3234863281</ele>
        <time>2011-07-09T11:37:12Z</time>
      </trkpt>
      <trkpt lat="45.35266" lon="6.65479">
        <ele>2293.8430175781</ele>
        <time>2011-07-09T11:37:17Z</time>
      </trkpt>
      <trkpt lat="45.35266" lon="6.65479">
        <ele>2293.3623046875</ele>
        <time>2011-07-09T11:37:23Z</time>
      </trkpt>
      <trkpt lat="45.35266" lon="6.6548">
        <ele>2292.8815917969</ele>
        <time>2011-07-09T11:37:27Z</time>
      </trkpt>
      <trkpt lat="45.35266" lon="6.6548">
        <ele>2292.8815917969</ele>
        <time>2011-07-09T11:37:28Z</time>
      </trkpt>
      <trkpt lat="45.35267" lon="6.65479">
        <ele>2293.3623046875</ele>
        <time>2011-07-09T11:37:55Z</time>
      </trkpt>
      <trkpt lat="45.35267" lon="6.65479">
        <ele>2293.8430175781</ele>
        <time>2011-07-09T11:38:11Z</time>
      </trkpt>
      <trkpt lat="45.35266" lon="6.6548">
        <ele>2293.8430175781</ele>
        <time>2011-07-09T11:38:50Z</time>
      </trkpt>
      <trkpt lat="45.35264" lon="6.65481">
        <ele>2293.3623046875</ele>
        <time>2011-07-09T11:39:32Z</time>
      </trkpt>
      <trkpt lat="45.35264" lon="6.6548">
        <ele>2292.8815917969</ele>
        <time>2011-07-09T11:39:53Z</time>
      </trkpt>
      <trkpt lat="45.35264" lon="6.65481">
        <ele>2292.8815917969</ele>
        <time>2011-07-09T11:42:08Z</time>
      </trkpt>
      <trkpt lat="45.35263" lon="6.65482">
        <ele>2293.3623046875</ele>
        <time>2011-07-09T11:42:19Z</time>
      </trkpt>
      <trkpt lat="45.35263" lon="6.65481">
        <ele>2293.8430175781</ele>
        <time>2011-07-09T11:42:30Z</time>
      </trkpt>
      <trkpt lat="45.35264" lon="6.65481">
        <ele>2294.3234863281</ele>
        <time>2011-07-09T11:42:35Z</time>
      </trkpt>
      <trkpt lat="45.35264" lon="6.65481">
        <ele>2294.3234863281</ele>
        <time>2011-07-09T11:42:46Z</time>
      </trkpt>
      <trkpt lat="45.35263" lon="6.65481">
        <ele>2294.3234863281</ele>
        <time>2011-07-09T11:42:59Z</time>
      </trkpt>
      <trkpt lat="45.35263" lon="6.65481">
        <ele>2293.8430175781</ele>
        <time>2011-07-09T11:43:15Z</time>
      </trkpt>
      <trkpt lat="45.35263" lon="6.65481">
        <ele>2294.3234863281</ele>
        <time>2011-07-09T11:43:19Z</time>
      </trkpt>
      <trkpt lat="45.35263" lon="6.6548">
        <ele>2294.3234863281</ele>
        <time>2011-07-09T11:43:40Z</time>
      </trkpt>
      <trkpt lat="45.35264" lon="6.65479">
        <ele>2294.8041992188</ele>
        <time>2011-07-09T11:43:51Z</time>
      </trkpt>
      <trkpt lat="45.35264" lon="6.65479">
        <ele>2294.8041992188</ele>
        <time>2011-07-09T11:43:57Z</time>
      </trkpt>
      <trkpt lat="45.35264" lon="6.65479">
        <ele>2294.8041992188</ele>
        <time>2011-07-09T11:44:08Z</time>
      </trkpt>
      <trkpt lat="45.35264" lon="6.6548">
        <ele>2293.8430175781</ele>
        <time>2011-07-09T11:44:27Z</time>
      </trkpt>
      <trkpt lat="45.35265" lon="6.65479">
        <ele>2293.3623046875</ele>
        <time>2011-07-09T11:44:31Z</time>
      </trkpt>
      <trkpt lat="45.35264" lon="6.6548">
        <ele>2293.3623046875</ele>
        <time>2011-07-09T11:44:37Z</time>
      </trkpt>
      <trkpt lat="45.35265" lon="6.65479">
        <ele>2293.8430175781</ele>
        <time>2011-07-09T11:45:02Z</time>
      </trkpt>
      <trkpt lat="45.35265" lon="6.65479">
        <ele>2293.3623046875</ele>
        <time>2011-07-09T11:46:04Z</time>
      </trkpt>
      <trkpt lat="45.35265" lon="6.6548">
        <ele>2293.3623046875</ele>
        <time>2011-07-09T11:46:31Z</time>
      </trkpt>
      <trkpt lat="45.35264" lon="6.6548">
        <ele>2293.8430175781</ele>
        <time>2011-07-09T11:46:55Z</time>
      </trkpt>
      <trkpt lat="45.35264" lon="6.6548">
        <ele>2293.8430175781</ele>
        <time>2011-07-09T11:47:05Z</time>
      </trkpt>
      <trkpt lat="45.35263" lon="6.6548">
        <ele>2294.8041992188</ele>
        <time>2011-07-09T11:47:18Z</time>
      </trkpt>
      <trkpt lat="45.35263" lon="6.6548">
        <ele>2294.8041992188</ele>
        <time>2011-07-09T11:47:29Z</time>
      </trkpt>
      <trkpt lat="45.35263" lon="6.6548">
        <ele>2294.8041992188</ele>
        <time>2011-07-09T11:47:40Z</time>
      </trkpt>
      <trkpt lat="45.35262" lon="6.65481">
        <ele>2295.765625</ele>
        <time>2011-07-09T11:48:08Z</time>
      </trkpt>
      <trkpt lat="45.35262" lon="6.65481">
        <ele>2295.765625</ele>
        <time>2011-07-09T11:48:16Z</time>
      </trkpt>
      <trkpt lat="45.35261" lon="6.65483">
        <ele>2297.2075195312</ele>
        <time>2011-07-09T11:48:41Z</time>
      </trkpt>
      <trkpt lat="45.35262" lon="6.65483">
        <ele>2296.7268066406</ele>
        <time>2011-07-09T11:48:51Z</time>
      </trkpt>
      <trkpt lat="45.35262" lon="6.65481">
        <ele>2297.2075195312</ele>
        <time>2011-07-09T11:49:07Z</time>
      </trkpt>
      <trkpt lat="45.35262" lon="6.65482">
        <ele>2296.7268066406</ele>
        <time>2011-07-09T11:49:30Z</time>
      </trkpt>
      <trkpt lat="45.35263" lon="6.65481">
        <ele>2293.3623046875</ele>
        <time>2011-07-09T11:50:29Z</time>
      </trkpt>
      <trkpt lat="45.35263" lon="6.65482">
        <ele>2293.3623046875</ele>
        <time>2011-07-09T11:50:36Z</time>
      </trkpt>
      <trkpt lat="45.35263" lon="6.65481">
        <ele>2294.3234863281</ele>
        <time>2011-07-09T11:50:41Z</time>
      </trkpt>
      <trkpt lat="45.35262" lon="6.65481">
        <ele>2295.765625</ele>
        <time>2011-07-09T11:50:45Z</time>
      </trkpt>
      <trkpt lat="45.35262" lon="6.65484">
        <ele>2296.2463378906</ele>
        <time>2011-07-09T11:50:51Z</time>
      </trkpt>
      <trkpt lat="45.35262" lon="6.65484">
        <ele>2298.1687011719</ele>
        <time>2011-07-09T11:51:00Z</time>
      </trkpt>
      <trkpt lat="45.35263" lon="6.65483">
        <ele>2297.2075195312</ele>
        <time>2011-07-09T11:51:10Z</time>
      </trkpt>
      <trkpt lat="45.35264" lon="6.65482">
        <ele>2294.8041992188</ele>
        <time>2011-07-09T11:51:17Z</time>
      </trkpt>
      <trkpt lat="45.35264" lon="6.65481">
        <ele>2294.3234863281</ele>
        <time>2011-07-09T11:51:24Z</time>
      </trkpt>
      <trkpt lat="45.35265" lon="6.65482">
        <ele>2294.3234863281</ele>
        <time>2011-07-09T11:51:32Z</time>
      </trkpt>
      <trkpt lat="45.35265" lon="6.65482">
        <ele>2294.3234863281</ele>
        <time>2011-07-09T11:51:36Z</time>
      </trkpt>
      <trkpt lat="45.35265" lon="6.65483">
        <ele>2294.8041992188</ele>
        <time>2011-07-09T11:51:55Z</time>
      </trkpt>
      <trkpt lat="45.35265" lon="6.65483">
        <ele>2293.3623046875</ele>
        <time>2011-07-09T11:52:04Z</time>
      </trkpt>
      <trkpt lat="45.35262" lon="6.65483">
        <ele>2290.958984375</ele>
        <time>2011-07-09T11:52:16Z</time>
      </trkpt>
      <trkpt lat="45.35263" lon="6.65482">
        <ele>2291.4396972656</ele>
        <time>2011-07-09T11:52:21Z</time>
      </trkpt>
      <trkpt lat="45.35262" lon="6.65482">
        <ele>2292.8815917969</ele>
        <time>2011-07-09T11:52:29Z</time>
      </trkpt>
      <trkpt lat="45.35263" lon="6.65483">
        <ele>2292.8815917969</ele>
        <time>2011-07-09T11:52:49Z</time>
      </trkpt>
      <trkpt lat="45.35265" lon="6.65482">
        <ele>2291.9204101562</ele>
        <time>2011-07-09T11:52:53Z</time>
      </trkpt>
      <trkpt lat="45.35263" lon="6.65484">
        <ele>2293.8430175781</ele>
        <time>2011-07-09T11:53:05Z</time>
      </trkpt>
      <trkpt lat="45.35263" lon="6.65483">
        <ele>2293.3623046875</ele>
        <time>2011-07-09T11:53:15Z</time>
      </trkpt>
      <trkpt lat="45.35266" lon="6.65481">
        <ele>2292.4011230469</ele>
        <time>2011-07-09T11:53:22Z</time>
      </trkpt>
      <trkpt lat="45.35265" lon="6.6548">
        <ele>2291.9204101562</ele>
        <time>2011-07-09T11:53:25Z</time>
      </trkpt>
      <trkpt lat="45.35266" lon="6.65481">
        <ele>2291.9204101562</ele>
        <time>2011-07-09T11:53:29Z</time>
      </trkpt>
      <trkpt lat="45.35266" lon="6.65481">
        <ele>2294.3234863281</ele>
        <time>2011-07-09T11:53:40Z</time>
      </trkpt>
      <trkpt lat="45.35267" lon="6.65481">
        <ele>2293.3623046875</ele>
        <time>2011-07-09T11:53:48Z</time>
      </trkpt>
      <trkpt lat="45.35266" lon="6.65481">
        <ele>2293.3623046875</ele>
        <time>2011-07-09T11:53:52Z</time>
      </trkpt>
      <trkpt lat="45.35265" lon="6.65481">
        <ele>2293.3623046875</ele>
        <time>2011-07-09T11:54:04Z</time>
      </trkpt>
      <trkpt lat="45.35265" lon="6.65481">
        <ele>2293.3623046875</ele>
        <time>2011-07-09T11:54:08Z</time>
      </trkpt>
      <trkpt lat="45.35265" lon="6.65481">
        <ele>2293.8430175781</ele>
        <time>2011-07-09T11:54:15Z</time>
      </trkpt>
      <trkpt lat="45.35265" lon="6.65482">
        <ele>2293.8430175781</ele>
        <time>2011-07-09T11:54:18Z</time>
      </trkpt>
      <trkpt lat="45.35265" lon="6.65482">
        <ele>2293.8430175781</ele>
        <time>2011-07-09T11:54:20Z</time>
      </trkpt>
      <trkpt lat="45.35264" lon="6.65481">
        <ele>2294.3234863281</ele>
        <time>2011-07-09T11:54:24Z</time>
      </trkpt>
      <trkpt lat="45.35264" lon="6.65482">
        <ele>2293.3623046875</ele>
        <time>2011-07-09T11:54:27Z</time>
      </trkpt>
      <trkpt lat="45.35263" lon="6.65479">
        <ele>2295.765625</ele>
        <time>2011-07-09T11:54:44Z</time>
      </trkpt>
      <trkpt lat="45.35263" lon="6.6548">
        <ele>2295.765625</ele>
        <time>2011-07-09T11:54:49Z</time>
      </trkpt>
      <trkpt lat="45.35264" lon="6.65481">
        <ele>2295.2849121094</ele>
        <time>2011-07-09T11:54:54Z</time>
      </trkpt>
      <trkpt lat="45.35264" lon="6.65482">
        <ele>2295.765625</ele>
        <time>2011-07-09T11:55:05Z</time>
      </trkpt>
      <trkpt lat="45.35265" lon="6.65482">
        <ele>2294.8041992188</ele>
        <time>2011-07-09T11:55:12Z</time>
      </trkpt>
      <trkpt lat="45.35264" lon="6.65482">
        <ele>2293.8430175781</ele>
        <time>2011-07-09T11:55:16Z</time>
      </trkpt>
      <trkpt lat="45.35265" lon="6.65482">
        <ele>2293.8430175781</ele>
        <time>2011-07-09T11:55:19Z</time>
      </trkpt>
      <trkpt lat="45.35264" lon="6.65481">
        <ele>2294.3234863281</ele>
        <time>2011-07-09T11:55:22Z</time>
      </trkpt>
      <trkpt lat="45.35261" lon="6.65481">
        <ele>2293.3623046875</ele>
        <time>2011-07-09T11:55:39Z</time>
      </trkpt>
      <trkpt lat="45.35263" lon="6.6548">
        <ele>2296.2463378906</ele>
        <time>2011-07-09T11:55:50Z</time>
      </trkpt>
      <trkpt lat="45.35263" lon="6.6548">
        <ele>2295.765625</ele>
        <time>2011-07-09T11:55:55Z</time>
      </trkpt>
      <trkpt lat="45.35264" lon="6.6548">
        <ele>2296.2463378906</ele>
        <time>2011-07-09T11:56:00Z</time>
      </trkpt>
      <trkpt lat="45.35265" lon="6.65481">
        <ele>2296.2463378906</ele>
        <time>2011-07-09T11:56:07Z</time>
      </trkpt>
      <trkpt lat="45.35265" lon="6.65481">
        <ele>2296.2463378906</ele>
        <time>2011-07-09T11:56:09Z</time>
      </trkpt>
      <trkpt lat="45.35265" lon="6.65481">
        <ele>2296.2463378906</ele>
        <time>2011-07-09T11:56:10Z</time>
      </trkpt>
      <trkpt lat="45.35265" lon="6.65481">
        <ele>2296.7268066406</ele>
        <time>2011-07-09T11:56:14Z</time>
      </trkpt>
      <trkpt lat="45.35265" lon="6.65482">
        <ele>2297.2075195312</ele>
        <time>2011-07-09T11:56:27Z</time>
      </trkpt>
      <trkpt lat="45.35266" lon="6.65481">
        <ele>2295.765625</ele>
        <time>2011-07-09T11:56:44Z</time>
      </trkpt>
      <trkpt lat="45.35266" lon="6.6548">
        <ele>2294.3234863281</ele>
        <time>2011-07-09T11:57:04Z</time>
      </trkpt>
      <trkpt lat="45.35266" lon="6.6548">
        <ele>2292.8815917969</ele>
        <time>2011-07-09T11:57:09Z</time>
      </trkpt>
      <trkpt lat="45.35266" lon="6.6548">
        <ele>2292.8815917969</ele>
        <time>2011-07-09T11:57:12Z</time>
      </trkpt>
      <trkpt lat="45.35266" lon="6.6548">
        <ele>2292.4011230469</ele>
        <time>2011-07-09T11:57:13Z</time>
      </trkpt>
      <trkpt lat="45.35267" lon="6.65479">
        <ele>2291.9204101562</ele>
        <time>2011-07-09T11:57:24Z</time>
      </trkpt>
      <trkpt lat="45.35266" lon="6.65479">
        <ele>2293.8430175781</ele>
        <time>2011-07-09T11:57:30Z</time>
      </trkpt>
      <trkpt lat="45.35266" lon="6.65481">
        <ele>2293.3623046875</ele>
        <time>2011-07-09T11:57:36Z</time>
      </trkpt>
      <trkpt lat="45.35265" lon="6.65483">
        <ele>2296.2463378906</ele>
        <time>2011-07-09T11:57:44Z</time>
      </trkpt>
      <trkpt lat="45.35264" lon="6.65482">
        <ele>2294.8041992188</ele>
        <time>2011-07-09T11:57:51Z</time>
      </trkpt>
      <trkpt lat="45.35264" lon="6.65484">
        <ele>2293.3623046875</ele>
        <time>2011-07-09T11:57:57Z</time>
      </trkpt>
      <trkpt lat="45.35265" lon="6.65485">
        <ele>2292.4011230469</ele>
        <time>2011-07-09T11:58:01Z</time>
      </trkpt>
      <trkpt lat="45.35265" lon="6.65487">
        <ele>2292.8815917969</ele>
        <time>2011-07-09T11:58:06Z</time>
      </trkpt>
      <trkpt lat="45.35264" lon="6.65489">
        <ele>2294.3234863281</ele>
        <time>2011-07-09T11:58:11Z</time>
      </trkpt>
      <trkpt lat="45.35265" lon="6.65489">
        <ele>2294.3234863281</ele>
        <time>2011-07-09T11:58:15Z</time>
      </trkpt>
      <trkpt lat="45.35265" lon="6.65487">
        <ele>2293.8430175781</ele>
        <time>2011-07-09T11:58:23Z</time>
      </trkpt>
      <trkpt lat="45.35265" lon="6.65486">
        <ele>2293.3623046875</ele>
        <time>2011-07-09T11:58:28Z</time>
      </trkpt>
      <trkpt lat="45.35264" lon="6.65486">
        <ele>2293.8430175781</ele>
        <time>2011-07-09T11:58:43Z</time>
      </trkpt>
      <trkpt lat="45.35265" lon="6.65486">
        <ele>2293.3623046875</ele>
        <time>2011-07-09T11:58:51Z</time>
      </trkpt>
      <trkpt lat="45.35265" lon="6.65484">
        <ele>2294.3234863281</ele>
        <time>2011-07-09T11:58:58Z</time>
      </trkpt>
      <trkpt lat="45.35265" lon="6.65486">
        <ele>2293.3623046875</ele>
        <time>2011-07-09T11:59:03Z</time>
      </trkpt>
      <trkpt lat="45.35265" lon="6.65485">
        <ele>2292.8815917969</ele>
        <time>2011-07-09T11:59:13Z</time>
      </trkpt>
      <trkpt lat="45.35263" lon="6.65484">
        <ele>2293.3623046875</ele>
        <time>2011-07-09T11:59:18Z</time>
      </trkpt>
      <trkpt lat="45.35263" lon="6.65483">
        <ele>2293.3623046875</ele>
        <time>2011-07-09T11:59:25Z</time>
      </trkpt>
      <trkpt lat="45.35265" lon="6.65484">
        <ele>2293.3623046875</ele>
        <time>2011-07-09T11:59:31Z</time>
      </trkpt>
      <trkpt lat="45.35265" lon="6.65485">
        <ele>2293.3623046875</ele>
        <time>2011-07-09T11:59:37Z</time>
      </trkpt>
      <trkpt lat="45.35263" lon="6.65484">
        <ele>2294.8041992188</ele>
        <time>2011-07-09T11:59:43Z</time>
      </trkpt>
      <trkpt lat="45.35263" lon="6.65484">
        <ele>2294.8041992188</ele>
        <time>2011-07-09T11:59:46Z</time>
      </trkpt>
      <trkpt lat="45.35264" lon="6.65483">
        <ele>2294.3234863281</ele>
        <time>2011-07-09T11:59:50Z</time>
      </trkpt>
      <trkpt lat="45.35265" lon="6.65481">
        <ele>2293.3623046875</ele>
        <time>2011-07-09T11:59:56Z</time>
      </trkpt>
      <trkpt lat="45.35266" lon="6.6548">
        <ele>2294.8041992188</ele>
        <time>2011-07-09T12:00:06Z</time>
      </trkpt>
      <trkpt lat="45.35266" lon="6.6548">
        <ele>2295.765625</ele>
        <time>2011-07-09T12:00:11Z</time>
      </trkpt>
      <trkpt lat="45.35266" lon="6.65481">
        <ele>2295.2849121094</ele>
        <time>2011-07-09T12:00:13Z</time>
      </trkpt>
      <trkpt lat="45.35265" lon="6.65481">
        <ele>2295.2849121094</ele>
        <time>2011-07-09T12:00:18Z</time>
      </trkpt>
      <trkpt lat="45.35266" lon="6.65481">
        <ele>2294.3234863281</ele>
        <time>2011-07-09T12:00:26Z</time>
      </trkpt>
      <trkpt lat="45.35266" lon="6.65481">
        <ele>2293.8430175781</ele>
        <time>2011-07-09T12:00:34Z</time>
      </trkpt>
      <trkpt lat="45.35265" lon="6.65481">
        <ele>2293.8430175781</ele>
        <time>2011-07-09T12:00:41Z</time>
      </trkpt>
      <trkpt lat="45.35264" lon="6.65482">
        <ele>2294.3234863281</ele>
        <time>2011-07-09T12:00:45Z</time>
      </trkpt>
      <trkpt lat="45.35264" lon="6.65482">
        <ele>2294.8041992188</ele>
        <time>2011-07-09T12:00:51Z</time>
      </trkpt>
      <trkpt lat="45.35263" lon="6.65483">
        <ele>2295.765625</ele>
        <time>2011-07-09T12:00:56Z</time>
      </trkpt>
      <trkpt lat="45.35263" lon="6.65483">
        <ele>2295.2849121094</ele>
        <time>2011-07-09T12:01:07Z</time>
      </trkpt>
      <trkpt lat="45.35262" lon="6.65483">
        <ele>2291.9204101562</ele>
        <time>2011-07-09T12:01:13Z</time>
      </trkpt>
      <trkpt lat="45.35263" lon="6.65484">
        <ele>2290.958984375</ele>
        <time>2011-07-09T12:01:22Z</time>
      </trkpt>
      <trkpt lat="45.35262" lon="6.65484">
        <ele>2290.4782714844</ele>
        <time>2011-07-09T12:01:26Z</time>
      </trkpt>
      <trkpt lat="45.35264" lon="6.65482">
        <ele>2291.4396972656</ele>
        <time>2011-07-09T12:01:31Z</time>
      </trkpt>
      <trkpt lat="45.35265" lon="6.65483">
        <ele>2293.3623046875</ele>
        <time>2011-07-09T12:01:38Z</time>
      </trkpt>
      <trkpt lat="45.35264" lon="6.65482">
        <ele>2293.8430175781</ele>
        <time>2011-07-09T12:01:41Z</time>
      </trkpt>
      <trkpt lat="45.35264" lon="6.65483">
        <ele>2293.3623046875</ele>
        <time>2011-07-09T12:01:44Z</time>
      </trkpt>
      <trkpt lat="45.35265" lon="6.65482">
        <ele>2292.8815917969</ele>
        <time>2011-07-09T12:01:50Z</time>
      </trkpt>
      <trkpt lat="45.35265" lon="6.65481">
        <ele>2293.8430175781</ele>
        <time>2011-07-09T12:01:57Z</time>
      </trkpt>
      <trkpt lat="45.35265" lon="6.65481">
        <ele>2294.3234863281</ele>
        <time>2011-07-09T12:02:07Z</time>
      </trkpt>
      <trkpt lat="45.35265" lon="6.65479">
        <ele>2297.2075195312</ele>
        <time>2011-07-09T12:02:20Z</time>
      </trkpt>
      <trkpt lat="45.35264" lon="6.65478">
        <ele>2297.6882324219</ele>
        <time>2011-07-09T12:02:28Z</time>
      </trkpt>
      <trkpt lat="45.35264" lon="6.65479">
        <ele>2297.6882324219</ele>
        <time>2011-07-09T12:02:33Z</time>
      </trkpt>
      <trkpt lat="45.35264" lon="6.65481">
        <ele>2297.2075195312</ele>
        <time>2011-07-09T12:02:37Z</time>
      </trkpt>
      <trkpt lat="45.35263" lon="6.65482">
        <ele>2294.8041992188</ele>
        <time>2011-07-09T12:02:47Z</time>
      </trkpt>
      <trkpt lat="45.35263" lon="6.65483">
        <ele>2292.8815917969</ele>
        <time>2011-07-09T12:02:53Z</time>
      </trkpt>
      <trkpt lat="45.35264" lon="6.6548">
        <ele>2292.4011230469</ele>
        <time>2011-07-09T12:02:59Z</time>
      </trkpt>
      <trkpt lat="45.35264" lon="6.65482">
        <ele>2292.8815917969</ele>
        <time>2011-07-09T12:03:03Z</time>
      </trkpt>
      <trkpt lat="45.35264" lon="6.65483">
        <ele>2292.8815917969</ele>
        <time>2011-07-09T12:03:10Z</time>
      </trkpt>
      <trkpt lat="45.35263" lon="6.65483">
        <ele>2291.9204101562</ele>
        <time>2011-07-09T12:03:14Z</time>
      </trkpt>
      <trkpt lat="45.35263" lon="6.65484">
        <ele>2291.4396972656</ele>
        <time>2011-07-09T12:03:21Z</time>
      </trkpt>
      <trkpt lat="45.35264" lon="6.65482">
        <ele>2292.8815917969</ele>
        <time>2011-07-09T12:03:25Z</time>
      </trkpt>
      <trkpt lat="45.35263" lon="6.65483">
        <ele>2292.4011230469</ele>
        <time>2011-07-09T12:03:30Z</time>
      </trkpt>
      <trkpt lat="45.35263" lon="6.65484">
        <ele>2291.4396972656</ele>
        <time>2011-07-09T12:03:37Z</time>
      </trkpt>
      <trkpt lat="45.35263" lon="6.65484">
        <ele>2291.4396972656</ele>
        <time>2011-07-09T12:03:47Z</time>
      </trkpt>
      <trkpt lat="45.35263" lon="6.65484">
        <ele>2291.9204101562</ele>
        <time>2011-07-09T12:03:54Z</time>
      </trkpt>
      <trkpt lat="45.35263" lon="6.65483">
        <ele>2294.3234863281</ele>
        <time>2011-07-09T12:04:05Z</time>
      </trkpt>
      <trkpt lat="45.35265" lon="6.65483">
        <ele>2295.2849121094</ele>
        <time>2011-07-09T12:04:11Z</time>
      </trkpt>
      <trkpt lat="45.35265" lon="6.65483">
        <ele>2296.2463378906</ele>
        <time>2011-07-09T12:04:15Z</time>
      </trkpt>
      <trkpt lat="45.35265" lon="6.65483">
        <ele>2297.6882324219</ele>
        <time>2011-07-09T12:04:20Z</time>
      </trkpt>
      <trkpt lat="45.35264" lon="6.65486">
        <ele>2297.6882324219</ele>
        <time>2011-07-09T12:04:27Z</time>
      </trkpt>
      <trkpt lat="45.35265" lon="6.65493">
        <ele>2295.765625</ele>
        <time>2011-07-09T12:04:34Z</time>
      </trkpt>
      <trkpt lat="45.35264" lon="6.65495">
        <ele>2294.8041992188</ele>
        <time>2011-07-09T12:04:39Z</time>
      </trkpt>
      <trkpt lat="45.35261" lon="6.65495">
        <ele>2293.8430175781</ele>
        <time>2011-07-09T12:04:44Z</time>
      </trkpt>
      <trkpt lat="45.35256" lon="6.65501">
        <ele>2293.3623046875</ele>
        <time>2011-07-09T12:04:50Z</time>
      </trkpt>
      <trkpt lat="45.35255" lon="6.65503">
        <ele>2292.8815917969</ele>
        <time>2011-07-09T12:04:56Z</time>
      </trkpt>
      <trkpt lat="45.35255" lon="6.65502">
        <ele>2292.4011230469</ele>
        <time>2011-07-09T12:05:04Z</time>
      </trkpt>
      <trkpt lat="45.35257" lon="6.65499">
        <ele>2291.9204101562</ele>
        <time>2011-07-09T12:05:08Z</time>
      </trkpt>
      <trkpt lat="45.35257" lon="6.65501">
        <ele>2291.9204101562</ele>
        <time>2011-07-09T12:05:13Z</time>
      </trkpt>
      <trkpt lat="45.35256" lon="6.65501">
        <ele>2291.4396972656</ele>
        <time>2011-07-09T12:05:19Z</time>
      </trkpt>
      <trkpt lat="45.35257" lon="6.65503">
        <ele>2291.9204101562</ele>
        <time>2011-07-09T12:05:24Z</time>
      </trkpt>
      <trkpt lat="45.35255" lon="6.65505">
        <ele>2292.4011230469</ele>
        <time>2011-07-09T12:05:30Z</time>
      </trkpt>
      <trkpt lat="45.35256" lon="6.65506">
        <ele>2290.4782714844</ele>
        <time>2011-07-09T12:05:41Z</time>
      </trkpt>
      <trkpt lat="45.35255" lon="6.65506">
        <ele>2289.5170898438</ele>
        <time>2011-07-09T12:05:48Z</time>
      </trkpt>
      <trkpt lat="45.35255" lon="6.65506">
        <ele>2289.5170898438</ele>
        <time>2011-07-09T12:05:49Z</time>
      </trkpt>
      <trkpt lat="45.35257" lon="6.65504">
        <ele>2289.5170898438</ele>
        <time>2011-07-09T12:05:57Z</time>
      </trkpt>
      <trkpt lat="45.35258" lon="6.65499">
        <ele>2290.958984375</ele>
        <time>2011-07-09T12:06:01Z</time>
      </trkpt>
      <trkpt lat="45.35259" lon="6.65495">
        <ele>2291.4396972656</ele>
        <time>2011-07-09T12:06:06Z</time>
      </trkpt>
      <trkpt lat="45.35263" lon="6.65496">
        <ele>2292.8815917969</ele>
        <time>2011-07-09T12:06:12Z</time>
      </trkpt>
      <trkpt lat="45.35265" lon="6.65495">
        <ele>2293.8430175781</ele>
        <time>2011-07-09T12:06:17Z</time>
      </trkpt>
      <trkpt lat="45.35265" lon="6.65487">
        <ele>2294.8041992188</ele>
        <time>2011-07-09T12:06:23Z</time>
      </trkpt>
      <trkpt lat="45.35266" lon="6.65483">
        <ele>2295.2849121094</ele>
        <time>2011-07-09T12:06:27Z</time>
      </trkpt>
      <trkpt lat="45.35265" lon="6.6548">
        <ele>2295.2849121094</ele>
        <time>2011-07-09T12:06:31Z</time>
      </trkpt>
      <trkpt lat="45.35265" lon="6.6548">
        <ele>2295.765625</ele>
        <time>2011-07-09T12:06:34Z</time>
      </trkpt>
      <trkpt lat="45.35264" lon="6.65483">
        <ele>2294.8041992188</ele>
        <time>2011-07-09T12:06:40Z</time>
      </trkpt>
      <trkpt lat="45.35263" lon="6.65483">
        <ele>2293.8430175781</ele>
        <time>2011-07-09T12:06:50Z</time>
      </trkpt>
      <trkpt lat="45.35263" lon="6.65484">
        <ele>2293.3623046875</ele>
        <time>2011-07-09T12:06:58Z</time>
      </trkpt>
      <trkpt lat="45.35263" lon="6.65484">
        <ele>2292.8815917969</ele>
        <time>2011-07-09T12:07:09Z</time>
      </trkpt>
      <trkpt lat="45.35263" lon="6.65485">
        <ele>2293.8430175781</ele>
        <time>2011-07-09T12:07:14Z</time>
      </trkpt>
      <trkpt lat="45.35263" lon="6.65485">
        <ele>2293.3623046875</ele>
        <time>2011-07-09T12:07:16Z</time>
      </trkpt>
      <trkpt lat="45.35264" lon="6.65484">
        <ele>2293.3623046875</ele>
        <time>2011-07-09T12:07:21Z</time>
      </trkpt>
      <trkpt lat="45.35264" lon="6.65484">
        <ele>2293.3623046875</ele>
        <time>2011-07-09T12:07:27Z</time>
      </trkpt>
      <trkpt lat="45.35264" lon="6.65484">
        <ele>2293.3623046875</ele>
        <time>2011-07-09T12:07:32Z</time>
      </trkpt>
      <trkpt lat="45.35263" lon="6.65484">
        <ele>2293.3623046875</ele>
        <time>2011-07-09T12:07:39Z</time>
      </trkpt>
      <trkpt lat="45.35263" lon="6.65483">
        <ele>2292.8815917969</ele>
        <time>2011-07-09T12:07:46Z</time>
      </trkpt>
      <trkpt lat="45.35263" lon="6.65478">
        <ele>2293.3623046875</ele>
        <time>2011-07-09T12:07:51Z</time>
      </trkpt>
      <trkpt lat="45.35263" lon="6.65473">
        <ele>2295.2849121094</ele>
        <time>2011-07-09T12:07:56Z</time>
      </trkpt>
      <trkpt lat="45.35263" lon="6.65468">
        <ele>2295.2849121094</ele>
        <time>2011-07-09T12:08:00Z</time>
      </trkpt>
      <trkpt lat="45.35263" lon="6.65462">
        <ele>2295.2849121094</ele>
        <time>2011-07-09T12:08:06Z</time>
      </trkpt>
      <trkpt lat="45.35267" lon="6.65458">
        <ele>2296.7268066406</ele>
        <time>2011-07-09T12:08:12Z</time>
      </trkpt>
      <trkpt lat="45.35267" lon="6.65454">
        <ele>2297.6882324219</ele>
        <time>2011-07-09T12:08:18Z</time>
      </trkpt>
      <trkpt lat="45.35268" lon="6.65453">
        <ele>2296.7268066406</ele>
        <time>2011-07-09T12:08:22Z</time>
      </trkpt>
      <trkpt lat="45.35268" lon="6.65454">
        <ele>2295.765625</ele>
        <time>2011-07-09T12:08:28Z</time>
      </trkpt>
      <trkpt lat="45.35267" lon="6.65454">
        <ele>2295.765625</ele>
        <time>2011-07-09T12:08:30Z</time>
      </trkpt>
      <trkpt lat="45.35267" lon="6.65455">
        <ele>2295.765625</ele>
        <time>2011-07-09T12:08:54Z</time>
      </trkpt>
      <trkpt lat="45.35267" lon="6.65454">
        <ele>2296.7268066406</ele>
        <time>2011-07-09T12:09:06Z</time>
      </trkpt>
      <trkpt lat="45.35266" lon="6.65452">
        <ele>2296.2463378906</ele>
        <time>2011-07-09T12:09:09Z</time>
      </trkpt>
      <trkpt lat="45.35265" lon="6.65454">
        <ele>2297.2075195312</ele>
        <time>2011-07-09T12:09:15Z</time>
      </trkpt>
      <trkpt lat="45.35263" lon="6.65456">
        <ele>2298.1687011719</ele>
        <time>2011-07-09T12:09:23Z</time>
      </trkpt>
      <trkpt lat="45.35262" lon="6.65459">
        <ele>2299.1301269531</ele>
        <time>2011-07-09T12:09:28Z</time>
      </trkpt>
      <trkpt lat="45.35266" lon="6.65466">
        <ele>2299.1301269531</ele>
        <time>2011-07-09T12:09:34Z</time>
      </trkpt>
      <trkpt lat="45.35265" lon="6.6547">
        <ele>2298.6494140625</ele>
        <time>2011-07-09T12:09:37Z</time>
      </trkpt>
      <trkpt lat="45.35263" lon="6.65474">
        <ele>2298.6494140625</ele>
        <time>2011-07-09T12:09:42Z</time>
      </trkpt>
      <trkpt lat="45.35266" lon="6.6548">
        <ele>2298.1687011719</ele>
        <time>2011-07-09T12:09:48Z</time>
      </trkpt>
      <trkpt lat="45.35268" lon="6.65482">
        <ele>2296.2463378906</ele>
        <time>2011-07-09T12:09:54Z</time>
      </trkpt>
      <trkpt lat="45.35269" lon="6.65482">
        <ele>2295.765625</ele>
        <time>2011-07-09T12:09:58Z</time>
      </trkpt>
      <trkpt lat="45.35269" lon="6.65482">
        <ele>2295.765625</ele>
        <time>2011-07-09T12:10:01Z</time>
      </trkpt>
      <trkpt lat="45.3527" lon="6.65482">
        <ele>2295.765625</ele>
        <time>2011-07-09T12:10:15Z</time>
      </trkpt>
      <trkpt lat="45.3527" lon="6.65482">
        <ele>2293.8430175781</ele>
        <time>2011-07-09T12:10:28Z</time>
      </trkpt>
      <trkpt lat="45.35269" lon="6.65482">
        <ele>2291.9204101562</ele>
        <time>2011-07-09T12:10:37Z</time>
      </trkpt>
      <trkpt lat="45.35267" lon="6.65482">
        <ele>2292.4011230469</ele>
        <time>2011-07-09T12:10:48Z</time>
      </trkpt>
      <trkpt lat="45.35266" lon="6.65482">
        <ele>2292.8815917969</ele>
        <time>2011-07-09T12:10:51Z</time>
      </trkpt>
      <trkpt lat="45.35266" lon="6.65482">
        <ele>2292.8815917969</ele>
        <time>2011-07-09T12:10:52Z</time>
      </trkpt>
      <trkpt lat="45.35266" lon="6.65482">
        <ele>2293.8430175781</ele>
        <time>2011-07-09T12:10:55Z</time>
      </trkpt>
      <trkpt lat="45.35265" lon="6.65483">
        <ele>2290.958984375</ele>
        <time>2011-07-09T12:11:13Z</time>
      </trkpt>
      <trkpt lat="45.35265" lon="6.65483">
        <ele>2289.9978027344</ele>
        <time>2011-07-09T12:11:17Z</time>
      </trkpt>
      <trkpt lat="45.35265" lon="6.65483">
        <ele>2290.958984375</ele>
        <time>2011-07-09T12:11:20Z</time>
      </trkpt>
      <trkpt lat="45.35265" lon="6.65483">
        <ele>2291.9204101562</ele>
        <time>2011-07-09T12:11:21Z</time>
      </trkpt>
      <trkpt lat="45.35266" lon="6.65483">
        <ele>2293.8430175781</ele>
        <time>2011-07-09T12:11:28Z</time>
      </trkpt>
      <trkpt lat="45.35266" lon="6.65484">
        <ele>2295.765625</ele>
        <time>2011-07-09T12:11:36Z</time>
      </trkpt>
      <trkpt lat="45.35266" lon="6.65484">
        <ele>2295.765625</ele>
        <time>2011-07-09T12:11:42Z</time>
      </trkpt>
      <trkpt lat="45.35265" lon="6.65483">
        <ele>2294.8041992188</ele>
        <time>2011-07-09T12:11:53Z</time>
      </trkpt>
      <trkpt lat="45.35265" lon="6.65484">
        <ele>2293.8430175781</ele>
        <time>2011-07-09T12:12:01Z</time>
      </trkpt>
      <trkpt lat="45.35265" lon="6.65485">
        <ele>2295.765625</ele>
        <time>2011-07-09T12:12:11Z</time>
      </trkpt>
      <trkpt lat="45.35265" lon="6.65485">
        <ele>2296.7268066406</ele>
        <time>2011-07-09T12:12:17Z</time>
      </trkpt>
      <trkpt lat="45.35265" lon="6.65485">
        <ele>2295.2849121094</ele>
        <time>2011-07-09T12:12:24Z</time>
      </trkpt>
      <trkpt lat="45.35264" lon="6.65486">
        <ele>2293.8430175781</ele>
        <time>2011-07-09T12:12:31Z</time>
      </trkpt>
      <trkpt lat="45.35264" lon="6.65486">
        <ele>2293.8430175781</ele>
        <time>2011-07-09T12:12:34Z</time>
      </trkpt>
      <trkpt lat="45.35264" lon="6.65486">
        <ele>2293.8430175781</ele>
        <time>2011-07-09T12:12:35Z</time>
      </trkpt>
      <trkpt lat="45.35264" lon="6.65485">
        <ele>2295.2849121094</ele>
        <time>2011-07-09T12:12:42Z</time>
      </trkpt>
      <trkpt lat="45.35265" lon="6.65485">
        <ele>2294.8041992188</ele>
        <time>2011-07-09T12:12:51Z</time>
      </trkpt>
      <trkpt lat="45.35266" lon="6.65485">
        <ele>2294.3234863281</ele>
        <time>2011-07-09T12:12:55Z</time>
      </trkpt>
      <trkpt lat="45.35266" lon="6.65485">
        <ele>2293.3623046875</ele>
        <time>2011-07-09T12:13:04Z</time>
      </trkpt>
      <trkpt lat="45.35266" lon="6.65485">
        <ele>2293.8430175781</ele>
        <time>2011-07-09T12:13:12Z</time>
      </trkpt>
      <trkpt lat="45.35267" lon="6.65483">
        <ele>2295.765625</ele>
        <time>2011-07-09T12:13:29Z</time>
      </trkpt>
      <trkpt lat="45.35267" lon="6.65484">
        <ele>2294.3234863281</ele>
        <time>2011-07-09T12:13:36Z</time>
      </trkpt>
      <trkpt lat="45.35267" lon="6.65484">
        <ele>2291.9204101562</ele>
        <time>2011-07-09T12:13:53Z</time>
      </trkpt>
      <trkpt lat="45.35266" lon="6.65485">
        <ele>2291.9204101562</ele>
        <time>2011-07-09T12:14:10Z</time>
      </trkpt>
      <trkpt lat="45.35266" lon="6.65486">
        <ele>2292.8815917969</ele>
        <time>2011-07-09T12:14:17Z</time>
      </trkpt>
      <trkpt lat="45.35265" lon="6.65487">
        <ele>2293.3623046875</ele>
        <time>2011-07-09T12:14:27Z</time>
      </trkpt>
      <trkpt lat="45.35265" lon="6.65487">
        <ele>2293.3623046875</ele>
        <time>2011-07-09T12:14:49Z</time>
      </trkpt>
      <trkpt lat="45.35265" lon="6.65487">
        <ele>2293.3623046875</ele>
        <time>2011-07-09T12:14:59Z</time>
      </trkpt>
      <trkpt lat="45.35272" lon="6.65482">
        <ele>2294.3234863281</ele>
        <time>2011-07-09T12:15:11Z</time>
      </trkpt>
      <trkpt lat="45.35272" lon="6.65482">
        <ele>2294.3234863281</ele>
        <time>2011-07-09T12:15:20Z</time>
      </trkpt>
      <trkpt lat="45.35273" lon="6.65485">
        <ele>2294.8041992188</ele>
        <time>2011-07-09T12:15:34Z</time>
      </trkpt>
      <trkpt lat="45.35273" lon="6.65486">
        <ele>2294.3234863281</ele>
        <time>2011-07-09T12:15:36Z</time>
      </trkpt>
      <trkpt lat="45.3527" lon="6.65497">
        <ele>2294.3234863281</ele>
        <time>2011-07-09T12:15:41Z</time>
      </trkpt>
      <trkpt lat="45.35265" lon="6.65508">
        <ele>2293.8430175781</ele>
        <time>2011-07-09T12:15:48Z</time>
      </trkpt>
      <trkpt lat="45.35264" lon="6.65516">
        <ele>2293.3623046875</ele>
        <time>2011-07-09T12:15:53Z</time>
      </trkpt>
      <trkpt lat="45.35263" lon="6.65523">
        <ele>2293.3623046875</ele>
        <time>2011-07-09T12:15:59Z</time>
      </trkpt>
      <trkpt lat="45.35261" lon="6.65525">
        <ele>2291.4396972656</ele>
        <time>2011-07-09T12:16:11Z</time>
      </trkpt>
      <trkpt lat="45.35259" lon="6.65527">
        <ele>2289.9978027344</ele>
        <time>2011-07-09T12:16:25Z</time>
      </trkpt>
      <trkpt lat="45.35258" lon="6.65528">
        <ele>2289.9978027344</ele>
        <time>2011-07-09T12:16:26Z</time>
      </trkpt>
      <trkpt lat="45.35255" lon="6.6553">
        <ele>2290.4782714844</ele>
        <time>2011-07-09T12:16:31Z</time>
      </trkpt>
      <trkpt lat="45.35257" lon="6.6553">
        <ele>2289.9978027344</ele>
        <time>2011-07-09T12:16:32Z</time>
      </trkpt>
      <trkpt lat="45.35258" lon="6.65529">
        <ele>2289.9978027344</ele>
        <time>2011-07-09T12:16:37Z</time>
      </trkpt>
      <trkpt lat="45.35257" lon="6.65527">
        <ele>2286.6330566406</ele>
        <time>2011-07-09T12:16:55Z</time>
      </trkpt>
      <trkpt lat="45.35254" lon="6.65529">
        <ele>2285.671875</ele>
        <time>2011-07-09T12:17:02Z</time>
      </trkpt>
      <trkpt lat="45.35252" lon="6.65528">
        <ele>2288.5559082031</ele>
        <time>2011-07-09T12:17:08Z</time>
      </trkpt>
      <trkpt lat="45.35255" lon="6.65529">
        <ele>2289.5170898438</ele>
        <time>2011-07-09T12:17:13Z</time>
      </trkpt>
      <trkpt lat="45.35256" lon="6.65528">
        <ele>2290.958984375</ele>
        <time>2011-07-09T12:17:22Z</time>
      </trkpt>
      <trkpt lat="45.35256" lon="6.65528">
        <ele>2290.4782714844</ele>
        <time>2011-07-09T12:17:32Z</time>
      </trkpt>
      <trkpt lat="45.35256" lon="6.65528">
        <ele>2290.4782714844</ele>
        <time>2011-07-09T12:17:34Z</time>
      </trkpt>
      <trkpt lat="45.35256" lon="6.65528">
        <ele>2289.5170898438</ele>
        <time>2011-07-09T12:17:46Z</time>
      </trkpt>
      <trkpt lat="45.35255" lon="6.65528">
        <ele>2289.5170898438</ele>
        <time>2011-07-09T12:17:49Z</time>
      </trkpt>
      <trkpt lat="45.35252" lon="6.65527">
        <ele>2289.9978027344</ele>
        <time>2011-07-09T12:17:53Z</time>
      </trkpt>
      <trkpt lat="45.35254" lon="6.65526">
        <ele>2290.958984375</ele>
        <time>2011-07-09T12:17:56Z</time>
      </trkpt>
      <trkpt lat="45.35258" lon="6.65526">
        <ele>2291.9204101562</ele>
        <time>2011-07-09T12:18:00Z</time>
      </trkpt>
      <trkpt lat="45.35258" lon="6.65526">
        <ele>2291.4396972656</ele>
        <time>2011-07-09T12:18:11Z</time>
      </trkpt>
      <trkpt lat="45.35259" lon="6.65528">
        <ele>2290.958984375</ele>
        <time>2011-07-09T12:18:19Z</time>
      </trkpt>
      <trkpt lat="45.35259" lon="6.65531">
        <ele>2290.4782714844</ele>
        <time>2011-07-09T12:18:25Z</time>
      </trkpt>
      <trkpt lat="45.35258" lon="6.65532">
        <ele>2289.9978027344</ele>
        <time>2011-07-09T12:18:31Z</time>
      </trkpt>
      <trkpt lat="45.35258" lon="6.65532">
        <ele>2289.9978027344</ele>
        <time>2011-07-09T12:18:38Z</time>
      </trkpt>
      <trkpt lat="45.35258" lon="6.65532">
        <ele>2290.958984375</ele>
        <time>2011-07-09T12:18:43Z</time>
      </trkpt>
      <trkpt lat="45.35258" lon="6.65532">
        <ele>2290.958984375</ele>
        <time>2011-07-09T12:18:51Z</time>
      </trkpt>
      <trkpt lat="45.35257" lon="6.65532">
        <ele>2291.9204101562</ele>
        <time>2011-07-09T12:19:09Z</time>
      </trkpt>
      <trkpt lat="45.35258" lon="6.65532">
        <ele>2292.4011230469</ele>
        <time>2011-07-09T12:19:18Z</time>
      </trkpt>
      <trkpt lat="45.35258" lon="6.65531">
        <ele>2292.4011230469</ele>
        <time>2011-07-09T12:19:26Z</time>
      </trkpt>
      <trkpt lat="45.35257" lon="6.6553">
        <ele>2292.4011230469</ele>
        <time>2011-07-09T12:19:36Z</time>
      </trkpt>
      <trkpt lat="45.35257" lon="6.65529">
        <ele>2293.3623046875</ele>
        <time>2011-07-09T12:19:47Z</time>
      </trkpt>
      <trkpt lat="45.35256" lon="6.65526">
        <ele>2292.8815917969</ele>
        <time>2011-07-09T12:19:56Z</time>
      </trkpt>
      <trkpt lat="45.35257" lon="6.6552">
        <ele>2293.3623046875</ele>
        <time>2011-07-09T12:20:01Z</time>
      </trkpt>
      <trkpt lat="45.35259" lon="6.65513">
        <ele>2292.8815917969</ele>
        <time>2011-07-09T12:20:07Z</time>
      </trkpt>
      <trkpt lat="45.35261" lon="6.65511">
        <ele>2293.3623046875</ele>
        <time>2011-07-09T12:20:09Z</time>
      </trkpt>
      <trkpt lat="45.35263" lon="6.65504">
        <ele>2293.8430175781</ele>
        <time>2011-07-09T12:20:14Z</time>
      </trkpt>
      <trkpt lat="45.35266" lon="6.655">
        <ele>2294.8041992188</ele>
        <time>2011-07-09T12:20:18Z</time>
      </trkpt>
      <trkpt lat="45.35268" lon="6.65494">
        <ele>2295.765625</ele>
        <time>2011-07-09T12:20:24Z</time>
      </trkpt>
      <trkpt lat="45.35268" lon="6.6549">
        <ele>2296.2463378906</ele>
        <time>2011-07-09T12:20:28Z</time>
      </trkpt>
      <trkpt lat="45.35265" lon="6.65487">
        <ele>2296.7268066406</ele>
        <time>2011-07-09T12:20:31Z</time>
      </trkpt>
      <trkpt lat="45.35263" lon="6.6548">
        <ele>2298.6494140625</ele>
        <time>2011-07-09T12:20:38Z</time>
      </trkpt>
      <trkpt lat="45.35263" lon="6.65481">
        <ele>2298.6494140625</ele>
        <time>2011-07-09T12:20:50Z</time>
      </trkpt>
      <trkpt lat="45.35263" lon="6.65482">
        <ele>2298.1687011719</ele>
        <time>2011-07-09T12:20:57Z</time>
      </trkpt>
      <trkpt lat="45.35264" lon="6.65482">
        <ele>2297.6882324219</ele>
        <time>2011-07-09T12:21:03Z</time>
      </trkpt>
      <trkpt lat="45.35262" lon="6.65477">
        <ele>2298.1687011719</ele>
        <time>2011-07-09T12:21:10Z</time>
      </trkpt>
      <trkpt lat="45.35261" lon="6.65476">
        <ele>2298.1687011719</ele>
        <time>2011-07-09T12:21:14Z</time>
      </trkpt>
      <trkpt lat="45.3526" lon="6.65475">
        <ele>2298.6494140625</ele>
        <time>2011-07-09T12:21:16Z</time>
      </trkpt>
      <trkpt lat="45.35258" lon="6.65473">
        <ele>2298.1687011719</ele>
        <time>2011-07-09T12:21:22Z</time>
      </trkpt>
      <trkpt lat="45.35257" lon="6.6547">
        <ele>2298.6494140625</ele>
        <time>2011-07-09T12:21:27Z</time>
      </trkpt>
      <trkpt lat="45.35257" lon="6.6547">
        <ele>2296.7268066406</ele>
        <time>2011-07-09T12:21:39Z</time>
      </trkpt>
      <trkpt lat="45.35258" lon="6.6547">
        <ele>2295.765625</ele>
        <time>2011-07-09T12:21:53Z</time>
      </trkpt>
      <trkpt lat="45.35257" lon="6.65469">
        <ele>2294.8041992188</ele>
        <time>2011-07-09T12:22:04Z</time>
      </trkpt>
      <trkpt lat="45.35255" lon="6.65466">
        <ele>2294.3234863281</ele>
        <time>2011-07-09T12:22:09Z</time>
      </trkpt>
      <trkpt lat="45.35253" lon="6.65462">
        <ele>2294.3234863281</ele>
        <time>2011-07-09T12:22:14Z</time>
      </trkpt>
      <trkpt lat="45.35252" lon="6.65462">
        <ele>2295.2849121094</ele>
        <time>2011-07-09T12:22:21Z</time>
      </trkpt>
      <trkpt lat="45.35248" lon="6.65459">
        <ele>2294.8041992188</ele>
        <time>2011-07-09T12:22:44Z</time>
      </trkpt>
      <trkpt lat="45.35243" lon="6.65457">
        <ele>2293.8430175781</ele>
        <time>2011-07-09T12:22:51Z</time>
      </trkpt>
      <trkpt lat="45.35236" lon="6.65458">
        <ele>2293.3623046875</ele>
        <time>2011-07-09T12:22:58Z</time>
      </trkpt>
      <trkpt lat="45.35229" lon="6.65457">
        <ele>2293.8430175781</ele>
        <time>2011-07-09T12:23:06Z</time>
      </trkpt>
      <trkpt lat="45.35225" lon="6.65457">
        <ele>2293.8430175781</ele>
        <time>2011-07-09T12:23:11Z</time>
      </trkpt>
      <trkpt lat="45.35222" lon="6.65456">
        <ele>2294.3234863281</ele>
        <time>2011-07-09T12:23:15Z</time>
      </trkpt>
      <trkpt lat="45.35218" lon="6.65456">
        <ele>2294.3234863281</ele>
        <time>2011-07-09T12:23:20Z</time>
      </trkpt>
      <trkpt lat="45.35215" lon="6.65456">
        <ele>2294.8041992188</ele>
        <time>2011-07-09T12:23:23Z</time>
      </trkpt>
      <trkpt lat="45.35211" lon="6.65456">
        <ele>2295.2849121094</ele>
        <time>2011-07-09T12:23:29Z</time>
      </trkpt>
      <trkpt lat="45.3521" lon="6.65456">
        <ele>2294.8041992188</ele>
        <time>2011-07-09T12:23:36Z</time>
      </trkpt>
      <trkpt lat="45.35205" lon="6.65455">
        <ele>2295.2849121094</ele>
        <time>2011-07-09T12:23:44Z</time>
      </trkpt>
      <trkpt lat="45.35201" lon="6.65455">
        <ele>2296.7268066406</ele>
        <time>2011-07-09T12:23:51Z</time>
      </trkpt>
      <trkpt lat="45.35199" lon="6.65455">
        <ele>2297.2075195312</ele>
        <time>2011-07-09T12:23:57Z</time>
      </trkpt>
      <trkpt lat="45.35195" lon="6.65455">
        <ele>2297.6882324219</ele>
        <time>2011-07-09T12:24:04Z</time>
      </trkpt>
      <trkpt lat="45.35191" lon="6.65455">
        <ele>2299.1301269531</ele>
        <time>2011-07-09T12:24:12Z</time>
      </trkpt>
      <trkpt lat="45.35191" lon="6.65455">
        <ele>2299.1301269531</ele>
        <time>2011-07-09T12:24:18Z</time>
      </trkpt>
      <trkpt lat="45.35188" lon="6.65455">
        <ele>2300.091796875</ele>
        <time>2011-07-09T12:24:27Z</time>
      </trkpt>
      <trkpt lat="45.35185" lon="6.65454">
        <ele>2300.572265625</ele>
        <time>2011-07-09T12:24:33Z</time>
      </trkpt>
      <trkpt lat="45.35179" lon="6.65453">
        <ele>2301.0529785156</ele>
        <time>2011-07-09T12:24:41Z</time>
      </trkpt>
      <trkpt lat="45.35173" lon="6.65452">
        <ele>2301.0529785156</ele>
        <time>2011-07-09T12:24:48Z</time>
      </trkpt>
      <trkpt lat="45.35166" lon="6.65451">
        <ele>2301.5336914062</ele>
        <time>2011-07-09T12:24:56Z</time>
      </trkpt>
      <trkpt lat="45.35164" lon="6.65451">
        <ele>2301.0529785156</ele>
        <time>2011-07-09T12:25:01Z</time>
      </trkpt>
      <trkpt lat="45.35161" lon="6.65451">
        <ele>2301.0529785156</ele>
        <time>2011-07-09T12:25:06Z</time>
      </trkpt>
      <trkpt lat="45.35159" lon="6.65451">
        <ele>2302.0141601562</ele>
        <time>2011-07-09T12:25:14Z</time>
      </trkpt>
      <trkpt lat="45.35152" lon="6.65448">
        <ele>2302.9755859375</ele>
        <time>2011-07-09T12:25:21Z</time>
      </trkpt>
      <trkpt lat="45.3515" lon="6.65447">
        <ele>2304.4174804688</ele>
        <time>2011-07-09T12:25:28Z</time>
      </trkpt>
      <trkpt lat="45.35148" lon="6.65445">
        <ele>2305.37890625</ele>
        <time>2011-07-09T12:25:34Z</time>
      </trkpt>
      <trkpt lat="45.35148" lon="6.65445">
        <ele>2305.859375</ele>
        <time>2011-07-09T12:25:40Z</time>
      </trkpt>
      <trkpt lat="45.35149" lon="6.65444">
        <ele>2308.2626953125</ele>
        <time>2011-07-09T12:25:51Z</time>
      </trkpt>
      <trkpt lat="45.35152" lon="6.65444">
        <ele>2313.0693359375</ele>
        <time>2011-07-09T12:25:59Z</time>
      </trkpt>
      <trkpt lat="45.35153" lon="6.65443">
        <ele>2314.5112304688</ele>
        <time>2011-07-09T12:26:03Z</time>
      </trkpt>
      <trkpt lat="45.35155" lon="6.65442">
        <ele>2317.3952636719</ele>
        <time>2011-07-09T12:26:15Z</time>
      </trkpt>
      <trkpt lat="45.35152" lon="6.65442">
        <ele>2312.5886230469</ele>
        <time>2011-07-09T12:26:24Z</time>
      </trkpt>
      <trkpt lat="45.3515" lon="6.65443">
        <ele>2310.666015625</ele>
        <time>2011-07-09T12:26:38Z</time>
      </trkpt>
      <trkpt lat="45.35149" lon="6.65443">
        <ele>2310.1853027344</ele>
        <time>2011-07-09T12:26:45Z</time>
      </trkpt>
      <trkpt lat="45.35148" lon="6.65445">
        <ele>2309.2241210938</ele>
        <time>2011-07-09T12:27:07Z</time>
      </trkpt>
      <trkpt lat="45.35145" lon="6.65444">
        <ele>2308.7434082031</ele>
        <time>2011-07-09T12:27:13Z</time>
      </trkpt>
      <trkpt lat="45.35139" lon="6.6544">
        <ele>2309.7045898438</ele>
        <time>2011-07-09T12:27:19Z</time>
      </trkpt>
      <trkpt lat="45.35138" lon="6.65439">
        <ele>2309.2241210938</ele>
        <time>2011-07-09T12:27:23Z</time>
      </trkpt>
      <trkpt lat="45.35137" lon="6.65438">
        <ele>2309.2241210938</ele>
        <time>2011-07-09T12:27:24Z</time>
      </trkpt>
      <trkpt lat="45.35134" lon="6.65436">
        <ele>2308.7434082031</ele>
        <time>2011-07-09T12:27:30Z</time>
      </trkpt>
      <trkpt lat="45.3513" lon="6.65432">
        <ele>2308.2626953125</ele>
        <time>2011-07-09T12:27:34Z</time>
      </trkpt>
      <trkpt lat="45.35118" lon="6.65422">
        <ele>2308.2626953125</ele>
        <time>2011-07-09T12:27:38Z</time>
      </trkpt>
      <trkpt lat="45.35114" lon="6.65418">
        <ele>2308.2626953125</ele>
        <time>2011-07-09T12:27:40Z</time>
      </trkpt>
      <trkpt lat="45.35101" lon="6.65418">
        <ele>2307.7822265625</ele>
        <time>2011-07-09T12:27:45Z</time>
      </trkpt>
      <trkpt lat="45.35096" lon="6.65415">
        <ele>2306.8208007812</ele>
        <time>2011-07-09T12:27:47Z</time>
      </trkpt>
      <trkpt lat="45.35088" lon="6.65406">
        <ele>2305.859375</ele>
        <time>2011-07-09T12:27:52Z</time>
      </trkpt>
      <trkpt lat="45.35088" lon="6.65405">
        <ele>2306.3400878906</ele>
        <time>2011-07-09T12:27:56Z</time>
      </trkpt>
      <trkpt lat="45.35089" lon="6.65402">
        <ele>2305.37890625</ele>
        <time>2011-07-09T12:28:02Z</time>
      </trkpt>
      <trkpt lat="45.3509" lon="6.65401">
        <ele>2304.8981933594</ele>
        <time>2011-07-09T12:28:10Z</time>
      </trkpt>
      <trkpt lat="45.35084" lon="6.65395">
        <ele>2304.4174804688</ele>
        <time>2011-07-09T12:28:18Z</time>
      </trkpt>
      <trkpt lat="45.35079" lon="6.65394">
        <ele>2302.9755859375</ele>
        <time>2011-07-09T12:28:24Z</time>
      </trkpt>
      <trkpt lat="45.35073" lon="6.65391">
        <ele>2301.0529785156</ele>
        <time>2011-07-09T12:28:32Z</time>
      </trkpt>
      <trkpt lat="45.35069" lon="6.65389">
        <ele>2299.6108398438</ele>
        <time>2011-07-09T12:28:38Z</time>
      </trkpt>
      <trkpt lat="45.35064" lon="6.65387">
        <ele>2298.1687011719</ele>
        <time>2011-07-09T12:28:44Z</time>
      </trkpt>
      <trkpt lat="45.35059" lon="6.65383">
        <ele>2297.2075195312</ele>
        <time>2011-07-09T12:28:52Z</time>
      </trkpt>
      <trkpt lat="45.35057" lon="6.65383">
        <ele>2297.2075195312</ele>
        <time>2011-07-09T12:28:59Z</time>
      </trkpt>
      <trkpt lat="45.35057" lon="6.65383">
        <ele>2297.6882324219</ele>
        <time>2011-07-09T12:29:06Z</time>
      </trkpt>
      <trkpt lat="45.35065" lon="6.65377">
        <ele>2308.7434082031</ele>
        <time>2011-07-09T12:29:27Z</time>
      </trkpt>
      <trkpt lat="45.35059" lon="6.6538">
        <ele>2302.4948730469</ele>
        <time>2011-07-09T12:30:19Z</time>
      </trkpt>
      <trkpt lat="45.35059" lon="6.6538">
        <ele>2301.5336914062</ele>
        <time>2011-07-09T12:30:26Z</time>
      </trkpt>
      <trkpt lat="45.35059" lon="6.6538">
        <ele>2301.5336914062</ele>
        <time>2011-07-09T12:30:33Z</time>
      </trkpt>
      <trkpt lat="45.35058" lon="6.6538">
        <ele>2301.5336914062</ele>
        <time>2011-07-09T12:30:43Z</time>
      </trkpt>
      <trkpt lat="45.35057" lon="6.6538">
        <ele>2300.572265625</ele>
        <time>2011-07-09T12:31:01Z</time>
      </trkpt>
      <trkpt lat="45.35056" lon="6.65378">
        <ele>2301.0529785156</ele>
        <time>2011-07-09T12:31:17Z</time>
      </trkpt>
      <trkpt lat="45.35046" lon="6.65367">
        <ele>2299.6108398438</ele>
        <time>2011-07-09T12:31:21Z</time>
      </trkpt>
      <trkpt lat="45.35033" lon="6.65353">
        <ele>2298.1687011719</ele>
        <time>2011-07-09T12:31:25Z</time>
      </trkpt>
      <trkpt lat="45.35027" lon="6.65343">
        <ele>2298.1687011719</ele>
        <time>2011-07-09T12:31:29Z</time>
      </trkpt>
      <trkpt lat="45.35022" lon="6.65333">
        <ele>2298.1687011719</ele>
        <time>2011-07-09T12:31:35Z</time>
      </trkpt>
      <trkpt lat="45.35015" lon="6.65322">
        <ele>2297.6882324219</ele>
        <time>2011-07-09T12:31:40Z</time>
      </trkpt>
      <trkpt lat="45.35008" lon="6.65314">
        <ele>2298.1687011719</ele>
        <time>2011-07-09T12:31:45Z</time>
      </trkpt>
      <trkpt lat="45.35005" lon="6.65309">
        <ele>2298.1687011719</ele>
        <time>2011-07-09T12:31:48Z</time>
      </trkpt>
      <trkpt lat="45.35001" lon="6.65301">
        <ele>2298.1687011719</ele>
        <time>2011-07-09T12:31:52Z</time>
      </trkpt>
      <trkpt lat="45.34993" lon="6.6529">
        <ele>2298.1687011719</ele>
        <time>2011-07-09T12:31:59Z</time>
      </trkpt>
      <trkpt lat="45.34986" lon="6.6528">
        <ele>2297.6882324219</ele>
        <time>2011-07-09T12:32:04Z</time>
      </trkpt>
      <trkpt lat="45.3498" lon="6.6527">
        <ele>2298.1687011719</ele>
        <time>2011-07-09T12:32:08Z</time>
      </trkpt>
      <trkpt lat="45.3498" lon="6.65269">
        <ele>2298.6494140625</ele>
        <time>2011-07-09T12:32:17Z</time>
      </trkpt>
      <trkpt lat="45.34979" lon="6.6527">
        <ele>2298.1687011719</ele>
        <time>2011-07-09T12:32:39Z</time>
      </trkpt>
      <trkpt lat="45.34979" lon="6.6527">
        <ele>2298.1687011719</ele>
        <time>2011-07-09T12:32:44Z</time>
      </trkpt>
      <trkpt lat="45.34978" lon="6.65269">
        <ele>2298.1687011719</ele>
        <time>2011-07-09T12:32:55Z</time>
      </trkpt>
      <trkpt lat="45.34977" lon="6.65264">
        <ele>2298.6494140625</ele>
        <time>2011-07-09T12:33:00Z</time>
      </trkpt>
      <trkpt lat="45.34972" lon="6.65258">
        <ele>2299.1301269531</ele>
        <time>2011-07-09T12:33:07Z</time>
      </trkpt>
      <trkpt lat="45.3497" lon="6.65254">
        <ele>2298.6494140625</ele>
        <time>2011-07-09T12:33:17Z</time>
      </trkpt>
      <trkpt lat="45.34963" lon="6.65243">
        <ele>2300.572265625</ele>
        <time>2011-07-09T12:33:25Z</time>
      </trkpt>
      <trkpt lat="45.34958" lon="6.65237">
        <ele>2301.5336914062</ele>
        <time>2011-07-09T12:33:31Z</time>
      </trkpt>
      <trkpt lat="45.34954" lon="6.6523">
        <ele>2302.4948730469</ele>
        <time>2011-07-09T12:33:37Z</time>
      </trkpt>
      <trkpt lat="45.34954" lon="6.65229">
        <ele>2302.4948730469</ele>
        <time>2011-07-09T12:33:43Z</time>
      </trkpt>
      <trkpt lat="45.34954" lon="6.65229">
        <ele>2302.0141601562</ele>
        <time>2011-07-09T12:33:49Z</time>
      </trkpt>
      <trkpt lat="45.34954" lon="6.65227">
        <ele>2302.0141601562</ele>
        <time>2011-07-09T12:33:56Z</time>
      </trkpt>
      <trkpt lat="45.34955" lon="6.65225">
        <ele>2302.0141601562</ele>
        <time>2011-07-09T12:34:04Z</time>
      </trkpt>
      <trkpt lat="45.34954" lon="6.65225">
        <ele>2303.9370117188</ele>
        <time>2011-07-09T12:34:10Z</time>
      </trkpt>
      <trkpt lat="45.34954" lon="6.65225">
        <ele>2303.4562988281</ele>
        <time>2011-07-09T12:34:17Z</time>
      </trkpt>
      <trkpt lat="45.34955" lon="6.65224">
        <ele>2303.9370117188</ele>
        <time>2011-07-09T12:34:20Z</time>
      </trkpt>
      <trkpt lat="45.34955" lon="6.65224">
        <ele>2303.4562988281</ele>
        <time>2011-07-09T12:34:22Z</time>
      </trkpt>
      <trkpt lat="45.34955" lon="6.65224">
        <ele>2302.9755859375</ele>
        <time>2011-07-09T12:34:24Z</time>
      </trkpt>
      <trkpt lat="45.34954" lon="6.65224">
        <ele>2302.9755859375</ele>
        <time>2011-07-09T12:34:25Z</time>
      </trkpt>
      <trkpt lat="45.34954" lon="6.6522">
        <ele>2304.4174804688</ele>
        <time>2011-07-09T12:34:30Z</time>
      </trkpt>
      <trkpt lat="45.34953" lon="6.65218">
        <ele>2303.9370117188</ele>
        <time>2011-07-09T12:34:32Z</time>
      </trkpt>
      <trkpt lat="45.34951" lon="6.65213">
        <ele>2303.4562988281</ele>
        <time>2011-07-09T12:34:36Z</time>
      </trkpt>
      <trkpt lat="45.34954" lon="6.65211">
        <ele>2302.0141601562</ele>
        <time>2011-07-09T12:34:40Z</time>
      </trkpt>
      <trkpt lat="45.34955" lon="6.65211">
        <ele>2302.0141601562</ele>
        <time>2011-07-09T12:34:41Z</time>
      </trkpt>
      <trkpt lat="45.34963" lon="6.65214">
        <ele>2300.572265625</ele>
        <time>2011-07-09T12:34:48Z</time>
      </trkpt>
      <trkpt lat="45.34973" lon="6.65206">
        <ele>2300.091796875</ele>
        <time>2011-07-09T12:34:57Z</time>
      </trkpt>
      <trkpt lat="45.34983" lon="6.65201">
        <ele>2299.6108398438</ele>
        <time>2011-07-09T12:35:05Z</time>
      </trkpt>
      <trkpt lat="45.34992" lon="6.65196">
        <ele>2298.6494140625</ele>
        <time>2011-07-09T12:35:13Z</time>
      </trkpt>
      <trkpt lat="45.34996" lon="6.65196">
        <ele>2298.1687011719</ele>
        <time>2011-07-09T12:35:19Z</time>
      </trkpt>
      <trkpt lat="45.35001" lon="6.65199">
        <ele>2296.7268066406</ele>
        <time>2011-07-09T12:35:25Z</time>
      </trkpt>
      <trkpt lat="45.35004" lon="6.65201">
        <ele>2296.2463378906</ele>
        <time>2011-07-09T12:35:28Z</time>
      </trkpt>
      <trkpt lat="45.35009" lon="6.65194">
        <ele>2294.8041992188</ele>
        <time>2011-07-09T12:35:34Z</time>
      </trkpt>
      <trkpt lat="45.35011" lon="6.6519">
        <ele>2294.3234863281</ele>
        <time>2011-07-09T12:35:40Z</time>
      </trkpt>
      <trkpt lat="45.35012" lon="6.65186">
        <ele>2294.3234863281</ele>
        <time>2011-07-09T12:35:43Z</time>
      </trkpt>
      <trkpt lat="45.35019" lon="6.65186">
        <ele>2294.8041992188</ele>
        <time>2011-07-09T12:35:48Z</time>
      </trkpt>
      <trkpt lat="45.35023" lon="6.65186">
        <ele>2294.8041992188</ele>
        <time>2011-07-09T12:35:51Z</time>
      </trkpt>
      <trkpt lat="45.35027" lon="6.65187">
        <ele>2294.8041992188</ele>
        <time>2011-07-09T12:35:54Z</time>
      </trkpt>
      <trkpt lat="45.35029" lon="6.65187">
        <ele>2294.3234863281</ele>
        <time>2011-07-09T12:36:00Z</time>
      </trkpt>
      <trkpt lat="45.35033" lon="6.65188">
        <ele>2293.8430175781</ele>
        <time>2011-07-09T12:36:05Z</time>
      </trkpt>
      <trkpt lat="45.35039" lon="6.65191">
        <ele>2293.8430175781</ele>
        <time>2011-07-09T12:36:11Z</time>
      </trkpt>
      <trkpt lat="45.35041" lon="6.65192">
        <ele>2292.8815917969</ele>
        <time>2011-07-09T12:36:20Z</time>
      </trkpt>
      <trkpt lat="45.35043" lon="6.65192">
        <ele>2294.3234863281</ele>
        <time>2011-07-09T12:36:26Z</time>
      </trkpt>
      <trkpt lat="45.35047" lon="6.65186">
        <ele>2290.4782714844</ele>
        <time>2011-07-09T12:36:37Z</time>
      </trkpt>
      <trkpt lat="45.35052" lon="6.65187">
        <ele>2293.8430175781</ele>
        <time>2011-07-09T12:36:45Z</time>
      </trkpt>
      <trkpt lat="45.35055" lon="6.65187">
        <ele>2295.2849121094</ele>
        <time>2011-07-09T12:36:50Z</time>
      </trkpt>
      <trkpt lat="45.35057" lon="6.65194">
        <ele>2298.1687011719</ele>
        <time>2011-07-09T12:36:56Z</time>
      </trkpt>
      <trkpt lat="45.35054" lon="6.65201">
        <ele>2300.572265625</ele>
        <time>2011-07-09T12:37:04Z</time>
      </trkpt>
      <trkpt lat="45.35057" lon="6.65203">
        <ele>2302.9755859375</ele>
        <time>2011-07-09T12:37:11Z</time>
      </trkpt>
      <trkpt lat="45.3506" lon="6.65204">
        <ele>2303.4562988281</ele>
        <time>2011-07-09T12:37:18Z</time>
      </trkpt>
      <trkpt lat="45.35065" lon="6.65205">
        <ele>2304.4174804688</ele>
        <time>2011-07-09T12:37:26Z</time>
      </trkpt>
      <trkpt lat="45.3507" lon="6.65208">
        <ele>2304.4174804688</ele>
        <time>2011-07-09T12:37:35Z</time>
      </trkpt>
      <trkpt lat="45.35077" lon="6.65213">
        <ele>2305.859375</ele>
        <time>2011-07-09T12:37:43Z</time>
      </trkpt>
      <trkpt lat="45.35081" lon="6.65215">
        <ele>2307.3015136719</ele>
        <time>2011-07-09T12:37:49Z</time>
      </trkpt>
      <trkpt lat="45.35082" lon="6.65214">
        <ele>2308.2626953125</ele>
        <time>2011-07-09T12:37:59Z</time>
      </trkpt>
      <trkpt lat="45.35081" lon="6.65214">
        <ele>2308.2626953125</ele>
        <time>2011-07-09T12:38:05Z</time>
      </trkpt>
      <trkpt lat="45.35084" lon="6.65211">
        <ele>2309.7045898438</ele>
        <time>2011-07-09T12:38:14Z</time>
      </trkpt>
      <trkpt lat="45.35088" lon="6.65213">
        <ele>2312.1079101562</ele>
        <time>2011-07-09T12:38:23Z</time>
      </trkpt>
      <trkpt lat="45.35093" lon="6.65217">
        <ele>2312.1079101562</ele>
        <time>2011-07-09T12:38:30Z</time>
      </trkpt>
      <trkpt lat="45.35096" lon="6.65222">
        <ele>2312.1079101562</ele>
        <time>2011-07-09T12:38:39Z</time>
      </trkpt>
      <trkpt lat="45.351" lon="6.65227">
        <ele>2308.7434082031</ele>
        <time>2011-07-09T12:38:47Z</time>
      </trkpt>
      <trkpt lat="45.35102" lon="6.65226">
        <ele>2313.5498046875</ele>
        <time>2011-07-09T12:39:01Z</time>
      </trkpt>
      <trkpt lat="45.35106" lon="6.65226">
        <ele>2314.9919433594</ele>
        <time>2011-07-09T12:39:15Z</time>
      </trkpt>
      <trkpt lat="45.35108" lon="6.6523">
        <ele>2314.5112304688</ele>
        <time>2011-07-09T12:39:21Z</time>
      </trkpt>
      <trkpt lat="45.35111" lon="6.65232">
        <ele>2314.5112304688</ele>
        <time>2011-07-09T12:39:27Z</time>
      </trkpt>
      <trkpt lat="45.35112" lon="6.65232">
        <ele>2313.0693359375</ele>
        <time>2011-07-09T12:39:31Z</time>
      </trkpt>
      <trkpt lat="45.35118" lon="6.65229">
        <ele>2314.5112304688</ele>
        <time>2011-07-09T12:39:39Z</time>
      </trkpt>
      <trkpt lat="45.35123" lon="6.65225">
        <ele>2318.3566894531</ele>
        <time>2011-07-09T12:39:46Z</time>
      </trkpt>
      <trkpt lat="45.35126" lon="6.65223">
        <ele>2316.4340820312</ele>
        <time>2011-07-09T12:39:52Z</time>
      </trkpt>
      <trkpt lat="45.3513" lon="6.65219">
        <ele>2316.4340820312</ele>
        <time>2011-07-09T12:39:59Z</time>
      </trkpt>
      <trkpt lat="45.35133" lon="6.65217">
        <ele>2316.9147949219</ele>
        <time>2011-07-09T12:40:06Z</time>
      </trkpt>
      <trkpt lat="45.35137" lon="6.65214">
        <ele>2316.4340820312</ele>
        <time>2011-07-09T12:40:14Z</time>
      </trkpt>
      <trkpt lat="45.35141" lon="6.65211">
        <ele>2317.8759765625</ele>
        <time>2011-07-09T12:40:23Z</time>
      </trkpt>
      <trkpt lat="45.35144" lon="6.65208">
        <ele>2316.9147949219</ele>
        <time>2011-07-09T12:40:30Z</time>
      </trkpt>
      <trkpt lat="45.35151" lon="6.65208">
        <ele>2317.8759765625</ele>
        <time>2011-07-09T12:40:38Z</time>
      </trkpt>
      <trkpt lat="45.35158" lon="6.65206">
        <ele>2317.3952636719</ele>
        <time>2011-07-09T12:40:45Z</time>
      </trkpt>
      <trkpt lat="45.35159" lon="6.65206">
        <ele>2316.9147949219</ele>
        <time>2011-07-09T12:40:46Z</time>
      </trkpt>
      <trkpt lat="45.35163" lon="6.65207">
        <ele>2316.9147949219</ele>
        <time>2011-07-09T12:40:50Z</time>
      </trkpt>
      <trkpt lat="45.35167" lon="6.65203">
        <ele>2316.9147949219</ele>
        <time>2011-07-09T12:40:54Z</time>
      </trkpt>
      <trkpt lat="45.35172" lon="6.65203">
        <ele>2316.9147949219</ele>
        <time>2011-07-09T12:41:01Z</time>
      </trkpt>
      <trkpt lat="45.35174" lon="6.65199">
        <ele>2314.9919433594</ele>
        <time>2011-07-09T12:41:11Z</time>
      </trkpt>
      <trkpt lat="45.35178" lon="6.65196">
        <ele>2311.6274414062</ele>
        <time>2011-07-09T12:41:16Z</time>
      </trkpt>
      <trkpt lat="45.35183" lon="6.65197">
        <ele>2309.7045898438</ele>
        <time>2011-07-09T12:41:21Z</time>
      </trkpt>
      <trkpt lat="45.35186" lon="6.65198">
        <ele>2313.5498046875</ele>
        <time>2011-07-09T12:41:28Z</time>
      </trkpt>
      <trkpt lat="45.3519" lon="6.65193">
        <ele>2316.4340820312</ele>
        <time>2011-07-09T12:41:35Z</time>
      </trkpt>
      <trkpt lat="45.35197" lon="6.65194">
        <ele>2316.9147949219</ele>
        <time>2011-07-09T12:41:40Z</time>
      </trkpt>
      <trkpt lat="45.35205" lon="6.65197">
        <ele>2316.4340820312</ele>
        <time>2011-07-09T12:41:47Z</time>
      </trkpt>
      <trkpt lat="45.35213" lon="6.65198">
        <ele>2317.8759765625</ele>
        <time>2011-07-09T12:41:56Z</time>
      </trkpt>
      <trkpt lat="45.35221" lon="6.65201">
        <ele>2319.3181152344</ele>
        <time>2011-07-09T12:42:04Z</time>
      </trkpt>
      <trkpt lat="45.35226" lon="6.65203">
        <ele>2319.3181152344</ele>
        <time>2011-07-09T12:42:11Z</time>
      </trkpt>
      <trkpt lat="45.35228" lon="6.65204">
        <ele>2318.8374023438</ele>
        <time>2011-07-09T12:42:18Z</time>
      </trkpt>
      <trkpt lat="45.35231" lon="6.65202">
        <ele>2322.2019042969</ele>
        <time>2011-07-09T12:42:27Z</time>
      </trkpt>
      <trkpt lat="45.35233" lon="6.65203">
        <ele>2322.2019042969</ele>
        <time>2011-07-09T12:42:34Z</time>
      </trkpt>
      <trkpt lat="45.35236" lon="6.65203">
        <ele>2323.1633300781</ele>
        <time>2011-07-09T12:42:39Z</time>
      </trkpt>
      <trkpt lat="45.35241" lon="6.65205">
        <ele>2321.7211914062</ele>
        <time>2011-07-09T12:42:47Z</time>
      </trkpt>
      <trkpt lat="45.35247" lon="6.65205">
        <ele>2320.7600097656</ele>
        <time>2011-07-09T12:42:56Z</time>
      </trkpt>
      <trkpt lat="45.35247" lon="6.65205">
        <ele>2318.8374023438</ele>
        <time>2011-07-09T12:43:06Z</time>
      </trkpt>
      <trkpt lat="45.35247" lon="6.65204">
        <ele>2319.7985839844</ele>
        <time>2011-07-09T12:43:14Z</time>
      </trkpt>
      <trkpt lat="45.35247" lon="6.65203">
        <ele>2320.279296875</ele>
        <time>2011-07-09T12:43:16Z</time>
      </trkpt>
      <trkpt lat="45.35247" lon="6.65203">
        <ele>2320.7600097656</ele>
        <time>2011-07-09T12:43:18Z</time>
      </trkpt>
      <trkpt lat="45.35247" lon="6.65204">
        <ele>2320.7600097656</ele>
        <time>2011-07-09T12:43:24Z</time>
      </trkpt>
      <trkpt lat="45.35247" lon="6.65204">
        <ele>2321.2404785156</ele>
        <time>2011-07-09T12:43:36Z</time>
      </trkpt>
      <trkpt lat="45.35247" lon="6.65204">
        <ele>2320.7600097656</ele>
        <time>2011-07-09T12:43:49Z</time>
      </trkpt>
      <trkpt lat="45.35247" lon="6.65204">
        <ele>2320.7600097656</ele>
        <time>2011-07-09T12:43:58Z</time>
      </trkpt>
      <trkpt lat="45.35249" lon="6.65205">
        <ele>2322.2019042969</ele>
        <time>2011-07-09T12:44:17Z</time>
      </trkpt>
      <trkpt lat="45.3525" lon="6.65205">
        <ele>2323.1633300781</ele>
        <time>2011-07-09T12:44:34Z</time>
      </trkpt>
      <trkpt lat="45.35251" lon="6.65204">
        <ele>2323.1633300781</ele>
        <time>2011-07-09T12:44:51Z</time>
      </trkpt>
      <trkpt lat="45.3525" lon="6.65203">
        <ele>2323.6437988281</ele>
        <time>2011-07-09T12:44:55Z</time>
      </trkpt>
      <trkpt lat="45.35255" lon="6.65205">
        <ele>2323.1633300781</ele>
        <time>2011-07-09T12:45:01Z</time>
      </trkpt>
      <trkpt lat="45.35263" lon="6.65209">
        <ele>2323.6437988281</ele>
        <time>2011-07-09T12:45:11Z</time>
      </trkpt>
      <trkpt lat="45.35267" lon="6.65212">
        <ele>2324.1245117188</ele>
        <time>2011-07-09T12:45:16Z</time>
      </trkpt>
      <trkpt lat="45.35269" lon="6.65209">
        <ele>2324.1245117188</ele>
        <time>2011-07-09T12:45:20Z</time>
      </trkpt>
      <trkpt lat="45.35269" lon="6.65208">
        <ele>2324.1245117188</ele>
        <time>2011-07-09T12:45:25Z</time>
      </trkpt>
      <trkpt lat="45.3527" lon="6.65205">
        <ele>2324.1245117188</ele>
        <time>2011-07-09T12:45:34Z</time>
      </trkpt>
      <trkpt lat="45.3527" lon="6.65205">
        <ele>2324.6052246094</ele>
        <time>2011-07-09T12:45:47Z</time>
      </trkpt>
      <trkpt lat="45.35271" lon="6.65203">
        <ele>2324.6052246094</ele>
        <time>2011-07-09T12:45:55Z</time>
      </trkpt>
      <trkpt lat="45.35273" lon="6.65197">
        <ele>2325.0856933594</ele>
        <time>2011-07-09T12:46:00Z</time>
      </trkpt>
      <trkpt lat="45.35276" lon="6.65194">
        <ele>2325.0856933594</ele>
        <time>2011-07-09T12:46:06Z</time>
      </trkpt>
      <trkpt lat="45.35282" lon="6.65191">
        <ele>2326.5278320312</ele>
        <time>2011-07-09T12:46:13Z</time>
      </trkpt>
      <trkpt lat="45.35288" lon="6.65187">
        <ele>2327.4890136719</ele>
        <time>2011-07-09T12:46:22Z</time>
      </trkpt>
      <trkpt lat="45.35292" lon="6.65184">
        <ele>2327.9697265625</ele>
        <time>2011-07-09T12:46:28Z</time>
      </trkpt>
      <trkpt lat="45.35292" lon="6.65184">
        <ele>2328.4504394531</ele>
        <time>2011-07-09T12:46:32Z</time>
      </trkpt>
      <trkpt lat="45.35292" lon="6.65184">
        <ele>2328.4504394531</ele>
        <time>2011-07-09T12:46:37Z</time>
      </trkpt>
      <trkpt lat="45.35292" lon="6.65184">
        <ele>2329.4116210938</ele>
        <time>2011-07-09T12:46:42Z</time>
      </trkpt>
      <trkpt lat="45.35295" lon="6.65183">
        <ele>2330.8537597656</ele>
        <time>2011-07-09T12:46:49Z</time>
      </trkpt>
      <trkpt lat="45.35299" lon="6.65179">
        <ele>2331.8149414062</ele>
        <time>2011-07-09T12:46:56Z</time>
      </trkpt>
      <trkpt lat="45.35302" lon="6.65176">
        <ele>2333.7377929688</ele>
        <time>2011-07-09T12:47:03Z</time>
      </trkpt>
      <trkpt lat="45.35306" lon="6.65178">
        <ele>2335.1796875</ele>
        <time>2011-07-09T12:47:10Z</time>
      </trkpt>
      <trkpt lat="45.35312" lon="6.65175">
        <ele>2336.1411132812</ele>
        <time>2011-07-09T12:47:19Z</time>
      </trkpt>
      <trkpt lat="45.35316" lon="6.65173">
        <ele>2337.1022949219</ele>
        <time>2011-07-09T12:47:26Z</time>
      </trkpt>
      <trkpt lat="45.35321" lon="6.65176">
        <ele>2338.0637207031</ele>
        <time>2011-07-09T12:47:34Z</time>
      </trkpt>
      <trkpt lat="45.35325" lon="6.65178">
        <ele>2339.0249023438</ele>
        <time>2011-07-09T12:47:41Z</time>
      </trkpt>
      <trkpt lat="45.35329" lon="6.6518">
        <ele>2340.466796875</ele>
        <time>2011-07-09T12:47:48Z</time>
      </trkpt>
      <trkpt lat="45.35332" lon="6.65186">
        <ele>2340.9475097656</ele>
        <time>2011-07-09T12:47:55Z</time>
      </trkpt>
      <trkpt lat="45.35336" lon="6.65193">
        <ele>2341.9089355469</ele>
        <time>2011-07-09T12:48:03Z</time>
      </trkpt>
      <trkpt lat="45.35336" lon="6.652">
        <ele>2342.8701171875</ele>
        <time>2011-07-09T12:48:12Z</time>
      </trkpt>
      <trkpt lat="45.35339" lon="6.65205">
        <ele>2342.3896484375</ele>
        <time>2011-07-09T12:48:19Z</time>
      </trkpt>
      <trkpt lat="45.3534" lon="6.65214">
        <ele>2341.9089355469</ele>
        <time>2011-07-09T12:48:26Z</time>
      </trkpt>
      <trkpt lat="45.35342" lon="6.65222">
        <ele>2341.4282226562</ele>
        <time>2011-07-09T12:48:35Z</time>
      </trkpt>
      <trkpt lat="45.35347" lon="6.65222">
        <ele>2343.3508300781</ele>
        <time>2011-07-09T12:48:44Z</time>
      </trkpt>
      <trkpt lat="45.35348" lon="6.65215">
        <ele>2345.2734375</ele>
        <time>2011-07-09T12:48:52Z</time>
      </trkpt>
      <trkpt lat="45.35349" lon="6.65213">
        <ele>2345.2734375</ele>
        <time>2011-07-09T12:48:58Z</time>
      </trkpt>
      <trkpt lat="45.35351" lon="6.65208">
        <ele>2347.1960449219</ele>
        <time>2011-07-09T12:49:04Z</time>
      </trkpt>
      <trkpt lat="45.35357" lon="6.65199">
        <ele>2352.9641113281</ele>
        <time>2011-07-09T12:49:13Z</time>
      </trkpt>
      <trkpt lat="45.3536" lon="6.65189">
        <ele>2356.8093261719</ele>
        <time>2011-07-09T12:49:21Z</time>
      </trkpt>
      <trkpt lat="45.35365" lon="6.6519">
        <ele>2356.8093261719</ele>
        <time>2011-07-09T12:49:27Z</time>
      </trkpt>
      <trkpt lat="45.35367" lon="6.65197">
        <ele>2355.8479003906</ele>
        <time>2011-07-09T12:49:35Z</time>
      </trkpt>
      <trkpt lat="45.35369" lon="6.65201">
        <ele>2353.9255371094</ele>
        <time>2011-07-09T12:49:42Z</time>
      </trkpt>
      <trkpt lat="45.35375" lon="6.65206">
        <ele>2354.4060058594</ele>
        <time>2011-07-09T12:49:50Z</time>
      </trkpt>
      <trkpt lat="45.35382" lon="6.65207">
        <ele>2357.2900390625</ele>
        <time>2011-07-09T12:49:58Z</time>
      </trkpt>
      <trkpt lat="45.35384" lon="6.65204">
        <ele>2357.2900390625</ele>
        <time>2011-07-09T12:50:05Z</time>
      </trkpt>
      <trkpt lat="45.35384" lon="6.65196">
        <ele>2359.6931152344</ele>
        <time>2011-07-09T12:50:12Z</time>
      </trkpt>
      <trkpt lat="45.35385" lon="6.65187">
        <ele>2362.5771484375</ele>
        <time>2011-07-09T12:50:20Z</time>
      </trkpt>
      <trkpt lat="45.35389" lon="6.65178">
        <ele>2366.9033203125</ele>
        <time>2011-07-09T12:50:27Z</time>
      </trkpt>
      <trkpt lat="45.35395" lon="6.65167">
        <ele>2375.07421875</ele>
        <time>2011-07-09T12:50:37Z</time>
      </trkpt>
      <trkpt lat="45.35397" lon="6.6516">
        <ele>2376.5163574219</ele>
        <time>2011-07-09T12:50:45Z</time>
      </trkpt>
      <trkpt lat="45.35398" lon="6.65164">
        <ele>2372.1904296875</ele>
        <time>2011-07-09T12:50:50Z</time>
      </trkpt>
      <trkpt lat="45.35399" lon="6.65173">
        <ele>2366.9033203125</ele>
        <time>2011-07-09T12:50:58Z</time>
      </trkpt>
      <trkpt lat="45.35402" lon="6.6518">
        <ele>2364.0192871094</ele>
        <time>2011-07-09T12:51:06Z</time>
      </trkpt>
      <trkpt lat="45.35405" lon="6.65188">
        <ele>2363.5383300781</ele>
        <time>2011-07-09T12:51:15Z</time>
      </trkpt>
      <trkpt lat="45.35408" lon="6.65192">
        <ele>2363.5383300781</ele>
        <time>2011-07-09T12:51:21Z</time>
      </trkpt>
      <trkpt lat="45.3541" lon="6.65191">
        <ele>2364.5</ele>
        <time>2011-07-09T12:51:28Z</time>
      </trkpt>
      <trkpt lat="45.35409" lon="6.65184">
        <ele>2364.9807128906</ele>
        <time>2011-07-09T12:51:35Z</time>
      </trkpt>
      <trkpt lat="45.35412" lon="6.65177">
        <ele>2367.3837890625</ele>
        <time>2011-07-09T12:51:42Z</time>
      </trkpt>
      <trkpt lat="45.35414" lon="6.65171">
        <ele>2369.306640625</ele>
        <time>2011-07-09T12:51:49Z</time>
      </trkpt>
      <trkpt lat="45.35413" lon="6.65164">
        <ele>2370.7485351562</ele>
        <time>2011-07-09T12:51:55Z</time>
      </trkpt>
      <trkpt lat="45.35416" lon="6.65156">
        <ele>2372.6711425781</ele>
        <time>2011-07-09T12:52:02Z</time>
      </trkpt>
      <trkpt lat="45.35416" lon="6.65149">
        <ele>2373.1518554688</ele>
        <time>2011-07-09T12:52:09Z</time>
      </trkpt>
      <trkpt lat="45.35418" lon="6.6514">
        <ele>2374.59375</ele>
        <time>2011-07-09T12:52:18Z</time>
      </trkpt>
      <trkpt lat="45.35418" lon="6.65131">
        <ele>2377.4775390625</ele>
        <time>2011-07-09T12:52:26Z</time>
      </trkpt>
      <trkpt lat="45.35419" lon="6.65128">
        <ele>2377.4775390625</ele>
        <time>2011-07-09T12:52:33Z</time>
      </trkpt>
      <trkpt lat="45.35421" lon="6.65138">
        <ele>2376.5163574219</ele>
        <time>2011-07-09T12:52:41Z</time>
      </trkpt>
      <trkpt lat="45.35421" lon="6.65145">
        <ele>2376.5163574219</ele>
        <time>2011-07-09T12:52:49Z</time>
      </trkpt>
      <trkpt lat="45.35421" lon="6.65146">
        <ele>2375.07421875</ele>
        <time>2011-07-09T12:52:55Z</time>
      </trkpt>
      <trkpt lat="45.35419" lon="6.65146">
        <ele>2374.1130371094</ele>
        <time>2011-07-09T12:52:59Z</time>
      </trkpt>
      <trkpt lat="45.35419" lon="6.65146">
        <ele>2373.6323242188</ele>
        <time>2011-07-09T12:53:00Z</time>
      </trkpt>
      <trkpt lat="45.35418" lon="6.65147">
        <ele>2371.2290039062</ele>
        <time>2011-07-09T12:53:16Z</time>
      </trkpt>
      <trkpt lat="45.35418" lon="6.65147">
        <ele>2370.2678222656</ele>
        <time>2011-07-09T12:53:31Z</time>
      </trkpt>
      <trkpt lat="45.35417" lon="6.65147">
        <ele>2369.306640625</ele>
        <time>2011-07-09T12:54:03Z</time>
      </trkpt>
      <trkpt lat="45.35417" lon="6.65147">
        <ele>2369.787109375</ele>
        <time>2011-07-09T12:54:04Z</time>
      </trkpt>
      <trkpt lat="45.35417" lon="6.65147">
        <ele>2369.306640625</ele>
        <time>2011-07-09T12:54:13Z</time>
      </trkpt>
      <trkpt lat="45.35417" lon="6.65146">
        <ele>2369.787109375</ele>
        <time>2011-07-09T12:54:23Z</time>
      </trkpt>
      <trkpt lat="45.35416" lon="6.65147">
        <ele>2369.787109375</ele>
        <time>2011-07-09T12:54:34Z</time>
      </trkpt>
      <trkpt lat="45.35416" lon="6.65146">
        <ele>2369.306640625</ele>
        <time>2011-07-09T12:54:48Z</time>
      </trkpt>
      <trkpt lat="45.35416" lon="6.65146">
        <ele>2369.306640625</ele>
        <time>2011-07-09T12:55:02Z</time>
      </trkpt>
      <trkpt lat="45.35416" lon="6.65147">
        <ele>2369.306640625</ele>
        <time>2011-07-09T12:56:11Z</time>
      </trkpt>
      <trkpt lat="45.35416" lon="6.65147">
        <ele>2369.306640625</ele>
        <time>2011-07-09T12:56:20Z</time>
      </trkpt>
      <trkpt lat="45.35416" lon="6.65147">
        <ele>2369.787109375</ele>
        <time>2011-07-09T12:56:39Z</time>
      </trkpt>
      <trkpt lat="45.35416" lon="6.65147">
        <ele>2369.787109375</ele>
        <time>2011-07-09T12:56:45Z</time>
      </trkpt>
      <trkpt lat="45.35416" lon="6.65147">
        <ele>2368.8259277344</ele>
        <time>2011-07-09T12:57:04Z</time>
      </trkpt>
      <trkpt lat="45.35416" lon="6.65147">
        <ele>2369.306640625</ele>
        <time>2011-07-09T12:57:10Z</time>
      </trkpt>
      <trkpt lat="45.35416" lon="6.65147">
        <ele>2369.306640625</ele>
        <time>2011-07-09T12:57:20Z</time>
      </trkpt>
      <trkpt lat="45.35417" lon="6.65147">
        <ele>2369.787109375</ele>
        <time>2011-07-09T12:57:46Z</time>
      </trkpt>
      <trkpt lat="45.35418" lon="6.65146">
        <ele>2369.306640625</ele>
        <time>2011-07-09T12:58:08Z</time>
      </trkpt>
      <trkpt lat="45.35418" lon="6.65146">
        <ele>2369.306640625</ele>
        <time>2011-07-09T12:58:13Z</time>
      </trkpt>
      <trkpt lat="45.35417" lon="6.65146">
        <ele>2367.8645019531</ele>
        <time>2011-07-09T12:58:29Z</time>
      </trkpt>
      <trkpt lat="45.35416" lon="6.65145">
        <ele>2369.306640625</ele>
        <time>2011-07-09T12:58:43Z</time>
      </trkpt>
      <trkpt lat="45.35416" lon="6.65145">
        <ele>2370.2678222656</ele>
        <time>2011-07-09T12:58:59Z</time>
      </trkpt>
      <trkpt lat="45.35416" lon="6.65145">
        <ele>2370.2678222656</ele>
        <time>2011-07-09T12:59:06Z</time>
      </trkpt>
      <trkpt lat="45.35416" lon="6.65145">
        <ele>2370.7485351562</ele>
        <time>2011-07-09T12:59:17Z</time>
      </trkpt>
      <trkpt lat="45.35416" lon="6.65145">
        <ele>2371.7097167969</ele>
        <time>2011-07-09T12:59:23Z</time>
      </trkpt>
      <trkpt lat="45.35418" lon="6.65147">
        <ele>2372.6711425781</ele>
        <time>2011-07-09T12:59:31Z</time>
      </trkpt>
      <trkpt lat="45.35419" lon="6.65146">
        <ele>2372.6711425781</ele>
        <time>2011-07-09T12:59:39Z</time>
      </trkpt>
      <trkpt lat="45.3542" lon="6.65141">
        <ele>2376.0356445312</ele>
        <time>2011-07-09T12:59:51Z</time>
      </trkpt>
      <trkpt lat="45.3542" lon="6.65131">
        <ele>2376.9970703125</ele>
        <time>2011-07-09T12:59:58Z</time>
      </trkpt>
      <trkpt lat="45.35422" lon="6.6512">
        <ele>2379.880859375</ele>
        <time>2011-07-09T13:00:07Z</time>
      </trkpt>
      <trkpt lat="45.35422" lon="6.65116">
        <ele>2381.3229980469</ele>
        <time>2011-07-09T13:00:11Z</time>
      </trkpt>
      <trkpt lat="45.35423" lon="6.65111">
        <ele>2382.7648925781</ele>
        <time>2011-07-09T13:00:16Z</time>
      </trkpt>
      <trkpt lat="45.35425" lon="6.65108">
        <ele>2386.6101074219</ele>
        <time>2011-07-09T13:00:20Z</time>
      </trkpt>
      <trkpt lat="45.35426" lon="6.65108">
        <ele>2388.0522460938</ele>
        <time>2011-07-09T13:00:26Z</time>
      </trkpt>
      <trkpt lat="45.35428" lon="6.65104">
        <ele>2389.0134277344</ele>
        <time>2011-07-09T13:00:32Z</time>
      </trkpt>
      <trkpt lat="45.35429" lon="6.65095">
        <ele>2387.5715332031</ele>
        <time>2011-07-09T13:00:41Z</time>
      </trkpt>
      <trkpt lat="45.35429" lon="6.65089">
        <ele>2387.0908203125</ele>
        <time>2011-07-09T13:00:49Z</time>
      </trkpt>
      <trkpt lat="45.35429" lon="6.65086">
        <ele>2386.6101074219</ele>
        <time>2011-07-09T13:00:53Z</time>
      </trkpt>
      <trkpt lat="45.35428" lon="6.65086">
        <ele>2383.7263183594</ele>
        <time>2011-07-09T13:01:01Z</time>
      </trkpt>
      <trkpt lat="45.35428" lon="6.65079">
        <ele>2384.20703125</ele>
        <time>2011-07-09T13:01:09Z</time>
      </trkpt>
      <trkpt lat="45.35429" lon="6.65074">
        <ele>2384.20703125</ele>
        <time>2011-07-09T13:01:16Z</time>
      </trkpt>
      <trkpt lat="45.35429" lon="6.65072">
        <ele>2384.6877441406</ele>
        <time>2011-07-09T13:01:19Z</time>
      </trkpt>
      <trkpt lat="45.35433" lon="6.6507">
        <ele>2388.0522460938</ele>
        <time>2011-07-09T13:01:27Z</time>
      </trkpt>
      <trkpt lat="45.35431" lon="6.6507">
        <ele>2385.6489257812</ele>
        <time>2011-07-09T13:01:37Z</time>
      </trkpt>
      <trkpt lat="45.35431" lon="6.6507">
        <ele>2384.20703125</ele>
        <time>2011-07-09T13:01:45Z</time>
      </trkpt>
      <trkpt lat="45.35429" lon="6.65067">
        <ele>2384.6877441406</ele>
        <time>2011-07-09T13:01:55Z</time>
      </trkpt>
      <trkpt lat="45.3543" lon="6.65064">
        <ele>2386.6101074219</ele>
        <time>2011-07-09T13:02:00Z</time>
      </trkpt>
      <trkpt lat="45.35431" lon="6.65059">
        <ele>2388.5329589844</ele>
        <time>2011-07-09T13:02:06Z</time>
      </trkpt>
      <trkpt lat="45.35434" lon="6.65061">
        <ele>2390.4553222656</ele>
        <time>2011-07-09T13:02:12Z</time>
      </trkpt>
      <trkpt lat="45.35436" lon="6.65061">
        <ele>2392.3781738281</ele>
        <time>2011-07-09T13:02:18Z</time>
      </trkpt>
      <trkpt lat="45.35439" lon="6.65056">
        <ele>2393.3393554688</ele>
        <time>2011-07-09T13:02:26Z</time>
      </trkpt>
      <trkpt lat="45.35439" lon="6.65056">
        <ele>2393.8200683594</ele>
        <time>2011-07-09T13:02:35Z</time>
      </trkpt>
      <trkpt lat="45.35439" lon="6.65057">
        <ele>2393.3393554688</ele>
        <time>2011-07-09T13:02:42Z</time>
      </trkpt>
      <trkpt lat="45.3544" lon="6.65063">
        <ele>2394.78125</ele>
        <time>2011-07-09T13:02:49Z</time>
      </trkpt>
      <trkpt lat="45.35442" lon="6.65071">
        <ele>2393.8200683594</ele>
        <time>2011-07-09T13:02:58Z</time>
      </trkpt>
      <trkpt lat="45.35443" lon="6.65079">
        <ele>2393.8200683594</ele>
        <time>2011-07-09T13:03:07Z</time>
      </trkpt>
      <trkpt lat="45.35445" lon="6.65088">
        <ele>2392.8586425781</ele>
        <time>2011-07-09T13:03:17Z</time>
      </trkpt>
      <trkpt lat="45.35448" lon="6.65097">
        <ele>2392.3781738281</ele>
        <time>2011-07-09T13:03:26Z</time>
      </trkpt>
      <trkpt lat="45.35451" lon="6.65108">
        <ele>2393.3393554688</ele>
        <time>2011-07-09T13:03:36Z</time>
      </trkpt>
      <trkpt lat="45.35452" lon="6.65116">
        <ele>2395.2619628906</ele>
        <time>2011-07-09T13:03:45Z</time>
      </trkpt>
      <trkpt lat="45.35455" lon="6.65125">
        <ele>2395.7426757812</ele>
        <time>2011-07-09T13:03:54Z</time>
      </trkpt>
      <trkpt lat="45.35457" lon="6.6513">
        <ele>2397.1848144531</ele>
        <time>2011-07-09T13:04:01Z</time>
      </trkpt>
      <trkpt lat="45.35458" lon="6.65136">
        <ele>2398.1459960938</ele>
        <time>2011-07-09T13:04:09Z</time>
      </trkpt>
      <trkpt lat="45.35461" lon="6.6514">
        <ele>2400.0688476562</ele>
        <time>2011-07-09T13:04:15Z</time>
      </trkpt>
      <trkpt lat="45.35463" lon="6.65147">
        <ele>2401.9912109375</ele>
        <time>2011-07-09T13:04:23Z</time>
      </trkpt>
      <trkpt lat="45.35463" lon="6.65155">
        <ele>2405.3559570312</ele>
        <time>2011-07-09T13:04:31Z</time>
      </trkpt>
      <trkpt lat="45.35463" lon="6.65162">
        <ele>2407.7592773438</ele>
        <time>2011-07-09T13:04:39Z</time>
      </trkpt>
      <trkpt lat="45.35464" lon="6.6517">
        <ele>2408.7204589844</ele>
        <time>2011-07-09T13:04:47Z</time>
      </trkpt>
      <trkpt lat="45.35466" lon="6.6517">
        <ele>2408.7204589844</ele>
        <time>2011-07-09T13:04:52Z</time>
      </trkpt>
      <trkpt lat="45.35467" lon="6.65171">
        <ele>2407.7592773438</ele>
        <time>2011-07-09T13:04:58Z</time>
      </trkpt>
      <trkpt lat="45.35466" lon="6.65173">
        <ele>2407.2785644531</ele>
        <time>2011-07-09T13:05:04Z</time>
      </trkpt>
      <trkpt lat="45.35466" lon="6.65174">
        <ele>2407.2785644531</ele>
        <time>2011-07-09T13:05:13Z</time>
      </trkpt>
      <trkpt lat="45.35465" lon="6.65174">
        <ele>2406.3171386719</ele>
        <time>2011-07-09T13:05:21Z</time>
      </trkpt>
      <trkpt lat="45.35465" lon="6.65175">
        <ele>2406.3171386719</ele>
        <time>2011-07-09T13:05:27Z</time>
      </trkpt>
      <trkpt lat="45.35466" lon="6.65175">
        <ele>2406.3171386719</ele>
        <time>2011-07-09T13:05:32Z</time>
      </trkpt>
      <trkpt lat="45.35466" lon="6.65176">
        <ele>2406.3171386719</ele>
        <time>2011-07-09T13:05:40Z</time>
      </trkpt>
      <trkpt lat="45.35467" lon="6.65175">
        <ele>2405.8364257812</ele>
        <time>2011-07-09T13:05:49Z</time>
      </trkpt>
      <trkpt lat="45.35466" lon="6.65175">
        <ele>2405.3559570312</ele>
        <time>2011-07-09T13:05:59Z</time>
      </trkpt>
      <trkpt lat="45.35467" lon="6.65177">
        <ele>2405.3559570312</ele>
        <time>2011-07-09T13:06:05Z</time>
      </trkpt>
      <trkpt lat="45.35468" lon="6.65183">
        <ele>2405.3559570312</ele>
        <time>2011-07-09T13:06:11Z</time>
      </trkpt>
      <trkpt lat="45.35468" lon="6.65183">
        <ele>2405.8364257812</ele>
        <time>2011-07-09T13:06:14Z</time>
      </trkpt>
      <trkpt lat="45.35468" lon="6.65184">
        <ele>2405.3559570312</ele>
        <time>2011-07-09T13:06:28Z</time>
      </trkpt>
      <trkpt lat="45.35468" lon="6.65184">
        <ele>2404.8752441406</ele>
        <time>2011-07-09T13:06:39Z</time>
      </trkpt>
      <trkpt lat="45.35468" lon="6.65184">
        <ele>2404.8752441406</ele>
        <time>2011-07-09T13:06:56Z</time>
      </trkpt>
      <trkpt lat="45.35468" lon="6.65183">
        <ele>2405.3559570312</ele>
        <time>2011-07-09T13:07:05Z</time>
      </trkpt>
      <trkpt lat="45.35468" lon="6.65184">
        <ele>2405.3559570312</ele>
        <time>2011-07-09T13:07:13Z</time>
      </trkpt>
      <trkpt lat="45.35468" lon="6.65184">
        <ele>2405.3559570312</ele>
        <time>2011-07-09T13:07:27Z</time>
      </trkpt>
      <trkpt lat="45.35471" lon="6.6519">
        <ele>2405.8364257812</ele>
        <time>2011-07-09T13:07:33Z</time>
      </trkpt>
      <trkpt lat="45.35477" lon="6.65198">
        <ele>2406.3171386719</ele>
        <time>2011-07-09T13:07:40Z</time>
      </trkpt>
      <trkpt lat="45.35477" lon="6.65198">
        <ele>2406.7978515625</ele>
        <time>2011-07-09T13:07:46Z</time>
      </trkpt>
      <trkpt lat="45.35478" lon="6.65198">
        <ele>2407.2785644531</ele>
        <time>2011-07-09T13:07:53Z</time>
      </trkpt>
      <trkpt lat="45.35478" lon="6.65198">
        <ele>2406.7978515625</ele>
        <time>2011-07-09T13:08:00Z</time>
      </trkpt>
      <trkpt lat="45.35478" lon="6.65196">
        <ele>2406.3171386719</ele>
        <time>2011-07-09T13:08:10Z</time>
      </trkpt>
      <trkpt lat="45.35478" lon="6.65196">
        <ele>2405.8364257812</ele>
        <time>2011-07-09T13:08:17Z</time>
      </trkpt>
      <trkpt lat="45.35477" lon="6.65196">
        <ele>2405.8364257812</ele>
        <time>2011-07-09T13:08:23Z</time>
      </trkpt>
      <trkpt lat="45.35477" lon="6.65196">
        <ele>2405.3559570312</ele>
        <time>2011-07-09T13:08:30Z</time>
      </trkpt>
      <trkpt lat="45.35477" lon="6.65196">
        <ele>2405.3559570312</ele>
        <time>2011-07-09T13:08:39Z</time>
      </trkpt>
      <trkpt lat="45.35478" lon="6.65198">
        <ele>2405.8364257812</ele>
        <time>2011-07-09T13:08:47Z</time>
      </trkpt>
      <trkpt lat="45.35478" lon="6.65199">
        <ele>2405.8364257812</ele>
        <time>2011-07-09T13:08:53Z</time>
      </trkpt>
      <trkpt lat="45.35479" lon="6.65199">
        <ele>2407.2785644531</ele>
        <time>2011-07-09T13:09:01Z</time>
      </trkpt>
      <trkpt lat="45.35479" lon="6.65199">
        <ele>2408.2397460938</ele>
        <time>2011-07-09T13:09:08Z</time>
      </trkpt>
      <trkpt lat="45.35478" lon="6.65198">
        <ele>2407.7592773438</ele>
        <time>2011-07-09T13:09:19Z</time>
      </trkpt>
      <trkpt lat="45.35477" lon="6.65197">
        <ele>2407.2785644531</ele>
        <time>2011-07-09T13:09:33Z</time>
      </trkpt>
      <trkpt lat="45.35476" lon="6.65197">
        <ele>2407.7592773438</ele>
        <time>2011-07-09T13:09:45Z</time>
      </trkpt>
      <trkpt lat="45.35476" lon="6.65197">
        <ele>2409.201171875</ele>
        <time>2011-07-09T13:10:12Z</time>
      </trkpt>
      <trkpt lat="45.35478" lon="6.65198">
        <ele>2412.5659179688</ele>
        <time>2011-07-09T13:10:26Z</time>
      </trkpt>
      <trkpt lat="45.35479" lon="6.65199">
        <ele>2412.5659179688</ele>
        <time>2011-07-09T13:10:35Z</time>
      </trkpt>
      <trkpt lat="45.35479" lon="6.652">
        <ele>2412.0852050781</ele>
        <time>2011-07-09T13:10:51Z</time>
      </trkpt>
      <trkpt lat="45.35481" lon="6.652">
        <ele>2412.0852050781</ele>
        <time>2011-07-09T13:11:06Z</time>
      </trkpt>
      <trkpt lat="45.35481" lon="6.652">
        <ele>2412.5659179688</ele>
        <time>2011-07-09T13:11:25Z</time>
      </trkpt>
      <trkpt lat="45.35482" lon="6.65202">
        <ele>2413.0466308594</ele>
        <time>2011-07-09T13:11:48Z</time>
      </trkpt>
      <trkpt lat="45.3548" lon="6.65201">
        <ele>2412.5659179688</ele>
        <time>2011-07-09T13:11:53Z</time>
      </trkpt>
      <trkpt lat="45.35482" lon="6.65203">
        <ele>2412.5659179688</ele>
        <time>2011-07-09T13:11:57Z</time>
      </trkpt>
      <trkpt lat="45.35485" lon="6.65206">
        <ele>2413.0466308594</ele>
        <time>2011-07-09T13:12:02Z</time>
      </trkpt>
      <trkpt lat="45.3549" lon="6.65208">
        <ele>2414.0078125</ele>
        <time>2011-07-09T13:12:08Z</time>
      </trkpt>
      <trkpt lat="45.35493" lon="6.65208">
        <ele>2414.0078125</ele>
        <time>2011-07-09T13:12:12Z</time>
      </trkpt>
      <trkpt lat="45.35496" lon="6.65207">
        <ele>2413.5270996094</ele>
        <time>2011-07-09T13:12:15Z</time>
      </trkpt>
      <trkpt lat="45.35502" lon="6.65205">
        <ele>2414.9692382812</ele>
        <time>2011-07-09T13:12:22Z</time>
      </trkpt>
      <trkpt lat="45.35509" lon="6.65196">
        <ele>2413.0466308594</ele>
        <time>2011-07-09T13:12:31Z</time>
      </trkpt>
      <trkpt lat="45.35514" lon="6.65194">
        <ele>2413.0466308594</ele>
        <time>2011-07-09T13:12:36Z</time>
      </trkpt>
      <trkpt lat="45.35518" lon="6.65187">
        <ele>2411.1237792969</ele>
        <time>2011-07-09T13:12:46Z</time>
      </trkpt>
      <trkpt lat="45.3552" lon="6.65183">
        <ele>2409.681640625</ele>
        <time>2011-07-09T13:12:53Z</time>
      </trkpt>
      <trkpt lat="45.3552" lon="6.65183">
        <ele>2410.6430664062</ele>
        <time>2011-07-09T13:13:01Z</time>
      </trkpt>
      <trkpt lat="45.35519" lon="6.65183">
        <ele>2411.1237792969</ele>
        <time>2011-07-09T13:13:06Z</time>
      </trkpt>
      <trkpt lat="45.35519" lon="6.65183">
        <ele>2410.6430664062</ele>
        <time>2011-07-09T13:13:11Z</time>
      </trkpt>
      <trkpt lat="45.35523" lon="6.6518">
        <ele>2409.201171875</ele>
        <time>2011-07-09T13:13:19Z</time>
      </trkpt>
      <trkpt lat="45.35532" lon="6.65185">
        <ele>2407.7592773438</ele>
        <time>2011-07-09T13:13:26Z</time>
      </trkpt>
      <trkpt lat="45.35536" lon="6.65186">
        <ele>2406.7978515625</ele>
        <time>2011-07-09T13:13:30Z</time>
      </trkpt>
      <trkpt lat="45.35544" lon="6.65188">
        <ele>2407.2785644531</ele>
        <time>2011-07-09T13:13:38Z</time>
      </trkpt>
      <trkpt lat="45.35552" lon="6.65192">
        <ele>2408.7204589844</ele>
        <time>2011-07-09T13:13:47Z</time>
      </trkpt>
      <trkpt lat="45.35561" lon="6.65197">
        <ele>2409.201171875</ele>
        <time>2011-07-09T13:13:55Z</time>
      </trkpt>
      <trkpt lat="45.35566" lon="6.652">
        <ele>2410.6430664062</ele>
        <time>2011-07-09T13:14:01Z</time>
      </trkpt>
      <trkpt lat="45.35569" lon="6.65204">
        <ele>2411.6044921875</ele>
        <time>2011-07-09T13:14:08Z</time>
      </trkpt>
      <trkpt lat="45.35571" lon="6.65203">
        <ele>2409.681640625</ele>
        <time>2011-07-09T13:14:18Z</time>
      </trkpt>
      <trkpt lat="45.35573" lon="6.65206">
        <ele>2411.1237792969</ele>
        <time>2011-07-09T13:14:31Z</time>
      </trkpt>
      <trkpt lat="45.35578" lon="6.65212">
        <ele>2412.0852050781</ele>
        <time>2011-07-09T13:14:38Z</time>
      </trkpt>
      <trkpt lat="45.35584" lon="6.65217">
        <ele>2412.0852050781</ele>
        <time>2011-07-09T13:14:44Z</time>
      </trkpt>
      <trkpt lat="45.35588" lon="6.65219">
        <ele>2413.0466308594</ele>
        <time>2011-07-09T13:14:48Z</time>
      </trkpt>
      <trkpt lat="45.35596" lon="6.65227">
        <ele>2413.5270996094</ele>
        <time>2011-07-09T13:14:58Z</time>
      </trkpt>
      <trkpt lat="45.35603" lon="6.65235">
        <ele>2413.5270996094</ele>
        <time>2011-07-09T13:15:07Z</time>
      </trkpt>
      <trkpt lat="45.35612" lon="6.65244">
        <ele>2414.9692382812</ele>
        <time>2011-07-09T13:15:17Z</time>
      </trkpt>
      <trkpt lat="45.35619" lon="6.65255">
        <ele>2415.9304199219</ele>
        <time>2011-07-09T13:15:26Z</time>
      </trkpt>
      <trkpt lat="45.35628" lon="6.65265">
        <ele>2415.4499511719</ele>
        <time>2011-07-09T13:15:36Z</time>
      </trkpt>
      <trkpt lat="45.35635" lon="6.65273">
        <ele>2415.9304199219</ele>
        <time>2011-07-09T13:15:45Z</time>
      </trkpt>
      <trkpt lat="45.3564" lon="6.65279">
        <ele>2414.9692382812</ele>
        <time>2011-07-09T13:15:51Z</time>
      </trkpt>
      <trkpt lat="45.3565" lon="6.65284">
        <ele>2416.8918457031</ele>
        <time>2011-07-09T13:15:59Z</time>
      </trkpt>
      <trkpt lat="45.35651" lon="6.65283">
        <ele>2416.8918457031</ele>
        <time>2011-07-09T13:16:00Z</time>
      </trkpt>
      <trkpt lat="45.35655" lon="6.6528">
        <ele>2417.3723144531</ele>
        <time>2011-07-09T13:16:07Z</time>
      </trkpt>
      <trkpt lat="45.35655" lon="6.65279">
        <ele>2415.4499511719</ele>
        <time>2011-07-09T13:16:13Z</time>
      </trkpt>
      <trkpt lat="45.35655" lon="6.65279">
        <ele>2415.4499511719</ele>
        <time>2011-07-09T13:16:19Z</time>
      </trkpt>
      <trkpt lat="45.35654" lon="6.65277">
        <ele>2415.9304199219</ele>
        <time>2011-07-09T13:16:37Z</time>
      </trkpt>
      <trkpt lat="45.35654" lon="6.65278">
        <ele>2415.9304199219</ele>
        <time>2011-07-09T13:16:44Z</time>
      </trkpt>
      <trkpt lat="45.35654" lon="6.65278">
        <ele>2415.4499511719</ele>
        <time>2011-07-09T13:16:51Z</time>
      </trkpt>
      <trkpt lat="45.35654" lon="6.65278">
        <ele>2415.4499511719</ele>
        <time>2011-07-09T13:16:53Z</time>
      </trkpt>
      <trkpt lat="45.35652" lon="6.65277">
        <ele>2416.4111328125</ele>
        <time>2011-07-09T13:17:07Z</time>
      </trkpt>
      <trkpt lat="45.35653" lon="6.65276">
        <ele>2416.4111328125</ele>
        <time>2011-07-09T13:17:16Z</time>
      </trkpt>
      <trkpt lat="45.35653" lon="6.65275">
        <ele>2416.8918457031</ele>
        <time>2011-07-09T13:17:18Z</time>
      </trkpt>
      <trkpt lat="45.35653" lon="6.65275">
        <ele>2417.3723144531</ele>
        <time>2011-07-09T13:17:19Z</time>
      </trkpt>
      <trkpt lat="45.35657" lon="6.65277">
        <ele>2418.814453125</ele>
        <time>2011-07-09T13:18:01Z</time>
      </trkpt>
      <trkpt lat="45.35657" lon="6.65278">
        <ele>2419.2951660156</ele>
        <time>2011-07-09T13:18:04Z</time>
      </trkpt>
      <trkpt lat="45.35658" lon="6.65278">
        <ele>2419.2951660156</ele>
        <time>2011-07-09T13:18:08Z</time>
      </trkpt>
      <trkpt lat="45.3566" lon="6.65275">
        <ele>2416.8918457031</ele>
        <time>2011-07-09T13:18:14Z</time>
      </trkpt>
      <trkpt lat="45.35666" lon="6.65273">
        <ele>2415.9304199219</ele>
        <time>2011-07-09T13:18:20Z</time>
      </trkpt>
      <trkpt lat="45.35671" lon="6.65272">
        <ele>2416.8918457031</ele>
        <time>2011-07-09T13:18:25Z</time>
      </trkpt>
      <trkpt lat="45.3568" lon="6.65273">
        <ele>2415.9304199219</ele>
        <time>2011-07-09T13:18:34Z</time>
      </trkpt>
      <trkpt lat="45.35685" lon="6.65271">
        <ele>2416.4111328125</ele>
        <time>2011-07-09T13:18:41Z</time>
      </trkpt>
      <trkpt lat="45.35688" lon="6.65273">
        <ele>2416.8918457031</ele>
        <time>2011-07-09T13:18:46Z</time>
      </trkpt>
      <trkpt lat="45.3569" lon="6.65276">
        <ele>2417.3723144531</ele>
        <time>2011-07-09T13:18:50Z</time>
      </trkpt>
      <trkpt lat="45.35695" lon="6.65277">
        <ele>2418.3337402344</ele>
        <time>2011-07-09T13:18:56Z</time>
      </trkpt>
      <trkpt lat="45.35699" lon="6.65274">
        <ele>2418.3337402344</ele>
        <time>2011-07-09T13:19:01Z</time>
      </trkpt>
      <trkpt lat="45.357" lon="6.65274">
        <ele>2417.8530273438</ele>
        <time>2011-07-09T13:19:06Z</time>
      </trkpt>
      <trkpt lat="45.35701" lon="6.65272">
        <ele>2418.3337402344</ele>
        <time>2011-07-09T13:19:20Z</time>
      </trkpt>
      <trkpt lat="45.35708" lon="6.65275">
        <ele>2418.814453125</ele>
        <time>2011-07-09T13:19:28Z</time>
      </trkpt>
      <trkpt lat="45.35713" lon="6.65281">
        <ele>2417.3723144531</ele>
        <time>2011-07-09T13:19:35Z</time>
      </trkpt>
      <trkpt lat="45.35716" lon="6.65282">
        <ele>2416.4111328125</ele>
        <time>2011-07-09T13:19:40Z</time>
      </trkpt>
      <trkpt lat="45.35718" lon="6.65281">
        <ele>2416.8918457031</ele>
        <time>2011-07-09T13:19:42Z</time>
      </trkpt>
      <trkpt lat="45.35721" lon="6.65278">
        <ele>2417.3723144531</ele>
        <time>2011-07-09T13:19:50Z</time>
      </trkpt>
      <trkpt lat="45.35723" lon="6.65276">
        <ele>2416.8918457031</ele>
        <time>2011-07-09T13:19:57Z</time>
      </trkpt>
      <trkpt lat="45.35724" lon="6.65275">
        <ele>2415.9304199219</ele>
        <time>2011-07-09T13:20:02Z</time>
      </trkpt>
      <trkpt lat="45.35725" lon="6.65271">
        <ele>2415.4499511719</ele>
        <time>2011-07-09T13:20:09Z</time>
      </trkpt>
      <trkpt lat="45.35729" lon="6.65268">
        <ele>2415.9304199219</ele>
        <time>2011-07-09T13:20:15Z</time>
      </trkpt>
      <trkpt lat="45.35733" lon="6.65266">
        <ele>2419.2951660156</ele>
        <time>2011-07-09T13:20:22Z</time>
      </trkpt>
      <trkpt lat="45.35737" lon="6.65263">
        <ele>2422.6596679688</ele>
        <time>2011-07-09T13:20:30Z</time>
      </trkpt>
      <trkpt lat="45.3574" lon="6.65261">
        <ele>2422.1789550781</ele>
        <time>2011-07-09T13:20:36Z</time>
      </trkpt>
      <trkpt lat="45.35746" lon="6.65257">
        <ele>2423.1403808594</ele>
        <time>2011-07-09T13:20:45Z</time>
      </trkpt>
      <trkpt lat="45.35752" lon="6.65255">
        <ele>2422.6596679688</ele>
        <time>2011-07-09T13:20:51Z</time>
      </trkpt>
      <trkpt lat="45.35759" lon="6.65254">
        <ele>2422.6596679688</ele>
        <time>2011-07-09T13:20:59Z</time>
      </trkpt>
      <trkpt lat="45.35764" lon="6.65254">
        <ele>2422.6596679688</ele>
        <time>2011-07-09T13:21:06Z</time>
      </trkpt>
      <trkpt lat="45.35762" lon="6.65248">
        <ele>2422.6596679688</ele>
        <time>2011-07-09T13:21:12Z</time>
      </trkpt>
      <trkpt lat="45.3576" lon="6.6524">
        <ele>2423.1403808594</ele>
        <time>2011-07-09T13:21:19Z</time>
      </trkpt>
      <trkpt lat="45.3576" lon="6.65231">
        <ele>2424.1015625</ele>
        <time>2011-07-09T13:21:27Z</time>
      </trkpt>
      <trkpt lat="45.35762" lon="6.65228">
        <ele>2425.0627441406</ele>
        <time>2011-07-09T13:21:33Z</time>
      </trkpt>
      <trkpt lat="45.35762" lon="6.65229">
        <ele>2425.0627441406</ele>
        <time>2011-07-09T13:21:37Z</time>
      </trkpt>
      <trkpt lat="45.35762" lon="6.65229">
        <ele>2426.0241699219</ele>
        <time>2011-07-09T13:21:42Z</time>
      </trkpt>
      <trkpt lat="45.35762" lon="6.65228">
        <ele>2426.0241699219</ele>
        <time>2011-07-09T13:21:52Z</time>
      </trkpt>
      <trkpt lat="45.35763" lon="6.65229">
        <ele>2426.5048828125</ele>
        <time>2011-07-09T13:21:59Z</time>
      </trkpt>
      <trkpt lat="45.35762" lon="6.65229">
        <ele>2426.9855957031</ele>
        <time>2011-07-09T13:22:06Z</time>
      </trkpt>
      <trkpt lat="45.35762" lon="6.65229">
        <ele>2426.9855957031</ele>
        <time>2011-07-09T13:22:21Z</time>
      </trkpt>
      <trkpt lat="45.35761" lon="6.6523">
        <ele>2427.4660644531</ele>
        <time>2011-07-09T13:22:32Z</time>
      </trkpt>
      <trkpt lat="45.3576" lon="6.65229">
        <ele>2427.9467773438</ele>
        <time>2011-07-09T13:22:40Z</time>
      </trkpt>
      <trkpt lat="45.35761" lon="6.65229">
        <ele>2428.427734375</ele>
        <time>2011-07-09T13:22:48Z</time>
      </trkpt>
      <trkpt lat="45.35761" lon="6.65229">
        <ele>2428.908203125</ele>
        <time>2011-07-09T13:23:20Z</time>
      </trkpt>
      <trkpt lat="45.35761" lon="6.65228">
        <ele>2428.908203125</ele>
        <time>2011-07-09T13:23:33Z</time>
      </trkpt>
      <trkpt lat="45.35761" lon="6.65228">
        <ele>2428.908203125</ele>
        <time>2011-07-09T13:23:40Z</time>
      </trkpt>
      <trkpt lat="45.35762" lon="6.65227">
        <ele>2428.908203125</ele>
        <time>2011-07-09T13:23:54Z</time>
      </trkpt>
      <trkpt lat="45.35762" lon="6.65226">
        <ele>2428.908203125</ele>
        <time>2011-07-09T13:24:07Z</time>
      </trkpt>
      <trkpt lat="45.35763" lon="6.65223">
        <ele>2428.427734375</ele>
        <time>2011-07-09T13:24:13Z</time>
      </trkpt>
      <trkpt lat="45.35769" lon="6.65217">
        <ele>2429.3889160156</ele>
        <time>2011-07-09T13:24:20Z</time>
      </trkpt>
      <trkpt lat="45.3577" lon="6.6521">
        <ele>2429.3889160156</ele>
        <time>2011-07-09T13:24:26Z</time>
      </trkpt>
      <trkpt lat="45.3577" lon="6.65211">
        <ele>2429.8696289062</ele>
        <time>2011-07-09T13:24:34Z</time>
      </trkpt>
      <trkpt lat="45.3577" lon="6.65211">
        <ele>2429.8696289062</ele>
        <time>2011-07-09T13:24:37Z</time>
      </trkpt>
      <trkpt lat="45.3577" lon="6.65211">
        <ele>2429.8696289062</ele>
        <time>2011-07-09T13:24:38Z</time>
      </trkpt>
      <trkpt lat="45.35771" lon="6.6521">
        <ele>2430.3503417969</ele>
        <time>2011-07-09T13:24:44Z</time>
      </trkpt>
      <trkpt lat="45.35774" lon="6.65207">
        <ele>2428.908203125</ele>
        <time>2011-07-09T13:24:54Z</time>
      </trkpt>
      <trkpt lat="45.35782" lon="6.65203">
        <ele>2428.427734375</ele>
        <time>2011-07-09T13:25:02Z</time>
      </trkpt>
      <trkpt lat="45.35789" lon="6.652">
        <ele>2428.427734375</ele>
        <time>2011-07-09T13:25:09Z</time>
      </trkpt>
      <trkpt lat="45.35799" lon="6.65194">
        <ele>2429.3889160156</ele>
        <time>2011-07-09T13:25:19Z</time>
      </trkpt>
      <trkpt lat="45.35804" lon="6.65187">
        <ele>2428.908203125</ele>
        <time>2011-07-09T13:25:27Z</time>
      </trkpt>
      <trkpt lat="45.3581" lon="6.65176">
        <ele>2427.9467773438</ele>
        <time>2011-07-09T13:25:35Z</time>
      </trkpt>
      <trkpt lat="45.35817" lon="6.65174">
        <ele>2428.427734375</ele>
        <time>2011-07-09T13:25:41Z</time>
      </trkpt>
      <trkpt lat="45.35822" lon="6.65171">
        <ele>2428.427734375</ele>
        <time>2011-07-09T13:25:46Z</time>
      </trkpt>
      <trkpt lat="45.35824" lon="6.65169">
        <ele>2428.908203125</ele>
        <time>2011-07-09T13:25:53Z</time>
      </trkpt>
      <trkpt lat="45.3583" lon="6.65159">
        <ele>2427.9467773438</ele>
        <time>2011-07-09T13:26:03Z</time>
      </trkpt>
      <trkpt lat="45.35833" lon="6.65157">
        <ele>2428.427734375</ele>
        <time>2011-07-09T13:26:09Z</time>
      </trkpt>
      <trkpt lat="45.35834" lon="6.65157">
        <ele>2428.908203125</ele>
        <time>2011-07-09T13:26:16Z</time>
      </trkpt>
      <trkpt lat="45.35837" lon="6.65161">
        <ele>2428.427734375</ele>
        <time>2011-07-09T13:26:22Z</time>
      </trkpt>
      <trkpt lat="45.35843" lon="6.65167">
        <ele>2429.8696289062</ele>
        <time>2011-07-09T13:26:29Z</time>
      </trkpt>
      <trkpt lat="45.35843" lon="6.65166">
        <ele>2428.908203125</ele>
        <time>2011-07-09T13:26:33Z</time>
      </trkpt>
      <trkpt lat="45.35843" lon="6.65168">
        <ele>2427.9467773438</ele>
        <time>2011-07-09T13:26:37Z</time>
      </trkpt>
      <trkpt lat="45.35843" lon="6.65166">
        <ele>2427.9467773438</ele>
        <time>2011-07-09T13:26:42Z</time>
      </trkpt>
      <trkpt lat="45.35845" lon="6.65163">
        <ele>2423.1403808594</ele>
        <time>2011-07-09T13:27:00Z</time>
      </trkpt>
      <trkpt lat="45.35846" lon="6.65164">
        <ele>2422.6596679688</ele>
        <time>2011-07-09T13:27:10Z</time>
      </trkpt>
      <trkpt lat="45.35846" lon="6.65164">
        <ele>2422.6596679688</ele>
        <time>2011-07-09T13:27:14Z</time>
      </trkpt>
      <trkpt lat="45.35846" lon="6.65164">
        <ele>2421.6982421875</ele>
        <time>2011-07-09T13:27:24Z</time>
      </trkpt>
      <trkpt lat="45.35846" lon="6.65165">
        <ele>2422.1789550781</ele>
        <time>2011-07-09T13:27:29Z</time>
      </trkpt>
      <trkpt lat="45.35846" lon="6.65163">
        <ele>2422.1789550781</ele>
        <time>2011-07-09T13:27:34Z</time>
      </trkpt>
      <trkpt lat="45.35846" lon="6.65163">
        <ele>2423.1403808594</ele>
        <time>2011-07-09T13:27:42Z</time>
      </trkpt>
      <trkpt lat="45.35846" lon="6.65163">
        <ele>2424.1015625</ele>
        <time>2011-07-09T13:27:52Z</time>
      </trkpt>
      <trkpt lat="45.35846" lon="6.65163">
        <ele>2426.0241699219</ele>
        <time>2011-07-09T13:28:12Z</time>
      </trkpt>
      <trkpt lat="45.35846" lon="6.65163">
        <ele>2426.5048828125</ele>
        <time>2011-07-09T13:28:36Z</time>
      </trkpt>
      <trkpt lat="45.35846" lon="6.65164">
        <ele>2426.0241699219</ele>
        <time>2011-07-09T13:28:49Z</time>
      </trkpt>
      <trkpt lat="45.35846" lon="6.65164">
        <ele>2425.5434570312</ele>
        <time>2011-07-09T13:28:56Z</time>
      </trkpt>
      <trkpt lat="45.35846" lon="6.65164">
        <ele>2425.5434570312</ele>
        <time>2011-07-09T13:29:08Z</time>
      </trkpt>
      <trkpt lat="45.35846" lon="6.65164">
        <ele>2425.5434570312</ele>
        <time>2011-07-09T13:29:12Z</time>
      </trkpt>
      <trkpt lat="45.35847" lon="6.65164">
        <ele>2425.0627441406</ele>
        <time>2011-07-09T13:29:21Z</time>
      </trkpt>
      <trkpt lat="45.35846" lon="6.65163">
        <ele>2426.0241699219</ele>
        <time>2011-07-09T13:30:08Z</time>
      </trkpt>
      <trkpt lat="45.35846" lon="6.65164">
        <ele>2426.0241699219</ele>
        <time>2011-07-09T13:30:20Z</time>
      </trkpt>
      <trkpt lat="45.35846" lon="6.65164">
        <ele>2426.0241699219</ele>
        <time>2011-07-09T13:30:27Z</time>
      </trkpt>
      <trkpt lat="45.35846" lon="6.65164">
        <ele>2426.0241699219</ele>
        <time>2011-07-09T13:30:30Z</time>
      </trkpt>
      <trkpt lat="45.35847" lon="6.65165">
        <ele>2425.0627441406</ele>
        <time>2011-07-09T13:30:55Z</time>
      </trkpt>
      <trkpt lat="45.35851" lon="6.65167">
        <ele>2424.5822753906</ele>
        <time>2011-07-09T13:31:07Z</time>
      </trkpt>
      <trkpt lat="45.35856" lon="6.65169">
        <ele>2424.5822753906</ele>
        <time>2011-07-09T13:31:12Z</time>
      </trkpt>
      <trkpt lat="45.35861" lon="6.6517">
        <ele>2423.6208496094</ele>
        <time>2011-07-09T13:31:17Z</time>
      </trkpt>
      <trkpt lat="45.35868" lon="6.65169">
        <ele>2423.1403808594</ele>
        <time>2011-07-09T13:31:24Z</time>
      </trkpt>
      <trkpt lat="45.35868" lon="6.65169">
        <ele>2423.1403808594</ele>
        <time>2011-07-09T13:31:30Z</time>
      </trkpt>
      <trkpt lat="45.35873" lon="6.65165">
        <ele>2423.1403808594</ele>
        <time>2011-07-09T13:31:37Z</time>
      </trkpt>
      <trkpt lat="45.35881" lon="6.6516">
        <ele>2423.1403808594</ele>
        <time>2011-07-09T13:31:45Z</time>
      </trkpt>
      <trkpt lat="45.35884" lon="6.6516">
        <ele>2423.1403808594</ele>
        <time>2011-07-09T13:31:48Z</time>
      </trkpt>
      <trkpt lat="45.35893" lon="6.65163">
        <ele>2422.6596679688</ele>
        <time>2011-07-09T13:31:56Z</time>
      </trkpt>
      <trkpt lat="45.35903" lon="6.65165">
        <ele>2422.1789550781</ele>
        <time>2011-07-09T13:32:04Z</time>
      </trkpt>
      <trkpt lat="45.3591" lon="6.65169">
        <ele>2421.6982421875</ele>
        <time>2011-07-09T13:32:11Z</time>
      </trkpt>
      <trkpt lat="45.35912" lon="6.65168">
        <ele>2420.7370605469</ele>
        <time>2011-07-09T13:32:17Z</time>
      </trkpt>
      <trkpt lat="45.35912" lon="6.65167">
        <ele>2420.2563476562</ele>
        <time>2011-07-09T13:32:18Z</time>
      </trkpt>
      <trkpt lat="45.3591" lon="6.65157">
        <ele>2419.2951660156</ele>
        <time>2011-07-09T13:32:21Z</time>
      </trkpt>
      <trkpt lat="45.35913" lon="6.65141">
        <ele>2417.3723144531</ele>
        <time>2011-07-09T13:32:27Z</time>
      </trkpt>
      <trkpt lat="45.35919" lon="6.65143">
        <ele>2416.4111328125</ele>
        <time>2011-07-09T13:32:30Z</time>
      </trkpt>
      <trkpt lat="45.35929" lon="6.65141">
        <ele>2415.4499511719</ele>
        <time>2011-07-09T13:32:34Z</time>
      </trkpt>
      <trkpt lat="45.35937" lon="6.65147">
        <ele>2414.4885253906</ele>
        <time>2011-07-09T13:32:38Z</time>
      </trkpt>
      <trkpt lat="45.35949" lon="6.65161">
        <ele>2412.5659179688</ele>
        <time>2011-07-09T13:32:43Z</time>
      </trkpt>
      <trkpt lat="45.35957" lon="6.65164">
        <ele>2410.6430664062</ele>
        <time>2011-07-09T13:32:46Z</time>
      </trkpt>
      <trkpt lat="45.35961" lon="6.6516">
        <ele>2410.1623535156</ele>
        <time>2011-07-09T13:32:50Z</time>
      </trkpt>
      <trkpt lat="45.35961" lon="6.65159">
        <ele>2409.681640625</ele>
        <time>2011-07-09T13:33:10Z</time>
      </trkpt>
      <trkpt lat="45.3596" lon="6.65157">
        <ele>2410.1623535156</ele>
        <time>2011-07-09T13:33:13Z</time>
      </trkpt>
      <trkpt lat="45.35958" lon="6.65141">
        <ele>2409.681640625</ele>
        <time>2011-07-09T13:33:19Z</time>
      </trkpt>
      <trkpt lat="45.35957" lon="6.65137">
        <ele>2409.201171875</ele>
        <time>2011-07-09T13:33:20Z</time>
      </trkpt>
      <trkpt lat="45.35952" lon="6.65114">
        <ele>2408.2397460938</ele>
        <time>2011-07-09T13:33:25Z</time>
      </trkpt>
      <trkpt lat="45.35946" lon="6.65097">
        <ele>2406.7978515625</ele>
        <time>2011-07-09T13:33:29Z</time>
      </trkpt>
      <trkpt lat="45.35942" lon="6.65078">
        <ele>2405.3559570312</ele>
        <time>2011-07-09T13:33:34Z</time>
      </trkpt>
      <trkpt lat="45.35938" lon="6.65064">
        <ele>2403.9140625</ele>
        <time>2011-07-09T13:33:38Z</time>
      </trkpt>
      <trkpt lat="45.35926" lon="6.6504">
        <ele>2403.9140625</ele>
        <time>2011-07-09T13:33:45Z</time>
      </trkpt>
      <trkpt lat="45.35921" lon="6.65028">
        <ele>2403.4333496094</ele>
        <time>2011-07-09T13:33:49Z</time>
      </trkpt>
      <trkpt lat="45.35914" lon="6.65013">
        <ele>2402.9526367188</ele>
        <time>2011-07-09T13:33:54Z</time>
      </trkpt>
      <trkpt lat="45.35909" lon="6.64998">
        <ele>2402.4719238281</ele>
        <time>2011-07-09T13:33:58Z</time>
      </trkpt>
      <trkpt lat="45.35904" lon="6.6498">
        <ele>2401.9912109375</ele>
        <time>2011-07-09T13:34:04Z</time>
      </trkpt>
      <trkpt lat="45.35905" lon="6.6497">
        <ele>2401.5107421875</ele>
        <time>2011-07-09T13:34:09Z</time>
      </trkpt>
      <trkpt lat="45.35906" lon="6.64964">
        <ele>2401.0300292969</ele>
        <time>2011-07-09T13:34:15Z</time>
      </trkpt>
      <trkpt lat="45.35908" lon="6.64953">
        <ele>2401.9912109375</ele>
        <time>2011-07-09T13:34:22Z</time>
      </trkpt>
      <trkpt lat="45.35905" lon="6.64939">
        <ele>2401.5107421875</ele>
        <time>2011-07-09T13:34:29Z</time>
      </trkpt>
      <trkpt lat="45.35899" lon="6.64921">
        <ele>2402.9526367188</ele>
        <time>2011-07-09T13:34:39Z</time>
      </trkpt>
      <trkpt lat="45.35895" lon="6.64913">
        <ele>2402.9526367188</ele>
        <time>2011-07-09T13:34:45Z</time>
      </trkpt>
      <trkpt lat="45.35894" lon="6.6491">
        <ele>2402.9526367188</ele>
        <time>2011-07-09T13:34:47Z</time>
      </trkpt>
      <trkpt lat="45.35893" lon="6.64909">
        <ele>2403.4333496094</ele>
        <time>2011-07-09T13:34:56Z</time>
      </trkpt>
      <trkpt lat="45.35893" lon="6.6491">
        <ele>2404.39453125</ele>
        <time>2011-07-09T13:35:04Z</time>
      </trkpt>
      <trkpt lat="45.35893" lon="6.6491">
        <ele>2404.8752441406</ele>
        <time>2011-07-09T13:35:14Z</time>
      </trkpt>
      <trkpt lat="45.35892" lon="6.6491">
        <ele>2405.3559570312</ele>
        <time>2011-07-09T13:35:20Z</time>
      </trkpt>
      <trkpt lat="45.35892" lon="6.6491">
        <ele>2405.3559570312</ele>
        <time>2011-07-09T13:35:26Z</time>
      </trkpt>
      <trkpt lat="45.35892" lon="6.64909">
        <ele>2405.3559570312</ele>
        <time>2011-07-09T13:35:31Z</time>
      </trkpt>
      <trkpt lat="45.35892" lon="6.64909">
        <ele>2405.3559570312</ele>
        <time>2011-07-09T13:35:39Z</time>
      </trkpt>
      <trkpt lat="45.35893" lon="6.64909">
        <ele>2405.3559570312</ele>
        <time>2011-07-09T13:35:47Z</time>
      </trkpt>
      <trkpt lat="45.35892" lon="6.64905">
        <ele>2404.39453125</ele>
        <time>2011-07-09T13:35:58Z</time>
      </trkpt>
      <trkpt lat="45.35893" lon="6.6489">
        <ele>2404.39453125</ele>
        <time>2011-07-09T13:36:03Z</time>
      </trkpt>
      <trkpt lat="45.35892" lon="6.64869">
        <ele>2403.9140625</ele>
        <time>2011-07-09T13:36:08Z</time>
      </trkpt>
      <trkpt lat="45.35891" lon="6.64855">
        <ele>2403.4333496094</ele>
        <time>2011-07-09T13:36:11Z</time>
      </trkpt>
      <trkpt lat="45.35887" lon="6.64834">
        <ele>2402.4719238281</ele>
        <time>2011-07-09T13:36:17Z</time>
      </trkpt>
      <trkpt lat="45.35878" lon="6.64805">
        <ele>2401.9912109375</ele>
        <time>2011-07-09T13:36:25Z</time>
      </trkpt>
      <trkpt lat="45.35869" lon="6.64771">
        <ele>2401.9912109375</ele>
        <time>2011-07-09T13:36:31Z</time>
      </trkpt>
      <trkpt lat="45.35864" lon="6.64748">
        <ele>2402.4719238281</ele>
        <time>2011-07-09T13:36:36Z</time>
      </trkpt>
      <trkpt lat="45.3586" lon="6.6473">
        <ele>2403.4333496094</ele>
        <time>2011-07-09T13:36:42Z</time>
      </trkpt>
      <trkpt lat="45.35858" lon="6.64724">
        <ele>2403.9140625</ele>
        <time>2011-07-09T13:36:46Z</time>
      </trkpt>
      <trkpt lat="45.35858" lon="6.64724">
        <ele>2404.39453125</ele>
        <time>2011-07-09T13:36:52Z</time>
      </trkpt>
      <trkpt lat="45.35856" lon="6.64719">
        <ele>2404.8752441406</ele>
        <time>2011-07-09T13:36:58Z</time>
      </trkpt>
      <trkpt lat="45.35851" lon="6.64708">
        <ele>2406.3171386719</ele>
        <time>2011-07-09T13:37:06Z</time>
      </trkpt>
      <trkpt lat="45.35848" lon="6.64704">
        <ele>2407.2785644531</ele>
        <time>2011-07-09T13:37:12Z</time>
      </trkpt>
      <trkpt lat="45.35849" lon="6.64704">
        <ele>2407.2785644531</ele>
        <time>2011-07-09T13:37:18Z</time>
      </trkpt>
      <trkpt lat="45.35849" lon="6.64705">
        <ele>2408.2397460938</ele>
        <time>2011-07-09T13:37:25Z</time>
      </trkpt>
      <trkpt lat="45.35848" lon="6.64705">
        <ele>2410.1623535156</ele>
        <time>2011-07-09T13:37:38Z</time>
      </trkpt>
      <trkpt lat="45.35848" lon="6.64705">
        <ele>2409.681640625</ele>
        <time>2011-07-09T13:37:43Z</time>
      </trkpt>
      <trkpt lat="45.35848" lon="6.64705">
        <ele>2409.681640625</ele>
        <time>2011-07-09T13:37:46Z</time>
      </trkpt>
      <trkpt lat="45.35849" lon="6.64706">
        <ele>2410.1623535156</ele>
        <time>2011-07-09T13:37:53Z</time>
      </trkpt>
      <trkpt lat="45.35849" lon="6.64706">
        <ele>2409.681640625</ele>
        <time>2011-07-09T13:37:57Z</time>
      </trkpt>
      <trkpt lat="45.35849" lon="6.64706">
        <ele>2409.201171875</ele>
        <time>2011-07-09T13:38:00Z</time>
      </trkpt>
      <trkpt lat="45.35849" lon="6.64706">
        <ele>2409.201171875</ele>
        <time>2011-07-09T13:38:03Z</time>
      </trkpt>
      <trkpt lat="45.35848" lon="6.64705">
        <ele>2409.681640625</ele>
        <time>2011-07-09T13:38:11Z</time>
      </trkpt>
      <trkpt lat="45.35848" lon="6.64704">
        <ele>2409.681640625</ele>
        <time>2011-07-09T13:38:14Z</time>
      </trkpt>
      <trkpt lat="45.35849" lon="6.64705">
        <ele>2409.681640625</ele>
        <time>2011-07-09T13:38:20Z</time>
      </trkpt>
      <trkpt lat="45.35846" lon="6.64702">
        <ele>2411.1237792969</ele>
        <time>2011-07-09T13:38:40Z</time>
      </trkpt>
      <trkpt lat="45.35844" lon="6.64698">
        <ele>2411.6044921875</ele>
        <time>2011-07-09T13:38:44Z</time>
      </trkpt>
      <trkpt lat="45.35845" lon="6.64698">
        <ele>2411.6044921875</ele>
        <time>2011-07-09T13:38:51Z</time>
      </trkpt>
      <trkpt lat="45.35845" lon="6.64697">
        <ele>2411.1237792969</ele>
        <time>2011-07-09T13:39:00Z</time>
      </trkpt>
      <trkpt lat="45.35842" lon="6.64694">
        <ele>2410.1623535156</ele>
        <time>2011-07-09T13:39:24Z</time>
      </trkpt>
      <trkpt lat="45.35841" lon="6.64691">
        <ele>2410.1623535156</ele>
        <time>2011-07-09T13:39:26Z</time>
      </trkpt>
      <trkpt lat="45.3584" lon="6.64685">
        <ele>2410.1623535156</ele>
        <time>2011-07-09T13:39:30Z</time>
      </trkpt>
      <trkpt lat="45.35838" lon="6.64677">
        <ele>2410.1623535156</ele>
        <time>2011-07-09T13:39:35Z</time>
      </trkpt>
      <trkpt lat="45.35837" lon="6.64671">
        <ele>2410.1623535156</ele>
        <time>2011-07-09T13:39:40Z</time>
      </trkpt>
      <trkpt lat="45.35835" lon="6.64661">
        <ele>2411.1237792969</ele>
        <time>2011-07-09T13:39:47Z</time>
      </trkpt>
      <trkpt lat="45.35836" lon="6.64654">
        <ele>2411.6044921875</ele>
        <time>2011-07-09T13:39:51Z</time>
      </trkpt>
      <trkpt lat="45.35836" lon="6.64649">
        <ele>2412.0852050781</ele>
        <time>2011-07-09T13:39:55Z</time>
      </trkpt>
      <trkpt lat="45.35837" lon="6.64644">
        <ele>2412.5659179688</ele>
        <time>2011-07-09T13:39:58Z</time>
      </trkpt>
      <trkpt lat="45.35838" lon="6.64637">
        <ele>2413.5270996094</ele>
        <time>2011-07-09T13:40:04Z</time>
      </trkpt>
      <trkpt lat="45.35839" lon="6.64633">
        <ele>2413.0466308594</ele>
        <time>2011-07-09T13:40:11Z</time>
      </trkpt>
      <trkpt lat="45.3584" lon="6.64624">
        <ele>2413.0466308594</ele>
        <time>2011-07-09T13:40:18Z</time>
      </trkpt>
      <trkpt lat="45.35842" lon="6.64614">
        <ele>2413.0466308594</ele>
        <time>2011-07-09T13:40:26Z</time>
      </trkpt>
      <trkpt lat="45.35844" lon="6.64604">
        <ele>2412.5659179688</ele>
        <time>2011-07-09T13:40:33Z</time>
      </trkpt>
      <trkpt lat="45.35846" lon="6.64593">
        <ele>2412.5659179688</ele>
        <time>2011-07-09T13:40:40Z</time>
      </trkpt>
      <trkpt lat="45.35848" lon="6.64579">
        <ele>2414.0078125</ele>
        <time>2011-07-09T13:40:49Z</time>
      </trkpt>
      <trkpt lat="45.35849" lon="6.6457">
        <ele>2414.4885253906</ele>
        <time>2011-07-09T13:40:57Z</time>
      </trkpt>
      <trkpt lat="45.3585" lon="6.64559">
        <ele>2415.9304199219</ele>
        <time>2011-07-09T13:41:05Z</time>
      </trkpt>
      <trkpt lat="45.35851" lon="6.64547">
        <ele>2417.8530273438</ele>
        <time>2011-07-09T13:41:14Z</time>
      </trkpt>
      <trkpt lat="45.35854" lon="6.64537">
        <ele>2419.2951660156</ele>
        <time>2011-07-09T13:41:22Z</time>
      </trkpt>
      <trkpt lat="45.35854" lon="6.64535">
        <ele>2419.2951660156</ele>
        <time>2011-07-09T13:41:29Z</time>
      </trkpt>
      <trkpt lat="45.35854" lon="6.64535">
        <ele>2419.2951660156</ele>
        <time>2011-07-09T13:41:38Z</time>
      </trkpt>
      <trkpt lat="45.35853" lon="6.64535">
        <ele>2418.814453125</ele>
        <time>2011-07-09T13:41:45Z</time>
      </trkpt>
      <trkpt lat="45.35854" lon="6.64536">
        <ele>2418.814453125</ele>
        <time>2011-07-09T13:41:52Z</time>
      </trkpt>
      <trkpt lat="45.35854" lon="6.64536">
        <ele>2418.814453125</ele>
        <time>2011-07-09T13:41:59Z</time>
      </trkpt>
      <trkpt lat="45.35854" lon="6.64537">
        <ele>2418.3337402344</ele>
        <time>2011-07-09T13:42:03Z</time>
      </trkpt>
      <trkpt lat="45.35853" lon="6.64537">
        <ele>2419.2951660156</ele>
        <time>2011-07-09T13:42:11Z</time>
      </trkpt>
      <trkpt lat="45.35854" lon="6.64536">
        <ele>2420.2563476562</ele>
        <time>2011-07-09T13:42:19Z</time>
      </trkpt>
      <trkpt lat="45.35857" lon="6.64528">
        <ele>2422.1789550781</ele>
        <time>2011-07-09T13:42:26Z</time>
      </trkpt>
      <trkpt lat="45.35862" lon="6.6452">
        <ele>2425.0627441406</ele>
        <time>2011-07-09T13:42:34Z</time>
      </trkpt>
      <trkpt lat="45.35865" lon="6.64513">
        <ele>2426.0241699219</ele>
        <time>2011-07-09T13:42:40Z</time>
      </trkpt>
      <trkpt lat="45.3587" lon="6.64507">
        <ele>2426.5048828125</ele>
        <time>2011-07-09T13:42:46Z</time>
      </trkpt>
      <trkpt lat="45.35871" lon="6.64505">
        <ele>2426.9855957031</ele>
        <time>2011-07-09T13:42:51Z</time>
      </trkpt>
      <trkpt lat="45.35873" lon="6.64504">
        <ele>2428.908203125</ele>
        <time>2011-07-09T13:42:58Z</time>
      </trkpt>
      <trkpt lat="45.35876" lon="6.64499">
        <ele>2428.908203125</ele>
        <time>2011-07-09T13:43:05Z</time>
      </trkpt>
      <trkpt lat="45.35877" lon="6.64494">
        <ele>2428.908203125</ele>
        <time>2011-07-09T13:43:11Z</time>
      </trkpt>
      <trkpt lat="45.35878" lon="6.64492">
        <ele>2428.908203125</ele>
        <time>2011-07-09T13:43:14Z</time>
      </trkpt>
      <trkpt lat="45.35881" lon="6.64483">
        <ele>2430.3503417969</ele>
        <time>2011-07-09T13:43:22Z</time>
      </trkpt>
      <trkpt lat="45.35885" lon="6.64476">
        <ele>2431.3115234375</ele>
        <time>2011-07-09T13:43:29Z</time>
      </trkpt>
      <trkpt lat="45.35888" lon="6.64471">
        <ele>2431.7922363281</ele>
        <time>2011-07-09T13:43:35Z</time>
      </trkpt>
      <trkpt lat="45.35891" lon="6.64465">
        <ele>2433.2341308594</ele>
        <time>2011-07-09T13:43:44Z</time>
      </trkpt>
      <trkpt lat="45.35895" lon="6.64457">
        <ele>2434.1955566406</ele>
        <time>2011-07-09T13:43:53Z</time>
      </trkpt>
      <trkpt lat="45.35898" lon="6.6445">
        <ele>2434.1955566406</ele>
        <time>2011-07-09T13:44:00Z</time>
      </trkpt>
      <trkpt lat="45.35901" lon="6.64443">
        <ele>2435.1567382812</ele>
        <time>2011-07-09T13:44:06Z</time>
      </trkpt>
      <trkpt lat="45.35906" lon="6.64433">
        <ele>2435.6374511719</ele>
        <time>2011-07-09T13:44:16Z</time>
      </trkpt>
      <trkpt lat="45.3591" lon="6.64424">
        <ele>2436.5986328125</ele>
        <time>2011-07-09T13:44:24Z</time>
      </trkpt>
      <trkpt lat="45.35913" lon="6.64416">
        <ele>2437.5600585938</ele>
        <time>2011-07-09T13:44:32Z</time>
      </trkpt>
      <trkpt lat="45.35915" lon="6.64408">
        <ele>2438.0407714844</ele>
        <time>2011-07-09T13:44:39Z</time>
      </trkpt>
      <trkpt lat="45.35918" lon="6.64401">
        <ele>2438.521484375</ele>
        <time>2011-07-09T13:44:46Z</time>
      </trkpt>
      <trkpt lat="45.35918" lon="6.64399">
        <ele>2437.0793457031</ele>
        <time>2011-07-09T13:44:52Z</time>
      </trkpt>
      <trkpt lat="45.35917" lon="6.64398">
        <ele>2438.521484375</ele>
        <time>2011-07-09T13:45:04Z</time>
      </trkpt>
      <trkpt lat="45.35917" lon="6.64398">
        <ele>2438.521484375</ele>
        <time>2011-07-09T13:45:09Z</time>
      </trkpt>
      <trkpt lat="45.35917" lon="6.64394">
        <ele>2439.001953125</ele>
        <time>2011-07-09T13:45:18Z</time>
      </trkpt>
      <trkpt lat="45.35918" lon="6.6439">
        <ele>2439.9633789062</ele>
        <time>2011-07-09T13:45:22Z</time>
      </trkpt>
      <trkpt lat="45.3592" lon="6.64381">
        <ele>2442.3666992188</ele>
        <time>2011-07-09T13:45:31Z</time>
      </trkpt>
      <trkpt lat="45.35922" lon="6.6437">
        <ele>2444.2893066406</ele>
        <time>2011-07-09T13:45:39Z</time>
      </trkpt>
      <trkpt lat="45.35923" lon="6.64362">
        <ele>2446.6926269531</ele>
        <time>2011-07-09T13:45:46Z</time>
      </trkpt>
      <trkpt lat="45.35922" lon="6.64351">
        <ele>2448.615234375</ele>
        <time>2011-07-09T13:45:54Z</time>
      </trkpt>
      <trkpt lat="45.35921" lon="6.64346">
        <ele>2449.5766601562</ele>
        <time>2011-07-09T13:45:58Z</time>
      </trkpt>
      <trkpt lat="45.3592" lon="6.64334">
        <ele>2452.4604492188</ele>
        <time>2011-07-09T13:46:07Z</time>
      </trkpt>
      <trkpt lat="45.35922" lon="6.64323">
        <ele>2453.421875</ele>
        <time>2011-07-09T13:46:16Z</time>
      </trkpt>
      <trkpt lat="45.35924" lon="6.64317">
        <ele>2453.421875</ele>
        <time>2011-07-09T13:46:23Z</time>
      </trkpt>
      <trkpt lat="45.35925" lon="6.64311">
        <ele>2453.9025878906</ele>
        <time>2011-07-09T13:46:30Z</time>
      </trkpt>
      <trkpt lat="45.35925" lon="6.64305">
        <ele>2455.8249511719</ele>
        <time>2011-07-09T13:46:37Z</time>
      </trkpt>
      <trkpt lat="45.35926" lon="6.64299">
        <ele>2458.708984375</ele>
        <time>2011-07-09T13:46:45Z</time>
      </trkpt>
      <trkpt lat="45.35927" lon="6.64294">
        <ele>2460.6318359375</ele>
        <time>2011-07-09T13:46:52Z</time>
      </trkpt>
      <trkpt lat="45.35929" lon="6.64291">
        <ele>2460.6318359375</ele>
        <time>2011-07-09T13:46:57Z</time>
      </trkpt>
      <trkpt lat="45.35931" lon="6.64287">
        <ele>2460.1511230469</ele>
        <time>2011-07-09T13:47:04Z</time>
      </trkpt>
      <trkpt lat="45.35935" lon="6.64281">
        <ele>2458.2282714844</ele>
        <time>2011-07-09T13:47:10Z</time>
      </trkpt>
      <trkpt lat="45.35938" lon="6.64277">
        <ele>2457.2670898438</ele>
        <time>2011-07-09T13:47:14Z</time>
      </trkpt>
      <trkpt lat="45.35944" lon="6.64273">
        <ele>2457.2670898438</ele>
        <time>2011-07-09T13:47:23Z</time>
      </trkpt>
      <trkpt lat="45.35947" lon="6.64267">
        <ele>2458.2282714844</ele>
        <time>2011-07-09T13:47:30Z</time>
      </trkpt>
      <trkpt lat="45.3595" lon="6.6426">
        <ele>2458.708984375</ele>
        <time>2011-07-09T13:47:38Z</time>
      </trkpt>
      <trkpt lat="45.35954" lon="6.64253">
        <ele>2458.708984375</ele>
        <time>2011-07-09T13:47:45Z</time>
      </trkpt>
      <trkpt lat="45.35957" lon="6.6425">
        <ele>2458.2282714844</ele>
        <time>2011-07-09T13:47:48Z</time>
      </trkpt>
      <trkpt lat="45.35965" lon="6.64244">
        <ele>2458.2282714844</ele>
        <time>2011-07-09T13:47:56Z</time>
      </trkpt>
      <trkpt lat="45.35971" lon="6.6424">
        <ele>2459.1896972656</ele>
        <time>2011-07-09T13:48:03Z</time>
      </trkpt>
      <trkpt lat="45.35977" lon="6.64236">
        <ele>2460.6318359375</ele>
        <time>2011-07-09T13:48:12Z</time>
      </trkpt>
      <trkpt lat="45.35981" lon="6.64236">
        <ele>2463.515625</ele>
        <time>2011-07-09T13:48:19Z</time>
      </trkpt>
      <trkpt lat="45.35986" lon="6.64234">
        <ele>2463.9963378906</ele>
        <time>2011-07-09T13:48:26Z</time>
      </trkpt>
      <trkpt lat="45.35989" lon="6.64233">
        <ele>2463.03515625</ele>
        <time>2011-07-09T13:48:32Z</time>
      </trkpt>
      <trkpt lat="45.35991" lon="6.6423">
        <ele>2461.1125488281</ele>
        <time>2011-07-09T13:48:38Z</time>
      </trkpt>
      <trkpt lat="45.35992" lon="6.64225">
        <ele>2459.6701660156</ele>
        <time>2011-07-09T13:48:42Z</time>
      </trkpt>
      <trkpt lat="45.35987" lon="6.64206">
        <ele>2458.708984375</ele>
        <time>2011-07-09T13:48:46Z</time>
      </trkpt>
      <trkpt lat="45.35982" lon="6.64189">
        <ele>2457.7478027344</ele>
        <time>2011-07-09T13:48:49Z</time>
      </trkpt>
      <trkpt lat="45.35971" lon="6.64173">
        <ele>2457.2670898438</ele>
        <time>2011-07-09T13:48:53Z</time>
      </trkpt>
      <trkpt lat="45.35963" lon="6.64168">
        <ele>2457.7478027344</ele>
        <time>2011-07-09T13:48:57Z</time>
      </trkpt>
      <trkpt lat="45.35949" lon="6.64166">
        <ele>2458.708984375</ele>
        <time>2011-07-09T13:49:04Z</time>
      </trkpt>
      <trkpt lat="45.35938" lon="6.64167">
        <ele>2459.6701660156</ele>
        <time>2011-07-09T13:49:10Z</time>
      </trkpt>
      <trkpt lat="45.35921" lon="6.64164">
        <ele>2459.6701660156</ele>
        <time>2011-07-09T13:49:17Z</time>
      </trkpt>
      <trkpt lat="45.35921" lon="6.64164">
        <ele>2460.1511230469</ele>
        <time>2011-07-09T13:49:24Z</time>
      </trkpt>
      <trkpt lat="45.3592" lon="6.64164">
        <ele>2460.6318359375</ele>
        <time>2011-07-09T13:49:35Z</time>
      </trkpt>
      <trkpt lat="45.3592" lon="6.64164">
        <ele>2461.5932617188</ele>
        <time>2011-07-09T13:49:41Z</time>
      </trkpt>
      <trkpt lat="45.3592" lon="6.64164">
        <ele>2462.0737304688</ele>
        <time>2011-07-09T13:49:47Z</time>
      </trkpt>
      <trkpt lat="45.35919" lon="6.64164">
        <ele>2462.0737304688</ele>
        <time>2011-07-09T13:49:56Z</time>
      </trkpt>
      <trkpt lat="45.35919" lon="6.64164">
        <ele>2462.0737304688</ele>
        <time>2011-07-09T13:50:14Z</time>
      </trkpt>
      <trkpt lat="45.35919" lon="6.64165">
        <ele>2460.6318359375</ele>
        <time>2011-07-09T13:50:23Z</time>
      </trkpt>
      <trkpt lat="45.3592" lon="6.64164">
        <ele>2455.3444824219</ele>
        <time>2011-07-09T13:50:36Z</time>
      </trkpt>
      <trkpt lat="45.3592" lon="6.64164">
        <ele>2454.3830566406</ele>
        <time>2011-07-09T13:50:46Z</time>
      </trkpt>
      <trkpt lat="45.3592" lon="6.64165">
        <ele>2455.3444824219</ele>
        <time>2011-07-09T13:50:52Z</time>
      </trkpt>
      <trkpt lat="45.3592" lon="6.64165">
        <ele>2455.8249511719</ele>
        <time>2011-07-09T13:50:57Z</time>
      </trkpt>
      <trkpt lat="45.35922" lon="6.64164">
        <ele>2455.3444824219</ele>
        <time>2011-07-09T13:51:03Z</time>
      </trkpt>
      <trkpt lat="45.35921" lon="6.64164">
        <ele>2454.3830566406</ele>
        <time>2011-07-09T13:51:13Z</time>
      </trkpt>
      <trkpt lat="45.35922" lon="6.64164">
        <ele>2453.421875</ele>
        <time>2011-07-09T13:51:29Z</time>
      </trkpt>
      <trkpt lat="45.3592" lon="6.64162">
        <ele>2453.9025878906</ele>
        <time>2011-07-09T13:51:36Z</time>
      </trkpt>
      <trkpt lat="45.3592" lon="6.64162">
        <ele>2454.3830566406</ele>
        <time>2011-07-09T13:51:41Z</time>
      </trkpt>
      <trkpt lat="45.35919" lon="6.64159">
        <ele>2454.8637695312</ele>
        <time>2011-07-09T13:51:48Z</time>
      </trkpt>
      <trkpt lat="45.35915" lon="6.64154">
        <ele>2455.8249511719</ele>
        <time>2011-07-09T13:51:52Z</time>
      </trkpt>
      <trkpt lat="45.35912" lon="6.64148">
        <ele>2456.3056640625</ele>
        <time>2011-07-09T13:51:58Z</time>
      </trkpt>
      <trkpt lat="45.35911" lon="6.64141">
        <ele>2456.7863769531</ele>
        <time>2011-07-09T13:52:03Z</time>
      </trkpt>
      <trkpt lat="45.35912" lon="6.64137">
        <ele>2456.3056640625</ele>
        <time>2011-07-09T13:52:06Z</time>
      </trkpt>
      <trkpt lat="45.35912" lon="6.64125">
        <ele>2455.8249511719</ele>
        <time>2011-07-09T13:52:12Z</time>
      </trkpt>
      <trkpt lat="45.35913" lon="6.64115">
        <ele>2453.9025878906</ele>
        <time>2011-07-09T13:52:21Z</time>
      </trkpt>
      <trkpt lat="45.35914" lon="6.6411">
        <ele>2453.421875</ele>
        <time>2011-07-09T13:52:26Z</time>
      </trkpt>
      <trkpt lat="45.35914" lon="6.64105">
        <ele>2455.3444824219</ele>
        <time>2011-07-09T13:52:34Z</time>
      </trkpt>
      <trkpt lat="45.35914" lon="6.64102">
        <ele>2455.3444824219</ele>
        <time>2011-07-09T13:52:41Z</time>
      </trkpt>
      <trkpt lat="45.35915" lon="6.64099">
        <ele>2455.3444824219</ele>
        <time>2011-07-09T13:52:45Z</time>
      </trkpt>
      <trkpt lat="45.35917" lon="6.64091">
        <ele>2456.3056640625</ele>
        <time>2011-07-09T13:52:52Z</time>
      </trkpt>
      <trkpt lat="45.35918" lon="6.64089">
        <ele>2456.3056640625</ele>
        <time>2011-07-09T13:52:59Z</time>
      </trkpt>
      <trkpt lat="45.35918" lon="6.64089">
        <ele>2456.3056640625</ele>
        <time>2011-07-09T13:53:13Z</time>
      </trkpt>
      <trkpt lat="45.35918" lon="6.64089">
        <ele>2457.7478027344</ele>
        <time>2011-07-09T13:53:19Z</time>
      </trkpt>
      <trkpt lat="45.35917" lon="6.64088">
        <ele>2458.708984375</ele>
        <time>2011-07-09T13:53:28Z</time>
      </trkpt>
      <trkpt lat="45.35921" lon="6.6409">
        <ele>2461.5932617188</ele>
        <time>2011-07-09T13:53:52Z</time>
      </trkpt>
      <trkpt lat="45.35921" lon="6.64087">
        <ele>2456.7863769531</ele>
        <time>2011-07-09T13:54:03Z</time>
      </trkpt>
      <trkpt lat="45.35921" lon="6.64083">
        <ele>2456.7863769531</ele>
        <time>2011-07-09T13:54:13Z</time>
      </trkpt>
      <trkpt lat="45.35921" lon="6.64077">
        <ele>2457.2670898438</ele>
        <time>2011-07-09T13:54:19Z</time>
      </trkpt>
      <trkpt lat="45.35923" lon="6.64073">
        <ele>2457.7478027344</ele>
        <time>2011-07-09T13:54:24Z</time>
      </trkpt>
      <trkpt lat="45.35923" lon="6.6407">
        <ele>2457.7478027344</ele>
        <time>2011-07-09T13:54:28Z</time>
      </trkpt>
      <trkpt lat="45.35923" lon="6.64069">
        <ele>2457.2670898438</ele>
        <time>2011-07-09T13:54:36Z</time>
      </trkpt>
      <trkpt lat="45.35923" lon="6.6407">
        <ele>2457.2670898438</ele>
        <time>2011-07-09T13:54:41Z</time>
      </trkpt>
      <trkpt lat="45.35923" lon="6.64069">
        <ele>2457.2670898438</ele>
        <time>2011-07-09T13:54:48Z</time>
      </trkpt>
      <trkpt lat="45.35926" lon="6.64068">
        <ele>2455.3444824219</ele>
        <time>2011-07-09T13:55:08Z</time>
      </trkpt>
      <trkpt lat="45.35926" lon="6.64067">
        <ele>2455.3444824219</ele>
        <time>2011-07-09T13:55:18Z</time>
      </trkpt>
      <trkpt lat="45.35928" lon="6.64066">
        <ele>2455.3444824219</ele>
        <time>2011-07-09T13:55:27Z</time>
      </trkpt>
      <trkpt lat="45.35926" lon="6.64066">
        <ele>2454.3830566406</ele>
        <time>2011-07-09T13:55:31Z</time>
      </trkpt>
      <trkpt lat="45.35924" lon="6.64067">
        <ele>2447.1733398438</ele>
        <time>2011-07-09T13:55:45Z</time>
      </trkpt>
      <trkpt lat="45.35923" lon="6.64067">
        <ele>2447.6540527344</ele>
        <time>2011-07-09T13:55:54Z</time>
      </trkpt>
      <trkpt lat="45.35923" lon="6.64069">
        <ele>2449.0959472656</ele>
        <time>2011-07-09T13:55:58Z</time>
      </trkpt>
      <trkpt lat="45.35923" lon="6.64068">
        <ele>2451.0185546875</ele>
        <time>2011-07-09T13:56:06Z</time>
      </trkpt>
      <trkpt lat="45.35923" lon="6.64068">
        <ele>2454.8637695312</ele>
        <time>2011-07-09T13:56:15Z</time>
      </trkpt>
      <trkpt lat="45.35924" lon="6.64068">
        <ele>2458.708984375</ele>
        <time>2011-07-09T13:56:24Z</time>
      </trkpt>
      <trkpt lat="45.35923" lon="6.64068">
        <ele>2459.1896972656</ele>
        <time>2011-07-09T13:56:40Z</time>
      </trkpt>
      <trkpt lat="45.35922" lon="6.64069">
        <ele>2458.2282714844</ele>
        <time>2011-07-09T13:56:53Z</time>
      </trkpt>
      <trkpt lat="45.35923" lon="6.64069">
        <ele>2458.2282714844</ele>
        <time>2011-07-09T13:57:03Z</time>
      </trkpt>
      <trkpt lat="45.35924" lon="6.64069">
        <ele>2459.6701660156</ele>
        <time>2011-07-09T13:57:21Z</time>
      </trkpt>
      <trkpt lat="45.35924" lon="6.64071">
        <ele>2461.5932617188</ele>
        <time>2011-07-09T13:57:35Z</time>
      </trkpt>
      <trkpt lat="45.35925" lon="6.6407">
        <ele>2459.6701660156</ele>
        <time>2011-07-09T13:57:44Z</time>
      </trkpt>
      <trkpt lat="45.35925" lon="6.64069">
        <ele>2456.7863769531</ele>
        <time>2011-07-09T13:57:55Z</time>
      </trkpt>
      <trkpt lat="45.35925" lon="6.64069">
        <ele>2456.3056640625</ele>
        <time>2011-07-09T13:58:01Z</time>
      </trkpt>
      <trkpt lat="45.35923" lon="6.64068">
        <ele>2455.3444824219</ele>
        <time>2011-07-09T13:58:05Z</time>
      </trkpt>
      <trkpt lat="45.35922" lon="6.64068">
        <ele>2454.8637695312</ele>
        <time>2011-07-09T13:58:09Z</time>
      </trkpt>
      <trkpt lat="45.35921" lon="6.64068">
        <ele>2454.3830566406</ele>
        <time>2011-07-09T13:58:17Z</time>
      </trkpt>
      <trkpt lat="45.35921" lon="6.64067">
        <ele>2454.8637695312</ele>
        <time>2011-07-09T13:58:21Z</time>
      </trkpt>
      <trkpt lat="45.35921" lon="6.64071">
        <ele>2454.8637695312</ele>
        <time>2011-07-09T13:58:24Z</time>
      </trkpt>
      <trkpt lat="45.35917" lon="6.64079">
        <ele>2455.8249511719</ele>
        <time>2011-07-09T13:58:31Z</time>
      </trkpt>
      <trkpt lat="45.35915" lon="6.64086">
        <ele>2456.7863769531</ele>
        <time>2011-07-09T13:58:39Z</time>
      </trkpt>
      <trkpt lat="45.35915" lon="6.64089">
        <ele>2456.3056640625</ele>
        <time>2011-07-09T13:58:48Z</time>
      </trkpt>
      <trkpt lat="45.35913" lon="6.641">
        <ele>2455.3444824219</ele>
        <time>2011-07-09T13:58:55Z</time>
      </trkpt>
      <trkpt lat="45.35912" lon="6.64112">
        <ele>2454.3830566406</ele>
        <time>2011-07-09T13:59:02Z</time>
      </trkpt>
      <trkpt lat="45.3591" lon="6.64122">
        <ele>2454.3830566406</ele>
        <time>2011-07-09T13:59:09Z</time>
      </trkpt>
      <trkpt lat="45.3591" lon="6.64135">
        <ele>2453.9025878906</ele>
        <time>2011-07-09T13:59:17Z</time>
      </trkpt>
      <trkpt lat="45.35909" lon="6.64146">
        <ele>2455.3444824219</ele>
        <time>2011-07-09T13:59:25Z</time>
      </trkpt>
      <trkpt lat="45.35911" lon="6.64149">
        <ele>2454.8637695312</ele>
        <time>2011-07-09T13:59:32Z</time>
      </trkpt>
      <trkpt lat="45.3591" lon="6.64149">
        <ele>2456.7863769531</ele>
        <time>2011-07-09T13:59:37Z</time>
      </trkpt>
      <trkpt lat="45.35908" lon="6.64147">
        <ele>2456.7863769531</ele>
        <time>2011-07-09T13:59:44Z</time>
      </trkpt>
      <trkpt lat="45.35909" lon="6.64147">
        <ele>2455.3444824219</ele>
        <time>2011-07-09T13:59:54Z</time>
      </trkpt>
      <trkpt lat="45.35909" lon="6.64144">
        <ele>2455.8249511719</ele>
        <time>2011-07-09T14:00:04Z</time>
      </trkpt>
      <trkpt lat="45.35908" lon="6.64147">
        <ele>2459.1896972656</ele>
        <time>2011-07-09T14:00:13Z</time>
      </trkpt>
      <trkpt lat="45.35909" lon="6.64148">
        <ele>2458.2282714844</ele>
        <time>2011-07-09T14:00:17Z</time>
      </trkpt>
      <trkpt lat="45.35909" lon="6.64148">
        <ele>2457.7478027344</ele>
        <time>2011-07-09T14:00:23Z</time>
      </trkpt>
      <trkpt lat="45.35909" lon="6.64148">
        <ele>2457.2670898438</ele>
        <time>2011-07-09T14:00:26Z</time>
      </trkpt>
      <trkpt lat="45.35909" lon="6.64148">
        <ele>2457.2670898438</ele>
        <time>2011-07-09T14:00:27Z</time>
      </trkpt>
      <trkpt lat="45.3591" lon="6.64148">
        <ele>2457.2670898438</ele>
        <time>2011-07-09T14:00:28Z</time>
      </trkpt>
      <trkpt lat="45.3591" lon="6.64148">
        <ele>2456.3056640625</ele>
        <time>2011-07-09T14:00:42Z</time>
      </trkpt>
      <trkpt lat="45.35909" lon="6.64148">
        <ele>2456.3056640625</ele>
        <time>2011-07-09T14:00:51Z</time>
      </trkpt>
      <trkpt lat="45.35909" lon="6.64147">
        <ele>2457.7478027344</ele>
        <time>2011-07-09T14:00:56Z</time>
      </trkpt>
      <trkpt lat="45.35908" lon="6.64145">
        <ele>2459.1896972656</ele>
        <time>2011-07-09T14:01:03Z</time>
      </trkpt>
      <trkpt lat="45.3591" lon="6.64142">
        <ele>2458.2282714844</ele>
        <time>2011-07-09T14:01:07Z</time>
      </trkpt>
      <trkpt lat="45.3591" lon="6.64142">
        <ele>2457.7478027344</ele>
        <time>2011-07-09T14:01:09Z</time>
      </trkpt>
      <trkpt lat="45.3591" lon="6.64143">
        <ele>2458.2282714844</ele>
        <time>2011-07-09T14:01:11Z</time>
      </trkpt>
      <trkpt lat="45.3591" lon="6.64143">
        <ele>2459.1896972656</ele>
        <time>2011-07-09T14:01:13Z</time>
      </trkpt>
      <trkpt lat="45.35909" lon="6.64142">
        <ele>2459.6701660156</ele>
        <time>2011-07-09T14:01:15Z</time>
      </trkpt>
      <trkpt lat="45.35907" lon="6.64145">
        <ele>2458.708984375</ele>
        <time>2011-07-09T14:01:19Z</time>
      </trkpt>
      <trkpt lat="45.35907" lon="6.64146">
        <ele>2458.708984375</ele>
        <time>2011-07-09T14:01:29Z</time>
      </trkpt>
      <trkpt lat="45.35909" lon="6.64149">
        <ele>2457.2670898438</ele>
        <time>2011-07-09T14:01:34Z</time>
      </trkpt>
      <trkpt lat="45.35911" lon="6.6415">
        <ele>2456.3056640625</ele>
        <time>2011-07-09T14:01:42Z</time>
      </trkpt>
      <trkpt lat="45.35911" lon="6.6415">
        <ele>2455.8249511719</ele>
        <time>2011-07-09T14:01:45Z</time>
      </trkpt>
      <trkpt lat="45.35911" lon="6.6415">
        <ele>2455.8249511719</ele>
        <time>2011-07-09T14:01:47Z</time>
      </trkpt>
      <trkpt lat="45.35911" lon="6.6415">
        <ele>2455.3444824219</ele>
        <time>2011-07-09T14:01:48Z</time>
      </trkpt>
      <trkpt lat="45.35913" lon="6.64144">
        <ele>2457.2670898438</ele>
        <time>2011-07-09T14:01:54Z</time>
      </trkpt>
      <trkpt lat="45.35913" lon="6.64144">
        <ele>2457.2670898438</ele>
        <time>2011-07-09T14:01:58Z</time>
      </trkpt>
      <trkpt lat="45.35914" lon="6.64145">
        <ele>2457.2670898438</ele>
        <time>2011-07-09T14:02:01Z</time>
      </trkpt>
      <trkpt lat="45.35914" lon="6.64151">
        <ele>2456.3056640625</ele>
        <time>2011-07-09T14:02:04Z</time>
      </trkpt>
      <trkpt lat="45.35912" lon="6.64151">
        <ele>2453.421875</ele>
        <time>2011-07-09T14:02:13Z</time>
      </trkpt>
      <trkpt lat="45.35912" lon="6.6415">
        <ele>2453.421875</ele>
        <time>2011-07-09T14:02:19Z</time>
      </trkpt>
      <trkpt lat="45.35912" lon="6.64149">
        <ele>2452.4604492188</ele>
        <time>2011-07-09T14:02:23Z</time>
      </trkpt>
      <trkpt lat="45.35912" lon="6.64149">
        <ele>2453.421875</ele>
        <time>2011-07-09T14:02:24Z</time>
      </trkpt>
      <trkpt lat="45.35915" lon="6.64152">
        <ele>2454.8637695312</ele>
        <time>2011-07-09T14:02:28Z</time>
      </trkpt>
      <trkpt lat="45.35921" lon="6.64159">
        <ele>2453.9025878906</ele>
        <time>2011-07-09T14:02:34Z</time>
      </trkpt>
      <trkpt lat="45.35921" lon="6.6416">
        <ele>2453.9025878906</ele>
        <time>2011-07-09T14:02:38Z</time>
      </trkpt>
      <trkpt lat="45.35921" lon="6.64151">
        <ele>2452.9411621094</ele>
        <time>2011-07-09T14:02:44Z</time>
      </trkpt>
      <trkpt lat="45.35921" lon="6.64148">
        <ele>2452.9411621094</ele>
        <time>2011-07-09T14:02:50Z</time>
      </trkpt>
      <trkpt lat="45.3592" lon="6.64149">
        <ele>2453.421875</ele>
        <time>2011-07-09T14:02:56Z</time>
      </trkpt>
      <trkpt lat="45.3592" lon="6.64153">
        <ele>2453.421875</ele>
        <time>2011-07-09T14:03:01Z</time>
      </trkpt>
      <trkpt lat="45.3592" lon="6.64153">
        <ele>2452.9411621094</ele>
        <time>2011-07-09T14:03:04Z</time>
      </trkpt>
      <trkpt lat="45.35919" lon="6.64159">
        <ele>2453.9025878906</ele>
        <time>2011-07-09T14:03:10Z</time>
      </trkpt>
      <trkpt lat="45.35919" lon="6.64162">
        <ele>2453.9025878906</ele>
        <time>2011-07-09T14:03:14Z</time>
      </trkpt>
      <trkpt lat="45.35921" lon="6.64165">
        <ele>2454.3830566406</ele>
        <time>2011-07-09T14:03:18Z</time>
      </trkpt>
      <trkpt lat="45.35927" lon="6.6417">
        <ele>2454.8637695312</ele>
        <time>2011-07-09T14:03:23Z</time>
      </trkpt>
      <trkpt lat="45.35931" lon="6.64175">
        <ele>2458.2282714844</ele>
        <time>2011-07-09T14:03:30Z</time>
      </trkpt>
      <trkpt lat="45.35932" lon="6.64178">
        <ele>2459.1896972656</ele>
        <time>2011-07-09T14:03:36Z</time>
      </trkpt>
      <trkpt lat="45.35932" lon="6.64179">
        <ele>2460.1511230469</ele>
        <time>2011-07-09T14:03:40Z</time>
      </trkpt>
      <trkpt lat="45.35937" lon="6.64184">
        <ele>2462.5544433594</ele>
        <time>2011-07-09T14:03:47Z</time>
      </trkpt>
      <trkpt lat="45.35939" lon="6.64187">
        <ele>2465.4384765625</ele>
        <time>2011-07-09T14:03:54Z</time>
      </trkpt>
      <trkpt lat="45.35946" lon="6.64189">
        <ele>2464.4770507812</ele>
        <time>2011-07-09T14:04:16Z</time>
      </trkpt>
      <trkpt lat="45.35947" lon="6.64196">
        <ele>2467.8415527344</ele>
        <time>2011-07-09T14:04:20Z</time>
      </trkpt>
      <trkpt lat="45.35951" lon="6.64205">
        <ele>2471.2060546875</ele>
        <time>2011-07-09T14:04:27Z</time>
      </trkpt>
      <trkpt lat="45.35953" lon="6.64207">
        <ele>2473.12890625</ele>
        <time>2011-07-09T14:04:30Z</time>
      </trkpt>
      <trkpt lat="45.35955" lon="6.64219">
        <ele>2478.4162597656</ele>
        <time>2011-07-09T14:04:39Z</time>
      </trkpt>
      <trkpt lat="45.35956" lon="6.64219">
        <ele>2479.3774414062</ele>
        <time>2011-07-09T14:04:45Z</time>
      </trkpt>
      <trkpt lat="45.35957" lon="6.64218">
        <ele>2472.1674804688</ele>
        <time>2011-07-09T14:04:51Z</time>
      </trkpt>
      <trkpt lat="45.35959" lon="6.64213">
        <ele>2463.9963378906</ele>
        <time>2011-07-09T14:04:59Z</time>
      </trkpt>
      <trkpt lat="45.3596" lon="6.64213">
        <ele>2463.03515625</ele>
        <time>2011-07-09T14:05:05Z</time>
      </trkpt>
      <trkpt lat="45.35962" lon="6.64221">
        <ele>2460.6318359375</ele>
        <time>2011-07-09T14:05:15Z</time>
      </trkpt>
      <trkpt lat="45.35963" lon="6.6422">
        <ele>2460.6318359375</ele>
        <time>2011-07-09T14:05:25Z</time>
      </trkpt>
      <trkpt lat="45.35962" lon="6.64223">
        <ele>2460.6318359375</ele>
        <time>2011-07-09T14:05:28Z</time>
      </trkpt>
      <trkpt lat="45.35959" lon="6.64229">
        <ele>2460.6318359375</ele>
        <time>2011-07-09T14:05:33Z</time>
      </trkpt>
      <trkpt lat="45.35955" lon="6.64241">
        <ele>2460.1511230469</ele>
        <time>2011-07-09T14:05:41Z</time>
      </trkpt>
      <trkpt lat="45.3595" lon="6.64249">
        <ele>2459.1896972656</ele>
        <time>2011-07-09T14:05:47Z</time>
      </trkpt>
      <trkpt lat="45.35949" lon="6.64254">
        <ele>2457.7478027344</ele>
        <time>2011-07-09T14:05:53Z</time>
      </trkpt>
      <trkpt lat="45.35943" lon="6.64265">
        <ele>2455.8249511719</ele>
        <time>2011-07-09T14:06:03Z</time>
      </trkpt>
      <trkpt lat="45.35939" lon="6.64272">
        <ele>2455.3444824219</ele>
        <time>2011-07-09T14:06:09Z</time>
      </trkpt>
      <trkpt lat="45.35932" lon="6.64278">
        <ele>2455.3444824219</ele>
        <time>2011-07-09T14:06:16Z</time>
      </trkpt>
      <trkpt lat="45.3593" lon="6.6428">
        <ele>2455.3444824219</ele>
        <time>2011-07-09T14:06:22Z</time>
      </trkpt>
      <trkpt lat="45.35931" lon="6.6428">
        <ele>2454.8637695312</ele>
        <time>2011-07-09T14:06:28Z</time>
      </trkpt>
      <trkpt lat="45.35931" lon="6.64279">
        <ele>2454.8637695312</ele>
        <time>2011-07-09T14:06:33Z</time>
      </trkpt>
      <trkpt lat="45.35931" lon="6.64281">
        <ele>2456.3056640625</ele>
        <time>2011-07-09T14:06:39Z</time>
      </trkpt>
      <trkpt lat="45.3593" lon="6.64281">
        <ele>2456.7863769531</ele>
        <time>2011-07-09T14:06:46Z</time>
      </trkpt>
      <trkpt lat="45.35929" lon="6.64283">
        <ele>2458.2282714844</ele>
        <time>2011-07-09T14:07:03Z</time>
      </trkpt>
      <trkpt lat="45.35928" lon="6.64282">
        <ele>2457.7478027344</ele>
        <time>2011-07-09T14:07:15Z</time>
      </trkpt>
      <trkpt lat="45.35928" lon="6.64282">
        <ele>2457.7478027344</ele>
        <time>2011-07-09T14:07:26Z</time>
      </trkpt>
      <trkpt lat="45.35928" lon="6.64282">
        <ele>2458.708984375</ele>
        <time>2011-07-09T14:07:36Z</time>
      </trkpt>
      <trkpt lat="45.35928" lon="6.64282">
        <ele>2458.708984375</ele>
        <time>2011-07-09T14:07:38Z</time>
      </trkpt>
      <trkpt lat="45.35928" lon="6.64283">
        <ele>2458.708984375</ele>
        <time>2011-07-09T14:07:40Z</time>
      </trkpt>
      <trkpt lat="45.35928" lon="6.64283">
        <ele>2458.708984375</ele>
        <time>2011-07-09T14:07:42Z</time>
      </trkpt>
      <trkpt lat="45.35927" lon="6.64284">
        <ele>2458.708984375</ele>
        <time>2011-07-09T14:07:48Z</time>
      </trkpt>
      <trkpt lat="45.35921" lon="6.64294">
        <ele>2457.7478027344</ele>
        <time>2011-07-09T14:07:54Z</time>
      </trkpt>
      <trkpt lat="45.35918" lon="6.64305">
        <ele>2455.3444824219</ele>
        <time>2011-07-09T14:07:59Z</time>
      </trkpt>
      <trkpt lat="45.35918" lon="6.64314">
        <ele>2453.9025878906</ele>
        <time>2011-07-09T14:08:03Z</time>
      </trkpt>
      <trkpt lat="45.35918" lon="6.64318">
        <ele>2452.9411621094</ele>
        <time>2011-07-09T14:08:09Z</time>
      </trkpt>
      <trkpt lat="45.35917" lon="6.64321">
        <ele>2452.4604492188</ele>
        <time>2011-07-09T14:08:14Z</time>
      </trkpt>
      <trkpt lat="45.35914" lon="6.64329">
        <ele>2451.4992675781</ele>
        <time>2011-07-09T14:08:21Z</time>
      </trkpt>
      <trkpt lat="45.35915" lon="6.64346">
        <ele>2449.0959472656</ele>
        <time>2011-07-09T14:08:27Z</time>
      </trkpt>
      <trkpt lat="45.35916" lon="6.64363">
        <ele>2447.1733398438</ele>
        <time>2011-07-09T14:08:32Z</time>
      </trkpt>
      <trkpt lat="45.35915" lon="6.64386">
        <ele>2445.2507324219</ele>
        <time>2011-07-09T14:08:39Z</time>
      </trkpt>
      <trkpt lat="45.3591" lon="6.64409">
        <ele>2443.80859375</ele>
        <time>2011-07-09T14:08:45Z</time>
      </trkpt>
      <trkpt lat="45.35904" lon="6.64427">
        <ele>2442.8471679688</ele>
        <time>2011-07-09T14:08:50Z</time>
      </trkpt>
      <trkpt lat="45.35895" lon="6.64443">
        <ele>2440.9245605469</ele>
        <time>2011-07-09T14:08:56Z</time>
      </trkpt>
      <trkpt lat="45.3589" lon="6.64455">
        <ele>2440.4438476562</ele>
        <time>2011-07-09T14:09:01Z</time>
      </trkpt>
      <trkpt lat="45.35891" lon="6.64455">
        <ele>2440.9245605469</ele>
        <time>2011-07-09T14:09:06Z</time>
      </trkpt>
      <trkpt lat="45.35891" lon="6.64455">
        <ele>2440.4438476562</ele>
        <time>2011-07-09T14:09:09Z</time>
      </trkpt>
      <trkpt lat="45.3589" lon="6.64456">
        <ele>2439.9633789062</ele>
        <time>2011-07-09T14:09:17Z</time>
      </trkpt>
      <trkpt lat="45.35887" lon="6.64461">
        <ele>2437.0793457031</ele>
        <time>2011-07-09T14:09:23Z</time>
      </trkpt>
      <trkpt lat="45.35882" lon="6.64473">
        <ele>2432.7534179688</ele>
        <time>2011-07-09T14:09:33Z</time>
      </trkpt>
      <trkpt lat="45.3588" lon="6.64477">
        <ele>2431.7922363281</ele>
        <time>2011-07-09T14:09:39Z</time>
      </trkpt>
      <trkpt lat="45.35877" lon="6.64489">
        <ele>2430.8310546875</ele>
        <time>2011-07-09T14:09:47Z</time>
      </trkpt>
      <trkpt lat="45.35873" lon="6.64498">
        <ele>2429.8696289062</ele>
        <time>2011-07-09T14:09:52Z</time>
      </trkpt>
      <trkpt lat="45.35868" lon="6.64505">
        <ele>2430.3503417969</ele>
        <time>2011-07-09T14:09:57Z</time>
      </trkpt>
      <trkpt lat="45.35863" lon="6.64508">
        <ele>2430.3503417969</ele>
        <time>2011-07-09T14:10:01Z</time>
      </trkpt>
      <trkpt lat="45.35853" lon="6.64527">
        <ele>2428.908203125</ele>
        <time>2011-07-09T14:10:08Z</time>
      </trkpt>
      <trkpt lat="45.35849" lon="6.6454">
        <ele>2426.0241699219</ele>
        <time>2011-07-09T14:10:13Z</time>
      </trkpt>
      <trkpt lat="45.35846" lon="6.64558">
        <ele>2423.6208496094</ele>
        <time>2011-07-09T14:10:18Z</time>
      </trkpt>
      <trkpt lat="45.35845" lon="6.64569">
        <ele>2421.6982421875</ele>
        <time>2011-07-09T14:10:23Z</time>
      </trkpt>
      <trkpt lat="45.35845" lon="6.64573">
        <ele>2420.2563476562</ele>
        <time>2011-07-09T14:10:30Z</time>
      </trkpt>
      <trkpt lat="45.35845" lon="6.64576">
        <ele>2419.7756347656</ele>
        <time>2011-07-09T14:10:34Z</time>
      </trkpt>
      <trkpt lat="45.35846" lon="6.64576">
        <ele>2417.8530273438</ele>
        <time>2011-07-09T14:10:46Z</time>
      </trkpt>
      <trkpt lat="45.35846" lon="6.64577">
        <ele>2416.8918457031</ele>
        <time>2011-07-09T14:10:52Z</time>
      </trkpt>
      <trkpt lat="45.35844" lon="6.64589">
        <ele>2416.4111328125</ele>
        <time>2011-07-09T14:10:56Z</time>
      </trkpt>
      <trkpt lat="45.3584" lon="6.64614">
        <ele>2415.9304199219</ele>
        <time>2011-07-09T14:11:01Z</time>
      </trkpt>
      <trkpt lat="45.35838" lon="6.64631">
        <ele>2414.0078125</ele>
        <time>2011-07-09T14:11:06Z</time>
      </trkpt>
      <trkpt lat="45.35833" lon="6.64658">
        <ele>2411.6044921875</ele>
        <time>2011-07-09T14:11:12Z</time>
      </trkpt>
      <trkpt lat="45.35837" lon="6.64681">
        <ele>2409.681640625</ele>
        <time>2011-07-09T14:11:17Z</time>
      </trkpt>
      <trkpt lat="45.35843" lon="6.64701">
        <ele>2407.2785644531</ele>
        <time>2011-07-09T14:11:22Z</time>
      </trkpt>
      <trkpt lat="45.3585" lon="6.64711">
        <ele>2405.8364257812</ele>
        <time>2011-07-09T14:11:26Z</time>
      </trkpt>
      <trkpt lat="45.35857" lon="6.64729">
        <ele>2403.9140625</ele>
        <time>2011-07-09T14:11:31Z</time>
      </trkpt>
      <trkpt lat="45.35861" lon="6.6475">
        <ele>2402.4719238281</ele>
        <time>2011-07-09T14:11:36Z</time>
      </trkpt>
      <trkpt lat="45.35866" lon="6.64773">
        <ele>2401.9912109375</ele>
        <time>2011-07-09T14:11:42Z</time>
      </trkpt>
      <trkpt lat="45.35872" lon="6.64797">
        <ele>2401.9912109375</ele>
        <time>2011-07-09T14:11:48Z</time>
      </trkpt>
      <trkpt lat="45.35881" lon="6.64828">
        <ele>2401.9912109375</ele>
        <time>2011-07-09T14:11:57Z</time>
      </trkpt>
      <trkpt lat="45.35886" lon="6.64846">
        <ele>2401.5107421875</ele>
        <time>2011-07-09T14:12:04Z</time>
      </trkpt>
      <trkpt lat="45.35888" lon="6.64864">
        <ele>2401.9912109375</ele>
        <time>2011-07-09T14:12:10Z</time>
      </trkpt>
      <trkpt lat="45.3589" lon="6.64886">
        <ele>2403.4333496094</ele>
        <time>2011-07-09T14:12:16Z</time>
      </trkpt>
      <trkpt lat="45.35891" lon="6.64891">
        <ele>2403.4333496094</ele>
        <time>2011-07-09T14:12:18Z</time>
      </trkpt>
      <trkpt lat="45.3589" lon="6.64899">
        <ele>2403.9140625</ele>
        <time>2011-07-09T14:12:22Z</time>
      </trkpt>
      <trkpt lat="45.35892" lon="6.64916">
        <ele>2404.39453125</ele>
        <time>2011-07-09T14:12:27Z</time>
      </trkpt>
      <trkpt lat="45.35898" lon="6.64932">
        <ele>2403.4333496094</ele>
        <time>2011-07-09T14:12:32Z</time>
      </trkpt>
      <trkpt lat="45.35905" lon="6.64956">
        <ele>2402.4719238281</ele>
        <time>2011-07-09T14:12:37Z</time>
      </trkpt>
      <trkpt lat="45.35902" lon="6.64981">
        <ele>2401.9912109375</ele>
        <time>2011-07-09T14:12:43Z</time>
      </trkpt>
      <trkpt lat="45.35902" lon="6.64989">
        <ele>2401.9912109375</ele>
        <time>2011-07-09T14:12:45Z</time>
      </trkpt>
      <trkpt lat="45.35909" lon="6.65009">
        <ele>2401.0300292969</ele>
        <time>2011-07-09T14:12:52Z</time>
      </trkpt>
      <trkpt lat="45.35915" lon="6.6502">
        <ele>2400.5493164062</ele>
        <time>2011-07-09T14:12:57Z</time>
      </trkpt>
      <trkpt lat="45.35924" lon="6.65039">
        <ele>2400.0688476562</ele>
        <time>2011-07-09T14:13:05Z</time>
      </trkpt>
      <trkpt lat="45.3593" lon="6.65052">
        <ele>2399.5881347656</ele>
        <time>2011-07-09T14:13:10Z</time>
      </trkpt>
      <trkpt lat="45.35938" lon="6.65069">
        <ele>2399.107421875</ele>
        <time>2011-07-09T14:13:16Z</time>
      </trkpt>
      <trkpt lat="45.35939" lon="6.65071">
        <ele>2399.107421875</ele>
        <time>2011-07-09T14:13:17Z</time>
      </trkpt>
      <trkpt lat="45.3594" lon="6.65077">
        <ele>2399.5881347656</ele>
        <time>2011-07-09T14:13:21Z</time>
      </trkpt>
      <trkpt lat="45.35942" lon="6.65081">
        <ele>2399.5881347656</ele>
        <time>2011-07-09T14:13:27Z</time>
      </trkpt>
      <trkpt lat="45.35943" lon="6.65083">
        <ele>2399.107421875</ele>
        <time>2011-07-09T14:13:28Z</time>
      </trkpt>
      <trkpt lat="45.35948" lon="6.65089">
        <ele>2399.5881347656</ele>
        <time>2011-07-09T14:13:33Z</time>
      </trkpt>
      <trkpt lat="45.35954" lon="6.651">
        <ele>2400.0688476562</ele>
        <time>2011-07-09T14:13:40Z</time>
      </trkpt>
      <trkpt lat="45.35953" lon="6.65099">
        <ele>2401.0300292969</ele>
        <time>2011-07-09T14:13:52Z</time>
      </trkpt>
      <trkpt lat="45.35953" lon="6.65099">
        <ele>2401.0300292969</ele>
        <time>2011-07-09T14:14:00Z</time>
      </trkpt>
      <trkpt lat="45.35957" lon="6.65103">
        <ele>2401.5107421875</ele>
        <time>2011-07-09T14:14:06Z</time>
      </trkpt>
      <trkpt lat="45.35962" lon="6.65108">
        <ele>2405.3559570312</ele>
        <time>2011-07-09T14:14:14Z</time>
      </trkpt>
      <trkpt lat="45.35964" lon="6.65107">
        <ele>2407.2785644531</ele>
        <time>2011-07-09T14:14:21Z</time>
      </trkpt>
      <trkpt lat="45.35968" lon="6.6511">
        <ele>2405.8364257812</ele>
        <time>2011-07-09T14:14:27Z</time>
      </trkpt>
      <trkpt lat="45.35974" lon="6.65116">
        <ele>2406.3171386719</ele>
        <time>2011-07-09T14:14:34Z</time>
      </trkpt>
      <trkpt lat="45.35982" lon="6.65122">
        <ele>2404.8752441406</ele>
        <time>2011-07-09T14:14:43Z</time>
      </trkpt>
      <trkpt lat="45.35988" lon="6.65128">
        <ele>2404.8752441406</ele>
        <time>2011-07-09T14:14:51Z</time>
      </trkpt>
      <trkpt lat="45.35995" lon="6.65133">
        <ele>2402.9526367188</ele>
        <time>2011-07-09T14:14:58Z</time>
      </trkpt>
      <trkpt lat="45.35997" lon="6.65136">
        <ele>2402.9526367188</ele>
        <time>2011-07-09T14:15:01Z</time>
      </trkpt>
      <trkpt lat="45.36009" lon="6.65149">
        <ele>2403.9140625</ele>
        <time>2011-07-09T14:15:14Z</time>
      </trkpt>
      <trkpt lat="45.36017" lon="6.65159">
        <ele>2404.8752441406</ele>
        <time>2011-07-09T14:15:23Z</time>
      </trkpt>
      <trkpt lat="45.36026" lon="6.65168">
        <ele>2406.7978515625</ele>
        <time>2011-07-09T14:15:32Z</time>
      </trkpt>
      <trkpt lat="45.36034" lon="6.6517">
        <ele>2406.7978515625</ele>
        <time>2011-07-09T14:15:40Z</time>
      </trkpt>
      <trkpt lat="45.36039" lon="6.65173">
        <ele>2409.201171875</ele>
        <time>2011-07-09T14:15:48Z</time>
      </trkpt>
      <trkpt lat="45.36042" lon="6.65178">
        <ele>2409.681640625</ele>
        <time>2011-07-09T14:15:56Z</time>
      </trkpt>
      <trkpt lat="45.36045" lon="6.65179">
        <ele>2409.201171875</ele>
        <time>2011-07-09T14:16:01Z</time>
      </trkpt>
      <trkpt lat="45.36049" lon="6.65178">
        <ele>2411.6044921875</ele>
        <time>2011-07-09T14:16:09Z</time>
      </trkpt>
      <trkpt lat="45.3605" lon="6.65178">
        <ele>2410.6430664062</ele>
        <time>2011-07-09T14:16:15Z</time>
      </trkpt>
      <trkpt lat="45.3605" lon="6.65178">
        <ele>2412.0852050781</ele>
        <time>2011-07-09T14:16:23Z</time>
      </trkpt>
      <trkpt lat="45.36049" lon="6.65177">
        <ele>2410.6430664062</ele>
        <time>2011-07-09T14:16:30Z</time>
      </trkpt>
      <trkpt lat="45.36049" lon="6.65176">
        <ele>2410.6430664062</ele>
        <time>2011-07-09T14:16:37Z</time>
      </trkpt>
      <trkpt lat="45.36049" lon="6.65176">
        <ele>2410.6430664062</ele>
        <time>2011-07-09T14:16:40Z</time>
      </trkpt>
      <trkpt lat="45.36049" lon="6.65175">
        <ele>2410.1623535156</ele>
        <time>2011-07-09T14:16:48Z</time>
      </trkpt>
      <trkpt lat="45.36048" lon="6.65176">
        <ele>2414.4885253906</ele>
        <time>2011-07-09T14:16:55Z</time>
      </trkpt>
      <trkpt lat="45.36048" lon="6.65176">
        <ele>2414.4885253906</ele>
        <time>2011-07-09T14:17:00Z</time>
      </trkpt>
      <trkpt lat="45.36049" lon="6.65176">
        <ele>2414.0078125</ele>
        <time>2011-07-09T14:17:08Z</time>
      </trkpt>
      <trkpt lat="45.3605" lon="6.65176">
        <ele>2411.6044921875</ele>
        <time>2011-07-09T14:17:23Z</time>
      </trkpt>
      <trkpt lat="45.3605" lon="6.65175">
        <ele>2410.6430664062</ele>
        <time>2011-07-09T14:17:28Z</time>
      </trkpt>
      <trkpt lat="45.36053" lon="6.65173">
        <ele>2410.1623535156</ele>
        <time>2011-07-09T14:17:31Z</time>
      </trkpt>
      <trkpt lat="45.36056" lon="6.6517">
        <ele>2413.5270996094</ele>
        <time>2011-07-09T14:17:37Z</time>
      </trkpt>
      <trkpt lat="45.36062" lon="6.65169">
        <ele>2418.814453125</ele>
        <time>2011-07-09T14:17:45Z</time>
      </trkpt>
      <trkpt lat="45.36065" lon="6.65167">
        <ele>2419.7756347656</ele>
        <time>2011-07-09T14:17:49Z</time>
      </trkpt>
      <trkpt lat="45.36066" lon="6.65164">
        <ele>2421.2175292969</ele>
        <time>2011-07-09T14:17:52Z</time>
      </trkpt>
      <trkpt lat="45.36071" lon="6.65157">
        <ele>2421.6982421875</ele>
        <time>2011-07-09T14:18:00Z</time>
      </trkpt>
      <trkpt lat="45.36075" lon="6.65155">
        <ele>2423.6208496094</ele>
        <time>2011-07-09T14:18:06Z</time>
      </trkpt>
      <trkpt lat="45.3608" lon="6.65156">
        <ele>2423.6208496094</ele>
        <time>2011-07-09T14:18:10Z</time>
      </trkpt>
      <trkpt lat="45.36082" lon="6.65159">
        <ele>2424.1015625</ele>
        <time>2011-07-09T14:18:13Z</time>
      </trkpt>
      <trkpt lat="45.36087" lon="6.65161">
        <ele>2423.1403808594</ele>
        <time>2011-07-09T14:18:20Z</time>
      </trkpt>
      <trkpt lat="45.36093" lon="6.65159">
        <ele>2424.1015625</ele>
        <time>2011-07-09T14:18:27Z</time>
      </trkpt>
      <trkpt lat="45.36093" lon="6.65157">
        <ele>2421.6982421875</ele>
        <time>2011-07-09T14:18:34Z</time>
      </trkpt>
      <trkpt lat="45.36095" lon="6.65157">
        <ele>2420.7370605469</ele>
        <time>2011-07-09T14:18:36Z</time>
      </trkpt>
      <trkpt lat="45.36103" lon="6.65158">
        <ele>2423.6208496094</ele>
        <time>2011-07-09T14:18:43Z</time>
      </trkpt>
      <trkpt lat="45.36112" lon="6.65161">
        <ele>2426.0241699219</ele>
        <time>2011-07-09T14:18:51Z</time>
      </trkpt>
      <trkpt lat="45.36124" lon="6.65162">
        <ele>2425.0627441406</ele>
        <time>2011-07-09T14:19:01Z</time>
      </trkpt>
      <trkpt lat="45.36137" lon="6.65164">
        <ele>2424.5822753906</ele>
        <time>2011-07-09T14:19:11Z</time>
      </trkpt>
      <trkpt lat="45.36147" lon="6.65167">
        <ele>2426.0241699219</ele>
        <time>2011-07-09T14:19:20Z</time>
      </trkpt>
      <trkpt lat="45.36148" lon="6.65167">
        <ele>2426.0241699219</ele>
        <time>2011-07-09T14:19:21Z</time>
      </trkpt>
      <trkpt lat="45.36156" lon="6.65166">
        <ele>2428.908203125</ele>
        <time>2011-07-09T14:19:30Z</time>
      </trkpt>
      <trkpt lat="45.3616" lon="6.65165">
        <ele>2428.908203125</ele>
        <time>2011-07-09T14:19:36Z</time>
      </trkpt>
      <trkpt lat="45.36164" lon="6.65161">
        <ele>2432.2729492188</ele>
        <time>2011-07-09T14:19:42Z</time>
      </trkpt>
      <trkpt lat="45.36169" lon="6.65153">
        <ele>2437.5600585938</ele>
        <time>2011-07-09T14:19:50Z</time>
      </trkpt>
      <trkpt lat="45.36172" lon="6.65146">
        <ele>2439.9633789062</ele>
        <time>2011-07-09T14:19:58Z</time>
      </trkpt>
      <trkpt lat="45.36175" lon="6.65146">
        <ele>2438.521484375</ele>
        <time>2011-07-09T14:20:04Z</time>
      </trkpt>
      <trkpt lat="45.36176" lon="6.65151">
        <ele>2439.001953125</ele>
        <time>2011-07-09T14:20:10Z</time>
      </trkpt>
      <trkpt lat="45.36176" lon="6.65152">
        <ele>2438.521484375</ele>
        <time>2011-07-09T14:20:15Z</time>
      </trkpt>
      <trkpt lat="45.36174" lon="6.65152">
        <ele>2437.0793457031</ele>
        <time>2011-07-09T14:20:20Z</time>
      </trkpt>
      <trkpt lat="45.36174" lon="6.65152">
        <ele>2437.5600585938</ele>
        <time>2011-07-09T14:20:26Z</time>
      </trkpt>
      <trkpt lat="45.36173" lon="6.65151">
        <ele>2438.521484375</ele>
        <time>2011-07-09T14:20:38Z</time>
      </trkpt>
      <trkpt lat="45.36172" lon="6.65151">
        <ele>2438.521484375</ele>
        <time>2011-07-09T14:20:48Z</time>
      </trkpt>
      <trkpt lat="45.36172" lon="6.6515">
        <ele>2438.521484375</ele>
        <time>2011-07-09T14:20:54Z</time>
      </trkpt>
      <trkpt lat="45.36172" lon="6.6515">
        <ele>2438.0407714844</ele>
        <time>2011-07-09T14:20:57Z</time>
      </trkpt>
      <trkpt lat="45.36172" lon="6.65149">
        <ele>2437.0793457031</ele>
        <time>2011-07-09T14:21:09Z</time>
      </trkpt>
      <trkpt lat="45.36172" lon="6.65148">
        <ele>2437.0793457031</ele>
        <time>2011-07-09T14:21:15Z</time>
      </trkpt>
      <trkpt lat="45.36171" lon="6.65147">
        <ele>2437.0793457031</ele>
        <time>2011-07-09T14:21:38Z</time>
      </trkpt>
      <trkpt lat="45.36171" lon="6.65147">
        <ele>2437.0793457031</ele>
        <time>2011-07-09T14:21:44Z</time>
      </trkpt>
      <trkpt lat="45.36171" lon="6.65147">
        <ele>2436.5986328125</ele>
        <time>2011-07-09T14:21:51Z</time>
      </trkpt>
      <trkpt lat="45.36171" lon="6.65147">
        <ele>2436.1181640625</ele>
        <time>2011-07-09T14:22:02Z</time>
      </trkpt>
      <trkpt lat="45.36172" lon="6.65148">
        <ele>2433.2341308594</ele>
        <time>2011-07-09T14:22:16Z</time>
      </trkpt>
      <trkpt lat="45.36172" lon="6.6515">
        <ele>2433.71484375</ele>
        <time>2011-07-09T14:22:41Z</time>
      </trkpt>
      <trkpt lat="45.36173" lon="6.65149">
        <ele>2433.71484375</ele>
        <time>2011-07-09T14:22:47Z</time>
      </trkpt>
      <trkpt lat="45.36173" lon="6.65149">
        <ele>2434.1955566406</ele>
        <time>2011-07-09T14:22:51Z</time>
      </trkpt>
      <trkpt lat="45.36173" lon="6.6515">
        <ele>2435.1567382812</ele>
        <time>2011-07-09T14:23:05Z</time>
      </trkpt>
      <trkpt lat="45.36174" lon="6.6515">
        <ele>2436.1181640625</ele>
        <time>2011-07-09T14:23:12Z</time>
      </trkpt>
      <trkpt lat="45.36177" lon="6.65156">
        <ele>2434.1955566406</ele>
        <time>2011-07-09T14:23:19Z</time>
      </trkpt>
      <trkpt lat="45.36178" lon="6.65159">
        <ele>2434.6762695312</ele>
        <time>2011-07-09T14:23:21Z</time>
      </trkpt>
      <trkpt lat="45.3618" lon="6.65162">
        <ele>2435.1567382812</ele>
        <time>2011-07-09T14:23:23Z</time>
      </trkpt>
      <trkpt lat="45.36182" lon="6.65166">
        <ele>2435.1567382812</ele>
        <time>2011-07-09T14:23:30Z</time>
      </trkpt>
      <trkpt lat="45.36185" lon="6.65162">
        <ele>2437.0793457031</ele>
        <time>2011-07-09T14:23:35Z</time>
      </trkpt>
      <trkpt lat="45.36186" lon="6.65158">
        <ele>2437.5600585938</ele>
        <time>2011-07-09T14:23:39Z</time>
      </trkpt>
      <trkpt lat="45.36189" lon="6.65153">
        <ele>2441.8859863281</ele>
        <time>2011-07-09T14:23:46Z</time>
      </trkpt>
      <trkpt lat="45.36191" lon="6.65153">
        <ele>2444.7700195312</ele>
        <time>2011-07-09T14:23:50Z</time>
      </trkpt>
      <trkpt lat="45.36193" lon="6.65159">
        <ele>2445.2507324219</ele>
        <time>2011-07-09T14:23:57Z</time>
      </trkpt>
      <trkpt lat="45.36194" lon="6.65164">
        <ele>2443.3278808594</ele>
        <time>2011-07-09T14:24:05Z</time>
      </trkpt>
      <trkpt lat="45.36196" lon="6.65169">
        <ele>2441.4052734375</ele>
        <time>2011-07-09T14:24:13Z</time>
      </trkpt>
      <trkpt lat="45.36198" lon="6.65173">
        <ele>2440.9245605469</ele>
        <time>2011-07-09T14:24:20Z</time>
      </trkpt>
      <trkpt lat="45.36201" lon="6.65179">
        <ele>2441.8859863281</ele>
        <time>2011-07-09T14:24:28Z</time>
      </trkpt>
      <trkpt lat="45.36205" lon="6.65182">
        <ele>2442.8471679688</ele>
        <time>2011-07-09T14:24:35Z</time>
      </trkpt>
      <trkpt lat="45.36211" lon="6.65186">
        <ele>2444.7700195312</ele>
        <time>2011-07-09T14:24:45Z</time>
      </trkpt>
      <trkpt lat="45.36216" lon="6.65191">
        <ele>2445.7314453125</ele>
        <time>2011-07-09T14:24:53Z</time>
      </trkpt>
      <trkpt lat="45.36221" lon="6.65195">
        <ele>2445.2507324219</ele>
        <time>2011-07-09T14:25:00Z</time>
      </trkpt>
      <trkpt lat="45.36225" lon="6.652">
        <ele>2445.7314453125</ele>
        <time>2011-07-09T14:25:07Z</time>
      </trkpt>
      <trkpt lat="45.36227" lon="6.65202">
        <ele>2445.7314453125</ele>
        <time>2011-07-09T14:25:15Z</time>
      </trkpt>
      <trkpt lat="45.36232" lon="6.65206">
        <ele>2447.1733398438</ele>
        <time>2011-07-09T14:25:22Z</time>
      </trkpt>
      <trkpt lat="45.36237" lon="6.65209">
        <ele>2448.615234375</ele>
        <time>2011-07-09T14:25:29Z</time>
      </trkpt>
      <trkpt lat="45.36242" lon="6.65212">
        <ele>2447.6540527344</ele>
        <time>2011-07-09T14:25:36Z</time>
      </trkpt>
      <trkpt lat="45.36245" lon="6.65215">
        <ele>2447.1733398438</ele>
        <time>2011-07-09T14:25:43Z</time>
      </trkpt>
      <trkpt lat="45.3625" lon="6.65221">
        <ele>2451.0185546875</ele>
        <time>2011-07-09T14:25:52Z</time>
      </trkpt>
      <trkpt lat="45.36256" lon="6.65224">
        <ele>2453.421875</ele>
        <time>2011-07-09T14:26:00Z</time>
      </trkpt>
      <trkpt lat="45.36265" lon="6.65229">
        <ele>2454.8637695312</ele>
        <time>2011-07-09T14:26:10Z</time>
      </trkpt>
      <trkpt lat="45.36272" lon="6.65234">
        <ele>2456.7863769531</ele>
        <time>2011-07-09T14:26:18Z</time>
      </trkpt>
      <trkpt lat="45.36277" lon="6.6524">
        <ele>2457.2670898438</ele>
        <time>2011-07-09T14:26:26Z</time>
      </trkpt>
      <trkpt lat="45.36282" lon="6.65243">
        <ele>2456.3056640625</ele>
        <time>2011-07-09T14:26:32Z</time>
      </trkpt>
      <trkpt lat="45.36288" lon="6.65248">
        <ele>2456.7863769531</ele>
        <time>2011-07-09T14:26:41Z</time>
      </trkpt>
      <trkpt lat="45.36296" lon="6.65253">
        <ele>2458.2282714844</ele>
        <time>2011-07-09T14:26:51Z</time>
      </trkpt>
      <trkpt lat="45.36301" lon="6.65257">
        <ele>2460.6318359375</ele>
        <time>2011-07-09T14:26:59Z</time>
      </trkpt>
      <trkpt lat="45.36306" lon="6.6526">
        <ele>2463.9963378906</ele>
        <time>2011-07-09T14:27:07Z</time>
      </trkpt>
      <trkpt lat="45.36311" lon="6.65262">
        <ele>2464.9577636719</ele>
        <time>2011-07-09T14:27:15Z</time>
      </trkpt>
      <trkpt lat="45.36316" lon="6.65262">
        <ele>2464.4770507812</ele>
        <time>2011-07-09T14:27:24Z</time>
      </trkpt>
      <trkpt lat="45.3632" lon="6.65267">
        <ele>2463.9963378906</ele>
        <time>2011-07-09T14:27:32Z</time>
      </trkpt>
      <trkpt lat="45.36323" lon="6.6527">
        <ele>2463.9963378906</ele>
        <time>2011-07-09T14:27:38Z</time>
      </trkpt>
      <trkpt lat="45.36328" lon="6.65274">
        <ele>2466.3996582031</ele>
        <time>2011-07-09T14:27:48Z</time>
      </trkpt>
      <trkpt lat="45.36332" lon="6.65278">
        <ele>2467.8415527344</ele>
        <time>2011-07-09T14:27:55Z</time>
      </trkpt>
      <trkpt lat="45.36336" lon="6.65281">
        <ele>2468.8029785156</ele>
        <time>2011-07-09T14:28:02Z</time>
      </trkpt>
      <trkpt lat="45.36342" lon="6.65288">
        <ele>2470.7255859375</ele>
        <time>2011-07-09T14:28:11Z</time>
      </trkpt>
      <trkpt lat="45.36347" lon="6.65291">
        <ele>2469.7641601562</ele>
        <time>2011-07-09T14:28:20Z</time>
      </trkpt>
      <trkpt lat="45.36353" lon="6.65291">
        <ele>2474.0900878906</ele>
        <time>2011-07-09T14:28:28Z</time>
      </trkpt>
      <trkpt lat="45.36356" lon="6.65296">
        <ele>2475.5319824219</ele>
        <time>2011-07-09T14:28:35Z</time>
      </trkpt>
      <trkpt lat="45.36359" lon="6.65303">
        <ele>2477.4548339844</ele>
        <time>2011-07-09T14:28:44Z</time>
      </trkpt>
      <trkpt lat="45.36362" lon="6.65312">
        <ele>2478.8967285156</ele>
        <time>2011-07-09T14:28:53Z</time>
      </trkpt>
      <trkpt lat="45.36365" lon="6.6532">
        <ele>2480.3388671875</ele>
        <time>2011-07-09T14:29:02Z</time>
      </trkpt>
      <trkpt lat="45.36366" lon="6.65326">
        <ele>2480.3388671875</ele>
        <time>2011-07-09T14:29:08Z</time>
      </trkpt>
      <trkpt lat="45.36366" lon="6.65327">
        <ele>2480.3388671875</ele>
        <time>2011-07-09T14:29:14Z</time>
      </trkpt>
      <trkpt lat="45.36367" lon="6.65331">
        <ele>2480.3388671875</ele>
        <time>2011-07-09T14:29:23Z</time>
      </trkpt>
      <trkpt lat="45.36367" lon="6.65336">
        <ele>2481.7807617188</ele>
        <time>2011-07-09T14:29:28Z</time>
      </trkpt>
      <trkpt lat="45.36369" lon="6.65341">
        <ele>2482.2614746094</ele>
        <time>2011-07-09T14:29:36Z</time>
      </trkpt>
      <trkpt lat="45.36369" lon="6.65344">
        <ele>2482.7419433594</ele>
        <time>2011-07-09T14:29:41Z</time>
      </trkpt>
      <trkpt lat="45.3637" lon="6.65344">
        <ele>2485.1452636719</ele>
        <time>2011-07-09T14:29:47Z</time>
      </trkpt>
      <trkpt lat="45.3637" lon="6.65344">
        <ele>2486.1066894531</ele>
        <time>2011-07-09T14:29:57Z</time>
      </trkpt>
      <trkpt lat="45.3637" lon="6.65344">
        <ele>2486.1066894531</ele>
        <time>2011-07-09T14:30:03Z</time>
      </trkpt>
      <trkpt lat="45.3637" lon="6.65344">
        <ele>2486.5871582031</ele>
        <time>2011-07-09T14:30:14Z</time>
      </trkpt>
      <trkpt lat="45.36372" lon="6.65343">
        <ele>2485.6259765625</ele>
        <time>2011-07-09T14:30:18Z</time>
      </trkpt>
      <trkpt lat="45.36372" lon="6.65342">
        <ele>2484.6647949219</ele>
        <time>2011-07-09T14:30:23Z</time>
      </trkpt>
      <trkpt lat="45.36375" lon="6.65347">
        <ele>2484.1840820312</ele>
        <time>2011-07-09T14:30:28Z</time>
      </trkpt>
      <trkpt lat="45.36381" lon="6.65353">
        <ele>2484.1840820312</ele>
        <time>2011-07-09T14:30:35Z</time>
      </trkpt>
      <trkpt lat="45.36388" lon="6.65361">
        <ele>2484.1840820312</ele>
        <time>2011-07-09T14:30:43Z</time>
      </trkpt>
      <trkpt lat="45.36394" lon="6.65368">
        <ele>2484.1840820312</ele>
        <time>2011-07-09T14:30:50Z</time>
      </trkpt>
      <trkpt lat="45.36399" lon="6.65376">
        <ele>2484.1840820312</ele>
        <time>2011-07-09T14:30:58Z</time>
      </trkpt>
      <trkpt lat="45.36405" lon="6.65384">
        <ele>2484.1840820312</ele>
        <time>2011-07-09T14:31:06Z</time>
      </trkpt>
      <trkpt lat="45.3641" lon="6.6539">
        <ele>2484.6647949219</ele>
        <time>2011-07-09T14:31:13Z</time>
      </trkpt>
      <trkpt lat="45.36411" lon="6.65392">
        <ele>2485.1452636719</ele>
        <time>2011-07-09T14:31:25Z</time>
      </trkpt>
      <trkpt lat="45.36416" lon="6.65399">
        <ele>2485.1452636719</ele>
        <time>2011-07-09T14:31:33Z</time>
      </trkpt>
      <trkpt lat="45.36421" lon="6.65403">
        <ele>2485.1452636719</ele>
        <time>2011-07-09T14:31:38Z</time>
      </trkpt>
      <trkpt lat="45.3643" lon="6.65409">
        <ele>2485.1452636719</ele>
        <time>2011-07-09T14:31:47Z</time>
      </trkpt>
      <trkpt lat="45.36437" lon="6.65417">
        <ele>2484.6647949219</ele>
        <time>2011-07-09T14:31:55Z</time>
      </trkpt>
      <trkpt lat="45.36442" lon="6.65423">
        <ele>2484.6647949219</ele>
        <time>2011-07-09T14:32:04Z</time>
      </trkpt>
      <trkpt lat="45.36442" lon="6.65423">
        <ele>2485.1452636719</ele>
        <time>2011-07-09T14:32:27Z</time>
      </trkpt>
      <trkpt lat="45.36442" lon="6.65423">
        <ele>2485.1452636719</ele>
        <time>2011-07-09T14:32:46Z</time>
      </trkpt>
      <trkpt lat="45.36442" lon="6.65423">
        <ele>2485.1452636719</ele>
        <time>2011-07-09T14:32:47Z</time>
      </trkpt>
      <trkpt lat="45.36447" lon="6.65428">
        <ele>2485.6259765625</ele>
        <time>2011-07-09T14:32:52Z</time>
      </trkpt>
      <trkpt lat="45.36453" lon="6.65436">
        <ele>2486.1066894531</ele>
        <time>2011-07-09T14:32:59Z</time>
      </trkpt>
      <trkpt lat="45.3646" lon="6.65445">
        <ele>2486.5871582031</ele>
        <time>2011-07-09T14:33:08Z</time>
      </trkpt>
      <trkpt lat="45.36467" lon="6.6545">
        <ele>2487.0678710938</ele>
        <time>2011-07-09T14:33:16Z</time>
      </trkpt>
      <trkpt lat="45.36466" lon="6.65449">
        <ele>2487.5485839844</ele>
        <time>2011-07-09T14:33:23Z</time>
      </trkpt>
      <trkpt lat="45.36467" lon="6.6545">
        <ele>2488.029296875</ele>
        <time>2011-07-09T14:33:42Z</time>
      </trkpt>
      <trkpt lat="45.36467" lon="6.6545">
        <ele>2488.029296875</ele>
        <time>2011-07-09T14:33:50Z</time>
      </trkpt>
      <trkpt lat="45.36466" lon="6.6545">
        <ele>2488.5100097656</ele>
        <time>2011-07-09T14:33:55Z</time>
      </trkpt>
      <trkpt lat="45.36466" lon="6.6545">
        <ele>2490.4323730469</ele>
        <time>2011-07-09T14:34:13Z</time>
      </trkpt>
      <trkpt lat="45.36466" lon="6.6545">
        <ele>2490.9130859375</ele>
        <time>2011-07-09T14:34:17Z</time>
      </trkpt>
      <trkpt lat="45.36466" lon="6.6545">
        <ele>2490.9130859375</ele>
        <time>2011-07-09T14:34:20Z</time>
      </trkpt>
      <trkpt lat="45.36467" lon="6.6545">
        <ele>2489.9519042969</ele>
        <time>2011-07-09T14:34:30Z</time>
      </trkpt>
      <trkpt lat="45.36467" lon="6.6545">
        <ele>2489.4711914062</ele>
        <time>2011-07-09T14:34:34Z</time>
      </trkpt>
      <trkpt lat="45.36466" lon="6.6545">
        <ele>2489.4711914062</ele>
        <time>2011-07-09T14:34:47Z</time>
      </trkpt>
      <trkpt lat="45.36466" lon="6.6545">
        <ele>2489.9519042969</ele>
        <time>2011-07-09T14:34:56Z</time>
      </trkpt>
      <trkpt lat="45.36467" lon="6.6545">
        <ele>2489.4711914062</ele>
        <time>2011-07-09T14:35:07Z</time>
      </trkpt>
      <trkpt lat="45.36469" lon="6.6545">
        <ele>2488.9904785156</ele>
        <time>2011-07-09T14:35:31Z</time>
      </trkpt>
      <trkpt lat="45.36474" lon="6.65452">
        <ele>2488.9904785156</ele>
        <time>2011-07-09T14:35:39Z</time>
      </trkpt>
      <trkpt lat="45.36474" lon="6.65452">
        <ele>2488.029296875</ele>
        <time>2011-07-09T14:35:50Z</time>
      </trkpt>
      <trkpt lat="45.36474" lon="6.65452">
        <ele>2488.029296875</ele>
        <time>2011-07-09T14:36:02Z</time>
      </trkpt>
      <trkpt lat="45.36473" lon="6.65452">
        <ele>2487.0678710938</ele>
        <time>2011-07-09T14:36:22Z</time>
      </trkpt>
      <trkpt lat="45.36474" lon="6.65452">
        <ele>2486.5871582031</ele>
        <time>2011-07-09T14:36:36Z</time>
      </trkpt>
      <trkpt lat="45.36474" lon="6.65451">
        <ele>2486.5871582031</ele>
        <time>2011-07-09T14:36:52Z</time>
      </trkpt>
      <trkpt lat="45.36475" lon="6.65452">
        <ele>2486.5871582031</ele>
        <time>2011-07-09T14:37:14Z</time>
      </trkpt>
      <trkpt lat="45.36475" lon="6.65452">
        <ele>2486.5871582031</ele>
        <time>2011-07-09T14:37:24Z</time>
      </trkpt>
      <trkpt lat="45.36475" lon="6.65452">
        <ele>2486.5871582031</ele>
        <time>2011-07-09T14:37:27Z</time>
      </trkpt>
      <trkpt lat="45.36475" lon="6.65452">
        <ele>2487.0678710938</ele>
        <time>2011-07-09T14:37:30Z</time>
      </trkpt>
      <trkpt lat="45.36477" lon="6.65453">
        <ele>2487.5485839844</ele>
        <time>2011-07-09T14:37:35Z</time>
      </trkpt>
      <trkpt lat="45.36478" lon="6.65453">
        <ele>2487.5485839844</ele>
        <time>2011-07-09T14:37:36Z</time>
      </trkpt>
      <trkpt lat="45.36482" lon="6.65455">
        <ele>2488.029296875</ele>
        <time>2011-07-09T14:37:42Z</time>
      </trkpt>
      <trkpt lat="45.36488" lon="6.65457">
        <ele>2488.029296875</ele>
        <time>2011-07-09T14:37:47Z</time>
      </trkpt>
      <trkpt lat="45.36503" lon="6.65461">
        <ele>2488.029296875</ele>
        <time>2011-07-09T14:37:53Z</time>
      </trkpt>
      <trkpt lat="45.36504" lon="6.65461">
        <ele>2488.029296875</ele>
        <time>2011-07-09T14:37:57Z</time>
      </trkpt>
      <trkpt lat="45.36504" lon="6.65461">
        <ele>2488.029296875</ele>
        <time>2011-07-09T14:38:04Z</time>
      </trkpt>
      <trkpt lat="45.36503" lon="6.65461">
        <ele>2487.5485839844</ele>
        <time>2011-07-09T14:38:18Z</time>
      </trkpt>
      <trkpt lat="45.36501" lon="6.6546">
        <ele>2486.1066894531</ele>
        <time>2011-07-09T14:38:46Z</time>
      </trkpt>
      <trkpt lat="45.36501" lon="6.6546">
        <ele>2486.1066894531</ele>
        <time>2011-07-09T14:39:03Z</time>
      </trkpt>
      <trkpt lat="45.36501" lon="6.6546">
        <ele>2487.0678710938</ele>
        <time>2011-07-09T14:39:06Z</time>
      </trkpt>
      <trkpt lat="45.36502" lon="6.6546">
        <ele>2488.9904785156</ele>
        <time>2011-07-09T14:39:19Z</time>
      </trkpt>
      <trkpt lat="45.36501" lon="6.6546">
        <ele>2489.4711914062</ele>
        <time>2011-07-09T14:39:23Z</time>
      </trkpt>
      <trkpt lat="45.36501" lon="6.6546">
        <ele>2490.4323730469</ele>
        <time>2011-07-09T14:39:28Z</time>
      </trkpt>
      <trkpt lat="45.36501" lon="6.65462">
        <ele>2492.35546875</ele>
        <time>2011-07-09T14:39:40Z</time>
      </trkpt>
      <trkpt lat="45.36501" lon="6.65462">
        <ele>2491.8745117188</ele>
        <time>2011-07-09T14:39:43Z</time>
      </trkpt>
      <trkpt lat="45.36501" lon="6.65462">
        <ele>2491.8745117188</ele>
        <time>2011-07-09T14:39:47Z</time>
      </trkpt>
      <trkpt lat="45.36501" lon="6.65461">
        <ele>2491.8745117188</ele>
        <time>2011-07-09T14:39:53Z</time>
      </trkpt>
      <trkpt lat="45.36502" lon="6.65463">
        <ele>2491.8745117188</ele>
        <time>2011-07-09T14:39:57Z</time>
      </trkpt>
      <trkpt lat="45.36503" lon="6.65462">
        <ele>2491.8745117188</ele>
        <time>2011-07-09T14:40:01Z</time>
      </trkpt>
      <trkpt lat="45.36503" lon="6.65462">
        <ele>2492.35546875</ele>
        <time>2011-07-09T14:40:09Z</time>
      </trkpt>
      <trkpt lat="45.36504" lon="6.65462">
        <ele>2491.8745117188</ele>
        <time>2011-07-09T14:40:17Z</time>
      </trkpt>
      <trkpt lat="45.36504" lon="6.65462">
        <ele>2491.8745117188</ele>
        <time>2011-07-09T14:40:27Z</time>
      </trkpt>
      <trkpt lat="45.36505" lon="6.65462">
        <ele>2490.4323730469</ele>
        <time>2011-07-09T14:40:31Z</time>
      </trkpt>
      <trkpt lat="45.36505" lon="6.65462">
        <ele>2490.4323730469</ele>
        <time>2011-07-09T14:40:32Z</time>
      </trkpt>
      <trkpt lat="45.36505" lon="6.65461">
        <ele>2489.4711914062</ele>
        <time>2011-07-09T14:40:40Z</time>
      </trkpt>
      <trkpt lat="45.36505" lon="6.65461">
        <ele>2489.4711914062</ele>
        <time>2011-07-09T14:40:45Z</time>
      </trkpt>
      <trkpt lat="45.36504" lon="6.65461">
        <ele>2489.4711914062</ele>
        <time>2011-07-09T14:40:52Z</time>
      </trkpt>
      <trkpt lat="45.36504" lon="6.65461">
        <ele>2489.9519042969</ele>
        <time>2011-07-09T14:40:56Z</time>
      </trkpt>
      <trkpt lat="45.36504" lon="6.65461">
        <ele>2489.9519042969</ele>
        <time>2011-07-09T14:41:02Z</time>
      </trkpt>
      <trkpt lat="45.36504" lon="6.65461">
        <ele>2489.9519042969</ele>
        <time>2011-07-09T14:41:09Z</time>
      </trkpt>
      <trkpt lat="45.36503" lon="6.6546">
        <ele>2490.4323730469</ele>
        <time>2011-07-09T14:41:15Z</time>
      </trkpt>
      <trkpt lat="45.36503" lon="6.6546">
        <ele>2490.4323730469</ele>
        <time>2011-07-09T14:41:18Z</time>
      </trkpt>
      <trkpt lat="45.36503" lon="6.6546">
        <ele>2490.9130859375</ele>
        <time>2011-07-09T14:41:29Z</time>
      </trkpt>
      <trkpt lat="45.36502" lon="6.6546">
        <ele>2492.35546875</ele>
        <time>2011-07-09T14:41:46Z</time>
      </trkpt>
      <trkpt lat="45.36503" lon="6.6546">
        <ele>2492.35546875</ele>
        <time>2011-07-09T14:41:51Z</time>
      </trkpt>
      <trkpt lat="45.36502" lon="6.65461">
        <ele>2491.8745117188</ele>
        <time>2011-07-09T14:41:56Z</time>
      </trkpt>
      <trkpt lat="45.36504" lon="6.6546">
        <ele>2493.3166503906</ele>
        <time>2011-07-09T14:42:03Z</time>
      </trkpt>
      <trkpt lat="45.36505" lon="6.65463">
        <ele>2493.3166503906</ele>
        <time>2011-07-09T14:42:06Z</time>
      </trkpt>
      <trkpt lat="45.36505" lon="6.65463">
        <ele>2493.3166503906</ele>
        <time>2011-07-09T14:42:10Z</time>
      </trkpt>
      <trkpt lat="45.36505" lon="6.65462">
        <ele>2492.8359375</ele>
        <time>2011-07-09T14:42:19Z</time>
      </trkpt>
      <trkpt lat="45.36505" lon="6.65462">
        <ele>2493.3166503906</ele>
        <time>2011-07-09T14:42:25Z</time>
      </trkpt>
      <trkpt lat="45.36505" lon="6.65463">
        <ele>2493.7973632812</ele>
        <time>2011-07-09T14:42:45Z</time>
      </trkpt>
      <trkpt lat="45.36503" lon="6.65463">
        <ele>2492.35546875</ele>
        <time>2011-07-09T14:43:09Z</time>
      </trkpt>
      <trkpt lat="45.36503" lon="6.65463">
        <ele>2492.35546875</ele>
        <time>2011-07-09T14:43:17Z</time>
      </trkpt>
      <trkpt lat="45.36503" lon="6.65463">
        <ele>2492.35546875</ele>
        <time>2011-07-09T14:43:25Z</time>
      </trkpt>
      <trkpt lat="45.36502" lon="6.65462">
        <ele>2491.8745117188</ele>
        <time>2011-07-09T14:43:35Z</time>
      </trkpt>
      <trkpt lat="45.36502" lon="6.65463">
        <ele>2491.8745117188</ele>
        <time>2011-07-09T14:43:40Z</time>
      </trkpt>
      <trkpt lat="45.36501" lon="6.65462">
        <ele>2493.3166503906</ele>
        <time>2011-07-09T14:43:56Z</time>
      </trkpt>
      <trkpt lat="45.36502" lon="6.65462">
        <ele>2493.7973632812</ele>
        <time>2011-07-09T14:44:09Z</time>
      </trkpt>
      <trkpt lat="45.36502" lon="6.65461">
        <ele>2493.7973632812</ele>
        <time>2011-07-09T14:44:22Z</time>
      </trkpt>
      <trkpt lat="45.36501" lon="6.65461">
        <ele>2494.2778320312</ele>
        <time>2011-07-09T14:44:31Z</time>
      </trkpt>
      <trkpt lat="45.36502" lon="6.65462">
        <ele>2493.3166503906</ele>
        <time>2011-07-09T14:44:40Z</time>
      </trkpt>
      <trkpt lat="45.36501" lon="6.65462">
        <ele>2493.3166503906</ele>
        <time>2011-07-09T14:44:44Z</time>
      </trkpt>
      <trkpt lat="45.36501" lon="6.65461">
        <ele>2492.35546875</ele>
        <time>2011-07-09T14:44:50Z</time>
      </trkpt>
      <trkpt lat="45.36501" lon="6.65461">
        <ele>2492.35546875</ele>
        <time>2011-07-09T14:44:56Z</time>
      </trkpt>
      <trkpt lat="45.36502" lon="6.65461">
        <ele>2492.35546875</ele>
        <time>2011-07-09T14:45:00Z</time>
      </trkpt>
      <trkpt lat="45.36503" lon="6.65459">
        <ele>2491.8745117188</ele>
        <time>2011-07-09T14:45:05Z</time>
      </trkpt>
      <trkpt lat="45.36505" lon="6.65457">
        <ele>2491.8745117188</ele>
        <time>2011-07-09T14:45:07Z</time>
      </trkpt>
      <trkpt lat="45.36517" lon="6.65443">
        <ele>2489.4711914062</ele>
        <time>2011-07-09T14:45:14Z</time>
      </trkpt>
      <trkpt lat="45.36527" lon="6.65435">
        <ele>2487.5485839844</ele>
        <time>2011-07-09T14:45:19Z</time>
      </trkpt>
      <trkpt lat="45.36538" lon="6.65421">
        <ele>2485.1452636719</ele>
        <time>2011-07-09T14:45:24Z</time>
      </trkpt>
      <trkpt lat="45.36549" lon="6.65407">
        <ele>2482.2614746094</ele>
        <time>2011-07-09T14:45:29Z</time>
      </trkpt>
      <trkpt lat="45.36563" lon="6.65393">
        <ele>2479.8581542969</ele>
        <time>2011-07-09T14:45:34Z</time>
      </trkpt>
      <trkpt lat="45.36582" lon="6.65375">
        <ele>2476.9743652344</ele>
        <time>2011-07-09T14:45:41Z</time>
      </trkpt>
      <trkpt lat="45.36597" lon="6.6536">
        <ele>2473.609375</ele>
        <time>2011-07-09T14:45:46Z</time>
      </trkpt>
      <trkpt lat="45.3661" lon="6.65352">
        <ele>2470.7255859375</ele>
        <time>2011-07-09T14:45:51Z</time>
      </trkpt>
      <trkpt lat="45.36622" lon="6.65345">
        <ele>2468.322265625</ele>
        <time>2011-07-09T14:45:56Z</time>
      </trkpt>
      <trkpt lat="45.36633" lon="6.65329">
        <ele>2467.3608398438</ele>
        <time>2011-07-09T14:46:01Z</time>
      </trkpt>
      <trkpt lat="45.36637" lon="6.65307">
        <ele>2464.4770507812</ele>
        <time>2011-07-09T14:46:06Z</time>
      </trkpt>
      <trkpt lat="45.36638" lon="6.65301">
        <ele>2463.515625</ele>
        <time>2011-07-09T14:46:07Z</time>
      </trkpt>
      <trkpt lat="45.36658" lon="6.6529">
        <ele>2462.0737304688</ele>
        <time>2011-07-09T14:46:12Z</time>
      </trkpt>
      <trkpt lat="45.36669" lon="6.65283">
        <ele>2460.6318359375</ele>
        <time>2011-07-09T14:46:15Z</time>
      </trkpt>
      <trkpt lat="45.36675" lon="6.65277">
        <ele>2459.6701660156</ele>
        <time>2011-07-09T14:46:17Z</time>
      </trkpt>
      <trkpt lat="45.36692" lon="6.65277">
        <ele>2458.708984375</ele>
        <time>2011-07-09T14:46:21Z</time>
      </trkpt>
      <trkpt lat="45.36711" lon="6.65269">
        <ele>2456.7863769531</ele>
        <time>2011-07-09T14:46:25Z</time>
      </trkpt>
      <trkpt lat="45.36718" lon="6.65269">
        <ele>2456.7863769531</ele>
        <time>2011-07-09T14:46:26Z</time>
      </trkpt>
      <trkpt lat="45.36737" lon="6.6527">
        <ele>2455.8249511719</ele>
        <time>2011-07-09T14:46:29Z</time>
      </trkpt>
      <trkpt lat="45.36748" lon="6.65268">
        <ele>2455.3444824219</ele>
        <time>2011-07-09T14:46:32Z</time>
      </trkpt>
      <trkpt lat="45.36749" lon="6.65268">
        <ele>2455.3444824219</ele>
        <time>2011-07-09T14:46:39Z</time>
      </trkpt>
      <trkpt lat="45.36749" lon="6.65268">
        <ele>2454.8637695312</ele>
        <time>2011-07-09T14:46:43Z</time>
      </trkpt>
      <trkpt lat="45.36749" lon="6.65268">
        <ele>2454.8637695312</ele>
        <time>2011-07-09T14:46:48Z</time>
      </trkpt>
      <trkpt lat="45.36761" lon="6.65271">
        <ele>2453.9025878906</ele>
        <time>2011-07-09T14:46:53Z</time>
      </trkpt>
      <trkpt lat="45.36784" lon="6.65282">
        <ele>2452.9411621094</ele>
        <time>2011-07-09T14:47:00Z</time>
      </trkpt>
      <trkpt lat="45.36797" lon="6.65292">
        <ele>2453.9025878906</ele>
        <time>2011-07-09T14:47:04Z</time>
      </trkpt>
      <trkpt lat="45.36811" lon="6.65306">
        <ele>2453.9025878906</ele>
        <time>2011-07-09T14:47:09Z</time>
      </trkpt>
      <trkpt lat="45.36825" lon="6.65322">
        <ele>2453.421875</ele>
        <time>2011-07-09T14:47:13Z</time>
      </trkpt>
      <trkpt lat="45.36832" lon="6.65331">
        <ele>2452.4604492188</ele>
        <time>2011-07-09T14:47:15Z</time>
      </trkpt>
      <trkpt lat="45.36837" lon="6.65349">
        <ele>2450.5378417969</ele>
        <time>2011-07-09T14:47:19Z</time>
      </trkpt>
      <trkpt lat="45.36838" lon="6.65351">
        <ele>2450.0573730469</ele>
        <time>2011-07-09T14:47:20Z</time>
      </trkpt>
      <trkpt lat="45.36844" lon="6.65347">
        <ele>2448.1345214844</ele>
        <time>2011-07-09T14:47:24Z</time>
      </trkpt>
      <trkpt lat="45.36854" lon="6.65333">
        <ele>2445.2507324219</ele>
        <time>2011-07-09T14:47:28Z</time>
      </trkpt>
      <trkpt lat="45.3686" lon="6.65323">
        <ele>2443.3278808594</ele>
        <time>2011-07-09T14:47:31Z</time>
      </trkpt>
      <trkpt lat="45.36876" lon="6.6531">
        <ele>2441.4052734375</ele>
        <time>2011-07-09T14:47:35Z</time>
      </trkpt>
      <trkpt lat="45.36884" lon="6.65303">
        <ele>2440.9245605469</ele>
        <time>2011-07-09T14:47:39Z</time>
      </trkpt>
      <trkpt lat="45.36884" lon="6.65303">
        <ele>2439.4826660156</ele>
        <time>2011-07-09T14:47:48Z</time>
      </trkpt>
      <trkpt lat="45.36884" lon="6.65303">
        <ele>2440.4438476562</ele>
        <time>2011-07-09T14:47:58Z</time>
      </trkpt>
      <trkpt lat="45.36883" lon="6.65303">
        <ele>2441.8859863281</ele>
        <time>2011-07-09T14:48:08Z</time>
      </trkpt>
      <trkpt lat="45.36884" lon="6.65302">
        <ele>2441.4052734375</ele>
        <time>2011-07-09T14:48:20Z</time>
      </trkpt>
      <trkpt lat="45.36883" lon="6.65302">
        <ele>2441.4052734375</ele>
        <time>2011-07-09T14:48:23Z</time>
      </trkpt>
      <trkpt lat="45.36883" lon="6.65302">
        <ele>2441.4052734375</ele>
        <time>2011-07-09T14:48:26Z</time>
      </trkpt>
      <trkpt lat="45.36883" lon="6.65301">
        <ele>2440.9245605469</ele>
        <time>2011-07-09T14:48:40Z</time>
      </trkpt>
      <trkpt lat="45.36886" lon="6.65299">
        <ele>2445.2507324219</ele>
        <time>2011-07-09T14:48:55Z</time>
      </trkpt>
      <trkpt lat="45.36891" lon="6.65291">
        <ele>2444.7700195312</ele>
        <time>2011-07-09T14:48:58Z</time>
      </trkpt>
      <trkpt lat="45.36894" lon="6.65283">
        <ele>2444.2893066406</ele>
        <time>2011-07-09T14:49:00Z</time>
      </trkpt>
      <trkpt lat="45.36894" lon="6.65272">
        <ele>2442.8471679688</ele>
        <time>2011-07-09T14:49:04Z</time>
      </trkpt>
      <trkpt lat="45.36895" lon="6.6527">
        <ele>2440.9245605469</ele>
        <time>2011-07-09T14:49:07Z</time>
      </trkpt>
      <trkpt lat="45.36897" lon="6.65271">
        <ele>2439.9633789062</ele>
        <time>2011-07-09T14:49:12Z</time>
      </trkpt>
      <trkpt lat="45.369" lon="6.65273">
        <ele>2439.001953125</ele>
        <time>2011-07-09T14:49:14Z</time>
      </trkpt>
      <trkpt lat="45.36911" lon="6.65271">
        <ele>2437.5600585938</ele>
        <time>2011-07-09T14:49:17Z</time>
      </trkpt>
      <trkpt lat="45.36928" lon="6.65267">
        <ele>2436.1181640625</ele>
        <time>2011-07-09T14:49:21Z</time>
      </trkpt>
      <trkpt lat="45.36941" lon="6.65254">
        <ele>2434.6762695312</ele>
        <time>2011-07-09T14:49:24Z</time>
      </trkpt>
      <trkpt lat="45.36946" lon="6.6525">
        <ele>2434.1955566406</ele>
        <time>2011-07-09T14:49:25Z</time>
      </trkpt>
      <trkpt lat="45.36956" lon="6.65245">
        <ele>2434.1955566406</ele>
        <time>2011-07-09T14:49:27Z</time>
      </trkpt>
      <trkpt lat="45.36965" lon="6.65237">
        <ele>2433.71484375</ele>
        <time>2011-07-09T14:49:29Z</time>
      </trkpt>
      <trkpt lat="45.36995" lon="6.65221">
        <ele>2432.7534179688</ele>
        <time>2011-07-09T14:49:35Z</time>
      </trkpt>
      <trkpt lat="45.37014" lon="6.65217">
        <ele>2432.7534179688</ele>
        <time>2011-07-09T14:49:39Z</time>
      </trkpt>
      <trkpt lat="45.37029" lon="6.65213">
        <ele>2432.7534179688</ele>
        <time>2011-07-09T14:49:43Z</time>
      </trkpt>
      <trkpt lat="45.37036" lon="6.65213">
        <ele>2433.2341308594</ele>
        <time>2011-07-09T14:49:45Z</time>
      </trkpt>
      <trkpt lat="45.37047" lon="6.65215">
        <ele>2432.2729492188</ele>
        <time>2011-07-09T14:49:48Z</time>
      </trkpt>
      <trkpt lat="45.37058" lon="6.65207">
        <ele>2431.3115234375</ele>
        <time>2011-07-09T14:49:53Z</time>
      </trkpt>
      <trkpt lat="45.37067" lon="6.65206">
        <ele>2430.8310546875</ele>
        <time>2011-07-09T14:49:55Z</time>
      </trkpt>
      <trkpt lat="45.37106" lon="6.65212">
        <ele>2429.3889160156</ele>
        <time>2011-07-09T14:50:02Z</time>
      </trkpt>
      <trkpt lat="45.37118" lon="6.65213">
        <ele>2428.427734375</ele>
        <time>2011-07-09T14:50:04Z</time>
      </trkpt>
      <trkpt lat="45.37138" lon="6.65211">
        <ele>2427.9467773438</ele>
        <time>2011-07-09T14:50:07Z</time>
      </trkpt>
      <trkpt lat="45.37164" lon="6.65221">
        <ele>2424.5822753906</ele>
        <time>2011-07-09T14:50:12Z</time>
      </trkpt>
      <trkpt lat="45.37169" lon="6.65224">
        <ele>2424.1015625</ele>
        <time>2011-07-09T14:50:13Z</time>
      </trkpt>
      <trkpt lat="45.37196" lon="6.65242">
        <ele>2420.2563476562</ele>
        <time>2011-07-09T14:50:19Z</time>
      </trkpt>
      <trkpt lat="45.37203" lon="6.65246">
        <ele>2419.2951660156</ele>
        <time>2011-07-09T14:50:21Z</time>
      </trkpt>
      <trkpt lat="45.37209" lon="6.65249">
        <ele>2418.3337402344</ele>
        <time>2011-07-09T14:50:23Z</time>
      </trkpt>
      <trkpt lat="45.37218" lon="6.65258">
        <ele>2416.8918457031</ele>
        <time>2011-07-09T14:50:28Z</time>
      </trkpt>
      <trkpt lat="45.37217" lon="6.65258">
        <ele>2416.8918457031</ele>
        <time>2011-07-09T14:50:35Z</time>
      </trkpt>
      <trkpt lat="45.37216" lon="6.65258">
        <ele>2416.4111328125</ele>
        <time>2011-07-09T14:50:40Z</time>
      </trkpt>
      <trkpt lat="45.37215" lon="6.65257">
        <ele>2415.9304199219</ele>
        <time>2011-07-09T14:50:56Z</time>
      </trkpt>
      <trkpt lat="45.37218" lon="6.65259">
        <ele>2415.9304199219</ele>
        <time>2011-07-09T14:51:00Z</time>
      </trkpt>
      <trkpt lat="45.37218" lon="6.65258">
        <ele>2415.9304199219</ele>
        <time>2011-07-09T14:51:03Z</time>
      </trkpt>
      <trkpt lat="45.37218" lon="6.65259">
        <ele>2416.4111328125</ele>
        <time>2011-07-09T14:51:05Z</time>
      </trkpt>
      <trkpt lat="45.37218" lon="6.65259">
        <ele>2415.9304199219</ele>
        <time>2011-07-09T14:51:07Z</time>
      </trkpt>
      <trkpt lat="45.37228" lon="6.65272">
        <ele>2414.9692382812</ele>
        <time>2011-07-09T14:51:12Z</time>
      </trkpt>
      <trkpt lat="45.37244" lon="6.65276">
        <ele>2414.9692382812</ele>
        <time>2011-07-09T14:51:16Z</time>
      </trkpt>
      <trkpt lat="45.37254" lon="6.65276">
        <ele>2414.4885253906</ele>
        <time>2011-07-09T14:51:21Z</time>
      </trkpt>
      <trkpt lat="45.37271" lon="6.65274">
        <ele>2413.5270996094</ele>
        <time>2011-07-09T14:51:29Z</time>
      </trkpt>
      <trkpt lat="45.37277" lon="6.65273">
        <ele>2413.5270996094</ele>
        <time>2011-07-09T14:51:34Z</time>
      </trkpt>
      <trkpt lat="45.37277" lon="6.65272">
        <ele>2413.5270996094</ele>
        <time>2011-07-09T14:51:41Z</time>
      </trkpt>
      <trkpt lat="45.37277" lon="6.65271">
        <ele>2413.0466308594</ele>
        <time>2011-07-09T14:51:48Z</time>
      </trkpt>
      <trkpt lat="45.37279" lon="6.6527">
        <ele>2413.0466308594</ele>
        <time>2011-07-09T14:51:54Z</time>
      </trkpt>
      <trkpt lat="45.37278" lon="6.65267">
        <ele>2413.0466308594</ele>
        <time>2011-07-09T14:51:57Z</time>
      </trkpt>
      <trkpt lat="45.37278" lon="6.65274">
        <ele>2413.5270996094</ele>
        <time>2011-07-09T14:52:01Z</time>
      </trkpt>
      <trkpt lat="45.37284" lon="6.65284">
        <ele>2414.0078125</ele>
        <time>2011-07-09T14:52:05Z</time>
      </trkpt>
      <trkpt lat="45.37296" lon="6.653">
        <ele>2414.0078125</ele>
        <time>2011-07-09T14:52:12Z</time>
      </trkpt>
      <trkpt lat="45.37297" lon="6.65301">
        <ele>2413.5270996094</ele>
        <time>2011-07-09T14:52:17Z</time>
      </trkpt>
      <trkpt lat="45.37296" lon="6.653">
        <ele>2413.0466308594</ele>
        <time>2011-07-09T14:52:29Z</time>
      </trkpt>
      <trkpt lat="45.37297" lon="6.65299">
        <ele>2413.5270996094</ele>
        <time>2011-07-09T14:52:42Z</time>
      </trkpt>
      <trkpt lat="45.37297" lon="6.65298">
        <ele>2412.5659179688</ele>
        <time>2011-07-09T14:52:51Z</time>
      </trkpt>
      <trkpt lat="45.37297" lon="6.65299">
        <ele>2411.6044921875</ele>
        <time>2011-07-09T14:52:57Z</time>
      </trkpt>
      <trkpt lat="45.37297" lon="6.65299">
        <ele>2411.1237792969</ele>
        <time>2011-07-09T14:53:05Z</time>
      </trkpt>
      <trkpt lat="45.37297" lon="6.65299">
        <ele>2411.1237792969</ele>
        <time>2011-07-09T14:53:10Z</time>
      </trkpt>
      <trkpt lat="45.37297" lon="6.65299">
        <ele>2411.1237792969</ele>
        <time>2011-07-09T14:53:13Z</time>
      </trkpt>
      <trkpt lat="45.37297" lon="6.65299">
        <ele>2411.1237792969</ele>
        <time>2011-07-09T14:53:14Z</time>
      </trkpt>
      <trkpt lat="45.37297" lon="6.65299">
        <ele>2409.681640625</ele>
        <time>2011-07-09T14:53:32Z</time>
      </trkpt>
      <trkpt lat="45.37297" lon="6.65299">
        <ele>2409.681640625</ele>
        <time>2011-07-09T14:53:36Z</time>
      </trkpt>
      <trkpt lat="45.37314" lon="6.65306">
        <ele>2408.2397460938</ele>
        <time>2011-07-09T14:53:42Z</time>
      </trkpt>
      <trkpt lat="45.37333" lon="6.65318">
        <ele>2404.8752441406</ele>
        <time>2011-07-09T14:53:47Z</time>
      </trkpt>
      <trkpt lat="45.37352" lon="6.6532">
        <ele>2400.5493164062</ele>
        <time>2011-07-09T14:53:52Z</time>
      </trkpt>
      <trkpt lat="45.37376" lon="6.65304">
        <ele>2395.2619628906</ele>
        <time>2011-07-09T14:53:59Z</time>
      </trkpt>
      <trkpt lat="45.37389" lon="6.65284">
        <ele>2392.8586425781</ele>
        <time>2011-07-09T14:54:04Z</time>
      </trkpt>
      <trkpt lat="45.37399" lon="6.65278">
        <ele>2391.4167480469</ele>
        <time>2011-07-09T14:54:07Z</time>
      </trkpt>
      <trkpt lat="45.37405" lon="6.65285">
        <ele>2389.9748535156</ele>
        <time>2011-07-09T14:54:11Z</time>
      </trkpt>
      <trkpt lat="45.37405" lon="6.65284">
        <ele>2389.494140625</ele>
        <time>2011-07-09T14:54:18Z</time>
      </trkpt>
      <trkpt lat="45.37405" lon="6.65285">
        <ele>2388.0522460938</ele>
        <time>2011-07-09T14:54:26Z</time>
      </trkpt>
      <trkpt lat="45.374" lon="6.65303">
        <ele>2386.1296386719</ele>
        <time>2011-07-09T14:54:31Z</time>
      </trkpt>
      <trkpt lat="45.37399" lon="6.65327">
        <ele>2383.7263183594</ele>
        <time>2011-07-09T14:54:35Z</time>
      </trkpt>
      <trkpt lat="45.37408" lon="6.65345">
        <ele>2381.8037109375</ele>
        <time>2011-07-09T14:54:39Z</time>
      </trkpt>
      <trkpt lat="45.37411" lon="6.65347">
        <ele>2380.8425292969</ele>
        <time>2011-07-09T14:54:40Z</time>
      </trkpt>
      <trkpt lat="45.37427" lon="6.65345">
        <ele>2378.4389648438</ele>
        <time>2011-07-09T14:54:44Z</time>
      </trkpt>
      <trkpt lat="45.37461" lon="6.65333">
        <ele>2370.7485351562</ele>
        <time>2011-07-09T14:54:51Z</time>
      </trkpt>
      <trkpt lat="45.37466" lon="6.65329">
        <ele>2370.2678222656</ele>
        <time>2011-07-09T14:54:52Z</time>
      </trkpt>
      <trkpt lat="45.37491" lon="6.65298">
        <ele>2367.3837890625</ele>
        <time>2011-07-09T14:54:58Z</time>
      </trkpt>
      <trkpt lat="45.3751" lon="6.65287">
        <ele>2363.0578613281</ele>
        <time>2011-07-09T14:55:03Z</time>
      </trkpt>
      <trkpt lat="45.3752" lon="6.65285">
        <ele>2360.6545410156</ele>
        <time>2011-07-09T14:55:05Z</time>
      </trkpt>
      <trkpt lat="45.37546" lon="6.65288">
        <ele>2356.8093261719</ele>
        <time>2011-07-09T14:55:10Z</time>
      </trkpt>
      <trkpt lat="45.37576" lon="6.65287">
        <ele>2352.9641113281</ele>
        <time>2011-07-09T14:55:15Z</time>
      </trkpt>
      <trkpt lat="45.3759" lon="6.65287">
        <ele>2351.5222167969</ele>
        <time>2011-07-09T14:55:18Z</time>
      </trkpt>
      <trkpt lat="45.37608" lon="6.65287">
        <ele>2348.6381835938</ele>
        <time>2011-07-09T14:55:22Z</time>
      </trkpt>
      <trkpt lat="45.37642" lon="6.65291">
        <ele>2344.7927246094</ele>
        <time>2011-07-09T14:55:27Z</time>
      </trkpt>
      <trkpt lat="45.37665" lon="6.653">
        <ele>2344.3120117188</ele>
        <time>2011-07-09T14:55:30Z</time>
      </trkpt>
      <trkpt lat="45.37685" lon="6.65312">
        <ele>2343.3508300781</ele>
        <time>2011-07-09T14:55:34Z</time>
      </trkpt>
      <trkpt lat="45.37695" lon="6.65333">
        <ele>2339.986328125</ele>
        <time>2011-07-09T14:55:40Z</time>
      </trkpt>
      <trkpt lat="45.37695" lon="6.65369">
        <ele>2334.2185058594</ele>
        <time>2011-07-09T14:55:46Z</time>
      </trkpt>
      <trkpt lat="45.37696" lon="6.65399">
        <ele>2329.8923339844</ele>
        <time>2011-07-09T14:55:52Z</time>
      </trkpt>
      <trkpt lat="45.37702" lon="6.65408">
        <ele>2327.0085449219</ele>
        <time>2011-07-09T14:55:55Z</time>
      </trkpt>
      <trkpt lat="45.37722" lon="6.65412">
        <ele>2322.6826171875</ele>
        <time>2011-07-09T14:56:00Z</time>
      </trkpt>
      <trkpt lat="45.37741" lon="6.65418">
        <ele>2319.7985839844</ele>
        <time>2011-07-09T14:56:06Z</time>
      </trkpt>
      <trkpt lat="45.37762" lon="6.6543">
        <ele>2315.953125</ele>
        <time>2011-07-09T14:56:10Z</time>
      </trkpt>
      <trkpt lat="45.37798" lon="6.65438">
        <ele>2311.1467285156</ele>
        <time>2011-07-09T14:56:14Z</time>
      </trkpt>
      <trkpt lat="45.37833" lon="6.65441">
        <ele>2307.3015136719</ele>
        <time>2011-07-09T14:56:18Z</time>
      </trkpt>
      <trkpt lat="45.37844" lon="6.6544">
        <ele>2306.3400878906</ele>
        <time>2011-07-09T14:56:20Z</time>
      </trkpt>
      <trkpt lat="45.37852" lon="6.65439">
        <ele>2305.859375</ele>
        <time>2011-07-09T14:56:24Z</time>
      </trkpt>
      <trkpt lat="45.37851" lon="6.65439">
        <ele>2305.37890625</ele>
        <time>2011-07-09T14:56:30Z</time>
      </trkpt>
      <trkpt lat="45.37851" lon="6.65439">
        <ele>2305.37890625</ele>
        <time>2011-07-09T14:56:41Z</time>
      </trkpt>
      <trkpt lat="45.37851" lon="6.65439">
        <ele>2305.37890625</ele>
        <time>2011-07-09T14:56:48Z</time>
      </trkpt>
      <trkpt lat="45.37852" lon="6.65438">
        <ele>2307.7822265625</ele>
        <time>2011-07-09T14:57:17Z</time>
      </trkpt>
      <trkpt lat="45.37853" lon="6.65439">
        <ele>2309.2241210938</ele>
        <time>2011-07-09T14:57:25Z</time>
      </trkpt>
      <trkpt lat="45.37854" lon="6.65439">
        <ele>2308.7434082031</ele>
        <time>2011-07-09T14:57:29Z</time>
      </trkpt>
      <trkpt lat="45.37867" lon="6.65439">
        <ele>2306.8208007812</ele>
        <time>2011-07-09T14:57:35Z</time>
      </trkpt>
      <trkpt lat="45.37877" lon="6.65439">
        <ele>2304.4174804688</ele>
        <time>2011-07-09T14:57:40Z</time>
      </trkpt>
      <trkpt lat="45.3789" lon="6.65444">
        <ele>2301.5336914062</ele>
        <time>2011-07-09T14:57:45Z</time>
      </trkpt>
      <trkpt lat="45.379" lon="6.65451">
        <ele>2298.6494140625</ele>
        <time>2011-07-09T14:57:50Z</time>
      </trkpt>
      <trkpt lat="45.37909" lon="6.65454">
        <ele>2296.2463378906</ele>
        <time>2011-07-09T14:57:55Z</time>
      </trkpt>
      <trkpt lat="45.37924" lon="6.65458">
        <ele>2292.8815917969</ele>
        <time>2011-07-09T14:58:01Z</time>
      </trkpt>
      <trkpt lat="45.37935" lon="6.65459">
        <ele>2290.4782714844</ele>
        <time>2011-07-09T14:58:05Z</time>
      </trkpt>
      <trkpt lat="45.37949" lon="6.6546">
        <ele>2286.1525878906</ele>
        <time>2011-07-09T14:58:11Z</time>
      </trkpt>
      <trkpt lat="45.37965" lon="6.65469">
        <ele>2281.345703125</ele>
        <time>2011-07-09T14:58:16Z</time>
      </trkpt>
      <trkpt lat="45.3797" lon="6.65484">
        <ele>2278.4619140625</ele>
        <time>2011-07-09T14:58:20Z</time>
      </trkpt>
      <trkpt lat="45.37973" lon="6.65496">
        <ele>2276.05859375</ele>
        <time>2011-07-09T14:58:24Z</time>
      </trkpt>
      <trkpt lat="45.37986" lon="6.65507">
        <ele>2272.2133789062</ele>
        <time>2011-07-09T14:58:30Z</time>
      </trkpt>
      <trkpt lat="45.37991" lon="6.65512">
        <ele>2270.2907714844</ele>
        <time>2011-07-09T14:58:32Z</time>
      </trkpt>
      <trkpt lat="45.38009" lon="6.65522">
        <ele>2264.5227050781</ele>
        <time>2011-07-09T14:58:39Z</time>
      </trkpt>
      <trkpt lat="45.38013" lon="6.65523">
        <ele>2263.0808105469</ele>
        <time>2011-07-09T14:58:41Z</time>
      </trkpt>
      <trkpt lat="45.38021" lon="6.65516">
        <ele>2260.6774902344</ele>
        <time>2011-07-09T14:58:45Z</time>
      </trkpt>
      <trkpt lat="45.38036" lon="6.65521">
        <ele>2255.8708496094</ele>
        <time>2011-07-09T14:58:51Z</time>
      </trkpt>
      <trkpt lat="45.38047" lon="6.65519">
        <ele>2252.0256347656</ele>
        <time>2011-07-09T14:58:56Z</time>
      </trkpt>
      <trkpt lat="45.3806" lon="6.65518">
        <ele>2248.1801757812</ele>
        <time>2011-07-09T14:59:00Z</time>
      </trkpt>
      <trkpt lat="45.38076" lon="6.65516">
        <ele>2243.3737792969</ele>
        <time>2011-07-09T14:59:05Z</time>
      </trkpt>
      <trkpt lat="45.38095" lon="6.65508">
        <ele>2239.0478515625</ele>
        <time>2011-07-09T14:59:10Z</time>
      </trkpt>
      <trkpt lat="45.38111" lon="6.65497">
        <ele>2237.1252441406</ele>
        <time>2011-07-09T14:59:13Z</time>
      </trkpt>
      <trkpt lat="45.38134" lon="6.65485">
        <ele>2234.7219238281</ele>
        <time>2011-07-09T14:59:18Z</time>
      </trkpt>
      <trkpt lat="45.38151" lon="6.65481">
        <ele>2232.7990722656</ele>
        <time>2011-07-09T14:59:22Z</time>
      </trkpt>
      <trkpt lat="45.38168" lon="6.6547">
        <ele>2232.3186035156</ele>
        <time>2011-07-09T14:59:27Z</time>
      </trkpt>
      <trkpt lat="45.38172" lon="6.65466">
        <ele>2232.7990722656</ele>
        <time>2011-07-09T14:59:32Z</time>
      </trkpt>
      <trkpt lat="45.38173" lon="6.65466">
        <ele>2232.7990722656</ele>
        <time>2011-07-09T14:59:41Z</time>
      </trkpt>
      <trkpt lat="45.38172" lon="6.65465">
        <ele>2231.837890625</ele>
        <time>2011-07-09T14:59:56Z</time>
      </trkpt>
      <trkpt lat="45.38171" lon="6.65465">
        <ele>2232.3186035156</ele>
        <time>2011-07-09T15:00:01Z</time>
      </trkpt>
      <trkpt lat="45.38171" lon="6.65465">
        <ele>2232.3186035156</ele>
        <time>2011-07-09T15:00:03Z</time>
      </trkpt>
      <trkpt lat="45.38171" lon="6.65465">
        <ele>2232.3186035156</ele>
        <time>2011-07-09T15:00:04Z</time>
      </trkpt>
      <trkpt lat="45.38171" lon="6.65465">
        <ele>2232.7990722656</ele>
        <time>2011-07-09T15:00:11Z</time>
      </trkpt>
      <trkpt lat="45.3817" lon="6.65465">
        <ele>2232.7990722656</ele>
        <time>2011-07-09T15:00:26Z</time>
      </trkpt>
      <trkpt lat="45.3817" lon="6.65464">
        <ele>2232.7990722656</ele>
        <time>2011-07-09T15:00:41Z</time>
      </trkpt>
      <trkpt lat="45.3817" lon="6.65464">
        <ele>2231.837890625</ele>
        <time>2011-07-09T15:00:51Z</time>
      </trkpt>
      <trkpt lat="45.3817" lon="6.65464">
        <ele>2231.837890625</ele>
        <time>2011-07-09T15:01:05Z</time>
      </trkpt>
      <trkpt lat="45.3817" lon="6.65464">
        <ele>2232.3186035156</ele>
        <time>2011-07-09T15:01:09Z</time>
      </trkpt>
      <trkpt lat="45.3817" lon="6.65464">
        <ele>2232.3186035156</ele>
        <time>2011-07-09T15:01:13Z</time>
      </trkpt>
      <trkpt lat="45.3817" lon="6.65464">
        <ele>2232.3186035156</ele>
        <time>2011-07-09T15:01:38Z</time>
      </trkpt>
      <trkpt lat="45.38171" lon="6.65464">
        <ele>2233.2797851562</ele>
        <time>2011-07-09T15:02:00Z</time>
      </trkpt>
      <trkpt lat="45.38171" lon="6.65464">
        <ele>2233.2797851562</ele>
        <time>2011-07-09T15:02:07Z</time>
      </trkpt>
      <trkpt lat="45.38171" lon="6.65464">
        <ele>2233.2797851562</ele>
        <time>2011-07-09T15:02:16Z</time>
      </trkpt>
      <trkpt lat="45.38171" lon="6.65464">
        <ele>2233.2797851562</ele>
        <time>2011-07-09T15:02:24Z</time>
      </trkpt>
      <trkpt lat="45.38171" lon="6.65464">
        <ele>2233.2797851562</ele>
        <time>2011-07-09T15:02:28Z</time>
      </trkpt>
      <trkpt lat="45.38171" lon="6.65465">
        <ele>2233.2797851562</ele>
        <time>2011-07-09T15:02:38Z</time>
      </trkpt>
      <trkpt lat="45.38172" lon="6.65465">
        <ele>2233.2797851562</ele>
        <time>2011-07-09T15:02:50Z</time>
      </trkpt>
      <trkpt lat="45.38173" lon="6.65465">
        <ele>2231.837890625</ele>
        <time>2011-07-09T15:03:14Z</time>
      </trkpt>
      <trkpt lat="45.38171" lon="6.65465">
        <ele>2231.837890625</ele>
        <time>2011-07-09T15:03:49Z</time>
      </trkpt>
      <trkpt lat="45.38171" lon="6.65464">
        <ele>2231.3571777344</ele>
        <time>2011-07-09T15:03:58Z</time>
      </trkpt>
      <trkpt lat="45.38173" lon="6.65465">
        <ele>2230.8767089844</ele>
        <time>2011-07-09T15:04:05Z</time>
      </trkpt>
      <trkpt lat="45.38187" lon="6.65454">
        <ele>2227.9926757812</ele>
        <time>2011-07-09T15:04:10Z</time>
      </trkpt>
      <trkpt lat="45.38202" lon="6.65452">
        <ele>2225.1086425781</ele>
        <time>2011-07-09T15:04:14Z</time>
      </trkpt>
      <trkpt lat="45.38221" lon="6.65452">
        <ele>2220.7829589844</ele>
        <time>2011-07-09T15:04:19Z</time>
      </trkpt>
      <trkpt lat="45.38246" lon="6.65449">
        <ele>2215.4956054688</ele>
        <time>2011-07-09T15:04:24Z</time>
      </trkpt>
      <trkpt lat="45.38251" lon="6.65448">
        <ele>2214.5341796875</ele>
        <time>2011-07-09T15:04:25Z</time>
      </trkpt>
      <trkpt lat="45.38286" lon="6.65441">
        <ele>2209.2470703125</ele>
        <time>2011-07-09T15:04:32Z</time>
      </trkpt>
      <trkpt lat="45.38314" lon="6.65436">
        <ele>2204.9211425781</ele>
        <time>2011-07-09T15:04:38Z</time>
      </trkpt>
      <trkpt lat="45.38327" lon="6.65436">
        <ele>2202.517578125</ele>
        <time>2011-07-09T15:04:41Z</time>
      </trkpt>
      <trkpt lat="45.38343" lon="6.65434">
        <ele>2201.0756835938</ele>
        <time>2011-07-09T15:04:44Z</time>
      </trkpt>
      <trkpt lat="45.38366" lon="6.65428">
        <ele>2197.7111816406</ele>
        <time>2011-07-09T15:04:49Z</time>
      </trkpt>
      <trkpt lat="45.38382" lon="6.65426">
        <ele>2196.2692871094</ele>
        <time>2011-07-09T15:04:52Z</time>
      </trkpt>
      <trkpt lat="45.38395" lon="6.65422">
        <ele>2195.3078613281</ele>
        <time>2011-07-09T15:04:55Z</time>
      </trkpt>
      <trkpt lat="45.38414" lon="6.65409">
        <ele>2192.9045410156</ele>
        <time>2011-07-09T15:04:59Z</time>
      </trkpt>
      <trkpt lat="45.38443" lon="6.65401">
        <ele>2190.0207519531</ele>
        <time>2011-07-09T15:05:05Z</time>
      </trkpt>
      <trkpt lat="45.38456" lon="6.65403">
        <ele>2188.5788574219</ele>
        <time>2011-07-09T15:05:08Z</time>
      </trkpt>
      <trkpt lat="45.38465" lon="6.65401">
        <ele>2187.6171875</ele>
        <time>2011-07-09T15:05:12Z</time>
      </trkpt>
      <trkpt lat="45.38465" lon="6.65401">
        <ele>2187.6171875</ele>
        <time>2011-07-09T15:05:16Z</time>
      </trkpt>
      <trkpt lat="45.38464" lon="6.65399">
        <ele>2189.0593261719</ele>
        <time>2011-07-09T15:05:40Z</time>
      </trkpt>
      <trkpt lat="45.38476" lon="6.65392">
        <ele>2187.6171875</ele>
        <time>2011-07-09T15:05:46Z</time>
      </trkpt>
      <trkpt lat="45.38493" lon="6.65372">
        <ele>2183.7719726562</ele>
        <time>2011-07-09T15:05:53Z</time>
      </trkpt>
      <trkpt lat="45.38515" lon="6.65353">
        <ele>2178.4848632812</ele>
        <time>2011-07-09T15:05:59Z</time>
      </trkpt>
      <trkpt lat="45.38525" lon="6.65346">
        <ele>2176.5622558594</ele>
        <time>2011-07-09T15:06:01Z</time>
      </trkpt>
      <trkpt lat="45.38556" lon="6.6533">
        <ele>2171.7553710938</ele>
        <time>2011-07-09T15:06:07Z</time>
      </trkpt>
      <trkpt lat="45.38562" lon="6.6533">
        <ele>2171.2746582031</ele>
        <time>2011-07-09T15:06:08Z</time>
      </trkpt>
      <trkpt lat="45.386" lon="6.65331">
        <ele>2167.91015625</ele>
        <time>2011-07-09T15:06:15Z</time>
      </trkpt>
      <trkpt lat="45.38605" lon="6.65331">
        <ele>2167.4294433594</ele>
        <time>2011-07-09T15:06:16Z</time>
      </trkpt>
      <trkpt lat="45.38635" lon="6.65335">
        <ele>2163.5842285156</ele>
        <time>2011-07-09T15:06:22Z</time>
      </trkpt>
      <trkpt lat="45.38647" lon="6.65342">
        <ele>2162.1423339844</ele>
        <time>2011-07-09T15:06:24Z</time>
      </trkpt>
      <trkpt lat="45.38684" lon="6.6538">
        <ele>2158.7778320312</ele>
        <time>2011-07-09T15:06:30Z</time>
      </trkpt>
      <trkpt lat="45.38707" lon="6.65397">
        <ele>2159.7390136719</ele>
        <time>2011-07-09T15:06:34Z</time>
      </trkpt>
      <trkpt lat="45.3872" lon="6.65404">
        <ele>2161.6618652344</ele>
        <time>2011-07-09T15:06:37Z</time>
      </trkpt>
      <trkpt lat="45.38724" lon="6.65405">
        <ele>2161.6618652344</ele>
        <time>2011-07-09T15:06:38Z</time>
      </trkpt>
      <trkpt lat="45.3873" lon="6.65409">
        <ele>2162.1423339844</ele>
        <time>2011-07-09T15:06:40Z</time>
      </trkpt>
      <trkpt lat="45.38736" lon="6.65411">
        <ele>2162.623046875</ele>
        <time>2011-07-09T15:06:42Z</time>
      </trkpt>
      <trkpt lat="45.38742" lon="6.65414">
        <ele>2163.1037597656</ele>
        <time>2011-07-09T15:06:44Z</time>
      </trkpt>
      <trkpt lat="45.38745" lon="6.65415">
        <ele>2163.1037597656</ele>
        <time>2011-07-09T15:06:45Z</time>
      </trkpt>
      <trkpt lat="45.3875" lon="6.65418">
        <ele>2163.5842285156</ele>
        <time>2011-07-09T15:06:47Z</time>
      </trkpt>
      <trkpt lat="45.38753" lon="6.6542">
        <ele>2164.0649414062</ele>
        <time>2011-07-09T15:06:48Z</time>
      </trkpt>
      <trkpt lat="45.38764" lon="6.6542">
        <ele>2164.0649414062</ele>
        <time>2011-07-09T15:06:52Z</time>
      </trkpt>
      <trkpt lat="45.3877" lon="6.65419">
        <ele>2164.5456542969</ele>
        <time>2011-07-09T15:06:55Z</time>
      </trkpt>
      <trkpt lat="45.38778" lon="6.65407">
        <ele>2163.5842285156</ele>
        <time>2011-07-09T15:07:00Z</time>
      </trkpt>
      <trkpt lat="45.38784" lon="6.65392">
        <ele>2163.1037597656</ele>
        <time>2011-07-09T15:07:04Z</time>
      </trkpt>
      <trkpt lat="45.38789" lon="6.6538">
        <ele>2162.623046875</ele>
        <time>2011-07-09T15:07:10Z</time>
      </trkpt>
      <trkpt lat="45.38792" lon="6.65366">
        <ele>2161.6618652344</ele>
        <time>2011-07-09T15:07:16Z</time>
      </trkpt>
      <trkpt lat="45.38796" lon="6.65353">
        <ele>2160.7004394531</ele>
        <time>2011-07-09T15:07:21Z</time>
      </trkpt>
      <trkpt lat="45.38808" lon="6.65333">
        <ele>2157.8166503906</ele>
        <time>2011-07-09T15:07:27Z</time>
      </trkpt>
      <trkpt lat="45.38821" lon="6.65322">
        <ele>2155.4130859375</ele>
        <time>2011-07-09T15:07:31Z</time>
      </trkpt>
      <trkpt lat="45.38831" lon="6.65314">
        <ele>2153.009765625</ele>
        <time>2011-07-09T15:07:34Z</time>
      </trkpt>
      <trkpt lat="45.38846" lon="6.65303">
        <ele>2150.6064453125</ele>
        <time>2011-07-09T15:07:38Z</time>
      </trkpt>
      <trkpt lat="45.38865" lon="6.65289">
        <ele>2147.72265625</ele>
        <time>2011-07-09T15:07:43Z</time>
      </trkpt>
      <trkpt lat="45.38875" lon="6.65285">
        <ele>2146.2807617188</ele>
        <time>2011-07-09T15:07:47Z</time>
      </trkpt>
      <trkpt lat="45.38876" lon="6.65284">
        <ele>2146.2807617188</ele>
        <time>2011-07-09T15:07:54Z</time>
      </trkpt>
      <trkpt lat="45.38876" lon="6.65284">
        <ele>2146.2807617188</ele>
        <time>2011-07-09T15:07:58Z</time>
      </trkpt>
      <trkpt lat="45.38876" lon="6.65284">
        <ele>2146.2807617188</ele>
        <time>2011-07-09T15:08:09Z</time>
      </trkpt>
      <trkpt lat="45.38876" lon="6.65284">
        <ele>2146.2807617188</ele>
        <time>2011-07-09T15:08:12Z</time>
      </trkpt>
      <trkpt lat="45.38876" lon="6.65285">
        <ele>2145.8000488281</ele>
        <time>2011-07-09T15:08:16Z</time>
      </trkpt>
      <trkpt lat="45.38877" lon="6.65285">
        <ele>2145.3193359375</ele>
        <time>2011-07-09T15:08:22Z</time>
      </trkpt>
      <trkpt lat="45.38878" lon="6.65284">
        <ele>2145.3193359375</ele>
        <time>2011-07-09T15:08:32Z</time>
      </trkpt>
      <trkpt lat="45.38879" lon="6.65285">
        <ele>2144.8386230469</ele>
        <time>2011-07-09T15:08:35Z</time>
      </trkpt>
      <trkpt lat="45.38886" lon="6.65296">
        <ele>2143.8774414062</ele>
        <time>2011-07-09T15:08:42Z</time>
      </trkpt>
      <trkpt lat="45.38893" lon="6.65305">
        <ele>2143.3967285156</ele>
        <time>2011-07-09T15:08:46Z</time>
      </trkpt>
      <trkpt lat="45.38904" lon="6.6532">
        <ele>2141.4741210938</ele>
        <time>2011-07-09T15:08:51Z</time>
      </trkpt>
      <trkpt lat="45.38918" lon="6.65343">
        <ele>2138.5900878906</ele>
        <time>2011-07-09T15:08:57Z</time>
      </trkpt>
      <trkpt lat="45.38933" lon="6.65359">
        <ele>2135.7060546875</ele>
        <time>2011-07-09T15:09:01Z</time>
      </trkpt>
      <trkpt lat="45.38972" lon="6.65373">
        <ele>2128.015625</ele>
        <time>2011-07-09T15:09:08Z</time>
      </trkpt>
      <trkpt lat="45.39004" lon="6.65383">
        <ele>2122.7282714844</ele>
        <time>2011-07-09T15:09:15Z</time>
      </trkpt>
      <trkpt lat="45.39017" lon="6.65389">
        <ele>2120.8056640625</ele>
        <time>2011-07-09T15:09:18Z</time>
      </trkpt>
      <trkpt lat="45.3903" lon="6.65391">
        <ele>2117.9216308594</ele>
        <time>2011-07-09T15:09:22Z</time>
      </trkpt>
      <trkpt lat="45.39035" lon="6.65392">
        <ele>2116.9604492188</ele>
        <time>2011-07-09T15:09:25Z</time>
      </trkpt>
      <trkpt lat="45.39046" lon="6.65385">
        <ele>2115.0378417969</ele>
        <time>2011-07-09T15:09:32Z</time>
      </trkpt>
      <trkpt lat="45.39045" lon="6.65383">
        <ele>2115.5185546875</ele>
        <time>2011-07-09T15:09:43Z</time>
      </trkpt>
      <trkpt lat="45.39045" lon="6.65383">
        <ele>2115.9990234375</ele>
        <time>2011-07-09T15:09:52Z</time>
      </trkpt>
      <trkpt lat="45.39045" lon="6.65384">
        <ele>2115.9990234375</ele>
        <time>2011-07-09T15:10:00Z</time>
      </trkpt>
      <trkpt lat="45.39045" lon="6.65382">
        <ele>2116.9604492188</ele>
        <time>2011-07-09T15:10:08Z</time>
      </trkpt>
      <trkpt lat="45.39045" lon="6.65382">
        <ele>2117.9216308594</ele>
        <time>2011-07-09T15:10:18Z</time>
      </trkpt>
      <trkpt lat="45.39046" lon="6.65381">
        <ele>2116.9604492188</ele>
        <time>2011-07-09T15:10:28Z</time>
      </trkpt>
      <trkpt lat="45.39048" lon="6.65378">
        <ele>2116.4797363281</ele>
        <time>2011-07-09T15:10:44Z</time>
      </trkpt>
      <trkpt lat="45.39048" lon="6.65379">
        <ele>2115.9990234375</ele>
        <time>2011-07-09T15:11:02Z</time>
      </trkpt>
      <trkpt lat="45.39048" lon="6.6538">
        <ele>2115.9990234375</ele>
        <time>2011-07-09T15:11:10Z</time>
      </trkpt>
      <trkpt lat="45.39048" lon="6.65381">
        <ele>2115.9990234375</ele>
        <time>2011-07-09T15:11:22Z</time>
      </trkpt>
      <trkpt lat="45.3905" lon="6.65381">
        <ele>2114.5571289062</ele>
        <time>2011-07-09T15:11:30Z</time>
      </trkpt>
      <trkpt lat="45.39049" lon="6.65381">
        <ele>2114.5571289062</ele>
        <time>2011-07-09T15:11:45Z</time>
      </trkpt>
      <trkpt lat="45.39049" lon="6.65382">
        <ele>2114.0764160156</ele>
        <time>2011-07-09T15:12:03Z</time>
      </trkpt>
      <trkpt lat="45.3905" lon="6.65382">
        <ele>2114.0764160156</ele>
        <time>2011-07-09T15:12:18Z</time>
      </trkpt>
      <trkpt lat="45.3905" lon="6.65382">
        <ele>2114.0764160156</ele>
        <time>2011-07-09T15:12:27Z</time>
      </trkpt>
      <trkpt lat="45.39061" lon="6.65387">
        <ele>2112.6345214844</ele>
        <time>2011-07-09T15:12:32Z</time>
      </trkpt>
      <trkpt lat="45.39082" lon="6.65381">
        <ele>2111.1926269531</ele>
        <time>2011-07-09T15:12:36Z</time>
      </trkpt>
      <trkpt lat="45.39092" lon="6.65368">
        <ele>2109.2700195312</ele>
        <time>2011-07-09T15:12:39Z</time>
      </trkpt>
      <trkpt lat="45.39092" lon="6.65335">
        <ele>2105.9050292969</ele>
        <time>2011-07-09T15:12:43Z</time>
      </trkpt>
      <trkpt lat="45.39088" lon="6.65308">
        <ele>2103.0212402344</ele>
        <time>2011-07-09T15:12:46Z</time>
      </trkpt>
      <trkpt lat="45.39095" lon="6.65288">
        <ele>2100.6179199219</ele>
        <time>2011-07-09T15:12:49Z</time>
      </trkpt>
      <trkpt lat="45.39117" lon="6.6527">
        <ele>2097.2534179688</ele>
        <time>2011-07-09T15:12:52Z</time>
      </trkpt>
      <trkpt lat="45.39156" lon="6.65245">
        <ele>2091.9660644531</ele>
        <time>2011-07-09T15:12:57Z</time>
      </trkpt>
      <trkpt lat="45.39167" lon="6.65237">
        <ele>2090.5239257812</ele>
        <time>2011-07-09T15:13:00Z</time>
      </trkpt>
      <trkpt lat="45.39175" lon="6.65232">
        <ele>2089.08203125</ele>
        <time>2011-07-09T15:13:03Z</time>
      </trkpt>
      <trkpt lat="45.39179" lon="6.6523">
        <ele>2089.08203125</ele>
        <time>2011-07-09T15:13:08Z</time>
      </trkpt>
      <trkpt lat="45.3918" lon="6.6523">
        <ele>2089.08203125</ele>
        <time>2011-07-09T15:13:15Z</time>
      </trkpt>
      <trkpt lat="45.39183" lon="6.65231">
        <ele>2088.6015625</ele>
        <time>2011-07-09T15:13:20Z</time>
      </trkpt>
      <trkpt lat="45.39186" lon="6.65235">
        <ele>2087.6401367188</ele>
        <time>2011-07-09T15:13:25Z</time>
      </trkpt>
      <trkpt lat="45.39188" lon="6.65241">
        <ele>2086.6787109375</ele>
        <time>2011-07-09T15:13:29Z</time>
      </trkpt>
      <trkpt lat="45.39184" lon="6.65267">
        <ele>2085.2368164062</ele>
        <time>2011-07-09T15:13:34Z</time>
      </trkpt>
      <trkpt lat="45.39186" lon="6.65294">
        <ele>2084.7563476562</ele>
        <time>2011-07-09T15:13:38Z</time>
      </trkpt>
      <trkpt lat="45.39188" lon="6.65301">
        <ele>2084.2756347656</ele>
        <time>2011-07-09T15:13:39Z</time>
      </trkpt>
      <trkpt lat="45.39206" lon="6.65329">
        <ele>2083.3142089844</ele>
        <time>2011-07-09T15:13:44Z</time>
      </trkpt>
      <trkpt lat="45.39232" lon="6.65352">
        <ele>2081.3916015625</ele>
        <time>2011-07-09T15:13:49Z</time>
      </trkpt>
      <trkpt lat="45.39253" lon="6.65365">
        <ele>2080.4304199219</ele>
        <time>2011-07-09T15:13:53Z</time>
      </trkpt>
      <trkpt lat="45.39264" lon="6.65382">
        <ele>2078.5078125</ele>
        <time>2011-07-09T15:13:57Z</time>
      </trkpt>
      <trkpt lat="45.39262" lon="6.65398">
        <ele>2076.5852050781</ele>
        <time>2011-07-09T15:13:59Z</time>
      </trkpt>
      <trkpt lat="45.39265" lon="6.65452">
        <ele>2072.2590332031</ele>
        <time>2011-07-09T15:14:05Z</time>
      </trkpt>
      <trkpt lat="45.39267" lon="6.6546">
        <ele>2071.2976074219</ele>
        <time>2011-07-09T15:14:06Z</time>
      </trkpt>
      <trkpt lat="45.39257" lon="6.65479">
        <ele>2068.4138183594</ele>
        <time>2011-07-09T15:14:10Z</time>
      </trkpt>
      <trkpt lat="45.39244" lon="6.65481">
        <ele>2066.4912109375</ele>
        <time>2011-07-09T15:14:12Z</time>
      </trkpt>
      <trkpt lat="45.3923" lon="6.65499">
        <ele>2062.6459960938</ele>
        <time>2011-07-09T15:14:16Z</time>
      </trkpt>
      <trkpt lat="45.39238" lon="6.6552">
        <ele>2060.7233886719</ele>
        <time>2011-07-09T15:14:19Z</time>
      </trkpt>
      <trkpt lat="45.39272" lon="6.65559">
        <ele>2060.2426757812</ele>
        <time>2011-07-09T15:14:25Z</time>
      </trkpt>
      <trkpt lat="45.39312" lon="6.6559">
        <ele>2057.8393554688</ele>
        <time>2011-07-09T15:14:32Z</time>
      </trkpt>
      <trkpt lat="45.39317" lon="6.65594">
        <ele>2057.3586425781</ele>
        <time>2011-07-09T15:14:33Z</time>
      </trkpt>
      <trkpt lat="45.39357" lon="6.65608">
        <ele>2054.474609375</ele>
        <time>2011-07-09T15:14:39Z</time>
      </trkpt>
      <trkpt lat="45.39389" lon="6.65613">
        <ele>2053.0327148438</ele>
        <time>2011-07-09T15:14:43Z</time>
      </trkpt>
      <trkpt lat="45.39415" lon="6.65628">
        <ele>2051.5908203125</ele>
        <time>2011-07-09T15:14:47Z</time>
      </trkpt>
      <trkpt lat="45.39444" lon="6.65664">
        <ele>2049.1875</ele>
        <time>2011-07-09T15:14:52Z</time>
      </trkpt>
      <trkpt lat="45.39449" lon="6.65669">
        <ele>2049.1875</ele>
        <time>2011-07-09T15:14:53Z</time>
      </trkpt>
      <trkpt lat="45.39462" lon="6.65681">
        <ele>2049.1875</ele>
        <time>2011-07-09T15:14:56Z</time>
      </trkpt>
      <trkpt lat="45.39469" lon="6.65693">
        <ele>2051.1101074219</ele>
        <time>2011-07-09T15:15:00Z</time>
      </trkpt>
      <trkpt lat="45.39475" lon="6.65701">
        <ele>2052.0712890625</ele>
        <time>2011-07-09T15:15:04Z</time>
      </trkpt>
      <trkpt lat="45.39478" lon="6.65706">
        <ele>2053.0327148438</ele>
        <time>2011-07-09T15:15:07Z</time>
      </trkpt>
      <trkpt lat="45.3948" lon="6.65709">
        <ele>2053.0327148438</ele>
        <time>2011-07-09T15:15:09Z</time>
      </trkpt>
      <trkpt lat="45.39482" lon="6.6571">
        <ele>2053.0327148438</ele>
        <time>2011-07-09T15:15:10Z</time>
      </trkpt>
      <trkpt lat="45.3949" lon="6.65717">
        <ele>2053.5134277344</ele>
        <time>2011-07-09T15:15:14Z</time>
      </trkpt>
      <trkpt lat="45.39492" lon="6.6572">
        <ele>2053.5134277344</ele>
        <time>2011-07-09T15:15:15Z</time>
      </trkpt>
      <trkpt lat="45.39503" lon="6.65735">
        <ele>2054.9553222656</ele>
        <time>2011-07-09T15:15:20Z</time>
      </trkpt>
      <trkpt lat="45.39515" lon="6.6575">
        <ele>2055.9165039062</ele>
        <time>2011-07-09T15:15:25Z</time>
      </trkpt>
      <trkpt lat="45.39524" lon="6.65759">
        <ele>2055.4360351562</ele>
        <time>2011-07-09T15:15:31Z</time>
      </trkpt>
      <trkpt lat="45.39529" lon="6.65762">
        <ele>2055.4360351562</ele>
        <time>2011-07-09T15:15:35Z</time>
      </trkpt>
      <trkpt lat="45.39539" lon="6.65748">
        <ele>2055.4360351562</ele>
        <time>2011-07-09T15:15:40Z</time>
      </trkpt>
      <trkpt lat="45.39552" lon="6.65723">
        <ele>2055.9165039062</ele>
        <time>2011-07-09T15:15:48Z</time>
      </trkpt>
      <trkpt lat="45.39553" lon="6.65721">
        <ele>2055.9165039062</ele>
        <time>2011-07-09T15:15:49Z</time>
      </trkpt>
      <trkpt lat="45.39554" lon="6.65721">
        <ele>2055.4360351562</ele>
        <time>2011-07-09T15:15:57Z</time>
      </trkpt>
      <trkpt lat="45.39555" lon="6.65719">
        <ele>2053.5134277344</ele>
        <time>2011-07-09T15:16:06Z</time>
      </trkpt>
      <trkpt lat="45.39555" lon="6.65718">
        <ele>2052.5520019531</ele>
        <time>2011-07-09T15:16:12Z</time>
      </trkpt>
      <trkpt lat="45.39556" lon="6.65718">
        <ele>2052.5520019531</ele>
        <time>2011-07-09T15:16:16Z</time>
      </trkpt>
      <trkpt lat="45.39555" lon="6.65718">
        <ele>2053.0327148438</ele>
        <time>2011-07-09T15:16:22Z</time>
      </trkpt>
      <trkpt lat="45.39555" lon="6.65718">
        <ele>2052.5520019531</ele>
        <time>2011-07-09T15:16:27Z</time>
      </trkpt>
      <trkpt lat="45.39556" lon="6.65716">
        <ele>2052.0712890625</ele>
        <time>2011-07-09T15:16:39Z</time>
      </trkpt>
      <trkpt lat="45.39557" lon="6.65714">
        <ele>2052.0712890625</ele>
        <time>2011-07-09T15:16:40Z</time>
      </trkpt>
      <trkpt lat="45.39559" lon="6.65708">
        <ele>2052.5520019531</ele>
        <time>2011-07-09T15:16:48Z</time>
      </trkpt>
      <trkpt lat="45.39557" lon="6.65711">
        <ele>2052.5520019531</ele>
        <time>2011-07-09T15:16:53Z</time>
      </trkpt>
      <trkpt lat="45.39555" lon="6.65714">
        <ele>2052.5520019531</ele>
        <time>2011-07-09T15:16:55Z</time>
      </trkpt>
      <trkpt lat="45.39543" lon="6.65741">
        <ele>2052.0712890625</ele>
        <time>2011-07-09T15:17:04Z</time>
      </trkpt>
      <trkpt lat="45.3953" lon="6.65757">
        <ele>2051.1101074219</ele>
        <time>2011-07-09T15:17:10Z</time>
      </trkpt>
      <trkpt lat="45.3952" lon="6.6575">
        <ele>2050.6293945312</ele>
        <time>2011-07-09T15:17:15Z</time>
      </trkpt>
      <trkpt lat="45.39502" lon="6.65727">
        <ele>2049.6682128906</ele>
        <time>2011-07-09T15:17:23Z</time>
      </trkpt>
      <trkpt lat="45.39495" lon="6.65718">
        <ele>2049.1875</ele>
        <time>2011-07-09T15:17:25Z</time>
      </trkpt>
      <trkpt lat="45.39473" lon="6.65693">
        <ele>2047.2648925781</ele>
        <time>2011-07-09T15:17:30Z</time>
      </trkpt>
      <trkpt lat="45.39456" lon="6.65656">
        <ele>2042.9387207031</ele>
        <time>2011-07-09T15:17:34Z</time>
      </trkpt>
      <trkpt lat="45.3945" lon="6.65633">
        <ele>2041.0161132812</ele>
        <time>2011-07-09T15:17:36Z</time>
      </trkpt>
      <trkpt lat="45.39448" lon="6.65617">
        <ele>2039.0935058594</ele>
        <time>2011-07-09T15:17:38Z</time>
      </trkpt>
      <trkpt lat="45.39446" lon="6.65589">
        <ele>2038.1323242188</ele>
        <time>2011-07-09T15:17:42Z</time>
      </trkpt>
      <trkpt lat="45.39452" lon="6.65566">
        <ele>2036.6901855469</ele>
        <time>2011-07-09T15:17:46Z</time>
      </trkpt>
      <trkpt lat="45.3946" lon="6.65563">
        <ele>2036.2097167969</ele>
        <time>2011-07-09T15:17:48Z</time>
      </trkpt>
      <trkpt lat="45.39465" lon="6.65565">
        <ele>2036.6901855469</ele>
        <time>2011-07-09T15:17:54Z</time>
      </trkpt>
      <trkpt lat="45.39465" lon="6.65565">
        <ele>2037.6516113281</ele>
        <time>2011-07-09T15:17:58Z</time>
      </trkpt>
      <trkpt lat="45.39469" lon="6.65567">
        <ele>2037.6516113281</ele>
        <time>2011-07-09T15:18:05Z</time>
      </trkpt>
      <trkpt lat="45.39474" lon="6.65564">
        <ele>2038.6130371094</ele>
        <time>2011-07-09T15:18:12Z</time>
      </trkpt>
      <trkpt lat="45.39474" lon="6.65563">
        <ele>2039.57421875</ele>
        <time>2011-07-09T15:18:20Z</time>
      </trkpt>
      <trkpt lat="45.39474" lon="6.65563">
        <ele>2039.0935058594</ele>
        <time>2011-07-09T15:18:30Z</time>
      </trkpt>
      <trkpt lat="45.39474" lon="6.65563">
        <ele>2041.0161132812</ele>
        <time>2011-07-09T15:18:42Z</time>
      </trkpt>
      <trkpt lat="45.39474" lon="6.65562">
        <ele>2042.4582519531</ele>
        <time>2011-07-09T15:18:45Z</time>
      </trkpt>
      <trkpt lat="45.39475" lon="6.65556">
        <ele>2044.8615722656</ele>
        <time>2011-07-09T15:18:50Z</time>
      </trkpt>
      <trkpt lat="45.39477" lon="6.65556">
        <ele>2045.8229980469</ele>
        <time>2011-07-09T15:18:55Z</time>
      </trkpt>
      <trkpt lat="45.39477" lon="6.65552">
        <ele>2046.3037109375</ele>
        <time>2011-07-09T15:19:04Z</time>
      </trkpt>
      <trkpt lat="45.39477" lon="6.65549">
        <ele>2045.8229980469</ele>
        <time>2011-07-09T15:19:09Z</time>
      </trkpt>
      <trkpt lat="45.3948" lon="6.65546">
        <ele>2044.8615722656</ele>
        <time>2011-07-09T15:19:14Z</time>
      </trkpt>
      <trkpt lat="45.39484" lon="6.65542">
        <ele>2041.9775390625</ele>
        <time>2011-07-09T15:19:19Z</time>
      </trkpt>
      <trkpt lat="45.395" lon="6.65514">
        <ele>2031.8837890625</ele>
        <time>2011-07-09T15:19:46Z</time>
      </trkpt>
      <trkpt lat="45.39481" lon="6.65553">
        <ele>2030.4418945312</ele>
        <time>2011-07-09T15:19:58Z</time>
      </trkpt>
      <trkpt lat="45.3948" lon="6.6555">
        <ele>2033.8063964844</ele>
        <time>2011-07-09T15:20:02Z</time>
      </trkpt>
      <trkpt lat="45.39479" lon="6.65548">
        <ele>2034.7678222656</ele>
        <time>2011-07-09T15:20:05Z</time>
      </trkpt>
      <trkpt lat="45.39479" lon="6.65548">
        <ele>2036.6901855469</ele>
        <time>2011-07-09T15:20:13Z</time>
      </trkpt>
      <trkpt lat="45.39479" lon="6.65549">
        <ele>2037.1708984375</ele>
        <time>2011-07-09T15:20:17Z</time>
      </trkpt>
      <trkpt lat="45.39476" lon="6.65551">
        <ele>2029.48046875</ele>
        <time>2011-07-09T15:20:28Z</time>
      </trkpt>
      <trkpt lat="45.39474" lon="6.6555">
        <ele>2014.580078125</ele>
        <time>2011-07-09T15:20:50Z</time>
      </trkpt>
      <trkpt lat="45.39474" lon="6.65549">
        <ele>2009.2927246094</ele>
        <time>2011-07-09T15:21:39Z</time>
      </trkpt>
      <trkpt lat="45.39474" lon="6.65549">
        <ele>2009.2927246094</ele>
        <time>2011-07-09T15:21:40Z</time>
      </trkpt>
      <trkpt lat="45.39475" lon="6.65559">
        <ele>2013.1381835938</ele>
        <time>2011-07-09T15:25:06Z</time>
      </trkpt>
      <trkpt lat="45.39476" lon="6.65558">
        <ele>2013.1381835938</ele>
        <time>2011-07-09T15:25:28Z</time>
      </trkpt>
      <trkpt lat="45.39473" lon="6.65561">
        <ele>2014.580078125</ele>
        <time>2011-07-09T15:25:53Z</time>
      </trkpt>
      <trkpt lat="45.39474" lon="6.65562">
        <ele>2013.6186523438</ele>
        <time>2011-07-09T15:26:07Z</time>
      </trkpt>
      <trkpt lat="45.39473" lon="6.6556">
        <ele>2020.8286132812</ele>
        <time>2011-07-09T15:26:25Z</time>
      </trkpt>
      <trkpt lat="45.39468" lon="6.65557">
        <ele>2036.6901855469</ele>
        <time>2011-07-09T15:26:33Z</time>
      </trkpt>
      <trkpt lat="45.39465" lon="6.65558">
        <ele>2043.4194335938</ele>
        <time>2011-07-09T15:26:39Z</time>
      </trkpt>
      <trkpt lat="45.39467" lon="6.65555">
        <ele>2051.5908203125</ele>
        <time>2011-07-09T15:26:46Z</time>
      </trkpt>
      <trkpt lat="45.39468" lon="6.65558">
        <ele>2051.5908203125</ele>
        <time>2011-07-09T15:26:59Z</time>
      </trkpt>
      <trkpt lat="45.39469" lon="6.65555">
        <ele>2053.0327148438</ele>
        <time>2011-07-09T15:27:06Z</time>
      </trkpt>
      <trkpt lat="45.39482" lon="6.65545">
        <ele>2047.2648925781</ele>
        <time>2011-07-09T15:27:19Z</time>
      </trkpt>
      <trkpt lat="45.3948" lon="6.65548">
        <ele>2041.9775390625</ele>
        <time>2011-07-09T15:27:27Z</time>
      </trkpt>
      <trkpt lat="45.39475" lon="6.65552">
        <ele>2040.5354003906</ele>
        <time>2011-07-09T15:27:36Z</time>
      </trkpt>
      <trkpt lat="45.39471" lon="6.65556">
        <ele>2044.380859375</ele>
        <time>2011-07-09T15:27:52Z</time>
      </trkpt>
      <trkpt lat="45.3947" lon="6.65558">
        <ele>2044.8615722656</ele>
        <time>2011-07-09T15:28:01Z</time>
      </trkpt>
      <trkpt lat="45.3947" lon="6.65557">
        <ele>2044.380859375</ele>
        <time>2011-07-09T15:28:18Z</time>
      </trkpt>
      <trkpt lat="45.39473" lon="6.65555">
        <ele>2042.9387207031</ele>
        <time>2011-07-09T15:28:26Z</time>
      </trkpt>
      <trkpt lat="45.39473" lon="6.65555">
        <ele>2042.9387207031</ele>
        <time>2011-07-09T15:28:41Z</time>
      </trkpt>
      <trkpt lat="45.39473" lon="6.65554">
        <ele>2042.4582519531</ele>
        <time>2011-07-09T15:29:06Z</time>
      </trkpt>
      <trkpt lat="45.3947" lon="6.65558">
        <ele>2043.4194335938</ele>
        <time>2011-07-09T15:29:18Z</time>
      </trkpt>
      <trkpt lat="45.39469" lon="6.65558">
        <ele>2043.9001464844</ele>
        <time>2011-07-09T15:29:28Z</time>
      </trkpt>
      <trkpt lat="45.39472" lon="6.65556">
        <ele>2043.9001464844</ele>
        <time>2011-07-09T15:29:37Z</time>
      </trkpt>
      <trkpt lat="45.39474" lon="6.65555">
        <ele>2043.4194335938</ele>
        <time>2011-07-09T15:29:49Z</time>
      </trkpt>
      <trkpt lat="45.39475" lon="6.65553">
        <ele>2042.9387207031</ele>
        <time>2011-07-09T15:29:56Z</time>
      </trkpt>
      <trkpt lat="45.39474" lon="6.65558">
        <ele>2041.9775390625</ele>
        <time>2011-07-09T15:30:25Z</time>
      </trkpt>
      <trkpt lat="45.39473" lon="6.65561">
        <ele>2041.4968261719</ele>
        <time>2011-07-09T15:30:27Z</time>
      </trkpt>
      <trkpt lat="45.3947" lon="6.65565">
        <ele>2041.4968261719</ele>
        <time>2011-07-09T15:30:30Z</time>
      </trkpt>
      <trkpt lat="45.39465" lon="6.65568">
        <ele>2041.4968261719</ele>
        <time>2011-07-09T15:30:36Z</time>
      </trkpt>
      <trkpt lat="45.39465" lon="6.65566">
        <ele>2041.0161132812</ele>
        <time>2011-07-09T15:30:45Z</time>
      </trkpt>
      <trkpt lat="45.39465" lon="6.65566">
        <ele>2040.5354003906</ele>
        <time>2011-07-09T15:30:51Z</time>
      </trkpt>
      <trkpt lat="45.39464" lon="6.65566">
        <ele>2040.0549316406</ele>
        <time>2011-07-09T15:31:00Z</time>
      </trkpt>
      <trkpt lat="45.39463" lon="6.65566">
        <ele>2040.0549316406</ele>
        <time>2011-07-09T15:31:02Z</time>
      </trkpt>
      <trkpt lat="45.39456" lon="6.65566">
        <ele>2039.57421875</ele>
        <time>2011-07-09T15:31:06Z</time>
      </trkpt>
      <trkpt lat="45.39439" lon="6.65563">
        <ele>2038.6130371094</ele>
        <time>2011-07-09T15:31:12Z</time>
      </trkpt>
      <trkpt lat="45.39419" lon="6.65554">
        <ele>2036.6901855469</ele>
        <time>2011-07-09T15:31:17Z</time>
      </trkpt>
      <trkpt lat="45.39388" lon="6.65545">
        <ele>2033.8063964844</ele>
        <time>2011-07-09T15:31:22Z</time>
      </trkpt>
      <trkpt lat="45.39363" lon="6.65526">
        <ele>2030.9226074219</ele>
        <time>2011-07-09T15:31:26Z</time>
      </trkpt>
      <trkpt lat="45.39359" lon="6.65507">
        <ele>2029.48046875</ele>
        <time>2011-07-09T15:31:28Z</time>
      </trkpt>
      <trkpt lat="45.39367" lon="6.65472">
        <ele>2028.0385742188</ele>
        <time>2011-07-09T15:31:31Z</time>
      </trkpt>
      <trkpt lat="45.3939" lon="6.65412">
        <ele>2023.7124023438</ele>
        <time>2011-07-09T15:31:36Z</time>
      </trkpt>
      <trkpt lat="45.39418" lon="6.65379">
        <ele>2018.9060058594</ele>
        <time>2011-07-09T15:31:40Z</time>
      </trkpt>
      <trkpt lat="45.39458" lon="6.65344">
        <ele>2013.6186523438</ele>
        <time>2011-07-09T15:31:46Z</time>
      </trkpt>
      <trkpt lat="45.39475" lon="6.65316">
        <ele>2011.2153320312</ele>
        <time>2011-07-09T15:31:50Z</time>
      </trkpt>
      <trkpt lat="45.39474" lon="6.65294">
        <ele>2010.25390625</ele>
        <time>2011-07-09T15:31:53Z</time>
      </trkpt>
      <trkpt lat="45.39463" lon="6.65272">
        <ele>2007.8508300781</ele>
        <time>2011-07-09T15:31:57Z</time>
      </trkpt>
      <trkpt lat="45.39459" lon="6.65268">
        <ele>2007.3701171875</ele>
        <time>2011-07-09T15:31:58Z</time>
      </trkpt>
      <trkpt lat="45.39452" lon="6.65261">
        <ele>2005.9279785156</ele>
        <time>2011-07-09T15:32:00Z</time>
      </trkpt>
      <trkpt lat="45.39444" lon="6.65252">
        <ele>2004.4860839844</ele>
        <time>2011-07-09T15:32:02Z</time>
      </trkpt>
      <trkpt lat="45.39438" lon="6.6522">
        <ele>2001.6022949219</ele>
        <time>2011-07-09T15:32:06Z</time>
      </trkpt>
      <trkpt lat="45.39441" lon="6.6521">
        <ele>2001.1215820312</ele>
        <time>2011-07-09T15:32:07Z</time>
      </trkpt>
      <trkpt lat="45.39465" lon="6.65158">
        <ele>1998.2375488281</ele>
        <time>2011-07-09T15:32:12Z</time>
      </trkpt>
      <trkpt lat="45.39503" lon="6.65116">
        <ele>1996.3151855469</ele>
        <time>2011-07-09T15:32:17Z</time>
      </trkpt>
      <trkpt lat="45.3952" lon="6.65074">
        <ele>1994.8728027344</ele>
        <time>2011-07-09T15:32:21Z</time>
      </trkpt>
      <trkpt lat="45.39527" lon="6.65034">
        <ele>1992.9501953125</ele>
        <time>2011-07-09T15:32:24Z</time>
      </trkpt>
      <trkpt lat="45.39544" lon="6.64982">
        <ele>1991.0275878906</ele>
        <time>2011-07-09T15:32:28Z</time>
      </trkpt>
      <trkpt lat="45.39568" lon="6.6496">
        <ele>1989.5856933594</ele>
        <time>2011-07-09T15:32:31Z</time>
      </trkpt>
      <trkpt lat="45.39578" lon="6.64957">
        <ele>1989.1049804688</ele>
        <time>2011-07-09T15:32:32Z</time>
      </trkpt>
      <trkpt lat="45.39623" lon="6.64945">
        <ele>1987.1823730469</ele>
        <time>2011-07-09T15:32:38Z</time>
      </trkpt>
      <trkpt lat="45.3965" lon="6.64934">
        <ele>1986.7016601562</ele>
        <time>2011-07-09T15:32:42Z</time>
      </trkpt>
      <trkpt lat="45.39676" lon="6.64935">
        <ele>1984.779296875</ele>
        <time>2011-07-09T15:32:46Z</time>
      </trkpt>
      <trkpt lat="45.39695" lon="6.64936">
        <ele>1982.3759765625</ele>
        <time>2011-07-09T15:32:49Z</time>
      </trkpt>
      <trkpt lat="45.39708" lon="6.64946">
        <ele>1980.4533691406</ele>
        <time>2011-07-09T15:32:53Z</time>
      </trkpt>
      <trkpt lat="45.39697" lon="6.64954">
        <ele>1978.5305175781</ele>
        <time>2011-07-09T15:32:56Z</time>
      </trkpt>
      <trkpt lat="45.39673" lon="6.64963">
        <ele>1976.1271972656</ele>
        <time>2011-07-09T15:33:01Z</time>
      </trkpt>
      <trkpt lat="45.39651" lon="6.64984">
        <ele>1975.646484375</ele>
        <time>2011-07-09T15:33:05Z</time>
      </trkpt>
      <trkpt lat="45.39637" lon="6.65008">
        <ele>1974.2045898438</ele>
        <time>2011-07-09T15:33:08Z</time>
      </trkpt>
      <trkpt lat="45.39631" lon="6.65022">
        <ele>1973.2434082031</ele>
        <time>2011-07-09T15:33:10Z</time>
      </trkpt>
      <trkpt lat="45.39631" lon="6.65045">
        <ele>1970.359375</ele>
        <time>2011-07-09T15:33:14Z</time>
      </trkpt>
      <trkpt lat="45.39635" lon="6.65049">
        <ele>1969.3981933594</ele>
        <time>2011-07-09T15:33:15Z</time>
      </trkpt>
      <trkpt lat="45.3966" lon="6.65071">
        <ele>1964.5915527344</ele>
        <time>2011-07-09T15:33:19Z</time>
      </trkpt>
      <trkpt lat="45.39683" lon="6.65081">
        <ele>1961.7075195312</ele>
        <time>2011-07-09T15:33:22Z</time>
      </trkpt>
      <trkpt lat="45.39716" lon="6.65105">
        <ele>1954.0170898438</ele>
        <time>2011-07-09T15:33:27Z</time>
      </trkpt>
      <trkpt lat="45.3975" lon="6.65117">
        <ele>1947.7683105469</ele>
        <time>2011-07-09T15:33:30Z</time>
      </trkpt>
      <trkpt lat="45.39824" lon="6.65136">
        <ele>1938.6359863281</ele>
        <time>2011-07-09T15:33:36Z</time>
      </trkpt>
      <trkpt lat="45.39837" lon="6.65142">
        <ele>1936.7131347656</ele>
        <time>2011-07-09T15:33:37Z</time>
      </trkpt>
      <trkpt lat="45.39887" lon="6.65159">
        <ele>1930.4645996094</ele>
        <time>2011-07-09T15:33:41Z</time>
      </trkpt>
      <trkpt lat="45.39901" lon="6.65165">
        <ele>1929.5031738281</ele>
        <time>2011-07-09T15:33:43Z</time>
      </trkpt>
      <trkpt lat="45.3992" lon="6.65172">
        <ele>1926.138671875</ele>
        <time>2011-07-09T15:33:48Z</time>
      </trkpt>
      <trkpt lat="45.39941" lon="6.65195">
        <ele>1921.33203125</ele>
        <time>2011-07-09T15:33:54Z</time>
      </trkpt>
      <trkpt lat="45.39966" lon="6.65232">
        <ele>1915.0834960938</ele>
        <time>2011-07-09T15:34:01Z</time>
      </trkpt>
      <trkpt lat="45.3999" lon="6.6527">
        <ele>1909.3156738281</ele>
        <time>2011-07-09T15:34:07Z</time>
      </trkpt>
      <trkpt lat="45.4002" lon="6.65288">
        <ele>1904.9897460938</ele>
        <time>2011-07-09T15:34:12Z</time>
      </trkpt>
      <trkpt lat="45.40034" lon="6.65291">
        <ele>1903.0671386719</ele>
        <time>2011-07-09T15:34:14Z</time>
      </trkpt>
      <trkpt lat="45.40052" lon="6.65304">
        <ele>1900.1833496094</ele>
        <time>2011-07-09T15:34:18Z</time>
      </trkpt>
      <trkpt lat="45.40057" lon="6.65325">
        <ele>1898.2602539062</ele>
        <time>2011-07-09T15:34:21Z</time>
      </trkpt>
      <trkpt lat="45.40056" lon="6.65364">
        <ele>1895.3764648438</ele>
        <time>2011-07-09T15:34:26Z</time>
      </trkpt>
      <trkpt lat="45.40041" lon="6.65389">
        <ele>1894.4150390625</ele>
        <time>2011-07-09T15:34:30Z</time>
      </trkpt>
      <trkpt lat="45.40037" lon="6.65393">
        <ele>1894.4150390625</ele>
        <time>2011-07-09T15:34:31Z</time>
      </trkpt>
      <trkpt lat="45.4003" lon="6.65403">
        <ele>1894.4150390625</ele>
        <time>2011-07-09T15:34:33Z</time>
      </trkpt>
      <trkpt lat="45.40016" lon="6.65442">
        <ele>1894.8957519531</ele>
        <time>2011-07-09T15:34:39Z</time>
      </trkpt>
      <trkpt lat="45.40022" lon="6.65461">
        <ele>1894.4150390625</ele>
        <time>2011-07-09T15:34:42Z</time>
      </trkpt>
      <trkpt lat="45.40032" lon="6.65474">
        <ele>1894.4150390625</ele>
        <time>2011-07-09T15:34:45Z</time>
      </trkpt>
      <trkpt lat="45.40051" lon="6.65492">
        <ele>1895.8571777344</ele>
        <time>2011-07-09T15:34:51Z</time>
      </trkpt>
      <trkpt lat="45.40063" lon="6.65503">
        <ele>1896.337890625</ele>
        <time>2011-07-09T15:34:55Z</time>
      </trkpt>
      <trkpt lat="45.40083" lon="6.65517">
        <ele>1897.2990722656</ele>
        <time>2011-07-09T15:35:02Z</time>
      </trkpt>
      <trkpt lat="45.40105" lon="6.65521">
        <ele>1898.7409667969</ele>
        <time>2011-07-09T15:35:09Z</time>
      </trkpt>
      <trkpt lat="45.40119" lon="6.65521">
        <ele>1899.2216796875</ele>
        <time>2011-07-09T15:35:14Z</time>
      </trkpt>
      <trkpt lat="45.40128" lon="6.6552">
        <ele>1899.2216796875</ele>
        <time>2011-07-09T15:35:17Z</time>
      </trkpt>
      <trkpt lat="45.40141" lon="6.65527">
        <ele>1899.2216796875</ele>
        <time>2011-07-09T15:35:23Z</time>
      </trkpt>
      <trkpt lat="45.40142" lon="6.65527">
        <ele>1899.2216796875</ele>
        <time>2011-07-09T15:35:24Z</time>
      </trkpt>
      <trkpt lat="45.40152" lon="6.65518">
        <ele>1899.7023925781</ele>
        <time>2011-07-09T15:35:30Z</time>
      </trkpt>
      <trkpt lat="45.40157" lon="6.6551">
        <ele>1900.1833496094</ele>
        <time>2011-07-09T15:35:33Z</time>
      </trkpt>
      <trkpt lat="45.40174" lon="6.65495">
        <ele>1900.6638183594</ele>
        <time>2011-07-09T15:35:41Z</time>
      </trkpt>
      <trkpt lat="45.40203" lon="6.6547">
        <ele>1900.6638183594</ele>
        <time>2011-07-09T15:35:50Z</time>
      </trkpt>
      <trkpt lat="45.40232" lon="6.65444">
        <ele>1902.1057128906</ele>
        <time>2011-07-09T15:35:59Z</time>
      </trkpt>
      <trkpt lat="45.40245" lon="6.65433">
        <ele>1901.6252441406</ele>
        <time>2011-07-09T15:36:04Z</time>
      </trkpt>
      <trkpt lat="45.40263" lon="6.6542">
        <ele>1900.6638183594</ele>
        <time>2011-07-09T15:36:10Z</time>
      </trkpt>
      <trkpt lat="45.40284" lon="6.65409">
        <ele>1896.818359375</ele>
        <time>2011-07-09T15:36:16Z</time>
      </trkpt>
      <trkpt lat="45.40296" lon="6.65407">
        <ele>1895.3764648438</ele>
        <time>2011-07-09T15:36:19Z</time>
      </trkpt>
      <trkpt lat="45.40308" lon="6.65403">
        <ele>1894.4150390625</ele>
        <time>2011-07-09T15:36:23Z</time>
      </trkpt>
      <trkpt lat="45.40321" lon="6.65399">
        <ele>1893.4538574219</ele>
        <time>2011-07-09T15:36:28Z</time>
      </trkpt>
      <trkpt lat="45.40337" lon="6.65398">
        <ele>1892.4926757812</ele>
        <time>2011-07-09T15:36:34Z</time>
      </trkpt>
      <trkpt lat="45.40353" lon="6.65393">
        <ele>1891.0505371094</ele>
        <time>2011-07-09T15:36:40Z</time>
      </trkpt>
      <trkpt lat="45.40368" lon="6.6538">
        <ele>1889.6086425781</ele>
        <time>2011-07-09T15:36:46Z</time>
      </trkpt>
      <trkpt lat="45.40383" lon="6.65373">
        <ele>1887.6860351562</ele>
        <time>2011-07-09T15:36:50Z</time>
      </trkpt>
      <trkpt lat="45.40393" lon="6.65392">
        <ele>1886.244140625</ele>
        <time>2011-07-09T15:36:54Z</time>
      </trkpt>
      <trkpt lat="45.40388" lon="6.65409">
        <ele>1885.2827148438</ele>
        <time>2011-07-09T15:36:57Z</time>
      </trkpt>
      <trkpt lat="45.40385" lon="6.65414">
        <ele>1884.8022460938</ele>
        <time>2011-07-09T15:36:58Z</time>
      </trkpt>
      <trkpt lat="45.40356" lon="6.65444">
        <ele>1882.8791503906</ele>
        <time>2011-07-09T15:37:06Z</time>
      </trkpt>
      <trkpt lat="45.40324" lon="6.65476">
        <ele>1881.4372558594</ele>
        <time>2011-07-09T15:37:15Z</time>
      </trkpt>
      <trkpt lat="45.4029" lon="6.65513">
        <ele>1878.5534667969</ele>
        <time>2011-07-09T15:37:24Z</time>
      </trkpt>
      <trkpt lat="45.4028" lon="6.65522">
        <ele>1877.5920410156</ele>
        <time>2011-07-09T15:37:28Z</time>
      </trkpt>
      <trkpt lat="45.40263" lon="6.65541">
        <ele>1876.1501464844</ele>
        <time>2011-07-09T15:37:35Z</time>
      </trkpt>
      <trkpt lat="45.40247" lon="6.65565">
        <ele>1874.7082519531</ele>
        <time>2011-07-09T15:37:41Z</time>
      </trkpt>
      <trkpt lat="45.4023" lon="6.65588">
        <ele>1873.7468261719</ele>
        <time>2011-07-09T15:37:47Z</time>
      </trkpt>
      <trkpt lat="45.40217" lon="6.65605">
        <ele>1873.2663574219</ele>
        <time>2011-07-09T15:37:53Z</time>
      </trkpt>
      <trkpt lat="45.40195" lon="6.65633">
        <ele>1874.2275390625</ele>
        <time>2011-07-09T15:37:59Z</time>
      </trkpt>
      <trkpt lat="45.40173" lon="6.65665">
        <ele>1871.82421875</ele>
        <time>2011-07-09T15:38:04Z</time>
      </trkpt>
      <trkpt lat="45.40168" lon="6.6567">
        <ele>1870.8630371094</ele>
        <time>2011-07-09T15:38:05Z</time>
      </trkpt>
      <trkpt lat="45.40151" lon="6.65699">
        <ele>1868.9404296875</ele>
        <time>2011-07-09T15:38:10Z</time>
      </trkpt>
      <trkpt lat="45.40139" lon="6.65721">
        <ele>1866.5368652344</ele>
        <time>2011-07-09T15:38:14Z</time>
      </trkpt>
      <trkpt lat="45.40118" lon="6.65759">
        <ele>1862.2109375</ele>
        <time>2011-07-09T15:38:21Z</time>
      </trkpt>
      <trkpt lat="45.40117" lon="6.65763">
        <ele>1861.73046875</ele>
        <time>2011-07-09T15:38:22Z</time>
      </trkpt>
      <trkpt lat="45.40113" lon="6.6579">
        <ele>1860.2883300781</ele>
        <time>2011-07-09T15:38:27Z</time>
      </trkpt>
      <trkpt lat="45.40112" lon="6.65797">
        <ele>1859.8076171875</ele>
        <time>2011-07-09T15:38:28Z</time>
      </trkpt>
      <trkpt lat="45.40114" lon="6.6585">
        <ele>1856.923828125</ele>
        <time>2011-07-09T15:38:35Z</time>
      </trkpt>
      <trkpt lat="45.40114" lon="6.65884">
        <ele>1854.0400390625</ele>
        <time>2011-07-09T15:38:40Z</time>
      </trkpt>
      <trkpt lat="45.40105" lon="6.65946">
        <ele>1850.1945800781</ele>
        <time>2011-07-09T15:38:47Z</time>
      </trkpt>
      <trkpt lat="45.401" lon="6.65998">
        <ele>1845.8686523438</ele>
        <time>2011-07-09T15:38:52Z</time>
      </trkpt>
      <trkpt lat="45.40091" lon="6.66054">
        <ele>1842.5041503906</ele>
        <time>2011-07-09T15:38:57Z</time>
      </trkpt>
      <trkpt lat="45.4009" lon="6.66063">
        <ele>1842.0234375</ele>
        <time>2011-07-09T15:38:58Z</time>
      </trkpt>
      <trkpt lat="45.40097" lon="6.66075">
        <ele>1840.5812988281</ele>
        <time>2011-07-09T15:39:01Z</time>
      </trkpt>
      <trkpt lat="45.40109" lon="6.66071">
        <ele>1838.6589355469</ele>
        <time>2011-07-09T15:39:04Z</time>
      </trkpt>
      <trkpt lat="45.40151" lon="6.66035">
        <ele>1832.890625</ele>
        <time>2011-07-09T15:39:12Z</time>
      </trkpt>
      <trkpt lat="45.40161" lon="6.66026">
        <ele>1830.9682617188</ele>
        <time>2011-07-09T15:39:14Z</time>
      </trkpt>
      <trkpt lat="45.40184" lon="6.66018">
        <ele>1826.6423339844</ele>
        <time>2011-07-09T15:39:19Z</time>
      </trkpt>
      <trkpt lat="45.40189" lon="6.66034">
        <ele>1824.2390136719</ele>
        <time>2011-07-09T15:39:22Z</time>
      </trkpt>
      <trkpt lat="45.40197" lon="6.66056">
        <ele>1820.8745117188</ele>
        <time>2011-07-09T15:39:27Z</time>
      </trkpt>
      <trkpt lat="45.40208" lon="6.66051">
        <ele>1818.9516601562</ele>
        <time>2011-07-09T15:39:30Z</time>
      </trkpt>
      <trkpt lat="45.40218" lon="6.66035">
        <ele>1817.990234375</ele>
        <time>2011-07-09T15:39:33Z</time>
      </trkpt>
      <trkpt lat="45.40221" lon="6.66028">
        <ele>1817.5095214844</ele>
        <time>2011-07-09T15:39:34Z</time>
      </trkpt>
      <trkpt lat="45.40225" lon="6.66014">
        <ele>1816.0676269531</ele>
        <time>2011-07-09T15:39:36Z</time>
      </trkpt>
      <trkpt lat="45.4024" lon="6.65996">
        <ele>1813.1838378906</ele>
        <time>2011-07-09T15:39:40Z</time>
      </trkpt>
      <trkpt lat="45.40247" lon="6.65995">
        <ele>1812.2224121094</ele>
        <time>2011-07-09T15:39:41Z</time>
      </trkpt>
      <trkpt lat="45.40287" lon="6.65986">
        <ele>1808.8579101562</ele>
        <time>2011-07-09T15:39:48Z</time>
      </trkpt>
      <trkpt lat="45.40325" lon="6.65969">
        <ele>1803.08984375</ele>
        <time>2011-07-09T15:39:55Z</time>
      </trkpt>
      <trkpt lat="45.40353" lon="6.65956">
        <ele>1798.283203125</ele>
        <time>2011-07-09T15:40:00Z</time>
      </trkpt>
      <trkpt lat="45.40375" lon="6.65959">
        <ele>1795.3994140625</ele>
        <time>2011-07-09T15:40:04Z</time>
      </trkpt>
      <trkpt lat="45.40383" lon="6.65979">
        <ele>1793.4768066406</ele>
        <time>2011-07-09T15:40:07Z</time>
      </trkpt>
      <trkpt lat="45.40385" lon="6.65992">
        <ele>1792.99609375</ele>
        <time>2011-07-09T15:40:10Z</time>
      </trkpt>
      <trkpt lat="45.40387" lon="6.66009">
        <ele>1791.5541992188</ele>
        <time>2011-07-09T15:40:14Z</time>
      </trkpt>
      <trkpt lat="45.40399" lon="6.6603">
        <ele>1789.6315917969</ele>
        <time>2011-07-09T15:40:20Z</time>
      </trkpt>
      <trkpt lat="45.40411" lon="6.66022">
        <ele>1788.6704101562</ele>
        <time>2011-07-09T15:40:24Z</time>
      </trkpt>
      <trkpt lat="45.4043" lon="6.65996">
        <ele>1786.7473144531</ele>
        <time>2011-07-09T15:40:30Z</time>
      </trkpt>
      <trkpt lat="45.40459" lon="6.65946">
        <ele>1781.4602050781</ele>
        <time>2011-07-09T15:40:38Z</time>
      </trkpt>
      <trkpt lat="45.40468" lon="6.65932">
        <ele>1780.4990234375</ele>
        <time>2011-07-09T15:40:40Z</time>
      </trkpt>
      <trkpt lat="45.40491" lon="6.65914">
        <ele>1778.095703125</ele>
        <time>2011-07-09T15:40:44Z</time>
      </trkpt>
      <trkpt lat="45.40541" lon="6.65893">
        <ele>1773.2893066406</ele>
        <time>2011-07-09T15:40:52Z</time>
      </trkpt>
      <trkpt lat="45.40546" lon="6.6589">
        <ele>1772.80859375</ele>
        <time>2011-07-09T15:40:53Z</time>
      </trkpt>
      <trkpt lat="45.40571" lon="6.65865">
        <ele>1768.9631347656</ele>
        <time>2011-07-09T15:40:58Z</time>
      </trkpt>
      <trkpt lat="45.40593" lon="6.65843">
        <ele>1765.5986328125</ele>
        <time>2011-07-09T15:41:02Z</time>
      </trkpt>
      <trkpt lat="45.40616" lon="6.65835">
        <ele>1763.67578125</ele>
        <time>2011-07-09T15:41:06Z</time>
      </trkpt>
      <trkpt lat="45.40621" lon="6.65836">
        <ele>1762.7145996094</ele>
        <time>2011-07-09T15:41:07Z</time>
      </trkpt>
      <trkpt lat="45.40647" lon="6.65839">
        <ele>1760.7919921875</ele>
        <time>2011-07-09T15:41:12Z</time>
      </trkpt>
      <trkpt lat="45.40674" lon="6.65834">
        <ele>1757.908203125</ele>
        <time>2011-07-09T15:41:18Z</time>
      </trkpt>
      <trkpt lat="45.40697" lon="6.65834">
        <ele>1754.5432128906</ele>
        <time>2011-07-09T15:41:22Z</time>
      </trkpt>
      <trkpt lat="45.40742" lon="6.65821">
        <ele>1750.6979980469</ele>
        <time>2011-07-09T15:41:28Z</time>
      </trkpt>
      <trkpt lat="45.40777" lon="6.65808">
        <ele>1749.7368164062</ele>
        <time>2011-07-09T15:41:33Z</time>
      </trkpt>
      <trkpt lat="45.40788" lon="6.65805">
        <ele>1750.2175292969</ele>
        <time>2011-07-09T15:41:35Z</time>
      </trkpt>
      <trkpt lat="45.40812" lon="6.65791">
        <ele>1750.2175292969</ele>
        <time>2011-07-09T15:41:41Z</time>
      </trkpt>
      <trkpt lat="45.40831" lon="6.65786">
        <ele>1748.775390625</ele>
        <time>2011-07-09T15:41:49Z</time>
      </trkpt>
      <trkpt lat="45.40852" lon="6.65786">
        <ele>1746.8527832031</ele>
        <time>2011-07-09T15:41:57Z</time>
      </trkpt>
      <trkpt lat="45.40863" lon="6.65782">
        <ele>1746.3723144531</ele>
        <time>2011-07-09T15:42:02Z</time>
      </trkpt>
      <trkpt lat="45.4088" lon="6.65771">
        <ele>1746.3723144531</ele>
        <time>2011-07-09T15:42:08Z</time>
      </trkpt>
      <trkpt lat="45.40898" lon="6.65758">
        <ele>1745.4108886719</ele>
        <time>2011-07-09T15:42:14Z</time>
      </trkpt>
      <trkpt lat="45.40908" lon="6.65753">
        <ele>1743.9689941406</ele>
        <time>2011-07-09T15:42:17Z</time>
      </trkpt>
      <trkpt lat="45.40907" lon="6.65752">
        <ele>1743.48828125</ele>
        <time>2011-07-09T15:42:21Z</time>
      </trkpt>
      <trkpt lat="45.40907" lon="6.65752">
        <ele>1742.0463867188</ele>
        <time>2011-07-09T15:42:30Z</time>
      </trkpt>
      <trkpt lat="45.40922" lon="6.65744">
        <ele>1741.0849609375</ele>
        <time>2011-07-09T15:42:35Z</time>
      </trkpt>
      <trkpt lat="45.40944" lon="6.65738">
        <ele>1739.162109375</ele>
        <time>2011-07-09T15:42:40Z</time>
      </trkpt>
      <trkpt lat="45.40952" lon="6.65744">
        <ele>1737.7202148438</ele>
        <time>2011-07-09T15:42:42Z</time>
      </trkpt>
      <trkpt lat="45.4096" lon="6.65769">
        <ele>1735.3168945312</ele>
        <time>2011-07-09T15:42:46Z</time>
      </trkpt>
      <trkpt lat="45.4096" lon="6.65776">
        <ele>1734.8364257812</ele>
        <time>2011-07-09T15:42:47Z</time>
      </trkpt>
      <trkpt lat="45.40958" lon="6.65803">
        <ele>1733.875</ele>
        <time>2011-07-09T15:42:51Z</time>
      </trkpt>
      <trkpt lat="45.40954" lon="6.65813">
        <ele>1732.9135742188</ele>
        <time>2011-07-09T15:42:54Z</time>
      </trkpt>
      <trkpt lat="45.40942" lon="6.6584">
        <ele>1730.0297851562</ele>
        <time>2011-07-09T15:43:02Z</time>
      </trkpt>
      <trkpt lat="45.40922" lon="6.65862">
        <ele>1729.068359375</ele>
        <time>2011-07-09T15:43:07Z</time>
      </trkpt>
      <trkpt lat="45.40917" lon="6.65866">
        <ele>1729.068359375</ele>
        <time>2011-07-09T15:43:08Z</time>
      </trkpt>
      <trkpt lat="45.40886" lon="6.65881">
        <ele>1727.6264648438</ele>
        <time>2011-07-09T15:43:14Z</time>
      </trkpt>
      <trkpt lat="45.40873" lon="6.65895">
        <ele>1729.068359375</ele>
        <time>2011-07-09T15:43:17Z</time>
      </trkpt>
      <trkpt lat="45.40866" lon="6.65908">
        <ele>1730.5104980469</ele>
        <time>2011-07-09T15:43:20Z</time>
      </trkpt>
      <trkpt lat="45.40855" lon="6.65923">
        <ele>1731.4716796875</ele>
        <time>2011-07-09T15:43:26Z</time>
      </trkpt>
      <trkpt lat="45.4085" lon="6.65931">
        <ele>1731.4716796875</ele>
        <time>2011-07-09T15:43:29Z</time>
      </trkpt>
      <trkpt lat="45.40848" lon="6.65934">
        <ele>1731.4716796875</ele>
        <time>2011-07-09T15:43:30Z</time>
      </trkpt>
      <trkpt lat="45.40833" lon="6.65951">
        <ele>1731.9523925781</ele>
        <time>2011-07-09T15:43:37Z</time>
      </trkpt>
      <trkpt lat="45.40826" lon="6.65959">
        <ele>1732.4331054688</ele>
        <time>2011-07-09T15:43:41Z</time>
      </trkpt>
      <trkpt lat="45.40816" lon="6.65972">
        <ele>1732.9135742188</ele>
        <time>2011-07-09T15:43:48Z</time>
      </trkpt>
      <trkpt lat="45.40807" lon="6.65982">
        <ele>1732.9135742188</ele>
        <time>2011-07-09T15:43:55Z</time>
      </trkpt>
      <trkpt lat="45.40805" lon="6.65987">
        <ele>1732.4331054688</ele>
        <time>2011-07-09T15:44:01Z</time>
      </trkpt>
      <trkpt lat="45.40805" lon="6.65987">
        <ele>1733.3942871094</ele>
        <time>2011-07-09T15:44:16Z</time>
      </trkpt>
      <trkpt lat="45.408" lon="6.65993">
        <ele>1731.9523925781</ele>
        <time>2011-07-09T15:44:22Z</time>
      </trkpt>
      <trkpt lat="45.40791" lon="6.66006">
        <ele>1731.4716796875</ele>
        <time>2011-07-09T15:44:28Z</time>
      </trkpt>
      <trkpt lat="45.40784" lon="6.66023">
        <ele>1730.9912109375</ele>
        <time>2011-07-09T15:44:35Z</time>
      </trkpt>
      <trkpt lat="45.40782" lon="6.66033">
        <ele>1730.5104980469</ele>
        <time>2011-07-09T15:44:38Z</time>
      </trkpt>
      <trkpt lat="45.40786" lon="6.6604">
        <ele>1729.5490722656</ele>
        <time>2011-07-09T15:44:42Z</time>
      </trkpt>
      <trkpt lat="45.40801" lon="6.66042">
        <ele>1728.1071777344</ele>
        <time>2011-07-09T15:44:49Z</time>
      </trkpt>
      <trkpt lat="45.40813" lon="6.66043">
        <ele>1725.7038574219</ele>
        <time>2011-07-09T15:44:55Z</time>
      </trkpt>
      <trkpt lat="45.40826" lon="6.66045">
        <ele>1724.7426757812</ele>
        <time>2011-07-09T15:45:03Z</time>
      </trkpt>
      <trkpt lat="45.40835" lon="6.66052">
        <ele>1724.2619628906</ele>
        <time>2011-07-09T15:45:09Z</time>
      </trkpt>
      <trkpt lat="45.40838" lon="6.6605">
        <ele>1724.7426757812</ele>
        <time>2011-07-09T15:45:15Z</time>
      </trkpt>
      <trkpt lat="45.40841" lon="6.66052">
        <ele>1729.068359375</ele>
        <time>2011-07-09T15:45:37Z</time>
      </trkpt>
      <trkpt lat="45.40843" lon="6.6605">
        <ele>1729.5490722656</ele>
        <time>2011-07-09T15:45:51Z</time>
      </trkpt>
      <trkpt lat="45.40844" lon="6.66049">
        <ele>1730.0297851562</ele>
        <time>2011-07-09T15:45:52Z</time>
      </trkpt>
      <trkpt lat="45.40849" lon="6.66044">
        <ele>1730.0297851562</ele>
        <time>2011-07-09T15:45:56Z</time>
      </trkpt>
      <trkpt lat="45.40849" lon="6.66043">
        <ele>1730.9912109375</ele>
        <time>2011-07-09T15:46:07Z</time>
      </trkpt>
      <trkpt lat="45.40849" lon="6.66041">
        <ele>1732.9135742188</ele>
        <time>2011-07-09T15:46:16Z</time>
      </trkpt>
      <trkpt lat="45.40858" lon="6.66036">
        <ele>1730.9912109375</ele>
        <time>2011-07-09T15:46:22Z</time>
      </trkpt>
      <trkpt lat="45.40862" lon="6.66035">
        <ele>1730.9912109375</ele>
        <time>2011-07-09T15:46:23Z</time>
      </trkpt>
      <trkpt lat="45.40869" lon="6.66021">
        <ele>1730.5104980469</ele>
        <time>2011-07-09T15:46:27Z</time>
      </trkpt>
      <trkpt lat="45.40877" lon="6.65993">
        <ele>1728.587890625</ele>
        <time>2011-07-09T15:46:32Z</time>
      </trkpt>
      <trkpt lat="45.40889" lon="6.65966">
        <ele>1727.1459960938</ele>
        <time>2011-07-09T15:46:37Z</time>
      </trkpt>
      <trkpt lat="45.40899" lon="6.65951">
        <ele>1726.6652832031</ele>
        <time>2011-07-09T15:46:40Z</time>
      </trkpt>
      <trkpt lat="45.40929" lon="6.65924">
        <ele>1724.7426757812</ele>
        <time>2011-07-09T15:46:46Z</time>
      </trkpt>
      <trkpt lat="45.40971" lon="6.65903">
        <ele>1724.7426757812</ele>
        <time>2011-07-09T15:46:52Z</time>
      </trkpt>
      <trkpt lat="45.41" lon="6.65883">
        <ele>1722.8198242188</ele>
        <time>2011-07-09T15:46:56Z</time>
      </trkpt>
      <trkpt lat="45.41016" lon="6.65876">
        <ele>1721.3776855469</ele>
        <time>2011-07-09T15:46:58Z</time>
      </trkpt>
      <trkpt lat="45.41063" lon="6.65857">
        <ele>1716.5712890625</ele>
        <time>2011-07-09T15:47:04Z</time>
      </trkpt>
      <trkpt lat="45.41094" lon="6.65834">
        <ele>1717.0520019531</ele>
        <time>2011-07-09T15:47:08Z</time>
      </trkpt>
      <trkpt lat="45.41115" lon="6.658">
        <ele>1716.0905761719</ele>
        <time>2011-07-09T15:47:12Z</time>
      </trkpt>
      <trkpt lat="45.41117" lon="6.65793">
        <ele>1716.0905761719</ele>
        <time>2011-07-09T15:47:13Z</time>
      </trkpt>
      <trkpt lat="45.4113" lon="6.65787">
        <ele>1711.7648925781</ele>
        <time>2011-07-09T15:47:17Z</time>
      </trkpt>
      <trkpt lat="45.41133" lon="6.65799">
        <ele>1710.3227539062</ele>
        <time>2011-07-09T15:47:19Z</time>
      </trkpt>
      <trkpt lat="45.41125" lon="6.65822">
        <ele>1708.4001464844</ele>
        <time>2011-07-09T15:47:22Z</time>
      </trkpt>
      <trkpt lat="45.41116" lon="6.65833">
        <ele>1707.9194335938</ele>
        <time>2011-07-09T15:47:23Z</time>
      </trkpt>
      <trkpt lat="45.4108" lon="6.65877">
        <ele>1708.880859375</ele>
        <time>2011-07-09T15:47:29Z</time>
      </trkpt>
      <trkpt lat="45.41055" lon="6.65918">
        <ele>1706.9580078125</ele>
        <time>2011-07-09T15:47:34Z</time>
      </trkpt>
      <trkpt lat="45.4103" lon="6.65949">
        <ele>1704.07421875</ele>
        <time>2011-07-09T15:47:38Z</time>
      </trkpt>
      <trkpt lat="45.41027" lon="6.65974">
        <ele>1700.7094726562</ele>
        <time>2011-07-09T15:47:42Z</time>
      </trkpt>
      <trkpt lat="45.41035" lon="6.65983">
        <ele>1699.7482910156</ele>
        <time>2011-07-09T15:47:45Z</time>
      </trkpt>
      <trkpt lat="45.41044" lon="6.65978">
        <ele>1697.8256835938</ele>
        <time>2011-07-09T15:47:48Z</time>
      </trkpt>
      <trkpt lat="45.41066" lon="6.6595">
        <ele>1694.9416503906</ele>
        <time>2011-07-09T15:47:55Z</time>
      </trkpt>
      <trkpt lat="45.4108" lon="6.65926">
        <ele>1693.4997558594</ele>
        <time>2011-07-09T15:48:00Z</time>
      </trkpt>
      <trkpt lat="45.41095" lon="6.65912">
        <ele>1692.5385742188</ele>
        <time>2011-07-09T15:48:04Z</time>
      </trkpt>
      <trkpt lat="45.4113" lon="6.65894">
        <ele>1692.5385742188</ele>
        <time>2011-07-09T15:48:13Z</time>
      </trkpt>
      <trkpt lat="45.41138" lon="6.65889">
        <ele>1692.0578613281</ele>
        <time>2011-07-09T15:48:15Z</time>
      </trkpt>
      <trkpt lat="45.41165" lon="6.65876">
        <ele>1694.4609375</ele>
        <time>2011-07-09T15:48:21Z</time>
      </trkpt>
      <trkpt lat="45.41192" lon="6.65856">
        <ele>1696.8642578125</ele>
        <time>2011-07-09T15:48:27Z</time>
      </trkpt>
      <trkpt lat="45.41207" lon="6.65848">
        <ele>1697.3449707031</ele>
        <time>2011-07-09T15:48:30Z</time>
      </trkpt>
      <trkpt lat="45.41228" lon="6.65844">
        <ele>1695.9030761719</ele>
        <time>2011-07-09T15:48:34Z</time>
      </trkpt>
      <trkpt lat="45.41264" lon="6.65837">
        <ele>1693.0190429688</ele>
        <time>2011-07-09T15:48:40Z</time>
      </trkpt>
      <trkpt lat="45.41282" lon="6.65838">
        <ele>1691.5769042969</ele>
        <time>2011-07-09T15:48:43Z</time>
      </trkpt>
      <trkpt lat="45.41281" lon="6.65846">
        <ele>1689.654296875</ele>
        <time>2011-07-09T15:48:47Z</time>
      </trkpt>
      <trkpt lat="45.41256" lon="6.6585">
        <ele>1686.7702636719</ele>
        <time>2011-07-09T15:48:52Z</time>
      </trkpt>
      <trkpt lat="45.41229" lon="6.65864">
        <ele>1685.8090820312</ele>
        <time>2011-07-09T15:48:56Z</time>
      </trkpt>
      <trkpt lat="45.41224" lon="6.65869">
        <ele>1685.8090820312</ele>
        <time>2011-07-09T15:48:57Z</time>
      </trkpt>
      <trkpt lat="45.41198" lon="6.659">
        <ele>1681.9638671875</ele>
        <time>2011-07-09T15:49:01Z</time>
      </trkpt>
      <trkpt lat="45.41187" lon="6.65916">
        <ele>1681.0026855469</ele>
        <time>2011-07-09T15:49:03Z</time>
      </trkpt>
      <trkpt lat="45.41172" lon="6.6594">
        <ele>1681.4831542969</ele>
        <time>2011-07-09T15:49:06Z</time>
      </trkpt>
      <trkpt lat="45.41161" lon="6.65961">
        <ele>1684.3671875</ele>
        <time>2011-07-09T15:49:11Z</time>
      </trkpt>
      <trkpt lat="45.41159" lon="6.65965">
        <ele>1684.3671875</ele>
        <time>2011-07-09T15:49:12Z</time>
      </trkpt>
      <trkpt lat="45.41149" lon="6.66005">
        <ele>1683.8864746094</ele>
        <time>2011-07-09T15:49:19Z</time>
      </trkpt>
      <trkpt lat="45.41147" lon="6.66021">
        <ele>1682.9250488281</ele>
        <time>2011-07-09T15:49:21Z</time>
      </trkpt>
      <trkpt lat="45.4115" lon="6.6606">
        <ele>1680.0412597656</ele>
        <time>2011-07-09T15:49:25Z</time>
      </trkpt>
      <trkpt lat="45.4116" lon="6.66115">
        <ele>1673.7924804688</ele>
        <time>2011-07-09T15:49:32Z</time>
      </trkpt>
      <trkpt lat="45.41163" lon="6.66165">
        <ele>1669.466796875</ele>
        <time>2011-07-09T15:49:37Z</time>
      </trkpt>
      <trkpt lat="45.41164" lon="6.66201">
        <ele>1667.0634765625</ele>
        <time>2011-07-09T15:49:40Z</time>
      </trkpt>
      <trkpt lat="45.41156" lon="6.66233">
        <ele>1665.1408691406</ele>
        <time>2011-07-09T15:49:44Z</time>
      </trkpt>
      <trkpt lat="45.41159" lon="6.66243">
        <ele>1664.1794433594</ele>
        <time>2011-07-09T15:49:47Z</time>
      </trkpt>
      <trkpt lat="45.4116" lon="6.66249">
        <ele>1664.1794433594</ele>
        <time>2011-07-09T15:49:51Z</time>
      </trkpt>
      <trkpt lat="45.41159" lon="6.66247">
        <ele>1665.1408691406</ele>
        <time>2011-07-09T15:49:56Z</time>
      </trkpt>
      <trkpt lat="45.41147" lon="6.6624">
        <ele>1664.66015625</ele>
        <time>2011-07-09T15:50:01Z</time>
      </trkpt>
      <trkpt lat="45.41133" lon="6.66235">
        <ele>1663.6987304688</ele>
        <time>2011-07-09T15:50:04Z</time>
      </trkpt>
      <trkpt lat="45.41129" lon="6.66232">
        <ele>1663.6987304688</ele>
        <time>2011-07-09T15:50:05Z</time>
      </trkpt>
      <trkpt lat="45.41124" lon="6.66229">
        <ele>1663.6987304688</ele>
        <time>2011-07-09T15:50:06Z</time>
      </trkpt>
      <trkpt lat="45.41087" lon="6.6621">
        <ele>1664.66015625</ele>
        <time>2011-07-09T15:50:12Z</time>
      </trkpt>
      <trkpt lat="45.41041" lon="6.66193">
        <ele>1666.5827636719</ele>
        <time>2011-07-09T15:50:18Z</time>
      </trkpt>
      <trkpt lat="45.41015" lon="6.66189">
        <ele>1666.1020507812</ele>
        <time>2011-07-09T15:50:21Z</time>
      </trkpt>
      <trkpt lat="45.40997" lon="6.66187">
        <ele>1666.1020507812</ele>
        <time>2011-07-09T15:50:23Z</time>
      </trkpt>
      <trkpt lat="45.40953" lon="6.66209">
        <ele>1672.8312988281</ele>
        <time>2011-07-09T15:50:27Z</time>
      </trkpt>
      <trkpt lat="45.40931" lon="6.66228">
        <ele>1668.0246582031</ele>
        <time>2011-07-09T15:50:30Z</time>
      </trkpt>
      <trkpt lat="45.40924" lon="6.6627">
        <ele>1663.2182617188</ele>
        <time>2011-07-09T15:50:33Z</time>
      </trkpt>
      <trkpt lat="45.40906" lon="6.66333">
        <ele>1656.4887695312</ele>
        <time>2011-07-09T15:50:38Z</time>
      </trkpt>
      <trkpt lat="45.40857" lon="6.66391">
        <ele>1650.2404785156</ele>
        <time>2011-07-09T15:50:44Z</time>
      </trkpt>
      <trkpt lat="45.40815" lon="6.6644">
        <ele>1643.0302734375</ele>
        <time>2011-07-09T15:50:49Z</time>
      </trkpt>
      <trkpt lat="45.40783" lon="6.66483">
        <ele>1638.2238769531</ele>
        <time>2011-07-09T15:50:53Z</time>
      </trkpt>
      <trkpt lat="45.40739" lon="6.66537">
        <ele>1631.9753417969</ele>
        <time>2011-07-09T15:50:58Z</time>
      </trkpt>
      <trkpt lat="45.40717" lon="6.66564">
        <ele>1628.6108398438</ele>
        <time>2011-07-09T15:51:01Z</time>
      </trkpt>
      <trkpt lat="45.40714" lon="6.66589">
        <ele>1625.2458496094</ele>
        <time>2011-07-09T15:51:05Z</time>
      </trkpt>
      <trkpt lat="45.40728" lon="6.66581">
        <ele>1623.8039550781</ele>
        <time>2011-07-09T15:51:07Z</time>
      </trkpt>
      <trkpt lat="45.40768" lon="6.66535">
        <ele>1618.9975585938</ele>
        <time>2011-07-09T15:51:13Z</time>
      </trkpt>
      <trkpt lat="45.40814" lon="6.66504">
        <ele>1615.15234375</ele>
        <time>2011-07-09T15:51:18Z</time>
      </trkpt>
      <trkpt lat="45.40873" lon="6.66473">
        <ele>1609.3842773438</ele>
        <time>2011-07-09T15:51:24Z</time>
      </trkpt>
      <trkpt lat="45.4092" lon="6.66439">
        <ele>1606.5002441406</ele>
        <time>2011-07-09T15:51:29Z</time>
      </trkpt>
      <trkpt lat="45.40951" lon="6.664">
        <ele>1604.5776367188</ele>
        <time>2011-07-09T15:51:33Z</time>
      </trkpt>
      <trkpt lat="45.40965" lon="6.66377">
        <ele>1603.6164550781</ele>
        <time>2011-07-09T15:51:35Z</time>
      </trkpt>
      <trkpt lat="45.40981" lon="6.6634">
        <ele>1602.6550292969</ele>
        <time>2011-07-09T15:51:38Z</time>
      </trkpt>
      <trkpt lat="45.41" lon="6.66312">
        <ele>1601.2131347656</ele>
        <time>2011-07-09T15:51:42Z</time>
      </trkpt>
      <trkpt lat="45.41006" lon="6.66312">
        <ele>1600.251953125</ele>
        <time>2011-07-09T15:51:45Z</time>
      </trkpt>
      <trkpt lat="45.41007" lon="6.66313">
        <ele>1600.251953125</ele>
        <time>2011-07-09T15:51:46Z</time>
      </trkpt>
      <trkpt lat="45.41012" lon="6.66325">
        <ele>1600.732421875</ele>
        <time>2011-07-09T15:51:52Z</time>
      </trkpt>
      <trkpt lat="45.41012" lon="6.66333">
        <ele>1601.6938476562</ele>
        <time>2011-07-09T15:51:56Z</time>
      </trkpt>
      <trkpt lat="45.41004" lon="6.66341">
        <ele>1602.6550292969</ele>
        <time>2011-07-09T15:52:04Z</time>
      </trkpt>
      <trkpt lat="45.40992" lon="6.66352">
        <ele>1601.2131347656</ele>
        <time>2011-07-09T15:52:09Z</time>
      </trkpt>
      <trkpt lat="45.4098" lon="6.66376">
        <ele>1602.1743164062</ele>
        <time>2011-07-09T15:52:13Z</time>
      </trkpt>
      <trkpt lat="45.40962" lon="6.6642">
        <ele>1600.251953125</ele>
        <time>2011-07-09T15:52:18Z</time>
      </trkpt>
      <trkpt lat="45.40937" lon="6.66465">
        <ele>1595.4450683594</ele>
        <time>2011-07-09T15:52:23Z</time>
      </trkpt>
      <trkpt lat="45.40899" lon="6.6651">
        <ele>1590.1579589844</ele>
        <time>2011-07-09T15:52:28Z</time>
      </trkpt>
      <trkpt lat="45.40854" lon="6.66558">
        <ele>1586.7932128906</ele>
        <time>2011-07-09T15:52:33Z</time>
      </trkpt>
      <trkpt lat="45.40825" lon="6.66594">
        <ele>1581.5061035156</ele>
        <time>2011-07-09T15:52:37Z</time>
      </trkpt>
      <trkpt lat="45.40784" lon="6.66659">
        <ele>1569.0090332031</ele>
        <time>2011-07-09T15:52:43Z</time>
      </trkpt>
      <trkpt lat="45.40771" lon="6.66687">
        <ele>1565.64453125</ele>
        <time>2011-07-09T15:52:45Z</time>
      </trkpt>
      <trkpt lat="45.40757" lon="6.6673">
        <ele>1566.125</ele>
        <time>2011-07-09T15:52:48Z</time>
      </trkpt>
      <trkpt lat="45.40751" lon="6.66771">
        <ele>1565.1638183594</ele>
        <time>2011-07-09T15:52:52Z</time>
      </trkpt>
      <trkpt lat="45.40752" lon="6.66783">
        <ele>1563.7214355469</ele>
        <time>2011-07-09T15:52:54Z</time>
      </trkpt>
      <trkpt lat="45.40757" lon="6.66799">
        <ele>1561.318359375</ele>
        <time>2011-07-09T15:52:59Z</time>
      </trkpt>
      <trkpt lat="45.40757" lon="6.668">
        <ele>1562.2795410156</ele>
        <time>2011-07-09T15:53:03Z</time>
      </trkpt>
      <trkpt lat="45.40759" lon="6.668">
        <ele>1558.9150390625</ele>
        <time>2011-07-09T15:53:13Z</time>
      </trkpt>
    </trkseg>
  </trk>
</gpx>